Ship Status Report: callsign 000000

sailwx.info

Track history (hours):
 
Tides and Currents Weather Stations Pressure Air Temp Water Temp Dewpoint Dewpoint Depression Visibility Wind Speed Wind Dir Waves Ship Positions

Callsign 000000 (name unknown)

Last reported at 2016-Dec-07 19:33 UTC. Time now 2016-Dec-07 20:22 UTC.
Position N 31°31' E 121°23'.

Type: Fishing. MMSI: 200007452.

Date/timePositionNaut miles runAvg speedWind from/ knotsBaromVisibWave heightAir tempDewpointWater temp
2016-Dec-07 19:33N 31°31' E 121°23'142245.9
2016-Dec-07 19:33N 31°40' E 121°12'11099348.3
2016-Dec-07 19:33N 29°57' E 121°58'8921448.7
2016-Dec-07 19:33N 31°24' E 121°31'480431724.8
2016-Dec-07 19:33N 23°59' E 118°08'481576782.5
2016-Dec-07 19:32N 31°26' E 121°29'194840.2
2016-Dec-07 19:32N 31°40' E 121°14'22621.5
2016-Dec-07 19:30N 31°21' E 121°27'147.5
2016-Dec-07 19:29N 31°22' E 121°28'018.4
2016-Dec-07 19:28N 31°22' E 121°29'358.4
2016-Dec-07 19:25N 31°21' E 121°32'65640057.2
2016-Dec-07 19:24N 23°04' E 113°29'6586653.5
2016-Dec-07 19:18N 31°26' E 121°28'1621.2
2016-Dec-07 18:33N 31°37' E 121°16'5944.2
2016-Dec-07 18:33N 31°33' E 121°19'145690.1
2016-Dec-07 18:33N 31°23' E 121°30'657139058.2
2016-Dec-07 18:33N 23°04' E 113°29'65475994.1
2016-Dec-07 18:32N 31°21' E 121°27'141.9
2016-Dec-07 18:31N 31°22' E 121°28'62200.2
2016-Dec-07 18:31N 31°28' E 121°27'481288866.4
2016-Dec-07 18:30N 23°59' E 118°10'48075126.2
2016-Dec-07 18:30N 31°26' E 121°29'490.7
2016-Dec-07 18:28N 31°22' E 121°29'22148.6
2016-Dec-07 18:19N 31°40' E 121°14'25379.3
2016-Dec-07 18:15N 31°20' E 121°33'2 3.1
2016-Dec-07 17:33N 31°21' E 121°30'133517.1
2016-Dec-07 17:33N 31°31' E 121°21'3775.6
2016-Dec-07 17:33N 31°34' E 121°19'114078.5
2016-Dec-07 17:33N 31°26' E 121°29'658338486.9
2016-Dec-07 17:33N 23°04' E 113°29'26220082.6
2016-Dec-07 17:32N 23°60' E 118°08'48733068.5
2016-Dec-07 17:31N 31°38' E 121°15'20774.4
2016-Dec-07 17:29N 31°22' E 121°28'013.5
2016-Dec-07 17:28N 31°22' E 121°29'223540.0
2016-Dec-07 17:27N 31°40' E 121°14'19255.2
2016-Dec-07 17:23N 31°26' E 121°29'5210.8
2016-Dec-07 17:22N 31°21' E 121°27'32175.4
2016-Dec-07 17:11N 31°46' E 121°04'41733.1
2016-Dec-07 17:07N 31°57' E 120°17'69121.1
2016-Dec-07 16:33N 31°26' E 121°29'41037.5
2016-Dec-07 16:33N 31°21' E 121°27'1011969.0
2016-Dec-07 16:33N 31°31' E 121°24'659113047.3
2016-Dec-07 16:33N 23°04' E 113°29'66057949.4
2016-Dec-07 16:32N 31°45' E 121°06'9394.3
2016-Dec-07 16:31N 31°40' E 121°14'2238923.5
2016-Dec-07 16:31N 31°24' E 121°31'3156.5
2016-Dec-07 16:29N 31°26' E 121°28'23651.0
2016-Dec-07 16:27N 31°42' E 121°09'26607.1
2016-Dec-07 16:25N 31°22' E 121°29'31201.3
2016-Dec-07 16:25N 31°25' E 121°30'4485.4
2016-Dec-07 16:24N 31°22' E 121°28'191169.2
2016-Dec-07 16:23N 31°37' E 121°15'1037.0
2016-Dec-07 16:07N 31°30' E 121°23'426748.9
2016-Dec-07 15:33N 24°45' E 118°54'433111341.0
2016-Dec-07 15:33N 31°41' E 121°10'659113043.8
2016-Dec-07 15:33N 23°04' E 113°29'6581184830.4
2016-Dec-07 15:33N 31°32' E 121°20'101017.7
2016-Dec-07 15:32N 31°26' E 121°29'0 7.8
2016-Dec-07 15:30N 31°26' E 121°28'48026173.2
2016-Dec-07 15:29N 23°60' E 118°09'489135540.6
2016-Dec-07 15:28N 31°42' E 121°09'203242.2
2016-Dec-07 15:28N 31°28' E 121°25'7311.4
2016-Dec-07 15:27N 31°21' E 121°27'221412.9
2016-Dec-07 15:26N 31°40' E 121°14'11125.3
2016-Dec-07 15:21N 31°45' E 121°03'32306.9
2016-Dec-07 15:14N 31°22' E 121°28'4122803.7
2016-Dec-07 15:06N 24°53' E 118°55'43014456.9
2016-Dec-07 15:04N 31°56' E 120°16'70138.1
2016-Dec-07 14:33N 31°22' E 121°28'413495749.6
2016-Dec-07 14:33N 24°50' E 118°59'417300354.5
2016-Dec-07 14:33N 31°26' E 121°29'65869688.0
2016-Dec-07 14:33N 23°04' E 113°29'3179931.6
2016-Dec-07 14:31N 24°53' E 118°55'41164372.7
2016-Dec-07 14:30N 31°21' E 121°27'4260.3
2016-Dec-07 14:29N 31°26' E 121°28'44385.5
2016-Dec-07 14:29N 31°28' E 121°25'16288.8
2016-Dec-07 14:26N 31°40' E 121°13'4888253.2
2016-Dec-07 14:22N 23°60' E 118°09'476428736.9
2016-Dec-07 14:22N 31°22' E 121°28'2274.0
2016-Dec-07 14:05N 31°40' E 121°14'2241.2
2016-Dec-07 13:33N 31°22' E 121°28'46798.0
2016-Dec-07 13:33N 31°26' E 121°29'191234.0
2016-Dec-07 13:32N 31°40' E 121°14'21940.8
2016-Dec-07 13:32N 31°40' E 121°11'17930.3
2016-Dec-07 13:31N 31°28' E 121°25'41753633.7
2016-Dec-07 13:31N 24°53' E 118°55'41524519.8
2016-Dec-07 13:30N 31°26' E 121°28'19654.3
2016-Dec-07 13:28N 31°39' E 121°13'221936.7
2016-Dec-07 13:27N 31°22' E 121°28'2217.8
2016-Dec-07 12:15N 31°39' E 121°13'1520.7
2016-Dec-07 11:31N 31°28' E 121°25'153178.3
2016-Dec-07 11:31N 31°40' E 121°14'1958.5
2016-Dec-07 11:11N 31°26' E 121°29'4679.8
2016-Dec-07 11:11N 31°22' E 121°28'177.9
2016-Dec-07 11:10N 31°21' E 121°27'031.0
2016-Dec-07 11:10N 31°22' E 121°28'6552356912.1
2016-Dec-07 11:10N 23°04' E 113°29'95726110.4
2016-Dec-07 11:07N 36°55' E 122°38'32310102.7
2016-Dec-07 11:05N 31°41' E 121°11'2115271.6
2016-Dec-07 11:05N 31°26' E 121°28'2851.9
2016-Dec-07 10:33N 31°45' E 121°05'32532453.7
2016-Dec-07 10:33N 36°59' E 122°41'34338558.0
2016-Dec-07 10:32N 31°22' E 121°28'47625225.6
2016-Dec-07 10:31N 23°60' E 118°08'47149863.3
2016-Dec-07 10:31N 31°15' E 121°31'7964.4
2016-Dec-07 10:30N 31°22' E 121°28'4309.5
2016-Dec-07 10:29N 31°26' E 121°28'092.2
2016-Dec-07 10:29N 31°26' E 121°29'19580.4
2016-Dec-07 10:27N 31°40' E 121°14'221128.2
2016-Dec-07 10:26N 31°21' E 121°27'74256.5
2016-Dec-07 10:26N 31°28' E 121°25'65816230.7
2016-Dec-07 10:24N 23°04' E 113°29'652778.5
2016-Dec-07 09:33N 31°15' E 121°31'65293827.2
2016-Dec-07 09:33N 23°04' E 113°29'66041712.5
2016-Dec-07 09:32N 31°40' E 121°14'151319.1
2016-Dec-07 09:31N 31°28' E 121°25'221509.9
2016-Dec-07 09:30N 31°43' E 121°07'667109148.8
2016-Dec-07 09:30N 22°53' E 113°32'66336711.1
2016-Dec-07 09:29N 31°22' E 121°28'471.4
2016-Dec-07 09:26N 31°26' E 121°29'48029790.4
2016-Dec-07 09:25N 23°60' E 118°08'4905527.5
2016-Dec-07 09:20N 31°43' E 121°06'45314.0
2016-Dec-07 09:11N 31°56' E 120°16'71113.1
2016-Dec-07 08:33N 31°22' E 121°29'656157453.7
2016-Dec-07 08:33N 23°04' E 113°29'0149.8
2016-Dec-07 08:33N 23°04' E 113°29'655130974.1
2016-Dec-07 08:33N 31°22' E 121°28'9496.1
2016-Dec-07 08:32N 31°13' E 121°30'135634.2
2016-Dec-07 08:31N 31°26' E 121°29'202720.2
2016-Dec-07 08:31N 31°40' E 121°13'48858605.6
2016-Dec-07 08:30N 23°60' E 118°08'47143468.5
2016-Dec-07 08:30N 31°15' E 121°31'7147.6
2016-Dec-07 08:27N 31°21' E 121°28'196674.3
2016-Dec-07 08:27N 31°38' E 121°18'4146.9
2016-Dec-07 08:25N 31°40' E 121°14'1073007.3
2016-Dec-07 08:23N 29°58' E 121°53'93587.5
2016-Dec-07 08:14N 31°28' E 121°25'6 9.5
2016-Dec-07 07:33N 31°25' E 121°32'88105968.6
2016-Dec-07 07:33N 29°59' E 121°53'798568.9
2016-Dec-07 07:33N 31°15' E 121°32'92705.0
2016-Dec-07 07:32N 31°24' E 121°31'152449.9
2016-Dec-07 07:32N 31°35' E 121°19'35932.2
2016-Dec-07 07:32N 31°38' E 121°18'4560.2
2016-Dec-07 07:32N 31°40' E 121°13'291368.3
2016-Dec-07 07:30N 31°15' E 121°31'144568.6
2016-Dec-07 07:30N 31°28' E 121°25'4633.6
2016-Dec-07 07:30N 31°26' E 121°29'121876.2
2016-Dec-07 07:29N 31°14' E 121°30'6508765.8
2016-Dec-07 07:25N 23°04' E 113°29'013.1
2016-Dec-07 07:24N 23°04' E 113°29'660396276.9
2016-Dec-07 07:24N 31°40' E 121°14'48813122.3
2016-Dec-07 07:22N 23°60' E 118°08'476244648.1
2016-Dec-07 07:22N 31°21' E 121°28'7087.5
2016-Dec-07 06:33N 31°56' E 120°16'699548.1
2016-Dec-07 06:33N 31°26' E 121°29'830480.2
2016-Dec-07 06:33N 31°18' E 121°33'656786672.6
2016-Dec-07 06:33N 23°04' E 113°29'056.6
2016-Dec-07 06:33N 23°04' E 113°29'660792566.4
2016-Dec-07 06:33N 31°40' E 121°14'46823.7
2016-Dec-07 06:33N 31°38' E 121°18'66135018.6
2016-Dec-07 06:32N 23°03' E 113°30'660237513.5
2016-Dec-07 06:31N 31°31' E 121°25'82703.2
2016-Dec-07 06:31N 31°25' E 121°32'384.8
2016-Dec-07 06:29N 31°26' E 121°28'48131491.1
2016-Dec-07 06:28N 23°59' E 118°08'41429810.6
2016-Dec-07 06:27N 29°58' E 121°57'963982.5
2016-Dec-07 06:26N 31°30' E 121°22'9792.3
2016-Dec-07 06:25N 31°21' E 121°28'773.2
2016-Dec-07 06:19N 31°15' E 121°31'142512.8
2016-Dec-07 06:19N 31°28' E 121°25'6229.7
2016-Dec-07 06:17N 31°24' E 121°31'8465.5
2016-Dec-07 06:16N 31°17' E 121°34'4 5.9
2016-Dec-07 05:33N 31°21' E 121°32'91328385.6
2016-Dec-07 05:33N 29°55' E 122°08'9528383.6
2016-Dec-07 05:32N 31°24' E 121°31'48169260.0
2016-Dec-07 05:32N 23°58' E 118°07'48291253.1
2016-Dec-07 05:32N 31°26' E 121°29'65865813.5
2016-Dec-07 05:31N 23°04' E 113°29'66059363.8
2016-Dec-07 05:30N 31°25' E 121°32'2187.3
2016-Dec-07 05:30N 31°25' E 121°29'161088.2
2016-Dec-07 05:29N 31°38' E 121°18'182211.1
2016-Dec-07 05:28N 31°21' E 121°28'7891.6
2016-Dec-07 05:28N 31°15' E 121°31'651586242.5
2016-Dec-07 05:28N 23°04' E 113°30'65860743.2
2016-Dec-07 05:27N 31°28' E 121°25'15579.4
2016-Dec-07 05:26N 31°40' E 121°14'191880.9
2016-Dec-07 05:25N 31°26' E 121°30'65941643.7
2016-Dec-07 05:24N 23°04' E 113°29'66029323.1
2016-Dec-07 05:23N 31°23' E 121°35'11345247.7
2016-Dec-07 05:22N 29°37' E 122°23'1377930.6
2016-Dec-07 05:21N 31°40' E 121°13'54217.5
2016-Dec-07 05:07N 31°57' E 120°13'171308.9
2016-Dec-07 04:33N 29°44' E 122°20'10724124.1
2016-Dec-07 04:33N 31°21' E 121°28'23901.1
2016-Dec-07 04:33N 31°22' E 121°30'0201.4
2016-Dec-07 04:33N 31°22' E 121°30'0179.1
2016-Dec-07 04:33N 31°22' E 121°30'191.2
2016-Dec-07 04:32N 31°21' E 121°30'47749048.4
2016-Dec-07 04:32N 23°58' E 118°11'49146549.5
2016-Dec-07 04:31N 31°57' E 120°16'644136306.8
2016-Dec-07 04:31N 23°04' E 113°30'65119541.4
2016-Dec-07 04:29N 31°15' E 121°31'141013.5
2016-Dec-07 04:28N 31°28' E 121°26'10816864.4
2016-Dec-07 04:28N 29°45' E 122°03'1054384.2
2016-Dec-07 04:26N 31°26' E 121°29'194673.2
2016-Dec-07 04:26N 31°40' E 121°13'66060935.1
2016-Dec-07 04:25N 23°04' E 113°29'66043230.9
2016-Dec-07 04:24N 31°40' E 121°14'151056.8
2016-Dec-07 04:23N 31°28' E 121°25'64456.4
2016-Dec-07 04:15N 31°57' E 120°18'6457583.2
2016-Dec-07 04:10N 23°04' E 113°29'6111006.4
2016-Dec-07 03:33N 29°42' E 122°07'9927281.1
2016-Dec-07 03:33N 31°15' E 121°31'7746482.4
2016-Dec-07 03:33N 31°56' E 120°13'641192347.5
2016-Dec-07 03:33N 23°04' E 113°29'660594125.3
2016-Dec-07 03:33N 31°40' E 121°13'1910016.2
2016-Dec-07 03:33N 31°26' E 121°29'7653.1
2016-Dec-07 03:32N 31°22' E 121°35'973519.7
2016-Dec-07 03:31N 29°51' E 122°13'11010677.4
2016-Dec-07 03:30N 31°31' E 121°21'48396685.0
2016-Dec-07 03:30N 23°58' E 118°10'48988034.6
2016-Dec-07 03:29N 31°40' E 121°14'221396.1
2016-Dec-07 03:28N 31°22' E 121°30'65684347.5
2016-Dec-07 03:28N 23°04' E 113°30'31814495.6
2016-Dec-07 03:27N 24°53' E 118°57'319382201.3
2016-Dec-07 03:26N 23°04' E 113°29'65436247.4
2016-Dec-07 03:25N 31°21' E 121°28'7793.3
2016-Dec-07 03:25N 31°28' E 121°25'7433.8
2016-Dec-07 03:24N 31°24' E 121°32'4224.0
2016-Dec-07 03:23N 31°20' E 121°33'5 6.1
2016-Dec-07 02:33N 31°25' E 121°32'10512646.8
2016-Dec-07 02:33N 29°43' E 122°03'402180812.3
2016-Dec-07 02:33N 23°59' E 118°11'481432853.3
2016-Dec-07 02:33N 31°26' E 121°29'52154.7
2016-Dec-07 02:32N 31°22' E 121°30'1113.2
2016-Dec-07 02:32N 31°22' E 121°29'656168640.9
2016-Dec-07 02:32N 23°04' E 113°29'65851509.3
2016-Dec-07 02:31N 31°26' E 121°29'5698.4
2016-Dec-07 02:31N 31°21' E 121°32'251332.4
2016-Dec-07 02:29N 31°40' E 121°13'161187.7
2016-Dec-07 02:29N 31°28' E 121°25'142512.8
2016-Dec-07 02:28N 31°15' E 121°31'3524.2
2016-Dec-07 02:28N 31°17' E 121°34'2442857.6
2016-Dec-07 02:28N 31°36' E 121°17'5450.3
2016-Dec-07 02:27N 31°40' E 121°14'6603761.2
2016-Dec-07 02:17N 23°04' E 113°30'1 5.5
2016-Dec-07 02:09N 23°04' E 113°29'6171036.3
2016-Dec-07 01:33N 29°51' E 122°07'10040114.0
2016-Dec-07 01:33N 31°26' E 121°29'51928.2
2016-Dec-07 01:33N 31°21' E 121°32'241646.3
2016-Dec-07 01:32N 31°39' E 121°13'214409.5
2016-Dec-07 01:32N 31°25' E 121°31'10388.6
2016-Dec-07 01:30N 31°15' E 121°31'1553822.0
2016-Dec-07 01:30N 31°29' E 121°25'1416794.6
2016-Dec-07 01:30N 31°40' E 121°14'48925890.4
2016-Dec-07 01:29N 23°59' E 118°09'480143986.9
2016-Dec-07 01:29N 31°24' E 121°31'22931.2
2016-Dec-07 01:27N 31°40' E 121°13'66033941.3
2016-Dec-07 01:26N 23°04' E 113°30'658592250.0
2016-Dec-07 01:26N 31°28' E 121°25'11319.9
2016-Dec-07 01:24N 31°19' E 121°33'6566967.3
2016-Dec-07 01:18N 23°04' E 113°29'0 1.8
2016-Dec-07 01:12N 23°04' E 113°29'0 0.3
2016-Dec-07 00:33N 23°04' E 113°29'6502341767.9
2016-Dec-07 00:33N 31°15' E 121°29'8311535.3
2016-Dec-07 00:33N 29°56' E 122°01'6162217496.0
2016-Dec-07 00:33N 23°04' E 113°29'41153.1
2016-Dec-07 00:33N 23°01' E 113°31'65787583.1
2016-Dec-07 00:32N 31°22' E 121°29'267247.3
2016-Dec-07 00:32N 31°42' E 121°09'264028.3
2016-Dec-07 00:32N 31°24' E 121°31'2117.9
2016-Dec-07 00:31N 31°26' E 121°29'480123402.2
2016-Dec-07 00:30N 23°59' E 118°11'47781692.1
2016-Dec-07 00:30N 31°21' E 121°32'6301.2
2016-Dec-07 00:29N 31°15' E 121°31'11197.3
2016-Dec-07 00:26N 31°26' E 121°28'441.5
2016-Dec-07 00:20N 31°28' E 121°25'16149.4
2016-Dec-07 00:14N 31°40' E 121°13'1928.7
2016-Dec-06 23:33N 31°26' E 121°29'113181.1
2016-Dec-06 23:33N 31°15' E 121°31'652234573.3
2016-Dec-06 23:33N 23°04' E 113°29'659148345.4
2016-Dec-06 23:33N 31°44' E 121°06'292589.8
2016-Dec-06 23:32N 31°24' E 121°31'3313.1
2016-Dec-06 23:31N 31°21' E 121°32'691.0
2016-Dec-06 23:28N 31°26' E 121°28'892025.0
2016-Dec-06 23:25N 29°58' E 121°49'4099151.7
2016-Dec-06 23:22N 23°59' E 118°08'4893005.9
2016-Dec-06 23:13N 31°40' E 121°14'15550.6
2016-Dec-06 23:11N 31°28' E 121°25'65825208.9
2016-Dec-06 23:09N 23°04' E 113°29'6581100.0
2016-Dec-06 22:33N 31°26' E 121°29'658103020.8
2016-Dec-06 22:33N 23°04' E 113°29'264475106.9
2016-Dec-06 22:33N 23°59' E 118°11'48912387.8
2016-Dec-06 22:31N 31°40' E 121°13'29921.1
2016-Dec-06 22:29N 31°15' E 121°31'282846.5
2016-Dec-06 22:28N 31°40' E 121°14'131893.7
2016-Dec-06 22:28N 31°30' E 121°24'211934.2
2016-Dec-06 22:27N 31°47' E 121°10'23351.5
2016-Dec-06 22:23N 31°28' E 121°25'9251.3
2016-Dec-06 22:21N 31°21' E 121°32'663.5
2016-Dec-06 22:16N 31°26' E 121°28'243621.9
2016-Dec-06 22:15N 31°43' E 121°08'2434.9
2016-Dec-06 21:33N 31°26' E 121°29'658296192.0
2016-Dec-06 21:33N 23°04' E 113°29'66051691.2
2016-Dec-06 21:32N 31°40' E 121°14'28716.6
2016-Dec-06 21:30N 31°15' E 121°31'16323.9
2016-Dec-06 21:27N 31°30' E 121°24'48315512.6
2016-Dec-06 21:25N 23°59' E 118°10'2647493.9
2016-Dec-06 21:23N 22°53' E 113°31'66511298.8
2016-Dec-06 21:19N 31°26' E 121°28'68509.5
2016-Dec-06 21:11N 31°57' E 120°18'68107.7
2016-Dec-06 20:33N 31°26' E 121°29'3257543.6
2016-Dec-06 20:33N 31°47' E 121°01'65979021.3
2016-Dec-06 20:33N 23°04' E 113°29'65257212.8
2016-Dec-06 20:32N 31°15' E 121°31'65260146.1
2016-Dec-06 20:32N 23°04' E 113°29'658124664.8
2016-Dec-06 20:31N 31°26' E 121°28'4506.0
2016-Dec-06 20:31N 31°28' E 121°25'6614923.0
2016-Dec-06 20:31N 31°56' E 120°14'658321.6
2016-Dec-06 20:30N 31°30' E 121°24'13330.8
2016-Dec-06 20:28N 31°40' E 121°14'30663.5
2016-Dec-06 20:25N 31°13' E 121°30'4666098.2
2016-Dec-06 20:20N 24°03' E 118°09'39716995.4
2016-Dec-06 20:19N 29°39' E 122°04'12913224.3
2016-Dec-06 20:18N 31°40' E 121°13'1 0.7
2016-Dec-06 18:33N 31°40' E 121°12'471282376.8
2016-Dec-06 18:33N 24°19' E 118°09'47199637.6
2016-Dec-06 18:33N 31°40' E 121°14'6601188839.0
2016-Dec-06 18:33N 23°04' E 113°29'66025281.4
2016-Dec-06 18:31N 31°40' E 121°13'192337.1
2016-Dec-06 18:31N 31°26' E 121°29'376499629.2
2016-Dec-06 18:29S 23°50' E 151°15'3613194107.6
2016-Dec-06 18:28N 23°04' E 113°29'65816335.4
2016-Dec-06 18:25N 31°26' E 121°28'419.1
2016-Dec-06 18:14N 31°28' E 121°25'14306.4
2016-Dec-06 18:11N 31°15' E 121°31'7810456.9
2016-Dec-06 18:10N 29°58' E 121°49'104167.3
2016-Dec-06 17:33N 31°38' E 121°15'46911726.1
2016-Dec-06 17:31N 24°19' E 118°07'39667889.8
2016-Dec-06 17:31N 29°58' E 121°57'10812191.3
2016-Dec-06 17:30N 31°40' E 121°13'151856.5
2016-Dec-06 17:29N 31°28' E 121°25'712555.1
2016-Dec-06 17:29N 31°24' E 121°32'376.5
2016-Dec-06 17:27N 31°26' E 121°29'59213.5
2016-Dec-06 17:27N 31°21' E 121°31'5160.6
2016-Dec-06 17:25N 31°26' E 121°28'191559.0
2016-Dec-06 17:24N 31°40' E 121°14'66049535.4
2016-Dec-06 17:24N 23°04' E 113°29'0 5.1
2016-Dec-06 17:21N 23°04' E 113°29'65614316.0
2016-Dec-06 17:18N 31°21' E 121°31'2901338.3
2016-Dec-06 17:05N 26°47' E 119°43'227428.1
2016-Dec-06 16:34N 29°54' E 122°08'11014641.1
2016-Dec-06 16:33N 31°35' E 121°18'162698.9
2016-Dec-06 16:33N 31°45' E 121°03'325247.1
2016-Dec-06 16:32N 31°23' E 121°31'014.1
2016-Dec-06 16:32N 31°23' E 121°30'31546.6
2016-Dec-06 16:32N 31°26' E 121°29'191798.2
2016-Dec-06 16:31N 31°40' E 121°13'19298.5
2016-Dec-06 16:27N 31°26' E 121°28'7173.7
2016-Dec-06 16:25N 31°30' E 121°23'2242.0
2016-Dec-06 16:24N 31°29' E 121°25'659124816.2
2016-Dec-06 16:24N 23°04' E 113°29'0381.2
2016-Dec-06 16:24N 23°04' E 113°29'6603195.9
2016-Dec-06 16:12N 31°40' E 121°14'30336396.5
2016-Dec-06 16:11N 26°47' E 119°43'294469.5
2016-Dec-06 15:33N 31°27' E 121°28'10738385.9
2016-Dec-06 15:33N 29°44' E 122°03'114411251.2
2016-Dec-06 15:33N 31°32' E 121°20'104494.4
2016-Dec-06 15:33N 31°26' E 121°29'916139.9
2016-Dec-06 15:33N 31°32' E 121°22'659395410.8
2016-Dec-06 15:33N 23°04' E 113°29'40630414.7
2016-Dec-06 15:32N 26°47' E 119°43'2961067103.8
2016-Dec-06 15:32N 31°30' E 121°22'12913.0
2016-Dec-06 15:31N 31°40' E 121°13'18348.0
2016-Dec-06 15:28N 31°27' E 121°28'17196.8
2016-Dec-06 15:23N 31°40' E 121°14'378381551.7
2016-Dec-06 15:20S 23°50' E 151°15'38283445149.8
2016-Dec-06 15:20N 31°57' E 120°11'63407.9
2016-Dec-06 15:11N 31°07' E 120°55'6256636.8
2016-Dec-06 15:05N 23°04' E 113°29'65816113.0
2016-Dec-06 15:03N 31°26' E 121°28'510.1
2016-Dec-06 14:33N 31°30' E 121°26'11437366.3
2016-Dec-06 14:33N 29°41' E 122°06'122109796.1
2016-Dec-06 14:33N 31°36' E 121°17'5628622.8
2016-Dec-06 14:33N 31°57' E 120°16'624885.6
2016-Dec-06 14:32N 31°30' E 121°23'72279.4
2016-Dec-06 14:32N 31°26' E 121°29'2946730.6
2016-Dec-06 14:29N 26°47' E 119°43'296106597.3
2016-Dec-06 14:29N 31°29' E 121°25'5134.6
2016-Dec-06 14:27N 31°26' E 121°28'194597.3
2016-Dec-06 14:26N 31°40' E 121°13'174.0
2016-Dec-06 14:26N 31°40' E 121°14'37638.1
2016-Dec-06 14:22N 31°05' E 120°60'62625910.8
2016-Dec-06 14:21N 23°04' E 113°29'016.2
2016-Dec-06 14:20N 23°04' E 113°29'6528173.0
2016-Dec-06 14:15N 31°15' E 121°31'1217.6
2016-Dec-06 13:33N 31°27' E 121°29'11149875.7
2016-Dec-06 13:33N 29°41' E 122°06'109392850.5
2016-Dec-06 13:33N 31°26' E 121°29'1916967.1
2016-Dec-06 13:33N 31°39' E 121°13'659237408.2
2016-Dec-06 13:33N 23°04' E 113°29'65960801.1
2016-Dec-06 13:32N 31°34' E 121°18'7545.9
2016-Dec-06 13:32N 31°29' E 121°25'5298.6
2016-Dec-06 13:31N 31°26' E 121°28'11943.0
2016-Dec-06 13:30N 31°15' E 121°31'28359.2
2016-Dec-06 13:25N 31°40' E 121°14'120.0
2016-Dec-06 13:23N 31°40' E 121°13'3031214.6
2016-Dec-06 13:08N 26°47' E 119°43'35773219727.8
2016-Dec-06 13:08S 23°50' E 151°15'37636465.9
2016-Dec-06 12:33N 31°25' E 121°30'2167.3
2016-Dec-06 12:32N 31°24' E 121°32'92467.1
2016-Dec-06 12:32N 31°15' E 121°31'324461.5
2016-Dec-06 12:32N 31°42' E 121°09'18627.2
2016-Dec-06 12:30N 31°29' E 121°25'11421577.1
2016-Dec-06 12:30N 29°41' E 122°06'13021275.1
2016-Dec-06 12:29N 31°42' E 121°09'59365.1
2016-Dec-06 12:29N 31°39' E 121°14'3025307.0
2016-Dec-06 12:26N 26°47' E 119°43'4061459827.2
2016-Dec-06 12:26N 23°04' E 113°29'66074268.9
2016-Dec-06 12:25N 31°40' E 121°13'1 8.4
2016-Dec-06 12:21N 31°40' E 121°14'19532.0
2016-Dec-06 12:19N 31°26' E 121°28'109144.6
2016-Dec-06 11:33N 29°41' E 122°06'13214019.5
2016-Dec-06 11:33N 31°43' E 121°07'3191.7
2016-Dec-06 11:32N 31°41' E 121°10'25826.8
2016-Dec-06 11:30N 31°22' E 121°28'61570.9
2016-Dec-06 11:30N 31°19' E 121°34'133569.9
2016-Dec-06 11:29N 31°29' E 121°25'65945606.9
2016-Dec-06 11:28N 23°04' E 113°29'66079258.9
2016-Dec-06 11:28N 31°40' E 121°14'19817.7
2016-Dec-06 11:27N 31°26' E 121°28'191642.7
2016-Dec-06 11:26N 31°40' E 121°13'51210845.1
2016-Dec-06 11:23N 23°46' E 117°35'2306668.3
2016-Dec-06 11:21N 23°04' E 113°29'659148351.1
2016-Dec-06 11:21N 31°44' E 121°05'375256.2
2016-Dec-06 11:20N 31°15' E 121°31'0 0.0
2016-Dec-06 10:33N 31°15' E 121°31'2825614.1
2016-Dec-06 10:33N 31°40' E 121°14'2917283.9
2016-Dec-06 10:33N 31°15' E 121°31'652586577.7
2016-Dec-06 10:33N 23°04' E 113°29'659113015.2
2016-Dec-06 10:33N 31°43' E 121°07'21340.1
2016-Dec-06 10:29N 31°29' E 121°25'143930.4
2016-Dec-06 10:29N 31°40' E 121°13'3031277.1
2016-Dec-06 10:15N 26°47' E 119°43'40622458.6
2016-Dec-06 10:13N 23°04' E 113°29'36135387.4
2016-Dec-06 09:33S 23°50' E 151°15'3506788893.7
2016-Dec-06 09:33N 24°53' E 118°57'344618443.9
2016-Dec-06 09:33N 29°51' E 122°08'12645444.7
2016-Dec-06 09:33N 31°45' E 121°04'65925244.4
2016-Dec-06 09:31N 23°04' E 113°29'10221.8
2016-Dec-06 09:28N 22°54' E 113°30'65922825.8
2016-Dec-06 09:27N 31°15' E 121°31'113514.7
2016-Dec-06 09:26N 31°26' E 121°28'65816113.4
2016-Dec-06 09:24N 23°04' E 113°29'6608491.5
2016-Dec-06 09:19N 31°40' E 121°14'425555.2
2016-Dec-06 08:33N 24°52' E 118°55'345414307.5
2016-Dec-06 08:33N 29°56' E 122°01'61641039.4
2016-Dec-06 08:32N 23°04' E 113°29'3198966.3
2016-Dec-06 08:30N 24°53' E 118°57'40658433.2
2016-Dec-06 08:30N 31°15' E 121°31'28433004.0
2016-Dec-06 08:29N 26°47' E 119°43'30316298.9
2016-Dec-06 08:28N 31°40' E 121°14'6609397.6
2016-Dec-06 08:24N 23°04' E 113°29'65914200.6
2016-Dec-06 08:21N 31°29' E 121°25'17191.2
2016-Dec-06 08:16N 31°17' E 121°11'641900.3
2016-Dec-06 07:33N 23°04' E 113°29'66079171.0
2016-Dec-06 07:32N 31°42' E 121°10'4224.4
2016-Dec-06 07:31N 31°40' E 121°14'425169834.4
2016-Dec-06 07:31N 24°53' E 118°57'4013250.6
2016-Dec-06 07:24N 31°16' E 121°09'28511.6
2016-Dec-06 07:20N 31°44' E 121°07'214280.1
2016-Dec-06 07:20N 31°29' E 121°25'65914032.4
2016-Dec-06 07:17N 23°04' E 113°29'66084873.9
2016-Dec-06 07:17N 31°40' E 121°13'6738079.8
2016-Dec-06 07:12N 22°54' E 113°21'651987.5
2016-Dec-06 06:32N 31°14' E 121°09'182140.2
2016-Dec-06 06:32N 31°15' E 121°31'40634781.2
2016-Dec-06 06:31N 24°53' E 118°57'42538223.4
2016-Dec-06 06:30N 31°40' E 121°12'66914602.9
2016-Dec-06 06:28N 22°55' E 113°26'66726691.2
2016-Dec-06 06:26N 31°26' E 121°28'6753286.9
2016-Dec-06 06:14N 22°44' E 113°28'20250.1
2016-Dec-06 06:09N 23°04' E 113°29'6597186.3
2016-Dec-06 06:03N 31°29' E 121°25'2345.7
2016-Dec-06 05:33N 31°10' E 121°09'271083.5
2016-Dec-06 05:32N 31°36' E 121°18'1911220.8
2016-Dec-06 05:32N 31°21' E 121°31'41146293.6
2016-Dec-06 05:31N 24°53' E 118°57'42542457.2
2016-Dec-06 05:30N 31°40' E 121°14'541785.3
2016-Dec-06 05:29N 31°57' E 120°14'6422726.6
2016-Dec-06 05:15N 23°04' E 113°29'0 3.4
2016-Dec-06 05:12N 23°04' E 113°29'6599922.5
2016-Dec-06 05:08N 31°29' E 121°25'5154.7
2016-Dec-06 05:06N 31°26' E 121°28'814.7
2016-Dec-06 04:33N 31°32' E 121°22'2712252.5
2016-Dec-06 04:33N 31°07' E 121°10'398119328.6
2016-Dec-06 04:33N 24°49' E 118°51'42194719.4
2016-Dec-06 04:32N 31°25' E 121°30'314618.4
2016-Dec-06 04:32N 31°46' E 121°02'391264.9
2016-Dec-06 04:30N 31°15' E 121°31'65253310.7
2016-Dec-06 04:30N 23°04' E 113°29'660108074.2
2016-Dec-06 04:29N 31°40' E 121°14'12353.1
2016-Dec-06 04:27N 31°30' E 121°22'131232.5
2016-Dec-06 04:26N 31°40' E 121°13'54951.3
2016-Dec-06 04:23N 31°56' E 120°12'7994755.1
2016-Dec-06 04:23N 31°15' E 121°32'65219240.3
2016-Dec-06 04:21N 23°04' E 113°29'6584380.9
2016-Dec-06 04:12N 31°26' E 121°29'69107.1
2016-Dec-06 03:33N 31°57' E 120°17'647950.6
2016-Dec-06 03:33N 31°29' E 121°25'6592371484.2
2016-Dec-06 03:33N 23°04' E 113°29'659197587.0
2016-Dec-06 03:33N 31°25' E 121°31'211074.9
2016-Dec-06 03:32N 31°40' E 121°13'43255575.1
2016-Dec-06 03:31N 24°47' E 118°46'42615474.1
2016-Dec-06 03:29N 31°30' E 121°23'1100.9
2016-Dec-06 03:29N 31°30' E 121°25'14239.2
2016-Dec-06 03:25N 31°40' E 121°14'6604953.4
2016-Dec-06 03:17N 23°04' E 113°29'6603483.2
2016-Dec-06 03:06N 31°40' E 121°12'429792.2
2016-Dec-06 02:33N 24°49' E 118°53'31438947.0
2016-Dec-06 02:33N 23°04' E 113°29'657169058.3
2016-Dec-06 02:33N 31°32' E 121°19'5369.9
2016-Dec-06 02:32N 31°29' E 121°25'142466.8
2016-Dec-06 02:32N 31°40' E 121°14'254.7
2016-Dec-06 02:30N 31°38' E 121°15'66044829.7
2016-Dec-06 02:29N 23°04' E 113°29'66041691.9
2016-Dec-06 02:28N 31°40' E 121°13'1 0.7
2016-Dec-06 01:33N 31°39' E 121°13'726997.4
2016-Dec-06 01:33N 31°34' E 121°19'151257.3
2016-Dec-06 01:32N 31°21' E 121°28'411740024.9
2016-Dec-06 01:32N 24°53' E 118°57'43016452.2
2016-Dec-06 01:30N 31°58' E 120°03'212576.3
2016-Dec-06 01:30N 32°04' E 120°26'474022.6
2016-Dec-06 01:29N 31°40' E 121°14'295439.5
2016-Dec-06 01:29N 31°15' E 121°31'166977.7
2016-Dec-06 01:29N 31°29' E 121°25'65915009.0
2016-Dec-06 01:26N 23°04' E 113°29'65220221.3
2016-Dec-06 01:24N 31°15' E 121°31'652111701.6
2016-Dec-06 01:24N 23°04' E 113°29'65914465.1
2016-Dec-06 01:21N 31°30' E 121°25'58226.3
2016-Dec-06 01:06N 32°02' E 120°27'6531216.5
2016-Dec-06 00:33N 23°04' E 113°29'641115297.8
2016-Dec-06 00:33N 31°57' E 120°10'429128724.6
2016-Dec-06 00:33N 24°53' E 118°57'41192473.6
2016-Dec-06 00:33N 31°21' E 121°28'282044.1
2016-Dec-06 00:32N 31°43' E 121°06'207226.4
2016-Dec-06 00:32N 31°31' E 121°25'948059.1
2016-Dec-06 00:31N 30°01' E 121°59'14520817.4
2016-Dec-06 00:31N 32°01' E 120°25'602767.6
2016-Dec-06 00:29N 31°29' E 121°25'14156.0
2016-Dec-06 00:24N 31°40' E 121°13'30338996.2
2016-Dec-06 00:23N 26°47' E 119°43'40610209.3
2016-Dec-06 00:21N 23°04' E 113°29'66011162.6
2016-Dec-06 00:17N 31°40' E 121°14'2229.3
2016-Dec-05 23:33N 31°21' E 121°28'9294.9
2016-Dec-05 23:31N 31°30' E 121°25'41838588.6
2016-Dec-05 23:31N 24°53' E 118°57'41826858.2
2016-Dec-05 23:30N 31°29' E 121°25'141655.9
2016-Dec-05 23:29N 31°40' E 121°13'6608083.1
2016-Dec-05 23:24N 23°04' E 113°29'66033487.3
2016-Dec-05 23:23N 31°40' E 121°14'14305.7
2016-Dec-05 23:21N 31°46' E 120°60'415283.4
2016-Dec-05 23:20N 31°15' E 121°31'78622.3
2016-Dec-05 23:13N 30°01' E 121°60'145222.3
2016-Dec-05 22:33N 31°57' E 120°18'754150.1
2016-Dec-05 22:32N 31°15' E 121°31'15386.9
2016-Dec-05 22:30N 31°30' E 121°25'14333.3
2016-Dec-05 22:27N 31°40' E 121°14'142599.2
2016-Dec-05 22:27N 31°29' E 121°25'659395226.2
2016-Dec-05 22:27N 23°04' E 113°29'3188486.6
2016-Dec-05 22:25N 24°53' E 118°57'34959800.9
2016-Dec-05 22:24N 30°01' E 121°60'6237311.4
2016-Dec-05 22:19N 22°52' E 113°34'6513468.8
2016-Dec-05 22:08N 31°57' E 120°17'145252.3
2016-Dec-05 21:33N 30°01' E 121°60'7911378.8
2016-Dec-05 21:33N 31°01' E 121°01'38510110.1
2016-Dec-05 21:31N 24°53' E 118°57'42514843.3
2016-Dec-05 21:29N 31°40' E 121°13'297427.8
2016-Dec-05 21:29N 31°15' E 121°31'15168.4
2016-Dec-05 21:23N 31°30' E 121°25'65930411.7
2016-Dec-05 21:22N 23°04' E 113°29'65919124.4
2016-Dec-05 21:20N 31°29' E 121°25'14364.7
2016-Dec-05 21:18N 31°40' E 121°14'12120.2
2016-Dec-05 21:12N 31°30' E 121°22'94148.7
2016-Dec-05 20:33N 30°01' E 121°60'7512346.4
2016-Dec-05 20:33N 31°12' E 121°30'312044.7
2016-Dec-05 20:32N 31°40' E 121°13'660297062.8
2016-Dec-05 20:32N 23°04' E 113°29'660103372.3
2016-Dec-05 20:32N 31°40' E 121°14'284454.6
2016-Dec-05 20:31N 31°15' E 121°31'152065.8
2016-Dec-05 20:31N 31°30' E 121°25'418167217.6
2016-Dec-05 20:31N 24°53' E 118°57'3182575.0
2016-Dec-05 20:23N 23°04' E 113°29'65910091.8
2016-Dec-05 20:19N 31°29' E 121°25'66518140.0
2016-Dec-05 20:17N 22°52' E 113°34'4083176.0
2016-Dec-05 20:09N 26°47' E 119°43'284470.9
2016-Dec-05 19:33N 31°15' E 121°31'013.9
2016-Dec-05 19:32N 31°15' E 121°30'788787.5
2016-Dec-05 19:32N 30°01' E 121°60'94168500.6
2016-Dec-05 19:32N 31°30' E 121°25'141131.3
2016-Dec-05 19:31N 31°40' E 121°14'42544971.9
2016-Dec-05 19:31N 24°53' E 118°57'1222521.2
2016-Dec-05 19:28N 26°47' E 119°43'29624223.6
2016-Dec-05 19:27N 31°29' E 121°25'24130.9
2016-Dec-05 19:16N 31°46' E 121°05'9219.6
2016-Dec-05 19:14N 31°40' E 121°13'66015136.7
2016-Dec-05 19:11N 23°04' E 113°29'659982.7
2016-Dec-05 18:31N 31°30' E 121°25'1490.4
2016-Dec-05 18:22N 31°40' E 121°14'118.6
2016-Dec-05 18:20N 31°40' E 121°13'1499.6
2016-Dec-05 18:11N 31°29' E 121°25'1421.7
2016-Dec-05 17:33N 31°40' E 121°14'117.3
2016-Dec-05 17:31N 31°40' E 121°13'14499.0
2016-Dec-05 17:29N 31°29' E 121°25'0 8.0
2016-Dec-05 17:27N 31°30' E 121°25'1 1.5
2016-Dec-05 16:28N 31°29' E 121°26'121.9
2016-Dec-05 16:25N 31°29' E 121°25'1491.9
2016-Dec-05 16:16N 31°40' E 121°13'1521.8
2016-Dec-05 15:33N 31°29' E 121°25'6513065.1
2016-Dec-05 15:33N 31°57' E 120°16'15569860.2
2016-Dec-05 15:33N 29°55' E 122°08'34646187.6
2016-Dec-05 15:32N 24°53' E 118°57'33470670.3
2016-Dec-05 15:32N 29°42' E 122°03'334150257.4
2016-Dec-05 15:32N 24°52' E 118°57'41278058.8
2016-Dec-05 15:31N 31°22' E 121°30'656590493.4
2016-Dec-05 15:31N 23°04' E 113°29'66026716.0
2016-Dec-05 15:30N 31°40' E 121°14'119.6
2016-Dec-05 15:28N 31°40' E 121°13'22605.7
2016-Dec-05 15:26N 31°23' E 121°30'660215947.8
2016-Dec-05 15:25N 22°60' E 113°31'66118592.6
2016-Dec-05 15:23N 31°29' E 121°25'659124815.9
2016-Dec-05 15:23N 23°04' E 113°29'6595250.1
2016-Dec-05 15:16N 31°46' E 121°02'40736.5
2016-Dec-05 15:12N 31°15' E 121°31'284340857.5
2016-Dec-05 15:12N 26°47' E 119°43'407630.0
2016-Dec-05 14:33N 23°05' E 113°27'612169392.6
2016-Dec-05 14:33N 29°42' E 122°07'335301106.5
2016-Dec-05 14:33N 24°52' E 118°58'340203783.4
2016-Dec-05 14:33N 29°48' E 122°05'10017998.3
2016-Dec-05 14:33N 31°24' E 121°32'41536397.6
2016-Dec-05 14:32N 24°53' E 118°57'41826844.9
2016-Dec-05 14:31N 31°29' E 121°25'659296445.2
2016-Dec-05 14:31N 23°04' E 113°29'659338689.0
2016-Dec-05 14:31N 31°29' E 121°25'633437.5
2016-Dec-05 14:30N 31°60' E 120°21'411041.8
2016-Dec-05 14:27N 31°45' E 121°06'9203.1
2016-Dec-05 14:25N 31°40' E 121°14'1126.2
2016-Dec-05 14:25N 31°40' E 121°13'6606123.2
2016-Dec-05 14:18N 23°04' E 113°30'65856441.0
2016-Dec-05 14:17N 31°26' E 121°29'416563.2
2016-Dec-05 13:33N 24°53' E 118°55'437314836.3
2016-Dec-05 13:33N 32°03' E 120°25'16373447.2
2016-Dec-05 13:33N 29°42' E 122°02'12411484.9
2016-Dec-05 13:32N 31°40' E 121°14'16895.7
2016-Dec-05 13:31N 31°28' E 121°27'13896.3
2016-Dec-05 13:30N 31°15' E 121°31'3155385.7
2016-Dec-05 13:30N 31°41' E 121°11'3262.5
2016-Dec-05 13:30N 31°42' E 121°09'1316629.6
2016-Dec-05 13:28N 29°42' E 122°07'1148190.2
2016-Dec-05 13:28N 31°29' E 121°25'14380.2
2016-Dec-05 13:25N 31°40' E 121°13'66010423.0
2016-Dec-05 13:22N 23°04' E 113°29'66113755.5
2016-Dec-05 13:19N 31°38' E 121°17'682424.2
2016-Dec-05 13:17N 31°59' E 120°01'6384863.3
2016-Dec-05 13:09N 23°04' E 113°30'318535.2
2016-Dec-05 12:33N 24°53' E 118°57'418250902.9
2016-Dec-05 12:33N 31°30' E 121°23'1312002.8
2016-Dec-05 12:33N 31°40' E 121°12'660197915.6
2016-Dec-05 12:33N 23°04' E 113°30'122.8
2016-Dec-05 12:32N 23°04' E 113°29'659112890.5
2016-Dec-05 12:31N 31°29' E 121°25'151322.4
2016-Dec-05 12:31N 31°40' E 121°13'1274604.3
2016-Dec-05 12:29N 29°41' E 122°05'1261545.4
2016-Dec-05 12:24N 31°39' E 121°13'1132.6
2016-Dec-05 12:24N 31°40' E 121°14'609372.7
2016-Dec-05 12:23N 31°57' E 120°07'72647.9
2016-Dec-05 12:17N 31°29' E 121°25'11140.7
2016-Dec-05 12:12N 31°38' E 121°17'10120.5
2016-Dec-05 12:07N 31°30' E 121°23'10376.4
2016-Dec-05 12:05N 31°22' E 121°29'1834.0
2016-Dec-05 11:33N 31°37' E 121°17'5751688.8
2016-Dec-05 11:33N 31°57' E 120°13'7668572.4
2016-Dec-05 11:33N 31°21' E 121°32'412370494.1
2016-Dec-05 11:33N 24°53' E 118°57'33470747.8
2016-Dec-05 11:33N 29°41' E 122°05'1263246.6
2016-Dec-05 11:30N 31°40' E 121°14'66191453.9
2016-Dec-05 11:30N 23°04' E 113°29'65917561.5
2016-Dec-05 11:28N 31°29' E 121°25'12485.8
2016-Dec-05 11:26N 31°38' E 121°17'112025.4
2016-Dec-05 11:26N 31°29' E 121°25'14377.9
2016-Dec-05 11:24N 31°40' E 121°13'132.9
2016-Dec-05 11:22N 31°39' E 121°13'28569.6
2016-Dec-05 11:19N 31°15' E 121°31'31400.9
2016-Dec-05 11:14N 31°41' E 121°11'6597655.4
2016-Dec-05 11:09N 23°04' E 113°30'3175254.4
2016-Dec-05 11:05N 24°53' E 118°55'317586.8
2016-Dec-05 10:33N 23°04' E 113°30'609365201.6
2016-Dec-05 10:33N 29°43' E 122°03'11626033.3
2016-Dec-05 10:33N 31°32' E 121°21'659131814.2
2016-Dec-05 10:32N 23°04' E 113°29'648166573.2
2016-Dec-05 10:32N 31°59' E 120°20'625907.4
2016-Dec-05 10:32N 31°29' E 121°25'41850134.4
2016-Dec-05 10:31N 24°52' E 118°57'41720021.5
2016-Dec-05 10:30N 31°29' E 121°25'212563.2
2016-Dec-05 10:29N 31°43' E 121°08'61231.7
2016-Dec-05 10:29N 31°39' E 121°13'66325680.5
2016-Dec-05 10:27N 22°57' E 113°33'66537382.8
2016-Dec-05 10:26N 31°40' E 121°14'4258741.7
2016-Dec-05 10:23N 24°53' E 118°55'4064238.4
2016-Dec-05 10:18N 31°15' E 121°31'17176.2
2016-Dec-05 10:12N 31°31' E 121°23'106164.1
2016-Dec-05 09:33N 29°51' E 122°08'34546014.1
2016-Dec-05 09:33N 24°50' E 118°58'31881896.4
2016-Dec-05 09:32N 23°04' E 113°29'31976459.7
2016-Dec-05 09:32N 24°52' E 118°57'42520664.6
2016-Dec-05 09:31N 31°40' E 121°14'661594766.7
2016-Dec-05 09:31N 23°03' E 113°30'660148427.2
2016-Dec-05 09:31N 31°39' E 121°13'121128.5
2016-Dec-05 09:30N 31°31' E 121°23'1715154.3
2016-Dec-05 09:30N 31°15' E 121°31'142545.9
2016-Dec-05 09:30N 31°29' E 121°25'245.0
2016-Dec-05 09:26N 31°28' E 121°28'14457.1
2016-Dec-05 09:25N 31°38' E 121°18'641421.7
2016-Dec-05 09:22N 31°58' E 120°07'721473.1
2016-Dec-05 09:19N 31°29' E 121°25'418539.9
2016-Dec-05 08:33N 24°53' E 118°57'41321864.7
2016-Dec-05 08:31N 31°23' E 121°30'7529815.2
2016-Dec-05 08:31N 31°57' E 120°12'641769569.7
2016-Dec-05 08:31N 23°04' E 113°29'65590669.0
2016-Dec-05 08:31N 31°22' E 121°28'222115.4
2016-Dec-05 08:30N 31°40' E 121°14'1201.8
2016-Dec-05 08:30N 31°39' E 121°13'41140.1
2016-Dec-05 08:30N 31°38' E 121°18'253670.6
2016-Dec-05 08:29N 31°15' E 121°31'8259271.2
2016-Dec-05 08:29N 29°57' E 121°59'828449.2
2016-Dec-05 08:29N 31°14' E 121°29'17535.7
2016-Dec-05 08:27N 31°31' E 121°23'229.9
2016-Dec-05 08:23N 31°29' E 121°25'65912284.0
2016-Dec-05 08:20N 23°04' E 113°30'6616834.9
2016-Dec-05 08:14N 31°39' E 121°16'16343.9
2016-Dec-05 08:11N 31°47' E 121°00'473749.9
2016-Dec-05 07:33N 24°18' E 118°09'46529375.2
2016-Dec-05 07:33N 31°31' E 121°23'41847064.4
2016-Dec-05 07:32N 24°53' E 118°57'40621484.1
2016-Dec-05 07:31N 31°15' E 121°31'362678.5
2016-Dec-05 07:30N 31°45' E 121°06'8572.2
2016-Dec-05 07:29N 31°40' E 121°14'271044.4
2016-Dec-05 07:28N 31°19' E 121°34'754846.1
2016-Dec-05 07:27N 31°58' E 120°18'6452989.6
2016-Dec-05 07:14N 23°04' E 113°29'66126140.0
2016-Dec-05 07:12N 31°37' E 121°18'4157.2
2016-Dec-05 07:11N 31°39' E 121°13'65915508.8
2016-Dec-05 07:08N 23°04' E 113°30'6591185404.7
2016-Dec-05 07:08N 31°29' E 121°25'2984135.7
2016-Dec-05 07:04N 26°45' E 119°43'286563.5
2016-Dec-05 06:33N 31°15' E 121°31'406104416.8
2016-Dec-05 06:33N 24°52' E 118°58'424381525.0
2016-Dec-05 06:33N 31°39' E 121°13'47544996.4
2016-Dec-05 06:32N 24°11' E 118°14'478245650.3
2016-Dec-05 06:32N 31°43' E 121°07'62704.3
2016-Dec-05 06:32N 31°40' E 121°13'41449.7
2016-Dec-05 06:32N 31°38' E 121°18'201743.0
2016-Dec-05 06:31N 31°21' E 121°31'91126.5
2016-Dec-05 06:31N 31°29' E 121°25'15804.3
2016-Dec-05 06:30N 31°40' E 121°14'123609.5
2016-Dec-05 06:29N 31°31' E 121°23'229.2
2016-Dec-05 06:26N 31°29' E 121°25'10487.4
2016-Dec-05 06:25N 31°37' E 121°18'66132136.0
2016-Dec-05 06:23N 23°04' E 113°30'1 9.3
2016-Dec-05 06:20N 23°04' E 113°29'6588676.5
2016-Dec-05 06:15N 31°47' E 120°59'411004.0
2016-Dec-05 06:13N 31°15' E 121°30'811226.0
2016-Dec-05 06:09N 31°57' E 120°09'5797.5
2016-Dec-05 05:33N 31°39' E 121°13'543434.2
2016-Dec-05 05:33N 31°57' E 120°13'7817636.4
2016-Dec-05 05:32N 31°15' E 121°31'65280885.0
2016-Dec-05 05:32N 23°04' E 113°29'65964101.4
2016-Dec-05 05:31N 31°29' E 121°25'253373.9
2016-Dec-05 05:31N 31°46' E 121°03'153417.1
2016-Dec-05 05:30N 31°38' E 121°18'4530.4
2016-Dec-05 05:30N 31°35' E 121°19'675173501.8
2016-Dec-05 05:30N 22°28' E 113°54'673115443.8
2016-Dec-05 05:29N 31°25' E 121°31'92500.7
2016-Dec-05 05:29N 31°31' E 121°23'46517989.4
2016-Dec-05 05:28N 24°19' E 118°07'4685075.8
2016-Dec-05 05:22N 31°36' E 121°17'141.3
2016-Dec-05 05:21N 31°37' E 121°18'5143.2
2016-Dec-05 05:19N 31°39' E 121°13'161.4
2016-Dec-05 05:18N 31°40' E 121°13'4338957.0
2016-Dec-05 05:15N 24°42' E 119°04'42626426.7
2016-Dec-05 05:14N 31°29' E 121°25'60406.8
2016-Dec-05 05:05N 32°04' E 120°27'6551240.7
2016-Dec-05 04:33N 23°03' E 113°30'660297091.0
2016-Dec-05 04:33N 31°45' E 121°06'2693587.6
2016-Dec-05 04:33N 31°27' E 121°28'4681685242.0
2016-Dec-05 04:33N 24°13' E 118°09'471212020.2
2016-Dec-05 04:33N 31°32' E 121°21'619895.4
2016-Dec-05 04:33N 31°37' E 121°18'1258.9
2016-Dec-05 04:33N 31°36' E 121°18'54830.5
2016-Dec-05 04:33N 31°40' E 121°13'5013971.6
2016-Dec-05 04:33N 31°58' E 120°18'627960.8
2016-Dec-05 04:32N 31°31' E 121°23'173566.9
2016-Dec-05 04:32N 31°15' E 121°31'1656469.1
2016-Dec-05 04:32N 31°30' E 121°25'035.3
2016-Dec-05 04:31N 31°30' E 121°24'10903.9
2016-Dec-05 04:31N 31°38' E 121°18'101032.4
2016-Dec-05 04:30N 31°29' E 121°25'659139494.6
2016-Dec-05 04:30N 23°04' E 113°29'308123291.5
2016-Dec-05 04:30N 24°48' E 118°46'43026257.6
2016-Dec-05 04:29N 31°39' E 121°13'12138.7
2016-Dec-05 04:23N 31°30' E 121°23'241874.6
2016-Dec-05 04:23N 31°47' E 121°03'34209.5
2016-Dec-05 04:13N 31°22' E 121°30'6621007.4
2016-Dec-05 03:33N 22°57' E 113°30'665299276.4
2016-Dec-05 03:33N 31°29' E 121°26'119594.4
2016-Dec-05 03:33N 31°37' E 121°18'101177.1
2016-Dec-05 03:33N 31°29' E 121°25'284317.3
2016-Dec-05 03:32N 31°47' E 120°60'231693.8
2016-Dec-05 03:32N 31°33' E 121°21'103986.9
2016-Dec-05 03:31N 31°40' E 121°13'12292.1
2016-Dec-05 03:29N 31°31' E 121°23'171718.0
2016-Dec-05 03:28N 31°42' E 121°09'660169813.7
2016-Dec-05 03:28N 23°06' E 113°25'66229795.3
2016-Dec-05 03:27N 31°38' E 121°18'10863.9
2016-Dec-05 03:26N 31°29' E 121°25'013.5
2016-Dec-05 03:24N 31°30' E 121°25'125.6
2016-Dec-05 03:21N 31°30' E 121°23'4917861.2
2016-Dec-05 03:18N 23°54' E 117°58'763514.3
2016-Dec-05 03:16N 24°46' E 118°59'436609.7
2016-Dec-05 02:34N 31°47' E 121°03'4961786820.5
2016-Dec-05 02:33N 23°57' E 118°03'48535596.3
2016-Dec-05 02:33N 31°26' E 121°30'8530.0
2016-Dec-05 02:32N 31°31' E 121°23'12840.9
2016-Dec-05 02:31N 31°39' E 121°13'41270.3
2016-Dec-05 02:31N 31°38' E 121°18'6179.1
2016-Dec-05 02:29N 31°40' E 121°12'6609540.5
2016-Dec-05 02:25N 23°04' E 113°29'65914553.8
2016-Dec-05 02:22N 31°30' E 121°25'14325.0
2016-Dec-05 02:19N 31°40' E 121°13'13295.4
2016-Dec-05 02:17N 31°30' E 121°23'1396.5
2016-Dec-05 02:17N 31°29' E 121°25'66032526.7
2016-Dec-05 02:15N 23°06' E 113°25'6597323.9
2016-Dec-05 02:10N 31°33' E 121°19'813.5
2016-Dec-05 01:33N 31°40' E 121°13'1412886.6
2016-Dec-05 01:33N 31°29' E 121°25'10893.1
2016-Dec-05 01:33N 31°24' E 121°35'47778025.2
2016-Dec-05 01:32N 24°02' E 118°11'48518774.6
2016-Dec-05 01:31N 31°40' E 121°13'14781.9
2016-Dec-05 01:30N 31°30' E 121°25'174.6
2016-Dec-05 01:29N 31°31' E 121°23'0420.9
2016-Dec-05 01:28N 31°30' E 121°23'65933877.0
2016-Dec-05 01:27N 23°04' E 113°29'41705.0
2016-Dec-05 01:27N 23°06' E 113°25'66133503.0
2016-Dec-05 01:26N 31°38' E 121°15'1266.3
2016-Dec-05 01:15N 31°29' E 121°25'913.2
2016-Dec-05 00:33N 31°36' E 121°17'5278.2
2016-Dec-05 00:32N 31°39' E 121°13'1315059.1
2016-Dec-05 00:32N 31°31' E 121°23'157.4
2016-Dec-05 00:30N 31°30' E 121°25'659215662.5
2016-Dec-05 00:30N 23°04' E 113°29'66069896.6
2016-Dec-05 00:29N 31°40' E 121°13'133092.3
2016-Dec-05 00:29N 31°30' E 121°23'153.1
2016-Dec-05 00:27N 31°29' E 121°25'9512613.5
2016-Dec-05 00:27N 29°58' E 121°52'1577556.9
2016-Dec-05 00:26N 32°01' E 119°58'55660.4
2016-Dec-05 00:21N 31°49' E 121°01'291802.8
2016-Dec-05 00:20N 31°28' E 121°25'10380.2
2016-Dec-05 00:18N 31°24' E 121°36'10248.4
2016-Dec-05 00:16N 31°15' E 121°31'3663.1
2016-Dec-05 00:16N 31°17' E 121°34'65632799.9
2016-Dec-05 00:14N 23°06' E 113°25'6644130.5
2016-Dec-05 00:05N 31°22' E 121°42'183453.0
2016-Dec-05 00:04N 31°30' E 121°23'1426.8
2016-Dec-04 23:33N 31°20' E 121°33'53357.0
2016-Dec-04 23:33N 31°24' E 121°36'473425374.5
2016-Dec-04 23:33N 24°07' E 118°11'40528584.4
2016-Dec-04 23:32N 29°57' E 122°00'14918482.1
2016-Dec-04 23:32N 31°58' E 120°19'646775780.4
2016-Dec-04 23:32N 23°06' E 113°25'660169600.4
2016-Dec-04 23:32N 31°30' E 121°23'068.0
2016-Dec-04 23:31N 31°31' E 121°23'174809.1
2016-Dec-04 23:31N 31°42' E 121°08'191061.0
2016-Dec-04 23:30N 31°29' E 121°25'151960.0
2016-Dec-04 23:30N 31°15' E 121°31'29286.0
2016-Dec-04 23:24N 31°40' E 121°13'5919.3
2016-Dec-04 23:23N 31°37' E 121°18'66191486.4
2016-Dec-04 23:23N 23°04' E 113°29'66020148.7
2016-Dec-04 23:21N 31°49' E 121°01'4556.5
2016-Dec-04 22:33N 31°22' E 121°43'8810955.5
2016-Dec-04 22:33N 29°56' E 122°06'10172594.1
2016-Dec-04 22:33N 31°30' E 121°25'167061.2
2016-Dec-04 22:33N 31°15' E 121°31'151893.8
2016-Dec-04 22:32N 31°29' E 121°25'667398.7
2016-Dec-04 22:32N 31°56' E 120°14'642210072.4
2016-Dec-04 22:31N 23°06' E 113°25'660395741.1
2016-Dec-04 22:31N 31°31' E 121°23'102952.6
2016-Dec-04 22:31N 31°22' E 121°28'9288.0
2016-Dec-04 22:29N 31°30' E 121°23'48382778.4
2016-Dec-04 22:29N 23°59' E 118°10'48314253.3
2016-Dec-04 22:27N 31°30' E 121°23'8326.3
2016-Dec-04 22:25N 31°37' E 121°18'51942.1
2016-Dec-04 22:25N 31°40' E 121°13'66015539.6
2016-Dec-04 22:22N 23°04' E 113°29'6354712.1
2016-Dec-04 22:14N 30°59' E 121°22'291277.9
2016-Dec-04 22:13N 31°28' E 121°25'105158.8
2016-Dec-04 21:33N 29°50' E 122°07'10725717.9
2016-Dec-04 21:33N 31°30' E 121°23'70125740.3
2016-Dec-04 21:33N 31°56' E 120°07'7223593.4
2016-Dec-04 21:33N 31°28' E 121°25'157964.9
2016-Dec-04 21:33N 31°40' E 121°13'5181.1
2016-Dec-04 21:31N 31°37' E 121°18'48892383.5
2016-Dec-04 21:31N 23°59' E 118°11'49246601.4
2016-Dec-04 21:30N 31°46' E 121°03'3914110.2
2016-Dec-04 21:30N 31°15' E 121°31'151672.3
2016-Dec-04 21:30N 31°29' E 121°25'039.1
2016-Dec-04 21:29N 31°30' E 121°24'195.4
2016-Dec-04 21:28N 31°31' E 121°23'65915398.4
2016-Dec-04 21:25N 23°04' E 113°29'659182430.4
2016-Dec-04 21:25N 31°47' E 121°01'13253.2
2016-Dec-04 21:22N 31°39' E 121°14'65986.5
2016-Dec-04 21:18N 31°59' E 120°01'8734743.4
2016-Dec-04 21:18N 31°23' E 121°34'26122.9
2016-Dec-04 21:05N 30°59' E 121°22'84155.5
2016-Dec-04 20:33N 29°43' E 122°03'10374367.4
2016-Dec-04 20:33N 31°22' E 121°30'272623.7
2016-Dec-04 20:32N 31°42' E 121°09'3313262.1
2016-Dec-04 20:32N 31°15' E 121°31'8460623.5
2016-Dec-04 20:32N 31°58' E 120°05'5411442.8
2016-Dec-04 20:32N 31°44' E 121°07'3054222.9
2016-Dec-04 20:32N 31°21' E 121°30'172229.0
2016-Dec-04 20:31N 31°35' E 121°19'1832341.2
2016-Dec-04 20:31N 31°23' E 121°34'121299.7
2016-Dec-04 20:31N 31°31' E 121°23'66076594.0
2016-Dec-04 20:30N 23°06' E 113°25'66079177.3
2016-Dec-04 20:30N 31°30' E 121°24'141720.1
2016-Dec-04 20:29N 31°40' E 121°13'142231.7
2016-Dec-04 20:29N 31°29' E 121°25'483579421.1
2016-Dec-04 20:29N 23°59' E 118°09'4884392.0
2016-Dec-04 20:22N 31°37' E 121°18'9828.5
2016-Dec-04 20:22N 31°30' E 121°23'17336.6
2016-Dec-04 20:18N 31°42' E 121°09'20211.2
2016-Dec-04 20:13N 31°28' E 121°25'65810626.5
2016-Dec-04 20:09N 23°04' E 113°29'6601110.8
2016-Dec-04 19:34N 31°31' E 121°25'1859.4
2016-Dec-04 19:33N 31°31' E 121°23'1113206.0
2016-Dec-04 19:33N 31°21' E 121°30'10594090.6
2016-Dec-04 19:33N 29°42' E 122°06'11410814.2
2016-Dec-04 19:33N 31°30' E 121°24'111319.8
2016-Dec-04 19:32N 31°23' E 121°34'251208.8
2016-Dec-04 19:31N 31°40' E 121°13'2589.6
2016-Dec-04 19:31N 31°38' E 121°15'66144052.8
2016-Dec-04 19:30N 23°06' E 113°25'659197653.9
2016-Dec-04 19:30N 31°30' E 121°23'9615.8
2016-Dec-04 19:29N 31°22' E 121°30'231632.7
2016-Dec-04 19:28N 31°40' E 121°13'421671.9
2016-Dec-04 19:26N 30°59' E 121°22'381047.6
2016-Dec-04 19:24N 31°37' E 121°18'251326.0
2016-Dec-04 19:23N 31°15' E 121°31'14157.8
2016-Dec-04 19:18N 31°28' E 121°25'128.1
2016-Dec-04 19:15N 31°29' E 121°25'4824256.8
2016-Dec-04 19:08N 23°59' E 118°09'403695.8
2016-Dec-04 18:33N 29°41' E 122°06'398179234.7
2016-Dec-04 18:33N 24°04' E 118°09'48096001.4
2016-Dec-04 18:33N 31°33' E 121°20'6030674.0
2016-Dec-04 18:33N 31°57' E 120°15'758449.3
2016-Dec-04 18:32N 31°23' E 121°34'4617.6
2016-Dec-04 18:32N 31°22' E 121°30'3204.3
2016-Dec-04 18:31N 31°25' E 121°31'61244.8
2016-Dec-04 18:31N 31°28' E 121°25'2444.6
2016-Dec-04 18:31N 31°30' E 121°24'1311.7
2016-Dec-04 18:30N 31°31' E 121°23'71509.0
2016-Dec-04 18:30N 31°36' E 121°18'66044857.0
2016-Dec-04 18:29N 23°06' E 113°25'66147606.5
2016-Dec-04 18:28N 31°40' E 121°13'51580.8
2016-Dec-04 18:28N 31°37' E 121°18'10239.6
2016-Dec-04 18:26N 31°29' E 121°25'65911681.2
2016-Dec-04 18:22N 23°04' E 113°29'65216518.7
2016-Dec-04 18:20N 31°15' E 121°31'623130.4
2016-Dec-04 18:20N 31°21' E 121°30'1013.2
2016-Dec-04 17:33N 31°30' E 121°23'111132819.5
2016-Dec-04 17:33N 29°44' E 122°03'102122235.0
2016-Dec-04 17:33N 31°22' E 121°30'107039.3
2016-Dec-04 17:33N 31°30' E 121°23'0171.8
2016-Dec-04 17:33N 31°31' E 121°23'14987.7
2016-Dec-04 17:33N 31°30' E 121°25'47070428.6
2016-Dec-04 17:33N 24°13' E 118°10'47073565.9
2016-Dec-04 17:32N 31°30' E 121°26'3719.0
2016-Dec-04 17:32N 31°32' E 121°23'122039.5
2016-Dec-04 17:32N 31°21' E 121°31'057.8
2016-Dec-04 17:31N 31°21' E 121°30'191049.5
2016-Dec-04 17:30N 31°37' E 121°18'543398.8
2016-Dec-04 17:29N 31°60' E 120°20'64863074.6
2016-Dec-04 17:29N 23°06' E 113°25'661170024.4
2016-Dec-04 17:28N 31°40' E 121°13'141390.6
2016-Dec-04 17:28N 31°29' E 121°25'253965.0
2016-Dec-04 17:27N 31°47' E 121°03'401023.5
2016-Dec-04 17:25N 31°15' E 121°30'65120209.4
2016-Dec-04 17:23N 23°04' E 113°29'6597439.6
2016-Dec-04 17:18N 31°23' E 121°34'950.5
2016-Dec-04 17:07N 31°28' E 121°25'3 5.1
2016-Dec-04 16:33N 31°31' E 121°23'10722714.6
2016-Dec-04 16:33N 29°50' E 122°07'10431230.7
2016-Dec-04 16:33N 31°29' E 121°27'3189.9
2016-Dec-04 16:32N 31°30' E 121°25'91843.3
2016-Dec-04 16:31N 31°37' E 121°18'66141011.1
2016-Dec-04 16:30N 23°04' E 113°29'658102996.5
2016-Dec-04 16:30N 31°30' E 121°23'10408.6
2016-Dec-04 16:29N 31°22' E 121°30'657107511.4
2016-Dec-04 16:28N 23°06' E 113°25'660475203.4
2016-Dec-04 16:28N 31°25' E 121°31'73769.9
2016-Dec-04 16:28N 31°29' E 121°25'14876.1
2016-Dec-04 16:27N 31°40' E 121°13'232914.4
2016-Dec-04 16:27N 31°22' E 121°30'170.8
2016-Dec-04 16:25N 31°21' E 121°31'6111.8
2016-Dec-04 16:22N 31°15' E 121°31'163696.8
2016-Dec-04 16:22N 31°30' E 121°23'82544.8
2016-Dec-04 16:13N 32°05' E 119°56'601254.9
2016-Dec-04 16:10N 31°47' E 121°03'37316.0
2016-Dec-04 16:03N 31°20' E 121°33'37577620.8
2016-Dec-04 15:33S 23°50' E 151°15'37541930491.5
2016-Dec-04 15:33N 31°15' E 121°31'171163.4
2016-Dec-04 15:32N 31°31' E 121°23'103123134.1
2016-Dec-04 15:32N 29°55' E 122°07'1103203.9
2016-Dec-04 15:30N 31°37' E 121°18'91070.9
2016-Dec-04 15:30N 31°30' E 121°25'1211158.5
2016-Dec-04 15:30N 31°20' E 121°33'11575.2
2016-Dec-04 15:29N 31°28' E 121°25'5945.3
2016-Dec-04 15:28N 31°26' E 121°30'66056579.6
2016-Dec-04 15:28N 23°06' E 113°25'65921981.6
2016-Dec-04 15:26N 31°30' E 121°23'111152.3
2016-Dec-04 15:25N 31°22' E 121°30'933271.2
2016-Dec-04 15:25N 31°29' E 121°25'117563.2
2016-Dec-04 15:25N 31°23' E 121°34'4149.1
2016-Dec-04 15:24N 31°22' E 121°30'0 3.8
2016-Dec-04 15:20N 31°22' E 121°30'23316.4
2016-Dec-04 15:15N 31°40' E 121°13'23652.8
2016-Dec-04 15:13N 31°22' E 121°30'853484.0
2016-Dec-04 15:12N 31°59' E 119°60'63715719.0
2016-Dec-04 15:09N 23°04' E 113°29'65654918.6
2016-Dec-04 15:09N 31°21' E 121°31'37596392.4
2016-Dec-04 14:33S 23°50' E 151°15'36733305299.5
2016-Dec-04 14:33N 29°57' E 121°59'15637365.0
2016-Dec-04 14:33N 31°58' E 120°04'6212370.1
2016-Dec-04 14:33N 31°40' E 121°13'132269.7
2016-Dec-04 14:33N 31°31' E 121°23'101350.5
2016-Dec-04 14:32N 31°23' E 121°30'1505.0
2016-Dec-04 14:32N 31°22' E 121°30'81353.4
2016-Dec-04 14:32N 31°28' E 121°25'14973.9
2016-Dec-04 14:31N 31°15' E 121°31'151168.1
2016-Dec-04 14:30N 31°29' E 121°25'1162.7
2016-Dec-04 14:30N 31°30' E 121°23'167167.7
2016-Dec-04 14:29N 31°15' E 121°30'251317.0
2016-Dec-04 14:28N 31°37' E 121°18'1922610.1
2016-Dec-04 14:28N 31°22' E 121°30'65718480.7
2016-Dec-04 14:26N 23°06' E 113°25'66016510.2
2016-Dec-04 14:24N 31°23' E 121°34'435.9
2016-Dec-04 14:18N 31°21' E 121°31'112.0
2016-Dec-04 14:11N 31°22' E 121°30'6561054.8
2016-Dec-04 13:33N 23°04' E 113°29'652781879.7
2016-Dec-04 13:33N 31°15' E 121°31'151444.8
2016-Dec-04 13:33N 31°29' E 121°25'01556.2
2016-Dec-04 13:33N 31°30' E 121°25'10355.8
2016-Dec-04 13:31N 31°20' E 121°23'7362.0
2016-Dec-04 13:30N 31°22' E 121°30'4531.0
2016-Dec-04 13:30N 31°25' E 121°30'7411089.6
2016-Dec-04 13:29N 31°56' E 120°11'663066.1
2016-Dec-04 13:28N 31°30' E 121°23'9359.1
2016-Dec-04 13:26N 31°22' E 121°30'65756338.9
2016-Dec-04 13:26N 23°06' E 113°25'659182533.5
2016-Dec-04 13:25N 31°28' E 121°25'5864.6
2016-Dec-04 13:25N 31°31' E 121°21'6103.3
2016-Dec-04 13:21N 31°37' E 121°18'19454.8
2016-Dec-04 13:19N 31°21' E 121°30'23306.7
2016-Dec-04 13:14N 31°40' E 121°14'13231.6
2016-Dec-04 13:11N 31°30' E 121°23'377033515.2
2016-Dec-04 13:04S 23°50' E 151°15'37817396.9
2016-Dec-04 12:33N 31°38' E 121°16'21194.4
2016-Dec-04 12:33N 31°37' E 121°18'5565445.3
2016-Dec-04 12:33N 31°58' E 120°19'546736.4
2016-Dec-04 12:33N 31°36' E 121°17'192298.8
2016-Dec-04 12:32N 31°21' E 121°30'1190.9
2016-Dec-04 12:32N 31°22' E 121°30'74977.6
2016-Dec-04 12:32N 31°15' E 121°31'155490.1
2016-Dec-04 12:32N 31°29' E 121°25'9594.1
2016-Dec-04 12:31N 31°22' E 121°30'104965.3
2016-Dec-04 12:31N 31°30' E 121°25'6596758.6
2016-Dec-04 12:25N 23°04' E 113°29'65810531.4
2016-Dec-04 12:21N 31°28' E 121°25'283.4
2016-Dec-04 12:20N 31°30' E 121°23'10167.6
2016-Dec-04 12:16N 31°21' E 121°30'2028.3
2016-Dec-04 11:33N 31°37' E 121°16'54713.8
2016-Dec-04 11:33N 31°41' E 121°11'161448.6
2016-Dec-04 11:33N 31°30' E 121°25'7738.3
2016-Dec-04 11:32N 31°34' E 121°19'529823.1
2016-Dec-04 11:32N 31°58' E 120°25'583357.9
2016-Dec-04 11:31N 31°30' E 121°25'9913.7
2016-Dec-04 11:30N 31°22' E 121°30'015.9
2016-Dec-04 11:29N 31°22' E 121°30'81263.4
2016-Dec-04 11:29N 31°28' E 121°25'11680.8
2016-Dec-04 11:28N 31°37' E 121°18'191220.3
2016-Dec-04 11:27N 31°21' E 121°30'9689.6
2016-Dec-04 11:26N 31°29' E 121°25'66027938.1
2016-Dec-04 11:25N 23°06' E 113°25'65916260.7
2016-Dec-04 11:22N 31°30' E 121°23'6594350.0
2016-Dec-04 11:13N 23°04' E 113°29'66012447.3
2016-Dec-04 11:10N 31°49' E 121°01'361063.3
2016-Dec-04 11:08N 31°22' E 121°30'916.4
2016-Dec-04 10:33N 31°30' E 121°25'1356.4
2016-Dec-04 10:33N 31°29' E 121°25'64625.3
2016-Dec-04 10:33N 31°25' E 121°30'17549.3
2016-Dec-04 10:31N 31°38' E 121°18'205031.2
2016-Dec-04 10:31N 31°22' E 121°30'11384.3
2016-Dec-04 10:29N 31°30' E 121°23'5725515.5
2016-Dec-04 10:29N 31°58' E 120°25'587767.4
2016-Dec-04 10:29N 31°30' E 121°25'0349.4
2016-Dec-04 10:29N 31°30' E 121°25'65914920.9
2016-Dec-04 10:26N 23°04' E 113°29'66115150.9
2016-Dec-04 10:23N 31°37' E 121°18'703488.3
2016-Dec-04 10:22N 31°59' E 120°00'8613399.0
2016-Dec-04 10:22N 31°21' E 121°30'1 7.2
2016-Dec-04 10:16N 31°22' E 121°30'1825.8
2016-Dec-04 09:33N 31°37' E 121°18'106942.6
2016-Dec-04 09:33N 31°29' E 121°25'0116.2
2016-Dec-04 09:33N 31°29' E 121°25'7243343.9
2016-Dec-04 09:33N 31°57' E 120°06'182174.0
2016-Dec-04 09:33N 32°01' E 120°27'6711470.3
2016-Dec-04 09:32N 31°21' E 121°30'0632.3
2016-Dec-04 09:32N 31°22' E 121°30'47146.4
2016-Dec-04 09:32N 31°25' E 121°31'321975.6
2016-Dec-04 09:31N 31°46' E 121°02'397080.5
2016-Dec-04 09:31N 31°15' E 121°31'65249950.9
2016-Dec-04 09:30N 23°06' E 113°26'660791599.2
2016-Dec-04 09:30N 31°30' E 121°25'65911408.4
2016-Dec-04 09:27N 23°04' E 113°29'65776260.2
2016-Dec-04 09:26N 31°20' E 121°33'22916.5
2016-Dec-04 09:25N 31°38' E 121°18'1922.6
2016-Dec-04 08:34N 31°23' E 121°33'7510803.6
2016-Dec-04 08:33N 31°57' E 120°13'7711989.6
2016-Dec-04 08:33N 31°23' E 121°34'1658047.6
2016-Dec-04 08:33N 31°33' E 121°19'5579.1
2016-Dec-04 08:32N 31°29' E 121°25'1527594.1
2016-Dec-04 08:32N 31°15' E 121°31'65260211.7
2016-Dec-04 08:31N 23°02' E 113°31'3576.9
2016-Dec-04 08:31N 23°04' E 113°29'656157535.1
2016-Dec-04 08:31N 31°19' E 121°34'13495.9
2016-Dec-04 08:29N 31°30' E 121°25'528088.5
2016-Dec-04 08:29N 32°00' E 120°36'431135.0
2016-Dec-04 08:27N 31°37' E 121°18'9180.7
2016-Dec-04 08:24N 31°30' E 121°24'51212700.2
2016-Dec-04 08:21N 23°40' E 117°37'5061826.9
2016-Dec-04 08:05N 31°21' E 121°30'1936.6
2016-Dec-04 07:34N 31°36' E 121°16'9806.6
2016-Dec-04 07:33N 31°42' E 121°09'18987.4
2016-Dec-04 07:32N 31°30' E 121°24'6322574.7
2016-Dec-04 07:32N 31°59' E 120°19'634825.4
2016-Dec-04 07:31N 31°29' E 121°25'6632386278.4
2016-Dec-04 07:31N 22°56' E 113°33'66041697.8
2016-Dec-04 07:30N 31°22' E 121°30'6913097.8
2016-Dec-04 07:30N 32°02' E 120°23'614241.5
2016-Dec-04 07:29N 31°30' E 121°25'16657.9
2016-Dec-04 07:27N 31°15' E 121°31'652156377.7
2016-Dec-04 07:27N 23°04' E 113°29'6614757.5
2016-Dec-04 07:19N 31°37' E 121°18'19518.5
2016-Dec-04 07:17N 31°21' E 121°30'418.1
2016-Dec-04 07:05N 31°23' E 121°34'2139.8
2016-Dec-04 06:33N 31°37' E 121°17'252390.8
2016-Dec-04 06:33N 31°15' E 121°31'7943.3
2016-Dec-04 06:32N 31°22' E 121°29'1364.6
2016-Dec-04 06:32N 31°21' E 121°30'292665.6
2016-Dec-04 06:31N 31°43' E 121°08'4311803.5
2016-Dec-04 06:31N 32°01' E 120°22'613032.0
2016-Dec-04 06:30N 31°29' E 121°25'057.8
2016-Dec-04 06:30N 31°30' E 121°25'11572.6
2016-Dec-04 06:28N 31°23' E 121°34'11271.8
2016-Dec-04 06:26N 31°30' E 121°24'93675.5
2016-Dec-04 06:26N 31°22' E 121°30'18673.8
2016-Dec-04 06:24N 31°37' E 121°18'11476.9
2016-Dec-04 06:23N 31°28' E 121°25'62732.9
2016-Dec-04 06:18N 32°02' E 120°23'4824708.1
2016-Dec-04 06:18N 31°39' E 121°13'1418.8
2016-Dec-04 05:33N 31°30' E 121°25'142368.6
2016-Dec-04 05:33N 31°39' E 121°13'1075355.3
2016-Dec-04 05:32N 29°59' E 121°57'9810067.2
2016-Dec-04 05:31N 31°32' E 121°23'4432.3
2016-Dec-04 05:31N 31°28' E 121°25'62224263.7
2016-Dec-04 05:31N 32°02' E 120°23'703925.8
2016-Dec-04 05:30N 31°21' E 121°30'196.5
2016-Dec-04 05:29N 31°23' E 121°30'416651.1
2016-Dec-04 05:28N 31°50' E 120°54'65828879.0
2016-Dec-04 05:27N 23°04' E 113°29'66150613.3
2016-Dec-04 05:26N 31°37' E 121°18'514609.9
2016-Dec-04 05:26N 32°03' E 120°26'60787.4
2016-Dec-04 05:21N 31°29' E 121°25'103129.0
2016-Dec-04 04:33N 29°54' E 122°09'112402831.8
2016-Dec-04 04:33N 31°37' E 121°18'191681.9
2016-Dec-04 04:33N 31°47' E 120°59'312592.7
2016-Dec-04 04:32N 32°04' E 120°29'5338365.5
2016-Dec-04 04:32N 31°33' E 121°20'14997.4
2016-Dec-04 04:31N 31°24' E 121°32'82474.2
2016-Dec-04 04:31N 31°30' E 121°24'0 2.3
2016-Dec-04 04:28N 31°29' E 121°25'125176.4
2016-Dec-04 04:28N 31°22' E 121°35'251325.8
2016-Dec-04 04:26N 31°39' E 121°13'232343.2
2016-Dec-04 04:26N 31°21' E 121°30'4131.2
2016-Dec-04 04:24N 31°25' E 121°34'1072.7
2016-Dec-04 04:15N 31°30' E 121°23'60585.9
2016-Dec-04 04:09N 32°02' E 120°23'498834.0
2016-Dec-04 03:33N 23°59' E 118°05'48061725.9
2016-Dec-04 03:33N 31°23' E 121°30'3111108.5
2016-Dec-04 03:33N 31°45' E 121°05'491136047.9
2016-Dec-04 03:32N 24°00' E 118°06'47982167.9
2016-Dec-04 03:32N 31°23' E 121°34'31425.5
2016-Dec-04 03:32N 31°20' E 121°34'5305.7
2016-Dec-04 03:31N 31°25' E 121°34'9477.1
2016-Dec-04 03:30N 31°29' E 121°25'10353.5
2016-Dec-04 03:28N 31°37' E 121°18'4691688829.4
2016-Dec-04 03:28N 24°19' E 118°07'46910174.7
2016-Dec-04 03:25N 31°39' E 121°13'132276.4
2016-Dec-04 03:25N 31°30' E 121°25'16542.8
2016-Dec-04 03:23N 31°15' E 121°31'983551.4
2016-Dec-04 03:22N 29°42' E 122°04'1142974.8
2016-Dec-04 03:19N 31°30' E 121°23'3296.4
2016-Dec-04 03:19N 31°28' E 121°25'65814810.1
2016-Dec-04 03:16N 23°04' E 113°29'6565806.3
2016-Dec-04 03:09N 31°20' E 121°32'721124.5
2016-Dec-04 03:06N 32°02' E 120°23'5397.8
2016-Dec-04 02:33N 31°37' E 121°18'84234.3
2016-Dec-04 02:33N 31°42' E 121°10'13033364.9
2016-Dec-04 02:33N 29°42' E 122°07'9917736.5
2016-Dec-04 02:33N 31°15' E 121°29'1199.2
2016-Dec-04 02:32N 31°15' E 121°31'664597654.8
2016-Dec-04 02:32N 22°54' E 113°21'276124059.6
2016-Dec-04 02:32N 24°05' E 118°12'13904.6
2016-Dec-04 02:32N 24°05' E 118°13'475285238.8
2016-Dec-04 02:32N 31°29' E 121°25'0 7.7
2016-Dec-04 02:31N 31°29' E 121°25'0103.7
2016-Dec-04 02:31N 31°30' E 121°25'143250.7
2016-Dec-04 02:31N 31°18' E 121°34'102238.0
2016-Dec-04 02:30N 31°27' E 121°28'19415.0
2016-Dec-04 02:28N 31°40' E 121°12'31629.5
2016-Dec-04 02:25N 31°22' E 121°41'66244145.6
2016-Dec-04 02:24N 23°04' E 113°29'65660595.1
2016-Dec-04 02:23N 31°20' E 121°32'2428.6
2016-Dec-04 01:33N 31°38' E 121°14'12514086.5
2016-Dec-04 01:33N 29°42' E 122°07'10330966.8
2016-Dec-04 01:33N 31°20' E 121°32'3406.0
2016-Dec-04 01:32N 31°23' E 121°34'674404625.3
2016-Dec-04 01:32N 22°19' E 114°07'67854202.1
2016-Dec-04 01:31N 31°37' E 121°18'251384.5
2016-Dec-04 01:30N 31°15' E 121°31'16346.3
2016-Dec-04 01:28N 31°30' E 121°25'41718552.8
2016-Dec-04 01:26N 38°27' E 120°56'4276648.3
2016-Dec-04 01:22N 31°22' E 121°41'46531604.9
2016-Dec-04 01:22N 24°11' E 118°20'4628998.7
2016-Dec-04 01:18N 31°22' E 121°30'24526.3
2016-Dec-04 01:16N 31°41' E 121°12'6604831.0
2016-Dec-04 01:08N 23°04' E 113°29'1120.1
2016-Dec-04 00:34N 22°53' E 113°31'6672401827.7
2016-Dec-04 00:33N 31°38' E 121°14'1258300.8
2016-Dec-04 00:33N 29°42' E 122°05'1135509.7
2016-Dec-04 00:31N 31°29' E 121°25'13917.5
2016-Dec-04 00:31N 31°38' E 121°14'67778587.7
2016-Dec-04 00:30N 22°18' E 114°07'1030123565.0
2016-Dec-04 00:29N 38°27' E 120°54'410105408.5
2016-Dec-04 00:29N 31°37' E 121°18'9650.9
2016-Dec-04 00:28N 31°30' E 121°25'12396.8
2016-Dec-04 00:27N 31°20' E 121°32'7290.2
2016-Dec-04 00:25N 31°22' E 121°41'45810491.4
2016-Dec-04 00:23N 24°17' E 118°27'4546260.0
2016-Dec-04 00:18N 31°21' E 121°31'6568618.6
2016-Dec-04 00:14N 23°04' E 113°29'6618068.2
2016-Dec-04 00:09N 31°22' E 121°38'101171.6
2016-Dec-03 23:33N 29°44' E 122°03'29797326.8
2016-Dec-03 23:33N 25°18' E 119°32'391200908.3
2016-Dec-03 23:33N 31°38' E 121°14'272958.1
2016-Dec-03 23:33N 31°15' E 121°31'4321555477.3
2016-Dec-03 23:32N 38°26' E 120°52'40522809.1
2016-Dec-03 23:31N 31°41' E 121°12'151537.3
2016-Dec-03 23:31N 31°30' E 121°25'161105.7
2016-Dec-03 23:30N 31°21' E 121°40'7251.2
2016-Dec-03 23:28N 31°20' E 121°32'264076.8
2016-Dec-03 23:28N 31°40' E 121°13'15429.9
2016-Dec-03 23:26N 31°29' E 121°25'16715.5
2016-Dec-03 23:25N 31°22' E 121°41'77138550.7
2016-Dec-03 23:25N 32°02' E 120°24'67363720.5
2016-Dec-03 23:24N 22°18' E 114°07'582261.8
2016-Dec-03 23:22N 23°04' E 113°29'2913086.4
2016-Dec-03 23:17N 24°24' E 118°35'45712461.9
2016-Dec-03 23:14N 31°37' E 121°18'181304.4
2016-Dec-03 23:14N 31°22' E 121°30'2151.9
2016-Dec-03 23:13N 31°20' E 121°32'11613.6
2016-Dec-03 23:12N 31°30' E 121°24'914.7
2016-Dec-03 22:33N 31°37' E 121°18'113406709.5
2016-Dec-03 22:33N 29°53' E 122°09'11529630.8
2016-Dec-03 22:33N 31°38' E 121°14'40877370.6
2016-Dec-03 22:33N 38°26' E 120°52'41724218.5
2016-Dec-03 22:32N 31°30' E 121°25'67520958.2
2016-Dec-03 22:30N 22°18' E 114°07'66719838.0
2016-Dec-03 22:28N 31°15' E 121°31'30238.7
2016-Dec-03 22:20N 31°41' E 121°12'16221.7
2016-Dec-03 22:16N 31°29' E 121°25'96135.6
2016-Dec-03 21:33N 29°58' E 121°57'1092135.6
2016-Dec-03 21:30N 31°39' E 121°13'141460.2
2016-Dec-03 21:30N 31°30' E 121°25'15320.3
2016-Dec-03 21:27N 31°41' E 121°12'16332.2
2016-Dec-03 21:24N 31°29' E 121°25'13154.6
2016-Dec-03 21:19N 31°38' E 121°14'6772985.2
2016-Dec-03 21:06N 22°18' E 114°07'67549597.1
2016-Dec-03 21:05N 31°30' E 121°25'0 0.2
2016-Dec-03 20:33N 31°30' E 121°24'030.0
2016-Dec-03 20:32N 31°30' E 121°24'8213390.3
2016-Dec-03 20:31N 32°03' E 119°56'66220369.1
2016-Dec-03 20:30N 22°18' E 114°07'67816378.4
2016-Dec-03 20:27N 31°37' E 121°18'25870.8
2016-Dec-03 20:25N 31°15' E 121°31'2714017.8
2016-Dec-03 20:25N 31°38' E 121°14'11284.3
2016-Dec-03 20:23N 31°46' E 121°04'8472.1
2016-Dec-03 20:22N 31°41' E 121°12'2 2.6
2016-Dec-03 19:33N 31°42' E 121°10'7416.2
2016-Dec-03 19:32N 31°46' E 121°03'254247.8
2016-Dec-03 19:32N 31°29' E 121°25'7912945.4
2016-Dec-03 19:32N 32°00' E 119°59'6711553.2
2016-Dec-03 19:31N 31°38' E 121°14'121917.7
2016-Dec-03 19:31N 31°30' E 121°24'91101.1
2016-Dec-03 19:30N 31°37' E 121°18'40913161.4
2016-Dec-03 19:28N 38°26' E 120°57'42719943.1
2016-Dec-03 19:27N 31°20' E 121°25'6929.8
2016-Dec-03 19:27N 31°20' E 121°32'6152.5
2016-Dec-03 19:25N 31°15' E 121°31'29438.1
2016-Dec-03 19:21N 31°40' E 121°13'66055272.5
2016-Dec-03 19:20N 23°04' E 113°29'6608520.1
2016-Dec-03 19:15N 31°41' E 121°12'31269.1
2016-Dec-03 19:08N 31°21' E 121°39'15217.4
2016-Dec-03 19:04N 31°09' E 121°27'769406.8
2016-Dec-03 19:04N 32°02' E 120°24'61119.8
2016-Dec-03 18:33N 31°30' E 121°24'75271713.4
2016-Dec-03 18:33N 31°58' E 120°02'6337711.2
2016-Dec-03 18:33N 31°40' E 121°13'2590.2
2016-Dec-03 18:33N 31°38' E 121°14'4402.0
2016-Dec-03 18:32N 31°37' E 121°18'155.2
2016-Dec-03 18:31N 31°37' E 121°17'7247.4
2016-Dec-03 18:29N 31°42' E 121°10'283309.5
2016-Dec-03 18:29N 31°20' E 121°32'67213743.9
2016-Dec-03 18:26N 22°18' E 114°07'67859522.0
2016-Dec-03 18:25N 31°41' E 121°12'32148.0
2016-Dec-03 18:12N 31°12' E 121°30'181259.6
2016-Dec-03 18:11N 31°30' E 121°24'132649.5
2016-Dec-03 18:11N 31°20' E 121°33'5 8.2
2016-Dec-03 17:33N 31°15' E 121°31'73978.0
2016-Dec-03 17:33N 31°22' E 121°30'8011059.5
2016-Dec-03 17:33N 31°57' E 120°06'7768928.0
2016-Dec-03 17:33N 31°20' E 121°25'195702.0
2016-Dec-03 17:32N 31°38' E 121°16'261002.7
2016-Dec-03 17:31N 31°15' E 121°30'81868.3
2016-Dec-03 17:31N 31°23' E 121°30'3480.8
2016-Dec-03 17:30N 31°20' E 121°32'121505.1
2016-Dec-03 17:30N 31°30' E 121°24'121296.4
2016-Dec-03 17:29N 31°38' E 121°14'65914561.0
2016-Dec-03 17:27N 23°04' E 113°29'660132044.5
2016-Dec-03 17:26N 31°41' E 121°12'155570.7
2016-Dec-03 17:26N 31°29' E 121°25'101505.5
2016-Dec-03 17:26N 31°37' E 121°18'3779137422.1
2016-Dec-03 17:24S 23°50' E 151°15'382643731.2
2016-Dec-03 17:19N 32°02' E 120°24'472103.6
2016-Dec-03 17:17N 31°40' E 121°13'678121980.5
2016-Dec-03 17:17N 22°18' E 114°07'676927.0
2016-Dec-03 16:33N 31°33' E 121°20'56100347.4
2016-Dec-03 16:33N 32°02' E 120°24'131565.9
2016-Dec-03 16:33N 31°56' E 120°10'5710885.2
2016-Dec-03 16:32N 31°38' E 121°14'278746.2
2016-Dec-03 16:32N 31°18' E 121°34'71059.3
2016-Dec-03 16:32N 31°21' E 121°27'73180.8
2016-Dec-03 16:32N 31°28' E 121°25'86780.6
2016-Dec-03 16:32N 31°22' E 121°30'9695.4
2016-Dec-03 16:31N 31°30' E 121°25'0174.8
2016-Dec-03 16:31N 31°30' E 121°24'67522501.3
2016-Dec-03 16:29N 22°18' E 114°07'67823691.1
2016-Dec-03 16:27N 31°37' E 121°18'66191487.7
2016-Dec-03 16:27N 23°04' E 113°29'65949406.2
2016-Dec-03 16:26N 31°29' E 121°25'16240.2
2016-Dec-03 16:22N 31°41' E 121°12'302321.5
2016-Dec-03 16:21N 31°15' E 121°31'6605064.1
2016-Dec-03 16:14N 22°51' E 113°33'66421160.6
2016-Dec-03 16:12N 31°21' E 121°30'113.5
2016-Dec-03 16:09N 31°22' E 121°30'71120.0
2016-Dec-03 15:33N 31°58' E 120°18'6320618.3
2016-Dec-03 15:33N 31°29' E 121°25'103100.5
2016-Dec-03 15:33N 31°21' E 121°31'233060.2
2016-Dec-03 15:33N 31°38' E 121°14'5417692.4
2016-Dec-03 15:32N 31°56' E 120°14'14528928.5
2016-Dec-03 15:32N 29°58' E 121°51'95343759.0
2016-Dec-03 15:32N 31°31' E 121°25'92217.8
2016-Dec-03 15:32N 31°37' E 121°18'9553.0
2016-Dec-03 15:31N 31°30' E 121°25'266.7
2016-Dec-03 15:29N 31°28' E 121°25'1655.3
2016-Dec-03 15:12N 31°40' E 121°13'5076.8
2016-Dec-03 14:33N 31°58' E 120°18'6518100.1
2016-Dec-03 14:33N 31°28' E 121°26'986774.1
2016-Dec-03 14:32N 29°56' E 122°03'11139985.8
2016-Dec-03 14:32N 31°38' E 121°14'13431.1
2016-Dec-03 14:30N 31°29' E 121°24'15455.2
2016-Dec-03 14:28N 31°40' E 121°13'1526201.0
2016-Dec-03 14:28N 31°29' E 121°25'0172.9
2016-Dec-03 14:28N 31°30' E 121°25'91006.0
2016-Dec-03 14:27N 31°37' E 121°18'11408.6
2016-Dec-03 14:26N 31°28' E 121°25'323371.4
2016-Dec-03 13:33N 36°47' E 122°31'32154949.6
2016-Dec-03 13:33N 31°32' E 121°20'110396337.8
2016-Dec-03 13:33N 29°49' E 122°06'114205279.5
2016-Dec-03 13:33N 31°35' E 121°18'543194.1
2016-Dec-03 13:32N 31°60' E 120°21'574979.8
2016-Dec-03 13:31N 31°33' E 121°20'7514169.0
2016-Dec-03 13:31N 32°00' E 119°58'803976.7
2016-Dec-03 13:30N 31°30' E 121°25'161295.2
2016-Dec-03 13:29N 31°40' E 121°11'17720.2
2016-Dec-03 13:28N 31°28' E 121°25'17131.6
2016-Dec-03 13:20N 31°41' E 121°12'211915.9
2016-Dec-03 13:19N 31°26' E 121°30'20265.3
2016-Dec-03 13:15N 31°40' E 121°13'291493.0
2016-Dec-03 13:14N 31°15' E 121°30'255516.7
2016-Dec-03 13:13N 31°37' E 121°18'10353.6
2016-Dec-03 13:12N 31°29' E 121°25'3 4.7
2016-Dec-03 12:33N 31°32' E 121°22'3261174284.8
2016-Dec-03 12:33N 36°54' E 122°27'329295947.7
2016-Dec-03 12:33N 31°29' E 121°26'1113788.6
2016-Dec-03 12:33N 31°37' E 121°16'12318467.7
2016-Dec-03 12:33N 29°41' E 122°06'11451394.3
2016-Dec-03 12:33N 31°30' E 121°25'6016677.2
2016-Dec-03 12:33N 32°03' E 120°25'603955.4
2016-Dec-03 12:32N 31°29' E 121°25'15766.5
2016-Dec-03 12:30N 31°15' E 121°31'29745.1
2016-Dec-03 12:28N 31°40' E 121°13'2511160.0
2016-Dec-03 12:28N 31°21' E 121°31'2497.4
2016-Dec-03 12:28N 31°22' E 121°30'672172740.1
2016-Dec-03 12:28N 22°19' E 114°07'6758046.2
2016-Dec-03 12:23N 31°29' E 121°25'13128.0
2016-Dec-03 12:16N 31°39' E 121°14'668100208.6
2016-Dec-03 12:16N 22°51' E 113°33'66960237.1
2016-Dec-03 12:15N 31°37' E 121°18'5 7.8
2016-Dec-03 11:33N 31°32' E 121°20'121654.0
2016-Dec-03 11:33N 31°41' E 121°10'1922906.9
2016-Dec-03 11:33N 31°29' E 121°27'11213049.3
2016-Dec-03 11:32N 29°41' E 122°06'1145254.2
2016-Dec-03 11:31N 31°29' E 121°25'067.8
2016-Dec-03 11:31N 31°29' E 121°25'0223.2
2016-Dec-03 11:31N 31°30' E 121°25'16335.2
2016-Dec-03 11:28N 31°15' E 121°32'278.1
2016-Dec-03 11:27N 31°15' E 121°31'14183.4
2016-Dec-03 11:22N 31°28' E 121°25'21562.9
2016-Dec-03 11:20N 31°43' E 121°08'291082.5
2016-Dec-03 11:18N 31°21' E 121°30'65616513.5
2016-Dec-03 11:16N 23°04' E 113°29'14327.3
2016-Dec-03 11:13N 22°51' E 113°33'67018281.4
2016-Dec-03 11:11N 31°22' E 121°41'813.5
2016-Dec-03 10:33N 31°25' E 121°31'182336.8
2016-Dec-03 10:33N 31°36' E 121°16'12388531.4
2016-Dec-03 10:33N 29°41' E 122°06'13417229.6
2016-Dec-03 10:32N 31°45' E 121°05'66892499.1
2016-Dec-03 10:32N 22°51' E 113°33'66919565.9
2016-Dec-03 10:30N 31°22' E 121°37'9452.0
2016-Dec-03 10:29N 31°15' E 121°31'6608334.3
2016-Dec-03 10:24N 22°54' E 113°28'66928317.3
2016-Dec-03 10:23N 31°40' E 121°13'14342.6
2016-Dec-03 10:20N 31°30' E 121°25'0 7.3
2016-Dec-03 10:17N 31°29' E 121°25'10846.1
2016-Dec-03 10:16N 31°21' E 121°30'356301.2
2016-Dec-03 10:16N 31°46' E 121°02'26860.7
2016-Dec-03 10:14N 31°29' E 121°25'2841.1
2016-Dec-03 09:34N 31°46' E 120°59'138248215.8
2016-Dec-03 09:33N 29°41' E 122°06'12738121.8
2016-Dec-03 09:33N 31°40' E 121°12'20636.0
2016-Dec-03 09:31N 31°26' E 121°30'667600410.1
2016-Dec-03 09:31N 22°51' E 113°33'65836421.7
2016-Dec-03 09:30N 31°59' E 120°22'619150.4
2016-Dec-03 09:30N 31°30' E 121°24'10270.8
2016-Dec-03 09:28N 31°21' E 121°30'10373.2
2016-Dec-03 09:26N 31°30' E 121°24'0 5.6
2016-Dec-03 09:25N 31°30' E 121°25'191813.8
2016-Dec-03 09:24N 31°42' E 121°08'397.3
2016-Dec-03 09:23N 31°40' E 121°11'281603.7
2016-Dec-03 09:22N 31°20' E 121°33'65711255.7
2016-Dec-03 09:18N 23°04' E 113°29'65611929.7
2016-Dec-03 09:15N 31°22' E 121°30'3760111864.1
2016-Dec-03 09:13S 23°50' E 151°15'3768301421.6
2016-Dec-03 09:12N 31°28' E 121°25'1929.0
2016-Dec-03 08:33N 31°41' E 121°10'254144.9
2016-Dec-03 08:33N 31°23' E 121°30'10619114.7
2016-Dec-03 08:33N 29°41' E 122°06'38025834.5
2016-Dec-03 08:32N 24°21' E 118°16'469129934.6
2016-Dec-03 08:32N 31°47' E 121°01'667160193.4
2016-Dec-03 08:31N 22°51' E 113°33'668150402.4
2016-Dec-03 08:31N 31°41' E 121°12'164411.4
2016-Dec-03 08:31N 31°29' E 121°25'637540.9
2016-Dec-03 08:30N 31°58' E 120°19'646755.4
2016-Dec-03 08:30N 31°28' E 121°25'1336.9
2016-Dec-03 08:29N 31°29' E 121°25'659118570.4
2016-Dec-03 08:29N 23°04' E 113°29'65228959.4
2016-Dec-03 08:28N 31°15' E 121°31'52107.1
2016-Dec-03 08:28N 31°20' E 121°33'35279.1
2016-Dec-03 08:20N 31°45' E 121°05'222989.9
2016-Dec-03 08:20N 31°30' E 121°24'4152460.5
2016-Dec-03 08:10N 38°24' E 121°02'99971944.0
2016-Dec-03 08:09N 23°04' E 113°30'6131004.2
2016-Dec-03 07:32N 29°48' E 122°05'11157065.7
2016-Dec-03 07:32N 31°32' E 121°20'46272348.3
2016-Dec-03 07:32N 24°22' E 118°09'26845993.3
2016-Dec-03 07:31N 22°51' E 113°33'66764860.1
2016-Dec-03 07:31N 31°28' E 121°25'665092.7
2016-Dec-03 07:30N 31°56' E 120°14'6558735.9
2016-Dec-03 07:30N 31°30' E 121°24'012.3
2016-Dec-03 07:28N 31°30' E 121°24'021.3
2016-Dec-03 07:27N 31°29' E 121°25'191766.4
2016-Dec-03 07:26N 31°42' E 121°09'2237.4
2016-Dec-03 07:25N 31°41' E 121°11'4439.8
2016-Dec-03 07:25N 31°43' E 121°07'32584.6
2016-Dec-03 07:22N 31°20' E 121°33'5904.0
2016-Dec-03 07:21N 31°15' E 121°31'921995.7
2016-Dec-03 07:18N 32°01' E 119°57'622007.0
2016-Dec-03 07:17N 31°43' E 121°07'345901.9
2016-Dec-03 07:16N 31°17' E 121°34'299611.2
2016-Dec-03 07:16N 31°40' E 121°13'31433.8
2016-Dec-03 07:12N 31°13' E 121°30'84131.6
2016-Dec-03 06:34N 29°55' E 122°06'39552669.8
2016-Dec-03 06:33N 24°25' E 118°02'449134820.0
2016-Dec-03 06:33N 31°15' E 121°30'3713493.8
2016-Dec-03 06:33N 31°45' E 121°04'4914713.3
2016-Dec-03 06:33N 31°56' E 120°08'60108879.0
2016-Dec-03 06:32N 31°38' E 121°16'3654.4
2016-Dec-03 06:32N 31°35' E 121°17'2012216.2
2016-Dec-03 06:32N 31°20' E 121°33'392489.7
2016-Dec-03 06:31N 31°47' E 121°00'174456.7
2016-Dec-03 06:31N 31°37' E 121°17'096.6
2016-Dec-03 06:31N 31°37' E 121°17'66019472.8
2016-Dec-03 06:29N 23°04' E 113°29'6591186332.3
2016-Dec-03 06:29N 31°43' E 121°07'668120209.6
2016-Dec-03 06:28N 22°51' E 113°33'66754604.0
2016-Dec-03 06:28N 31°30' E 121°24'144.3
2016-Dec-03 06:27N 31°29' E 121°25'6599796.8
2016-Dec-03 06:23N 23°04' E 113°30'6514050.0
2016-Dec-03 06:13N 31°15' E 121°31'771.6
2016-Dec-03 06:07N 31°22' E 121°30'4115.9
2016-Dec-03 06:05N 31°24' E 121°34'2 3.7
2016-Dec-03 05:33N 31°24' E 121°31'9080820.1
2016-Dec-03 05:32N 29°57' E 121°59'847540.3
2016-Dec-03 05:32N 31°18' E 121°34'468841683.8
2016-Dec-03 05:32N 24°07' E 118°09'480864596.0
2016-Dec-03 05:32N 31°37' E 121°18'2170.8
2016-Dec-03 05:31N 31°38' E 121°15'65929305.8
2016-Dec-03 05:30N 23°04' E 113°29'14644.4
2016-Dec-03 05:28N 22°51' E 113°33'66810837.1
2016-Dec-03 05:25N 31°42' E 121°09'19208.9
2016-Dec-03 05:19N 31°30' E 121°26'22783.7
2016-Dec-03 05:17N 31°44' E 121°06'2 2.7
2016-Dec-03 04:33N 31°45' E 121°04'1172.7
2016-Dec-03 04:33N 31°45' E 121°06'49150544.3
2016-Dec-03 04:32N 23°59' E 118°11'47084574.3
2016-Dec-03 04:32N 31°15' E 121°29'65952693.6
2016-Dec-03 04:31N 22°51' E 113°33'66920397.2
2016-Dec-03 04:29N 31°39' E 121°14'31598.9
2016-Dec-03 04:29N 31°37' E 121°18'251123.5
2016-Dec-03 04:28N 31°15' E 121°31'7413.6
2016-Dec-03 04:27N 31°22' E 121°30'8152.6
2016-Dec-03 04:24N 31°28' E 121°25'46279264.2
2016-Dec-03 04:23N 24°24' E 117°57'46317191.9
2016-Dec-03 04:22N 31°30' E 121°24'1075.3
2016-Dec-03 04:14N 31°23' E 121°34'242760.1
2016-Dec-03 04:13N 31°39' E 121°13'204219.5
2016-Dec-03 04:13N 31°26' E 121°30'662.3
2016-Dec-03 04:07N 31°20' E 121°33'657788173.9
2016-Dec-03 04:07N 23°04' E 113°29'659237135.7
2016-Dec-03 04:07N 31°29' E 121°25'8803.9
2016-Dec-03 04:06N 31°23' E 121°30'871832.2
2016-Dec-03 04:04N 29°59' E 121°53'103202.7
2016-Dec-03 03:33N 31°37' E 121°18'235816.2
2016-Dec-03 03:33N 31°19' E 121°33'828447.1
2016-Dec-03 03:32N 29°59' E 121°53'8728436.5
2016-Dec-03 03:32N 31°23' E 121°31'2711978.3
2016-Dec-03 03:32N 31°43' E 121°09'1933912.6
2016-Dec-03 03:32N 31°29' E 121°25'032.8
2016-Dec-03 03:31N 31°30' E 121°25'8858.9
2016-Dec-03 03:30N 31°23' E 121°30'8305.4
2016-Dec-03 03:29N 31°29' E 121°25'042.7
2016-Dec-03 03:29N 31°29' E 121°24'7490.1
2016-Dec-03 03:28N 31°25' E 121°31'33710.0
2016-Dec-03 03:28N 31°22' E 121°30'472242738.4
2016-Dec-03 03:28N 24°04' E 118°11'48328486.8
2016-Dec-03 03:27N 31°38' E 121°18'11661.1
2016-Dec-03 03:26N 31°28' E 121°25'141395.4
2016-Dec-03 03:25N 31°15' E 121°31'282037.2
2016-Dec-03 03:24N 31°39' E 121°13'231952.4
2016-Dec-03 03:24N 31°24' E 121°34'4628797.6
2016-Dec-03 03:20N 24°24' E 117°57'2592013.3
2016-Dec-03 03:13N 22°51' E 113°34'14149.2
2016-Dec-03 03:07N 23°04' E 113°29'6591177.5
2016-Dec-03 02:34N 31°41' E 121°09'65994873.8
2016-Dec-03 02:33N 23°04' E 113°30'27038920.4
2016-Dec-03 02:33N 24°09' E 118°16'47665919.6
2016-Dec-03 02:32N 31°38' E 121°18'46873310.7
2016-Dec-03 02:32N 24°24' E 117°57'461830281.4
2016-Dec-03 02:32N 31°21' E 121°39'15807.5
2016-Dec-03 02:31N 31°29' E 121°24'151206.1
2016-Dec-03 02:30N 31°15' E 121°31'135903.3
2016-Dec-03 02:30N 31°28' E 121°27'128843.2
2016-Dec-03 02:30N 31°37' E 121°18'66121819.2
2016-Dec-03 02:28N 23°04' E 113°29'6592372459.9
2016-Dec-03 02:28N 31°30' E 121°25'93725.2
2016-Dec-03 02:28N 31°22' E 121°30'4849.8
2016-Dec-03 02:27N 31°24' E 121°34'231163.9
2016-Dec-03 02:26N 31°40' E 121°14'1061905.1
2016-Dec-03 02:23N 29°59' E 121°53'94318.2
2016-Dec-03 02:05N 31°29' E 121°25'2 3.3
2016-Dec-03 01:33N 31°30' E 121°23'82168.8
2016-Dec-03 01:33N 31°37' E 121°18'1036629.7
2016-Dec-03 01:32N 29°59' E 121°53'873929.6
2016-Dec-03 01:31N 31°24' E 121°34'275093.4
2016-Dec-03 01:31N 31°41' E 121°09'181833.4
2016-Dec-03 01:30N 31°29' E 121°25'157851.7
2016-Dec-03 01:30N 31°15' E 121°31'251301.6
2016-Dec-03 01:29N 31°38' E 121°18'51094.8
2016-Dec-03 01:28N 31°32' E 121°20'459.2
2016-Dec-03 01:24N 31°30' E 121°25'6599843.5
2016-Dec-03 01:20N 23°04' E 113°29'66018009.8
2016-Dec-03 01:18N 31°40' E 121°14'46936701.7
2016-Dec-03 01:17N 24°24' E 117°57'43510645.3
2016-Dec-03 01:14N 30°59' E 121°22'63525106.3
2016-Dec-03 01:13N 23°04' E 113°30'6579094.1
2016-Dec-03 01:09N 31°23' E 121°30'121.0
2016-Dec-03 01:05N 31°22' E 121°30'1935.4
2016-Dec-03 00:33N 31°37' E 121°18'42238.2
2016-Dec-03 00:33N 31°33' E 121°19'52335.3
2016-Dec-03 00:33N 31°38' E 121°18'87589.4
2016-Dec-03 00:33N 31°41' E 121°09'6019597.2
2016-Dec-03 00:33N 31°59' E 120°02'918848.3
2016-Dec-03 00:32N 30°59' E 121°22'43548900.7
2016-Dec-03 00:32N 24°24' E 117°57'46762200.1
2016-Dec-03 00:31N 31°36' E 121°17'191332.6
2016-Dec-03 00:31N 31°24' E 121°34'9331.4
2016-Dec-03 00:29N 31°30' E 121°25'65940197.6
2016-Dec-03 00:28N 23°04' E 113°30'65617492.9
2016-Dec-03 00:26N 31°22' E 121°30'7229.1
2016-Dec-03 00:24N 31°15' E 121°31'962.4
2016-Dec-03 00:15N 31°20' E 121°39'771299.4
2016-Dec-03 00:12N 31°59' E 120°21'5383.2
2016-Dec-02 23:34N 31°37' E 121°18'6611188986.2
2016-Dec-02 23:33N 23°04' E 113°30'659169441.9
2016-Dec-02 23:33N 31°41' E 121°09'65994900.5
2016-Dec-02 23:33N 23°04' E 113°29'6592373713.6
2016-Dec-02 23:33N 31°37' E 121°16'198366.3
2016-Dec-02 23:33N 31°23' E 121°30'256540.5
2016-Dec-02 23:32N 30°59' E 121°22'43540124.2
2016-Dec-02 23:32N 24°24' E 117°57'46844380.3
2016-Dec-02 23:31N 31°40' E 121°12'5116547.9
2016-Dec-02 23:31N 31°57' E 120°16'564368.4
2016-Dec-02 23:30N 31°37' E 121°18'251055.7
2016-Dec-02 23:29N 31°15' E 121°31'10512.7
2016-Dec-02 23:28N 31°24' E 121°34'92821.1
2016-Dec-02 23:27N 31°30' E 121°25'7142457.1
2016-Dec-02 23:27N 31°57' E 120°08'781650.6
2016-Dec-02 23:25N 31°22' E 121°30'849.8
2016-Dec-02 23:15N 31°20' E 121°39'151805.1
2016-Dec-02 23:15N 31°29' E 121°25'61722.2
2016-Dec-02 23:10N 32°00' E 120°23'67111.3
2016-Dec-02 22:33N 31°22' E 121°28'611595.5
2016-Dec-02 22:33N 31°17' E 121°34'3424190.3
2016-Dec-02 22:33N 31°43' E 121°08'65981823.8
2016-Dec-02 22:33N 23°04' E 113°29'641177630.3
2016-Dec-02 22:33N 31°57' E 120°12'8318633.6
2016-Dec-02 22:32N 30°59' E 121°22'43546024.2
2016-Dec-02 22:32N 24°24' E 117°57'468140400.8
2016-Dec-02 22:32N 31°37' E 121°18'258117.3
2016-Dec-02 22:31N 31°15' E 121°31'251749.9
2016-Dec-02 22:31N 31°37' E 121°18'11587.6
2016-Dec-02 22:29N 31°28' E 121°25'194877.8
2016-Dec-02 22:29N 31°41' E 121°09'18863.4
2016-Dec-02 22:28N 31°29' E 121°25'65917697.4
2016-Dec-02 22:26N 23°04' E 113°29'66095092.5
2016-Dec-02 22:25N 31°40' E 121°14'581743.0
2016-Dec-02 22:23N 31°56' E 120°09'9349.5
2016-Dec-02 22:22N 31°58' E 120°19'623499.1
2016-Dec-02 22:21N 31°30' E 121°25'91133.9
2016-Dec-02 22:20N 31°24' E 121°34'46121542.6
2016-Dec-02 22:19N 24°15' E 118°25'469619.9
2016-Dec-02 21:34N 31°40' E 121°14'43563.3
2016-Dec-02 21:33N 31°37' E 121°18'2512673.7
2016-Dec-02 21:33N 31°20' E 121°39'155537.0
2016-Dec-02 21:33N 31°30' E 121°25'627731.9
2016-Dec-02 21:33N 31°59' E 120°20'748363.5
2016-Dec-02 21:32N 31°19' E 121°33'5407.4
2016-Dec-02 21:31N 31°15' E 121°31'151709.3
2016-Dec-02 21:31N 31°29' E 121°25'1011950.4
2016-Dec-02 21:31N 31°37' E 121°18'8827.4
2016-Dec-02 21:30N 31°41' E 121°09'484139.6
2016-Dec-02 21:30N 31°56' E 120°15'8120796.3
2016-Dec-02 21:29N 30°59' E 121°22'291114.1
2016-Dec-02 21:28N 31°28' E 121°25'46213757.0
2016-Dec-02 21:26N 24°24' E 117°57'258185929.4
2016-Dec-02 21:26N 23°04' E 113°29'6591186366.9
2016-Dec-02 21:26N 31°45' E 121°04'242200.8
2016-Dec-02 21:25N 31°29' E 121°25'4638549.6
2016-Dec-02 21:22N 24°15' E 118°24'78678649.4
2016-Dec-02 21:21N 36°53' E 122°26'33741859.6
2016-Dec-02 21:21N 31°20' E 121°23'1042.1
2016-Dec-02 21:06N 31°24' E 121°34'78143.8
2016-Dec-02 20:33N 31°56' E 120°09'6112179.2
2016-Dec-02 20:33N 31°37' E 121°18'393971.1
2016-Dec-02 20:32N 30°59' E 121°22'293024.0
2016-Dec-02 20:32N 31°28' E 121°25'462416155.2
2016-Dec-02 20:32N 24°24' E 117°57'780401301.6
2016-Dec-02 20:32N 36°49' E 122°28'33033938.1
2016-Dec-02 20:31N 31°22' E 121°30'830419.2
2016-Dec-02 20:31N 31°29' E 121°25'187117.8
2016-Dec-02 20:31N 31°41' E 121°09'32115327.7
2016-Dec-02 20:31N 31°15' E 121°31'16810.2
2016-Dec-02 20:30N 31°30' E 121°24'65938261.4
2016-Dec-02 20:29N 23°04' E 113°29'202577.5
2016-Dec-02 20:28N 22°45' E 113°24'672483652.1
2016-Dec-02 20:28N 32°03' E 120°25'765920.9
2016-Dec-02 20:27N 31°20' E 121°39'292858.9
2016-Dec-02 20:27N 31°40' E 121°14'1494.3
2016-Dec-02 20:18N 31°29' E 121°25'9386.4
2016-Dec-02 20:17N 31°24' E 121°34'10147.8
2016-Dec-02 20:12N 31°20' E 121°23'455699.7
2016-Dec-02 19:33N 24°15' E 118°19'47099448.1
2016-Dec-02 19:33N 31°37' E 121°18'253597.3
2016-Dec-02 19:33N 31°15' E 121°31'327686.2
2016-Dec-02 19:33N 31°41' E 121°09'4415764.3
2016-Dec-02 19:32N 30°59' E 121°22'31860.4
2016-Dec-02 19:30N 31°29' E 121°25'851.4
2016-Dec-02 19:20N 31°22' E 121°30'45947163.9
2016-Dec-02 19:20N 24°24' E 117°57'3512842859.8
2016-Dec-02 19:19S 23°47' E 151°11'376689780.6
2016-Dec-02 19:17N 31°30' E 121°24'65911981.2
2016-Dec-02 19:14N 23°04' E 113°29'66042451.1
2016-Dec-02 19:13N 31°40' E 121°14'15450.0
2016-Dec-02 19:11N 31°28' E 121°25'8224.0
2016-Dec-02 19:09N 31°24' E 121°34'10188.4
2016-Dec-02 19:05N 31°20' E 121°23'1833.5
2016-Dec-02 18:33N 31°37' E 121°18'47070492.7
2016-Dec-02 18:33N 24°17' E 118°11'26974363.0
2016-Dec-02 18:33N 23°04' E 113°29'635253936.2
2016-Dec-02 18:32N 30°59' E 121°22'417822.3
2016-Dec-02 18:32N 31°40' E 121°14'415747.9
2016-Dec-02 18:32N 31°41' E 121°09'81623.4
2016-Dec-02 18:32N 31°37' E 121°17'115105.1
2016-Dec-02 18:32N 31°28' E 121°25'1237.5
2016-Dec-02 18:31N 31°29' E 121°25'151839.6
2016-Dec-02 18:31N 31°15' E 121°31'16324.8
2016-Dec-02 18:28N 31°30' E 121°24'10748.2
2016-Dec-02 18:27N 31°24' E 121°34'4340.5
2016-Dec-02 18:26N 31°22' E 121°30'6502.5
2016-Dec-02 18:26N 31°20' E 121°23'302281.2
2016-Dec-02 18:25N 31°45' E 121°03'1152238.7
2016-Dec-02 18:22N 29°55' E 121°39'60015894.3
2016-Dec-02 18:19N 23°04' E 113°29'661863.2
2016-Dec-02 17:34N 31°38' E 121°18'1125.5
2016-Dec-02 17:33N 31°37' E 121°18'829300.1
2016-Dec-02 17:33N 31°41' E 121°09'659182493.1
2016-Dec-02 17:33N 23°04' E 113°29'63563482.8
2016-Dec-02 17:32N 30°59' E 121°22'413095.4
2016-Dec-02 17:32N 31°40' E 121°14'2381622.4
2016-Dec-02 17:32N 31°24' E 121°34'81375.9
2016-Dec-02 17:31N 31°28' E 121°25'14611.9
2016-Dec-02 17:30N 31°15' E 121°31'253103.3
2016-Dec-02 17:29N 31°37' E 121°17'101119.5
2016-Dec-02 17:29N 31°29' E 121°25'9399.7
2016-Dec-02 17:28N 31°22' E 121°30'34388.4
2016-Dec-02 17:22N 31°46' E 121°02'253008.9
2016-Dec-02 17:22N 31°30' E 121°24'6674286.4
2016-Dec-02 17:12N 22°51' E 113°34'263139.4
2016-Dec-02 17:12N 22°31' E 113°51'6744650.0
2016-Dec-02 17:03N 31°20' E 121°39'612.0
2016-Dec-02 16:33N 31°24' E 121°34'2340750.2
2016-Dec-02 16:33N 31°40' E 121°14'2814607.3
2016-Dec-02 16:33N 31°15' E 121°31'3257646.4
2016-Dec-02 16:33N 31°41' E 121°09'87425.3
2016-Dec-02 16:33N 31°37' E 121°18'184400.0
2016-Dec-02 16:33N 31°22' E 121°30'674606901.0
2016-Dec-02 16:33N 22°45' E 113°24'194032.1
2016-Dec-02 16:33N 23°03' E 113°30'662297768.6
2016-Dec-02 16:32N 31°38' E 121°18'3920183.1
2016-Dec-02 16:32N 30°59' E 121°22'313601.8
2016-Dec-02 16:32N 31°30' E 121°24'464139088.9
2016-Dec-02 16:32N 24°24' E 117°57'46826327.0
2016-Dec-02 16:31N 31°37' E 121°18'1097.1
2016-Dec-02 16:25N 31°29' E 121°25'6672651.3
2016-Dec-02 16:09N 22°51' E 113°34'66615670.9
2016-Dec-02 16:07N 31°28' E 121°25'67214408.3
2016-Dec-02 16:04N 22°31' E 113°52'253489.6
2016-Dec-02 15:33N 24°24' E 117°58'467336585.2
2016-Dec-02 15:33N 31°37' E 121°18'259925.5
2016-Dec-02 15:33N 31°15' E 121°31'3238477.9
2016-Dec-02 15:33N 31°41' E 121°09'659131889.2
2016-Dec-02 15:33N 23°03' E 113°30'635254066.4
2016-Dec-02 15:32N 30°59' E 121°22'381193.5
2016-Dec-02 15:30N 31°37' E 121°18'10378.3
2016-Dec-02 15:29N 31°29' E 121°25'10416.4
2016-Dec-02 15:27N 31°38' E 121°18'10374.4
2016-Dec-02 15:26N 31°30' E 121°25'9315.9
2016-Dec-02 15:24N 31°23' E 121°30'65713356.9
2016-Dec-02 15:21N 23°04' E 113°29'6606064.6
2016-Dec-02 15:15N 31°40' E 121°14'6687638.7
2016-Dec-02 15:09N 22°51' E 113°34'144141.7
2016-Dec-02 15:09N 23°04' E 113°29'660182817.6
2016-Dec-02 15:09N 31°24' E 121°34'7466.2
2016-Dec-02 15:08N 31°28' E 121°26'461799.5
2016-Dec-02 14:34N 24°22' E 118°08'26639967.4
2016-Dec-02 14:33N 23°03' E 113°30'66252937.6
2016-Dec-02 14:32N 31°38' E 121°18'11357.6
2016-Dec-02 14:32N 31°37' E 121°18'81020.9
2016-Dec-02 14:32N 31°41' E 121°09'17485.2
2016-Dec-02 14:30N 31°30' E 121°25'92603.2
2016-Dec-02 14:29N 31°24' E 121°34'1709.4
2016-Dec-02 14:29N 31°25' E 121°33'66720714.2
2016-Dec-02 14:27N 22°51' E 113°34'14512.6
2016-Dec-02 14:26N 23°04' E 113°29'0 1.9
2016-Dec-02 14:24N 23°04' E 113°29'66174331.7
2016-Dec-02 14:23N 31°37' E 121°18'54944.6
2016-Dec-02 14:20N 31°58' E 120°19'741472.8
2016-Dec-02 14:17N 31°15' E 121°31'3244.4
2016-Dec-02 13:33N 31°41' E 121°09'13077814.9
2016-Dec-02 13:33N 29°42' E 122°07'38893166.5
2016-Dec-02 13:33N 24°16' E 118°09'47041301.0
2016-Dec-02 13:32N 31°37' E 121°16'572820.9
2016-Dec-02 13:31N 31°56' E 120°13'584561.9
2016-Dec-02 13:30N 31°38' E 121°18'142.4
2016-Dec-02 13:29N 31°37' E 121°18'9343.3
2016-Dec-02 13:28N 31°30' E 121°25'1111.8
2016-Dec-02 12:33N 31°38' E 121°17'12437344.4
2016-Dec-02 12:33N 29°42' E 122°07'12935719.2
2016-Dec-02 12:33N 31°41' E 121°10'5818855.3
2016-Dec-02 12:33N 31°57' E 120°05'477343434.0
2016-Dec-02 12:33N 24°12' E 118°04'44366479.1
2016-Dec-02 12:32N 30°59' E 121°22'183027.9
2016-Dec-02 12:32N 31°15' E 121°31'161026.0
2016-Dec-02 12:31N 31°30' E 121°25'9585.7
2016-Dec-02 12:30N 31°37' E 121°18'66116868.7
2016-Dec-02 12:28N 23°04' E 113°29'66018567.8
2016-Dec-02 12:26N 31°24' E 121°34'294773.8
2016-Dec-02 12:25N 31°43' E 121°07'66094995.4
2016-Dec-02 12:25N 23°03' E 113°30'66016975.5
2016-Dec-02 12:23N 31°25' E 121°33'66021398.8
2016-Dec-02 12:21N 23°04' E 113°29'6602764.4
2016-Dec-02 12:06N 31°40' E 121°14'14366.4
2016-Dec-02 12:04N 31°29' E 121°25'113220.1
2016-Dec-02 11:33N 29°42' E 122°05'10152039.5
2016-Dec-02 11:33N 31°20' E 121°39'2618556.9
2016-Dec-02 11:33N 31°38' E 121°17'264692.6
2016-Dec-02 11:33N 31°15' E 121°31'652390944.0
2016-Dec-02 11:33N 23°04' E 113°29'660475183.4
2016-Dec-02 11:33N 31°41' E 121°11'4312933.3
2016-Dec-02 11:32N 30°59' E 121°22'3813852.6
2016-Dec-02 11:32N 31°37' E 121°18'192695.1
2016-Dec-02 11:32N 31°24' E 121°34'94857.8
2016-Dec-02 11:32N 31°30' E 121°25'659263756.4
2016-Dec-02 11:32N 23°03' E 113°30'66029340.3
2016-Dec-02 11:30N 31°25' E 121°33'66043186.5
2016-Dec-02 11:29N 23°04' E 113°29'6604362.0
2016-Dec-02 11:20N 31°40' E 121°14'142461.7
2016-Dec-02 11:20N 31°29' E 121°25'149.8
2016-Dec-02 11:18N 31°28' E 121°25'686.7
2016-Dec-02 11:14N 31°25' E 121°31'812.2
2016-Dec-02 10:33N 31°20' E 121°39'3122527.0
2016-Dec-02 10:33N 31°41' E 121°11'169803.7
2016-Dec-02 10:33N 31°29' E 121°25'11180069.3
2016-Dec-02 10:33N 29°43' E 122°03'404484999.0
2016-Dec-02 10:33N 24°03' E 117°57'47753685.0
2016-Dec-02 10:32N 31°22' E 121°30'74838.2
2016-Dec-02 10:32N 31°15' E 121°31'2610430.2
2016-Dec-02 10:32N 31°38' E 121°17'1411.4
2016-Dec-02 10:32N 31°37' E 121°18'18927.8
2016-Dec-02 10:31N 31°25' E 121°33'66033932.1
2016-Dec-02 10:30N 23°04' E 113°29'65831187.9
2016-Dec-02 10:28N 31°29' E 121°25'15608.9
2016-Dec-02 10:27N 31°40' E 121°14'66044023.4
2016-Dec-02 10:26N 23°04' E 113°29'6595416.5
2016-Dec-02 10:19N 31°30' E 121°25'015.1
2016-Dec-02 10:17N 31°29' E 121°25'955.6
2016-Dec-02 10:07N 31°24' E 121°34'2035.1
2016-Dec-02 09:33N 31°39' E 121°17'267835.5
2016-Dec-02 09:33N 31°15' E 121°31'652156377.6
2016-Dec-02 09:33N 23°04' E 113°29'65981774.4
2016-Dec-02 09:32N 31°29' E 121°25'91263.9
2016-Dec-02 09:32N 31°24' E 121°34'91479.0
2016-Dec-02 09:31N 31°30' E 121°25'1017228.6
2016-Dec-02 09:31N 31°38' E 121°18'66138388.8
2016-Dec-02 09:30N 23°04' E 113°29'660113144.5
2016-Dec-02 09:30N 31°41' E 121°11'3123.9
2016-Dec-02 09:29N 31°40' E 121°14'295196.8
2016-Dec-02 09:28N 31°16' E 121°33'8916825.8
2016-Dec-02 09:28N 29°52' E 122°08'97507.0
2016-Dec-02 09:16N 31°25' E 121°33'1926.5
2016-Dec-02 08:33N 31°39' E 121°17'66185042.6
2016-Dec-02 08:33N 23°04' E 113°29'616316544.6
2016-Dec-02 08:33N 29°58' E 121°59'8219643.7
2016-Dec-02 08:33N 31°17' E 121°34'3656.2
2016-Dec-02 08:32N 31°15' E 121°31'1513616.0
2016-Dec-02 08:32N 31°29' E 121°25'172501.0
2016-Dec-02 08:32N 31°41' E 121°11'3295.7
2016-Dec-02 08:31N 31°40' E 121°14'22477.6
2016-Dec-02 08:28N 31°25' E 121°33'182990.4
2016-Dec-02 08:28N 31°38' E 121°18'10270.5
2016-Dec-02 08:26N 31°30' E 121°24'10953.2
2016-Dec-02 08:25N 31°38' E 121°18'1893170334.8
2016-Dec-02 08:25N 00°06' E 122°13'188424755.9
2016-Dec-02 08:20N 31°29' E 121°25'3725931.0
2016-Dec-02 08:16N 37°42' E 121°09'3783316.5
2016-Dec-02 08:09N 31°24' E 121°34'27396.1
2016-Dec-02 08:05N 30°59' E 121°22'4381.3
2016-Dec-02 07:33N 31°41' E 121°11'432357.2
2016-Dec-02 07:32N 30°59' E 121°22'3935038.6
2016-Dec-02 07:32N 31°38' E 121°18'10487.1
2016-Dec-02 07:31N 31°29' E 121°25'111146.9
2016-Dec-02 07:30N 31°39' E 121°17'11954.8
2016-Dec-02 07:30N 31°29' E 121°25'1101.1
2016-Dec-02 07:29N 31°30' E 121°24'1089.9
2016-Dec-02 07:23N 31°38' E 121°18'19252.5
2016-Dec-02 07:18N 31°24' E 121°32'91945.7
2016-Dec-02 07:18N 31°15' E 121°31'71654.8
2016-Dec-02 07:18N 31°22' E 121°30'4535.6
2016-Dec-02 07:17N 31°25' E 121°33'22161.5
2016-Dec-02 07:09N 31°40' E 121°14'66011947.3
2016-Dec-02 07:06N 23°04' E 113°29'6521200.4
2016-Dec-02 06:33N 31°15' E 121°31'262197.7
2016-Dec-02 06:33N 31°39' E 121°17'267913.7
2016-Dec-02 06:33N 31°14' E 121°29'3748287113.8
2016-Dec-02 06:32S 23°46' E 151°11'3778161903.9
2016-Dec-02 06:30N 31°40' E 121°14'4188.5
2016-Dec-02 06:29N 31°38' E 121°18'0107.4
2016-Dec-02 06:29N 31°38' E 121°18'66127055.8
2016-Dec-02 06:27N 23°04' E 113°29'6596497.3
2016-Dec-02 06:21N 31°30' E 121°25'035.3
2016-Dec-02 06:21N 31°29' E 121°25'66053993.0
2016-Dec-02 06:20N 23°02' E 113°31'66111669.7
2016-Dec-02 06:17N 31°21' E 121°39'6225.2
2016-Dec-02 06:15N 31°24' E 121°34'2749114.4
2016-Dec-02 06:15N 30°59' E 121°22'3144.0
2016-Dec-02 05:33N 31°29' E 121°25'102664.6
2016-Dec-02 05:33N 31°38' E 121°18'53411.6
2016-Dec-02 05:33N 31°34' E 121°20'62460.8
2016-Dec-02 05:33N 31°29' E 121°25'115862.7
2016-Dec-02 05:33N 31°39' E 121°17'11583.7
2016-Dec-02 05:32N 31°30' E 121°24'101377.5
2016-Dec-02 05:31N 31°38' E 121°18'21556.6
2016-Dec-02 05:29N 31°23' E 121°34'3112.6
2016-Dec-02 05:28N 31°25' E 121°33'10493.0
2016-Dec-02 05:26N 31°15' E 121°31'652234592.4
2016-Dec-02 05:26N 23°04' E 113°29'63510884.0
2016-Dec-02 05:23N 30°59' E 121°22'277016.3
2016-Dec-02 05:23N 31°24' E 121°34'25191.6
2016-Dec-02 05:15N 31°41' E 121°11'022.6
2016-Dec-02 05:14N 31°41' E 121°11'6606140.6
2016-Dec-02 05:07N 23°03' E 113°30'2333680.5
2016-Dec-02 05:03N 23°48' E 117°39'5071016.2
2016-Dec-02 04:34N 31°37' E 121°16'267121.8
2016-Dec-02 04:33N 31°15' E 121°31'264284.3
2016-Dec-02 04:33N 31°38' E 121°16'1145.3
2016-Dec-02 04:32N 31°39' E 121°17'1454.8
2016-Dec-02 04:32N 31°38' E 121°18'10261.8
2016-Dec-02 04:30N 31°29' E 121°25'95317.9
2016-Dec-02 04:30N 31°24' E 121°34'2157.4
2016-Dec-02 04:29N 31°23' E 121°34'357.9
2016-Dec-02 04:26N 31°25' E 121°33'9242.2
2016-Dec-02 04:24N 31°30' E 121°24'65936497.0
2016-Dec-02 04:23N 23°04' E 113°29'65621480.0
2016-Dec-02 04:21N 31°22' E 121°30'156733.3
2016-Dec-02 04:21N 31°34' E 121°20'18219.4
2016-Dec-02 04:16N 31°21' E 121°32'560.4
2016-Dec-02 04:11N 31°26' E 121°31'2 3.0
2016-Dec-02 03:33N 31°25' E 121°33'43190.9
2016-Dec-02 03:33N 31°22' E 121°30'2618360.7
2016-Dec-02 03:33N 31°41' E 121°10'74846.7
2016-Dec-02 03:33N 31°38' E 121°17'6989.8
2016-Dec-02 03:33N 31°33' E 121°20'5502.5
2016-Dec-02 03:32N 31°29' E 121°25'98265.9
2016-Dec-02 03:32N 31°24' E 121°34'102451.3
2016-Dec-02 03:32N 31°30' E 121°24'93199.9
2016-Dec-02 03:32N 31°22' E 121°30'18253.2
2016-Dec-02 03:27N 31°38' E 121°18'71763.7
2016-Dec-02 03:27N 31°41' E 121°10'31799.1
2016-Dec-02 03:25N 31°15' E 121°31'31983.8
2016-Dec-02 03:23N 31°41' E 121°11'575568.2
2016-Dec-02 03:22N 31°57' E 120°06'647233039.1
2016-Dec-02 03:22N 22°51' E 113°34'132519.0
2016-Dec-02 03:22N 23°03' E 113°30'1201.4
2016-Dec-02 03:21N 23°04' E 113°29'6598350.0
2016-Dec-02 03:17N 31°29' E 121°25'659131759.0
2016-Dec-02 03:16N 23°04' E 113°29'65911523.4
2016-Dec-02 03:13N 31°23' E 121°34'1071.6
2016-Dec-02 03:04N 31°29' E 121°25'1122.0
2016-Dec-02 02:33N 31°38' E 121°17'2631290.5
2016-Dec-02 02:33N 31°15' E 121°31'1628176.9
2016-Dec-02 02:33N 31°29' E 121°23'9520211.8
2016-Dec-02 02:33N 29°58' E 121°56'11028242.6
2016-Dec-02 02:33N 31°41' E 121°11'623181.6
2016-Dec-02 02:32N 31°58' E 120°01'519531.3
2016-Dec-02 02:32N 32°02' E 119°57'702182.9
2016-Dec-02 02:30N 31°38' E 121°14'4712.5
2016-Dec-02 02:29N 31°38' E 121°18'1816034.8
2016-Dec-02 02:29N 31°25' E 121°33'66037707.7
2016-Dec-02 02:28N 23°04' E 113°29'144456.6
2016-Dec-02 02:28N 22°51' E 113°34'66447806.0
2016-Dec-02 02:27N 31°22' E 121°30'492.1
2016-Dec-02 02:25N 31°24' E 121°34'9821.0
2016-Dec-02 02:24N 31°29' E 121°25'6125.1
2016-Dec-02 02:21N 31°26' E 121°30'5131.9
2016-Dec-02 02:19N 31°23' E 121°34'111892.4
2016-Dec-02 02:19N 31°29' E 121°25'0 6.5
2016-Dec-02 02:16N 31°29' E 121°25'1 8.0
2016-Dec-02 02:11N 31°30' E 121°25'813.6
2016-Dec-02 01:33N 31°25' E 121°33'186417.0
2016-Dec-02 01:33N 31°38' E 121°18'662793884.5
2016-Dec-02 01:33N 23°03' E 113°30'660215876.2
2016-Dec-02 01:33N 31°41' E 121°10'11823570.5
2016-Dec-02 01:33N 29°54' E 122°08'11534491.7
2016-Dec-02 01:32N 31°39' E 121°14'31048.2
2016-Dec-02 01:32N 31°41' E 121°11'2517701.8
2016-Dec-02 01:32N 31°22' E 121°30'4812.6
2016-Dec-02 01:32N 31°24' E 121°34'114274.2
2016-Dec-02 01:32N 31°30' E 121°23'101460.6
2016-Dec-02 01:31N 31°38' E 121°17'2631290.5
2016-Dec-02 01:31N 31°15' E 121°31'15642.0
2016-Dec-02 01:30N 31°29' E 121°25'0 5.5
2016-Dec-02 01:29N 31°29' E 121°25'111277.1
2016-Dec-02 01:28N 31°23' E 121°34'11296.3
2016-Dec-02 01:26N 31°30' E 121°25'31205.1
2016-Dec-02 01:17N 30°59' E 121°22'311099.0
2016-Dec-02 01:15N 31°29' E 121°24'65810581.4
2016-Dec-02 01:11N 23°04' E 113°29'0 4.6
2016-Dec-02 01:09N 23°04' E 113°29'1 2.1
2016-Dec-02 00:34N 23°03' E 113°30'652156460.7
2016-Dec-02 00:33N 31°15' E 121°31'151747.6
2016-Dec-02 00:33N 31°29' E 121°25'103076.3
2016-Dec-02 00:33N 31°38' E 121°18'1138.4
2016-Dec-02 00:32N 31°38' E 121°17'19598.1
2016-Dec-02 00:30N 31°25' E 121°33'814706.1
2016-Dec-02 00:30N 31°29' E 121°25'103621.7
2016-Dec-02 00:30N 31°24' E 121°35'271447.9
2016-Dec-02 00:29N 30°59' E 121°22'334152.4
2016-Dec-02 00:28N 31°32' E 121°20'16386.6
2016-Dec-02 00:26N 31°23' E 121°35'111309.7
2016-Dec-02 00:25N 31°30' E 121°25'93509.8
2016-Dec-02 00:25N 31°22' E 121°30'8252.7
2016-Dec-02 00:23N 31°29' E 121°25'6597457.5
2016-Dec-02 00:18N 23°04' E 113°29'6588490.5
2016-Dec-02 00:13N 31°30' E 121°23'914.2
2016-Dec-01 23:33N 31°25' E 121°33'107128671.9
2016-Dec-01 23:33N 29°42' E 122°06'9810736.6
2016-Dec-01 23:33N 31°15' E 121°31'266705.1
2016-Dec-01 23:33N 31°38' E 121°17'101738.8
2016-Dec-01 23:32N 31°30' E 121°23'1144.0
2016-Dec-01 23:32N 31°30' E 121°25'101229.3
2016-Dec-01 23:31N 31°38' E 121°18'2133.5
2016-Dec-01 23:30N 31°37' E 121°16'11515.6
2016-Dec-01 23:29N 31°29' E 121°25'659790585.3
2016-Dec-01 23:29N 23°04' E 113°29'635326520.2
2016-Dec-01 23:29N 30°59' E 121°22'63567252.0
2016-Dec-01 23:28N 23°03' E 113°30'660593659.6
2016-Dec-01 23:28N 31°41' E 121°10'281296.3
2016-Dec-01 23:27N 31°23' E 121°35'115.4
2016-Dec-01 23:24N 31°22' E 121°35'2172.7
2016-Dec-01 23:24N 31°24' E 121°35'5122.5
2016-Dec-01 23:21N 31°22' E 121°30'8984.3
2016-Dec-01 23:21N 31°29' E 121°25'6594579.5
2016-Dec-01 23:12N 23°04' E 113°29'6521008.0
2016-Dec-01 22:33N 31°15' E 121°31'102472.2
2016-Dec-01 22:33N 31°24' E 121°35'2732729.0
2016-Dec-01 22:33N 30°59' E 121°22'405718.0
2016-Dec-01 22:33N 31°38' E 121°17'112652.6
2016-Dec-01 22:32N 31°29' E 121°25'6591186399.2
2016-Dec-01 22:32N 23°03' E 113°30'658112867.6
2016-Dec-01 22:32N 31°30' E 121°23'658215350.1
2016-Dec-01 22:32N 23°04' E 113°29'65914038.0
2016-Dec-01 22:29N 31°30' E 121°25'659263640.3
2016-Dec-01 22:29N 23°04' E 113°29'66133063.5
2016-Dec-01 22:28N 31°38' E 121°18'21411.8
2016-Dec-01 22:25N 31°23' E 121°35'11159.8
2016-Dec-01 22:21N 31°29' E 121°25'3 3.6
2016-Dec-01 21:33N 31°27' E 121°27'141018.0
2016-Dec-01 21:33N 31°38' E 121°17'662103567.8
2016-Dec-01 21:32N 23°03' E 113°30'6591186425.2
2016-Dec-01 21:32N 31°29' E 121°25'659131766.2
2016-Dec-01 21:32N 23°04' E 113°29'659215690.0
2016-Dec-01 21:32N 31°30' E 121°25'10731.6
2016-Dec-01 21:31N 31°38' E 121°18'5615.1
2016-Dec-01 21:30N 31°40' E 121°13'151583.2
2016-Dec-01 21:30N 31°29' E 121°25'020.0
2016-Dec-01 21:29N 31°29' E 121°25'8412.3
2016-Dec-01 21:27N 31°22' E 121°30'10463.5
2016-Dec-01 21:26N 31°30' E 121°23'1011.6
2016-Dec-01 20:33N 31°38' E 121°17'72808.5
2016-Dec-01 20:33N 31°32' E 121°20'6592371012.1
2016-Dec-01 20:33N 23°03' E 113°30'66276822.6
2016-Dec-01 20:33N 31°38' E 121°18'10999.3
2016-Dec-01 20:32N 31°29' E 121°25'65913034.1
2016-Dec-01 20:29N 23°04' E 113°29'659263491.2
2016-Dec-01 20:29N 31°29' E 121°25'659338817.5
2016-Dec-01 20:29N 23°04' E 113°29'61043926.3
2016-Dec-01 20:28N 29°45' E 122°03'1113461.7
2016-Dec-01 20:26N 31°30' E 121°23'1857.1
2016-Dec-01 20:26N 31°30' E 121°25'9866.6
2016-Dec-01 20:25N 31°22' E 121°30'23138.0
2016-Dec-01 20:15N 31°40' E 121°13'1585.5
2016-Dec-01 20:05N 31°29' E 121°25'1 2.6
2016-Dec-01 19:33N 31°30' E 121°23'101403.0
2016-Dec-01 19:33N 31°37' E 121°16'66079175.0
2016-Dec-01 19:32N 23°03' E 113°30'620743571.4
2016-Dec-01 19:32N 29°53' E 122°09'11310430.1
2016-Dec-01 19:32N 31°38' E 121°18'52506.0
2016-Dec-01 19:32N 31°40' E 121°13'46848.4
2016-Dec-01 19:32N 31°39' E 121°17'39951348.6
2016-Dec-01 19:31N 38°18' E 121°05'39737579.0
2016-Dec-01 19:30N 31°41' E 121°11'66025012.4
2016-Dec-01 19:29N 23°04' E 113°29'635457124.7
2016-Dec-01 19:29N 30°59' E 121°22'311072.4
2016-Dec-01 19:27N 31°30' E 121°24'115.9
2016-Dec-01 19:25N 31°29' E 121°25'65945603.6
2016-Dec-01 19:24N 23°04' E 113°29'65976520.2
2016-Dec-01 19:24N 31°29' E 121°25'1315.2
2016-Dec-01 18:33N 31°38' E 121°14'10718392.8
2016-Dec-01 18:33N 29°58' E 121°58'1076633.0
2016-Dec-01 18:32N 31°39' E 121°17'21107.3
2016-Dec-01 18:32N 31°38' E 121°15'4013059.8
2016-Dec-01 18:32N 30°59' E 121°22'445323.1
2016-Dec-01 18:31N 31°42' E 121°09'9844.2
2016-Dec-01 18:31N 31°38' E 121°18'10781.5
2016-Dec-01 18:30N 31°30' E 121°24'40773323.1
2016-Dec-01 18:30N 38°17' E 121°01'99385085.2
2016-Dec-01 18:29N 23°03' E 113°30'65862379.2
2016-Dec-01 18:28N 31°30' E 121°23'1268.7
2016-Dec-01 18:28N 31°29' E 121°25'65971886.3
2016-Dec-01 18:27N 23°04' E 113°29'6592603.2
2016-Dec-01 18:12N 31°29' E 121°25'992.3
2016-Dec-01 18:06N 31°22' E 121°30'712.6
2016-Dec-01 17:34N 31°15' E 121°31'276081.3
2016-Dec-01 17:33N 31°38' E 121°14'67522.9
2016-Dec-01 17:33N 31°34' E 121°19'403289852.7
2016-Dec-01 17:33N 38°16' E 120°58'3981431920.4
2016-Dec-01 17:33N 31°39' E 121°17'11597.3
2016-Dec-01 17:32N 31°29' E 121°25'1056.7
2016-Dec-01 17:21N 31°38' E 121°18'101118.7
2016-Dec-01 17:21N 31°29' E 121°25'145.9
2016-Dec-01 17:20N 31°30' E 121°24'3113956.9
2016-Dec-01 17:20N 30°59' E 121°22'241013.4
2016-Dec-01 17:18N 31°22' E 121°30'65617501.9
2016-Dec-01 17:16N 23°04' E 113°29'0 2.4
2016-Dec-01 17:12N 23°04' E 113°29'65832903.4
2016-Dec-01 17:11N 31°30' E 121°23'6585315.1
2016-Dec-01 17:04N 23°03' E 113°30'6601304.9
2016-Dec-01 16:33N 31°38' E 121°14'3519.1
2016-Dec-01 16:33N 31°39' E 121°17'114993.6
2016-Dec-01 16:33N 31°29' E 121°25'167.3
2016-Dec-01 16:32N 31°30' E 121°25'103217.2
2016-Dec-01 16:32N 31°38' E 121°18'934156.8
2016-Dec-01 16:32N 31°30' E 121°24'181663.1
2016-Dec-01 16:31N 31°13' E 121°30'171693.4
2016-Dec-01 16:31N 31°29' E 121°25'53159.2
2016-Dec-01 16:31N 31°32' E 121°20'331147.9
2016-Dec-01 16:29N 30°59' E 121°22'63557141.3
2016-Dec-01 16:28N 23°04' E 113°29'012.1
2016-Dec-01 16:27N 23°04' E 113°29'14322.2
2016-Dec-01 16:25N 22°51' E 113°34'66659930.3
2016-Dec-01 16:24N 31°30' E 121°23'161900.7
2016-Dec-01 16:24N 31°15' E 121°31'6525069.1
2016-Dec-01 16:16N 23°03' E 113°30'66019320.7
2016-Dec-01 16:14N 31°41' E 121°11'710.6
2016-Dec-01 15:33N 31°38' E 121°18'43156.9
2016-Dec-01 15:33N 31°38' E 121°14'1181.0
2016-Dec-01 15:33N 31°39' E 121°14'221215.7
2016-Dec-01 15:32N 31°22' E 121°30'2011886.9
2016-Dec-01 15:32N 31°38' E 121°17'4023825.2
2016-Dec-01 15:32N 30°59' E 121°22'312902.1
2016-Dec-01 15:31N 31°30' E 121°23'1254.4
2016-Dec-01 15:31N 31°29' E 121°25'6482.8
2016-Dec-01 15:30N 31°25' E 121°30'61702.9
2016-Dec-01 15:30N 31°29' E 121°25'1214.2
2016-Dec-01 15:30N 31°30' E 121°24'122193.2
2016-Dec-01 15:29N 31°38' E 121°15'272656.2
2016-Dec-01 15:29N 31°15' E 121°31'652156377.7
2016-Dec-01 15:29N 23°04' E 113°29'6544812.7
2016-Dec-01 15:20N 31°16' E 121°33'375333695.1
2016-Dec-01 15:14S 23°50' E 151°15'0 0.0
2016-Dec-01 14:34S 23°50' E 151°15'37612256402.5
2016-Dec-01 14:33N 31°22' E 121°28'194613.0
2016-Dec-01 14:33N 31°38' E 121°17'34908.1
2016-Dec-01 14:33N 31°38' E 121°14'4274.5
2016-Dec-01 14:32N 31°38' E 121°18'5476.0
2016-Dec-01 14:32N 31°39' E 121°13'239089.6
2016-Dec-01 14:32N 31°22' E 121°30'65787551.0
2016-Dec-01 14:31N 23°03' E 113°30'659182604.8
2016-Dec-01 14:31N 31°30' E 121°25'9277.1
2016-Dec-01 14:29N 31°36' E 121°17'66091362.4
2016-Dec-01 14:29N 23°04' E 113°29'63513767.3
2016-Dec-01 14:26N 30°59' E 121°22'312902.1
2016-Dec-01 14:25N 31°30' E 121°23'158.5
2016-Dec-01 14:24N 31°30' E 121°25'0 3.9
2016-Dec-01 14:19N 31°29' E 121°25'5474736.1
2016-Dec-01 14:12N 23°19' E 116°50'54798488.3
2016-Dec-01 14:11N 31°29' E 121°25'5732.8
2016-Dec-01 14:11N 31°26' E 121°28'658148045.2
2016-Dec-01 14:11N 23°04' E 113°29'65920093.7
2016-Dec-01 14:09N 31°29' E 121°25'1119.0
2016-Dec-01 13:34N 31°38' E 121°17'229919.7
2016-Dec-01 13:33N 31°21' E 121°32'2118845.0
2016-Dec-01 13:33N 31°38' E 121°18'103966.3
2016-Dec-01 13:33N 31°30' E 121°25'6707.9
2016-Dec-01 13:33N 31°34' E 121°20'6874.6
2016-Dec-01 13:32N 31°38' E 121°14'1323287.0
2016-Dec-01 13:32N 31°29' E 121°25'398753.4
2016-Dec-01 13:32N 31°01' E 120°54'4112376.2
2016-Dec-01 13:32N 31°39' E 121°13'554249462.2
2016-Dec-01 13:32N 23°17' E 116°48'55022755.8
2016-Dec-01 13:30N 31°30' E 121°23'8484.7
2016-Dec-01 13:29N 31°24' E 121°31'726109.5
2016-Dec-01 13:29N 31°29' E 121°25'65979049.7
2016-Dec-01 13:29N 23°04' E 113°29'65812604.4
2016-Dec-01 13:25N 31°31' E 121°21'181583.1
2016-Dec-01 13:25N 31°15' E 121°31'3862.9
2016-Dec-01 13:25N 31°17' E 121°34'15602.7
2016-Dec-01 13:23N 31°30' E 121°25'3769191128.9
2016-Dec-01 13:22S 23°50' E 151°15'376442345.9
2016-Dec-01 13:17N 31°26' E 121°28'658236988.8
2016-Dec-01 13:16N 23°03' E 113°30'65713355.4
2016-Dec-01 13:13N 31°22' E 121°30'780.4
2016-Dec-01 13:08N 31°23' E 121°38'2543.5
2016-Dec-01 12:33N 31°38' E 121°14'37821701781.3
2016-Dec-01 12:33S 23°50' E 151°15'377213577728.9
2016-Dec-01 12:33N 31°31' E 121°22'105046.1
2016-Dec-01 12:33N 31°24' E 121°30'547197060.7
2016-Dec-01 12:33N 23°21' E 116°41'549282550.8
2016-Dec-01 12:33N 31°30' E 121°24'1118973.2
2016-Dec-01 12:33N 31°38' E 121°17'114544.5
2016-Dec-01 12:33N 31°29' E 121°25'101153.6
2016-Dec-01 12:32N 31°38' E 121°18'195175.3
2016-Dec-01 12:32N 31°22' E 121°30'9679.3
2016-Dec-01 12:31N 31°13' E 121°30'302485.4
2016-Dec-01 12:30N 31°39' E 121°13'6883.7
2016-Dec-01 12:30N 31°35' E 121°18'233890.0
2016-Dec-01 12:30N 31°15' E 121°31'162089.2
2016-Dec-01 12:29N 31°30' E 121°25'65910406.1
2016-Dec-01 12:25N 23°04' E 113°29'0 4.0
2016-Dec-01 12:23N 23°04' E 113°29'1168.2
2016-Dec-01 12:22N 23°03' E 113°30'131084.6
2016-Dec-01 12:22N 22°51' E 113°34'66722637.2
2016-Dec-01 12:20N 31°29' E 121°25'941.9
2016-Dec-01 12:07N 31°22' E 121°30'546968.4
2016-Dec-01 11:34N 23°23' E 116°33'5531989097.9
2016-Dec-01 11:34N 31°35' E 121°18'6602374814.8
2016-Dec-01 11:33N 23°05' E 113°27'662183319.2
2016-Dec-01 11:33N 31°38' E 121°17'2693871.5
2016-Dec-01 11:33N 31°15' E 121°31'29105761.2
2016-Dec-01 11:33N 31°40' E 121°13'2278950.3
2016-Dec-01 11:33N 31°24' E 121°30'71849.2
2016-Dec-01 11:33N 31°29' E 121°25'10322.7
2016-Dec-01 11:31N 31°38' E 121°18'5119.9
2016-Dec-01 11:29N 31°39' E 121°13'131815.1
2016-Dec-01 11:28N 31°30' E 121°23'92074.9
2016-Dec-01 11:28N 31°24' E 121°31'8622.9
2016-Dec-01 11:27N 31°29' E 121°25'111.4
2016-Dec-01 11:24N 31°30' E 121°25'1417.3
2016-Dec-01 10:34N 31°40' E 121°13'2505.3
2016-Dec-01 10:33N 31°41' E 121°11'164792.2
2016-Dec-01 10:33N 31°30' E 121°25'111603.0
2016-Dec-01 10:33N 31°38' E 121°17'11242.6
2016-Dec-01 10:30N 31°29' E 121°25'130.9
2016-Dec-01 10:27N 31°30' E 121°23'9163.9
2016-Dec-01 10:24N 31°38' E 121°18'10223.7
2016-Dec-01 10:21N 31°29' E 121°25'2157.3
2016-Dec-01 10:21N 31°28' E 121°27'59301.7
2016-Dec-01 10:09N 31°58' E 120°26'4373.5
2016-Dec-01 09:33N 31°40' E 121°13'51095.0
2016-Dec-01 09:33N 31°38' E 121°18'81494.6
2016-Dec-01 09:33N 31°31' E 121°23'94836.3
2016-Dec-01 09:33N 31°38' E 121°17'11272.7
2016-Dec-01 09:30N 31°29' E 121°25'253682.8
2016-Dec-01 09:30N 31°46' E 121°03'231453.0
2016-Dec-01 09:29N 31°30' E 121°23'1416488.4
2016-Dec-01 09:29N 31°40' E 121°13'1410382.9
2016-Dec-01 09:29N 31°30' E 121°25'6861349.8
2016-Dec-01 09:29N 31°57' E 120°11'761040.5
2016-Dec-01 09:24N 31°22' E 121°30'78320.0
2016-Dec-01 09:24N 31°15' E 121°31'2934.6
2016-Dec-01 08:33N 31°40' E 121°13'267653.4
2016-Dec-01 08:33N 31°21' E 121°32'657590909.1
2016-Dec-01 08:33N 23°04' E 113°29'661595199.7
2016-Dec-01 08:33N 31°38' E 121°17'187.6
2016-Dec-01 08:32N 31°38' E 121°18'8653.9
2016-Dec-01 08:32N 31°31' E 121°23'116.4
2016-Dec-01 08:28N 31°30' E 121°23'163025.3
2016-Dec-01 08:28N 31°15' E 121°31'65211116.8
2016-Dec-01 08:24N 23°04' E 113°29'65911137.3
2016-Dec-01 08:21N 31°30' E 121°25'161023.3
2016-Dec-01 08:20N 31°41' E 121°10'271805.2
2016-Dec-01 08:19N 31°23' E 121°35'734047.8
2016-Dec-01 08:18N 31°59' E 120°20'534.2
2016-Dec-01 08:08N 31°58' E 120°26'4781.2
2016-Dec-01 07:33N 31°39' E 121°17'1539.1
2016-Dec-01 07:33N 31°38' E 121°18'5385.2
2016-Dec-01 07:32N 31°40' E 121°13'20877.3
2016-Dec-01 07:31N 31°26' E 121°30'11971.2
2016-Dec-01 07:30N 31°15' E 121°31'161775.5
2016-Dec-01 07:30N 31°30' E 121°24'519475.4
2016-Dec-01 07:30N 31°26' E 121°28'674.0
2016-Dec-01 07:25N 31°30' E 121°23'281.6
2016-Dec-01 07:24N 31°29' E 121°25'2131.6
2016-Dec-01 07:23N 31°31' E 121°23'6598501.3
2016-Dec-01 07:18N 23°04' E 113°29'659148236.4
2016-Dec-01 07:18N 31°29' E 121°25'1115.0
2016-Dec-01 06:33N 31°39' E 121°17'61290.3
2016-Dec-01 06:33N 31°41' E 121°10'2963.6
2016-Dec-01 06:33N 31°40' E 121°13'162193.5
2016-Dec-01 06:33N 31°28' E 121°26'12462.1
2016-Dec-01 06:31N 31°38' E 121°18'10477.6
2016-Dec-01 06:30N 31°30' E 121°24'16611.1
2016-Dec-01 06:28N 31°15' E 121°31'15448.8
2016-Dec-01 06:26N 31°29' E 121°25'704588.3
2016-Dec-01 06:25N 31°57' E 120°09'706185.8
2016-Dec-01 06:25N 31°29' E 121°25'2270.4
2016-Dec-01 06:24N 31°30' E 121°23'58848.8
2016-Dec-01 06:20N 31°58' E 120°23'64818974.0
2016-Dec-01 06:18N 23°04' E 113°29'1478.6
2016-Dec-01 06:08N 22°51' E 113°34'6661171.7
2016-Dec-01 05:33N 31°30' E 121°22'84244.1
2016-Dec-01 05:33N 31°38' E 121°18'1554044.7
2016-Dec-01 05:33N 31°46' E 121°04'10679.6
2016-Dec-01 05:32N 31°40' E 121°13'414324.2
2016-Dec-01 05:32N 31°39' E 121°17'5511057.1
2016-Dec-01 05:32N 31°56' E 120°15'643210327.2
2016-Dec-01 05:32N 23°04' E 113°29'659169443.8
2016-Dec-01 05:32N 31°29' E 121°25'414135341.8
2016-Dec-01 05:32N 38°22' E 120°48'42896355.1
2016-Dec-01 05:31N 31°15' E 121°31'16711.0
2016-Dec-01 05:30N 31°30' E 121°24'190.6
2016-Dec-01 05:29N 31°30' E 121°23'6588840.1
2016-Dec-01 05:25N 23°04' E 113°29'6587817.9
2016-Dec-01 05:20N 31°26' E 121°28'567.2
2016-Dec-01 05:15N 31°29' E 121°25'1521.1
2016-Dec-01 04:33N 31°40' E 121°13'42046.3
2016-Dec-01 04:33N 31°39' E 121°17'276474.1
2016-Dec-01 04:33N 31°14' E 121°30'8112160.3
2016-Dec-01 04:33N 29°57' E 122°00'10216725.0
2016-Dec-01 04:32N 31°33' E 121°19'556.8
2016-Dec-01 04:27N 31°30' E 121°23'1 9.6
2016-Dec-01 04:20N 31°30' E 121°24'7466929.2
2016-Dec-01 04:20N 31°58' E 120°03'676651.0
2016-Dec-01 04:19N 31°38' E 121°18'262471.4
2016-Dec-01 04:19N 31°14' E 121°30'131.0
2016-Dec-01 04:17N 31°14' E 121°29'163111.4
2016-Dec-01 04:17N 31°29' E 121°25'054.3
2016-Dec-01 04:16N 31°29' E 121°25'15334.6
2016-Dec-01 04:14N 31°15' E 121°31'75966.9
2016-Dec-01 04:09N 31°60' E 120°20'673057.3
2016-Dec-01 04:08N 31°26' E 121°28'1525.8
2016-Dec-01 03:33N 31°36' E 121°17'94784.1
2016-Dec-01 03:33N 31°30' E 121°24'1410285.7
2016-Dec-01 03:33N 31°40' E 121°13'4609.1
2016-Dec-01 03:33N 31°38' E 121°17'277375.8
2016-Dec-01 03:33N 31°14' E 121°30'256076.2
2016-Dec-01 03:32N 31°37' E 121°17'151172.6
2016-Dec-01 03:32N 31°26' E 121°28'5335.0
2016-Dec-01 03:31N 31°29' E 121°25'2495.7
2016-Dec-01 03:31N 31°30' E 121°23'1614370.2
2016-Dec-01 03:31N 31°15' E 121°31'65216875.3
2016-Dec-01 03:28N 23°04' E 113°29'014.5
2016-Dec-01 03:28N 23°04' E 113°29'65974180.0
2016-Dec-01 03:27N 31°32' E 121°22'332.2
2016-Dec-01 03:21N 31°29' E 121°25'10614696.6
2016-Dec-01 03:21N 29°50' E 122°07'1085239.5
2016-Dec-01 03:20N 31°31' E 121°23'85932.4
2016-Dec-01 03:20N 31°38' E 121°18'24255.8
2016-Dec-01 03:14N 31°18' E 121°34'70459.2
2016-Dec-01 03:05N 31°58' E 120°25'703702.6
2016-Dec-01 03:04N 31°19' E 121°33'457906.3
2016-Dec-01 02:34N 24°19' E 118°08'470241817.5
2016-Dec-01 02:33N 31°38' E 121°17'11332.8
2016-Dec-01 02:33N 31°38' E 121°18'51844.4
2016-Dec-01 02:33N 31°40' E 121°13'295289.0
2016-Dec-01 02:33N 31°15' E 121°31'16451.9
2016-Dec-01 02:31N 31°30' E 121°25'57206925.4
2016-Dec-01 02:31N 31°59' E 120°26'6812201.3
2016-Dec-01 02:30N 31°21' E 121°32'8557.7
2016-Dec-01 02:30N 31°28' E 121°28'8289.5
2016-Dec-01 02:28N 31°21' E 121°32'11305.6
2016-Dec-01 02:26N 31°29' E 121°25'275.7
2016-Dec-01 02:25N 31°31' E 121°23'4164.2
2016-Dec-01 02:23N 31°32' E 121°19'142054.8
2016-Dec-01 02:23N 31°21' E 121°30'6562550.8
2016-Dec-01 02:07N 23°04' E 113°29'61023124.8
2016-Dec-01 02:06N 29°41' E 122°07'1153174.0
2016-Dec-01 02:04N 31°30' E 121°25'6752430878.0
2016-Dec-01 02:04N 22°19' E 114°07'6721319.0
2016-Dec-01 01:33N 31°23' E 121°30'657131364.8
2016-Dec-01 01:33N 23°04' E 113°29'661297621.2
2016-Dec-01 01:33N 31°38' E 121°17'111426.2
2016-Dec-01 01:32N 31°30' E 121°25'71871.3
2016-Dec-01 01:32N 31°25' E 121°31'2219518.9
2016-Dec-01 01:32N 31°40' E 121°13'5302.4
2016-Dec-01 01:31N 31°38' E 121°18'253002.8
2016-Dec-01 01:30N 31°15' E 121°31'152005.8
2016-Dec-01 01:30N 31°29' E 121°25'659395366.3
2016-Dec-01 01:30N 23°04' E 113°29'65843064.1
2016-Dec-01 01:29N 31°24' E 121°31'91794.6
2016-Dec-01 01:29N 31°31' E 121°23'2302.8
2016-Dec-01 01:28N 31°30' E 121°25'069.4
2016-Dec-01 01:28N 31°29' E 121°25'10283.2
2016-Dec-01 01:26N 31°21' E 121°31'1042907.5
2016-Dec-01 01:24N 29°41' E 122°07'1741565.7
2016-Dec-01 01:17N 31°58' E 120°02'6325071.9
2016-Dec-01 01:17N 31°40' E 121°13'124171.2
2016-Dec-01 00:33N 29°44' E 122°03'12131067.1
2016-Dec-01 00:33N 31°38' E 121°17'42681.3
2016-Dec-01 00:33N 31°40' E 121°13'5534.7
2016-Dec-01 00:33N 31°38' E 121°18'101817.2
2016-Dec-01 00:32N 31°30' E 121°25'8417.3
2016-Dec-01 00:31N 31°23' E 121°30'81593.0
2016-Dec-01 00:31N 31°15' E 121°31'102864.3
2016-Dec-01 00:31N 31°25' E 121°31'41836.9
2016-Dec-01 00:30N 31°27' E 121°27'59004.2
2016-Dec-01 00:30N 31°31' E 121°23'2457.0
2016-Dec-01 00:30N 31°29' E 121°25'1115.7
2016-Dec-01 00:30N 31°29' E 121°25'027.8
2016-Dec-01 00:29N 31°29' E 121°25'3113731.4
2016-Dec-01 00:29N 30°59' E 121°22'27454.7
2016-Dec-01 00:25N 31°25' E 121°32'2215951.2
2016-Dec-01 00:25N 31°40' E 121°13'58532.3
2016-Dec-01 00:19N 31°57' E 120°07'55776.3
2016-Dec-01 00:14N 31°41' E 121°10'1762545.9
2016-Dec-01 00:14N 31°30' E 121°25'65913107.5
2016-Dec-01 00:11N 23°04' E 113°29'6431023.0
2016-Nov-30 23:34N 31°18' E 121°12'2174900.8
2016-Nov-30 23:34N 31°38' E 121°17'44940.3
2016-Nov-30 23:33N 31°40' E 121°13'1731022.4
2016-Nov-30 23:33N 31°28' E 121°27'197.4
2016-Nov-30 23:33N 31°28' E 121°26'63789.4
2016-Nov-30 23:33N 31°23' E 121°30'657147803.2
2016-Nov-30 23:33N 23°04' E 113°29'641329479.3
2016-Nov-30 23:33N 31°56' E 120°11'685177.2
2016-Nov-30 23:32N 31°30' E 121°25'10562962.8
2016-Nov-30 23:32N 29°52' E 122°08'1185373.9
2016-Nov-30 23:30N 31°40' E 121°13'9335.3
2016-Nov-30 23:29N 31°33' E 121°19'6417.5
2016-Nov-30 23:28N 31°29' E 121°25'15301.7
2016-Nov-30 23:25N 31°15' E 121°31'252046.9
2016-Nov-30 23:24N 31°38' E 121°18'8423.2
2016-Nov-30 23:23N 31°31' E 121°23'65916134.1
2016-Nov-30 23:21N 23°04' E 113°29'66037139.4
2016-Nov-30 23:20N 31°40' E 121°13'11817724.0
2016-Nov-30 23:19N 29°58' E 122°22'1081127.1
2016-Nov-30 23:13N 31°32' E 121°20'529.3
2016-Nov-30 23:04N 31°29' E 121°25'1529.7
2016-Nov-30 22:33N 31°40' E 121°13'1553236.1
2016-Nov-30 22:33N 31°29' E 121°25'23399.8
2016-Nov-30 22:33N 31°30' E 121°23'1619138.5
2016-Nov-30 22:33N 31°41' E 121°09'3219242.2
2016-Nov-30 22:33N 31°15' E 121°31'191098.5
2016-Nov-30 22:32N 31°32' E 121°20'7823.9
2016-Nov-30 22:31N 31°37' E 121°15'1119937.8
2016-Nov-30 22:31N 31°30' E 121°25'10627.8
2016-Nov-30 22:30N 31°38' E 121°18'10919544.4
2016-Nov-30 22:30N 29°56' E 122°01'10018079.6
2016-Nov-30 22:30N 31°31' E 121°23'241.0
2016-Nov-30 22:27N 31°29' E 121°25'0 7.8
2016-Nov-30 22:24N 31°30' E 121°25'14559.9
2016-Nov-30 22:22N 31°40' E 121°13'241928.7
2016-Nov-30 22:22N 31°21' E 121°30'65636911.4
2016-Nov-30 22:21N 23°04' E 113°29'66036018.7
2016-Nov-30 22:20N 31°40' E 121°13'47195.4
2016-Nov-30 22:05N 32°01' E 120°23'59110.8
2016-Nov-30 21:33N 31°30' E 121°23'137795.6
2016-Nov-30 21:33N 31°40' E 121°13'4724392.3
2016-Nov-30 21:33N 31°60' E 120°22'6110468.4
2016-Nov-30 21:33N 31°30' E 121°25'113198.5
2016-Nov-30 21:33N 31°38' E 121°17'1113650.8
2016-Nov-30 21:33N 31°29' E 121°25'10543.7
2016-Nov-30 21:32N 31°38' E 121°18'66151751.2
2016-Nov-30 21:31N 23°04' E 113°29'658102993.2
2016-Nov-30 21:30N 31°26' E 121°28'5736.8
2016-Nov-30 21:30N 31°29' E 121°25'15591.7
2016-Nov-30 21:28N 31°40' E 121°12'13481.5
2016-Nov-30 21:27N 31°31' E 121°23'161896.6
2016-Nov-30 21:26N 31°42' E 121°09'1832442.2
2016-Nov-30 21:26N 31°30' E 121°25'9404.9
2016-Nov-30 21:25N 31°21' E 121°30'24581.3
2016-Nov-30 21:22N 31°40' E 121°13'6607201.9
2016-Nov-30 21:17N 23°04' E 113°29'65911358.3
2016-Nov-30 21:13N 31°38' E 121°14'3 4.6
2016-Nov-30 20:34N 31°40' E 121°12'64460.5
2016-Nov-30 20:33N 31°38' E 121°18'8909.2
2016-Nov-30 20:33N 31°31' E 121°23'0147.1
2016-Nov-30 20:33N 31°30' E 121°23'22753.5
2016-Nov-30 20:33N 31°29' E 121°25'151021.8
2016-Nov-30 20:32N 31°15' E 121°31'151167.2
2016-Nov-30 20:31N 31°29' E 121°25'0147.2
2016-Nov-30 20:31N 31°30' E 121°25'174605.0
2016-Nov-30 20:31N 31°41' E 121°10'471996.5
2016-Nov-30 20:29N 31°58' E 120°19'49530.0
2016-Nov-30 20:24N 31°40' E 121°13'810.1
2016-Nov-30 19:33N 31°45' E 121°05'12890.2
2016-Nov-30 19:32N 31°38' E 121°17'91337.5
2016-Nov-30 19:32N 31°30' E 121°23'177566.9
2016-Nov-30 19:32N 31°15' E 121°31'1554279.2
2016-Nov-30 19:32N 31°29' E 121°25'1606.5
2016-Nov-30 19:32N 31°30' E 121°25'161615.2
2016-Nov-30 19:31N 31°15' E 121°31'172094.7
2016-Nov-30 19:31N 31°31' E 121°23'2200.1
2016-Nov-30 19:30N 31°29' E 121°25'212201.9
2016-Nov-30 19:30N 31°43' E 121°06'112282.5
2016-Nov-30 19:29N 31°38' E 121°18'561586.7
2016-Nov-30 19:27N 31°56' E 120°15'643177930.0
2016-Nov-30 19:27N 23°04' E 113°29'660237648.1
2016-Nov-30 19:27N 31°40' E 121°13'19481.2
2016-Nov-30 19:24N 31°26' E 121°28'7 8.1
2016-Nov-30 18:33N 31°30' E 121°23'2610382.8
2016-Nov-30 18:33N 31°47' E 120°59'184526.8
2016-Nov-30 18:33N 31°39' E 121°17'112100.7
2016-Nov-30 18:33N 31°29' E 121°25'141773.3
2016-Nov-30 18:32N 31°40' E 121°13'559052.6
2016-Nov-30 18:32N 31°56' E 120°11'6402303701.5
2016-Nov-30 18:32N 23°04' E 113°29'65759095.5
2016-Nov-30 18:31N 31°20' E 121°33'5809.1
2016-Nov-30 18:31N 31°15' E 121°31'111206.2
2016-Nov-30 18:30N 31°26' E 121°28'15541.7
2016-Nov-30 18:29N 31°38' E 121°18'66125322.8
2016-Nov-30 18:27N 23°04' E 113°29'65943928.3
2016-Nov-30 18:26N 31°29' E 121°25'1488.3
2016-Nov-30 18:26N 31°30' E 121°24'10865.9
2016-Nov-30 18:25N 31°21' E 121°30'30928.0
2016-Nov-30 18:24N 31°43' E 121°06'4216.9
2016-Nov-30 18:22N 31°45' E 121°03'23352.3
2016-Nov-30 18:19N 31°31' E 121°23'0 0.5
2016-Nov-30 17:33N 31°30' E 121°23'82954.8
2016-Nov-30 17:33N 31°38' E 121°18'2511282.3
2016-Nov-30 17:33N 31°15' E 121°31'62059.9
2016-Nov-30 17:33N 31°21' E 121°31'212074.0
2016-Nov-30 17:32N 31°39' E 121°17'11935.3
2016-Nov-30 17:32N 31°30' E 121°24'14746.0
2016-Nov-30 17:31N 31°40' E 121°13'224691.8
2016-Nov-30 17:30N 31°24' E 121°32'81187.7
2016-Nov-30 17:30N 31°29' E 121°25'744495.2
2016-Nov-30 17:29N 31°57' E 120°04'5722619.7
2016-Nov-30 17:29N 31°43' E 121°09'6604456.3
2016-Nov-30 17:20N 23°04' E 113°29'6595555.5
2016-Nov-30 17:13N 31°43' E 121°06'4158.8
2016-Nov-30 17:11N 31°41' E 121°10'1524.1
2016-Nov-30 16:33N 31°30' E 121°23'84924.7
2016-Nov-30 16:33N 31°38' E 121°18'149754.3
2016-Nov-30 16:33N 31°27' E 121°28'1526467.2
2016-Nov-30 16:33N 31°39' E 121°17'261847.9
2016-Nov-30 16:32N 31°15' E 121°31'291534.5
2016-Nov-30 16:31N 31°40' E 121°13'242860.3
2016-Nov-30 16:31N 31°21' E 121°31'10434.6
2016-Nov-30 16:29N 31°29' E 121°25'65994870.0
2016-Nov-30 16:29N 23°04' E 113°29'66028290.0
2016-Nov-30 16:27N 31°38' E 121°15'66081933.9
2016-Nov-30 16:27N 23°04' E 113°29'64114993.1
2016-Nov-30 16:24N 31°17' E 121°11'18279.6
2016-Nov-30 16:21N 31°29' E 121°25'1 8.2
2016-Nov-30 16:16N 31°30' E 121°24'111.0
2016-Nov-30 16:08N 31°31' E 121°23'916.1
2016-Nov-30 15:33N 31°38' E 121°17'51463.7
2016-Nov-30 15:33N 31°34' E 121°20'43980.4
2016-Nov-30 15:33N 31°30' E 121°23'151746.5
2016-Nov-30 15:33N 31°19' E 121°34'5745.7
2016-Nov-30 15:32N 31°15' E 121°31'2511272.5
2016-Nov-30 15:32N 31°38' E 121°18'4888.7
2016-Nov-30 15:32N 31°34' E 121°19'7533.3
2016-Nov-30 15:31N 31°29' E 121°24'52020.7
2016-Nov-30 15:31N 31°31' E 121°19'4575.4
2016-Nov-30 15:31N 31°31' E 121°23'135680.1
2016-Nov-30 15:30N 31°40' E 121°13'145567.8
2016-Nov-30 15:30N 31°30' E 121°25'5133.6
2016-Nov-30 15:28N 31°26' E 121°28'65842295.8
2016-Nov-30 15:27N 23°04' E 113°29'65912683.9
2016-Nov-30 15:24N 31°30' E 121°25'014.7
2016-Nov-30 15:23N 31°29' E 121°25'16910.0
2016-Nov-30 15:22N 31°14' E 121°30'864.5
2016-Nov-30 15:15N 31°21' E 121°31'2129.8
2016-Nov-30 14:33N 31°38' E 121°17'2646933.9
2016-Nov-30 14:33N 31°15' E 121°31'1934014.1
2016-Nov-30 14:33N 31°32' E 121°21'21469.3
2016-Nov-30 14:33N 31°30' E 121°23'141075.2
2016-Nov-30 14:32N 31°19' E 121°34'132754.0
2016-Nov-30 14:32N 31°30' E 121°25'10617.5
2016-Nov-30 14:31N 31°38' E 121°18'9207.6
2016-Nov-30 14:28N 31°30' E 121°25'6696.1
2016-Nov-30 14:28N 31°26' E 121°28'612989.8
2016-Nov-30 14:27N 32°02' E 120°30'661819.1
2016-Nov-30 14:25N 31°21' E 121°31'106890.1
2016-Nov-30 14:24N 31°29' E 121°25'141432.4
2016-Nov-30 14:24N 31°40' E 121°13'134138.5
2016-Nov-30 14:24N 31°31' E 121°23'65936485.3
2016-Nov-30 14:23N 23°04' E 113°29'65948433.5
2016-Nov-30 14:22N 31°36' E 121°16'10315.5
2016-Nov-30 14:20N 31°30' E 121°25'171523.1
2016-Nov-30 14:19N 31°41' E 121°10'65918992.2
2016-Nov-30 14:17N 23°04' E 113°29'616846.4
2016-Nov-30 13:33N 29°57' E 121°60'14643674.3
2016-Nov-30 13:33N 31°58' E 120°25'5614467.5
2016-Nov-30 13:33N 31°30' E 121°23'62974.2
2016-Nov-30 13:33N 31°28' E 121°29'41895.7
2016-Nov-30 13:33N 31°30' E 121°25'111725.5
2016-Nov-30 13:32N 31°37' E 121°16'2610212.7
2016-Nov-30 13:32N 31°15' E 121°31'2631289.3
2016-Nov-30 13:32N 31°38' E 121°17'9893.5
2016-Nov-30 13:32N 31°31' E 121°23'144283.0
2016-Nov-30 13:31N 31°19' E 121°34'132672.1
2016-Nov-30 13:31N 31°29' E 121°25'10562.5
2016-Nov-30 13:30N 31°38' E 121°18'20476.0
2016-Nov-30 13:28N 31°21' E 121°31'10334.5
2016-Nov-30 13:26N 31°30' E 121°25'14666.6
2016-Nov-30 13:24N 31°40' E 121°13'14830.6
2016-Nov-30 13:23N 31°30' E 121°25'468.9
2016-Nov-30 13:20N 31°27' E 121°29'66055226.2
2016-Nov-30 13:19N 23°04' E 113°29'658869.4
2016-Nov-30 12:33N 31°30' E 121°23'21651.9
2016-Nov-30 12:33N 31°29' E 121°25'0130.5
2016-Nov-30 12:33N 31°30' E 121°25'162254.7
2016-Nov-30 12:33N 31°15' E 121°31'35125899.8
2016-Nov-30 12:33N 31°43' E 121°07'3329955.2
2016-Nov-30 12:33N 31°19' E 121°34'7016774.7
2016-Nov-30 12:32N 31°58' E 120°25'496573.6
2016-Nov-30 12:32N 31°38' E 121°18'20773.7
2016-Nov-30 12:31N 31°21' E 121°31'11794.4
2016-Nov-30 12:30N 31°31' E 121°23'101185.0
2016-Nov-30 12:29N 31°25' E 121°32'201371.6
2016-Nov-30 12:28N 31°17' E 121°10'64120068.6
2016-Nov-30 12:26N 23°04' E 113°29'015.3
2016-Nov-30 12:26N 23°04' E 113°29'6593789.1
2016-Nov-30 12:15N 31°30' E 121°25'1318.2
2016-Nov-30 11:33N 31°19' E 121°34'146451.1
2016-Nov-30 11:33N 31°30' E 121°23'203223.9
2016-Nov-30 11:33N 31°17' E 121°06'2024485.0
2016-Nov-30 11:33N 31°30' E 121°25'013.3
2016-Nov-30 11:32N 31°29' E 121°25'153427.5
2016-Nov-30 11:32N 31°15' E 121°31'61049.1
2016-Nov-30 11:31N 31°21' E 121°32'215141.9
2016-Nov-30 11:31N 31°38' E 121°17'1242.1
2016-Nov-30 11:31N 31°38' E 121°18'496565.5
2016-Nov-30 11:30N 31°58' E 120°25'582364.0
2016-Nov-30 11:29N 31°30' E 121°25'14220.3
2016-Nov-30 11:25N 31°40' E 121°13'12338.7
2016-Nov-30 11:23N 31°31' E 121°23'12150.6
2016-Nov-30 11:18N 31°21' E 121°31'9197.3
2016-Nov-30 11:16N 31°29' E 121°25'11413645.9
2016-Nov-30 11:15N 29°41' E 122°07'33111225.5
2016-Nov-30 11:13N 24°54' E 119°03'415622.8
2016-Nov-30 10:33N 31°30' E 121°23'911313.9
2016-Nov-30 10:33N 31°38' E 121°17'2174087.8
2016-Nov-30 10:33N 31°21' E 121°30'412741452.9
2016-Nov-30 10:33N 24°51' E 118°60'42452649.9
2016-Nov-30 10:33N 31°38' E 121°18'2530027.5
2016-Nov-30 10:33N 31°15' E 121°31'16939.8
2016-Nov-30 10:32N 31°30' E 121°25'58228.1
2016-Nov-30 10:17N 31°58' E 120°25'671472.0
2016-Nov-30 10:14N 31°21' E 121°31'12591.9
2016-Nov-30 10:13N 31°31' E 121°23'65930404.8
2016-Nov-30 10:11N 23°04' E 113°29'1729672.9
2016-Nov-30 10:10N 23°21' E 116°35'547196960.3
2016-Nov-30 10:10N 31°21' E 121°32'25413.8
2016-Nov-30 10:07N 31°40' E 121°13'143227.9
2016-Nov-30 10:06N 31°29' E 121°25'65913029.7
2016-Nov-30 10:03N 23°04' E 113°29'6581327.8
2016-Nov-30 09:34N 31°30' E 121°23'91542.0
2016-Nov-30 09:33N 31°38' E 121°17'207915.0
2016-Nov-30 09:33N 31°22' E 121°30'19910.6
2016-Nov-30 09:32N 31°38' E 121°18'4944334.5
2016-Nov-30 09:32N 31°58' E 120°25'64934876.4
2016-Nov-30 09:31N 23°04' E 113°29'65937638.9
2016-Nov-30 09:30N 31°31' E 121°23'113370.6
2016-Nov-30 09:29N 31°24' E 121°33'54919756.7
2016-Nov-30 09:28N 23°21' E 116°39'1762500.2
2016-Nov-30 09:23N 23°04' E 113°29'64863058.1
2016-Nov-30 09:23N 31°59' E 120°21'625034.0
2016-Nov-30 09:22N 31°29' E 121°25'0 6.9
2016-Nov-30 09:21N 31°30' E 121°25'7350.0
2016-Nov-30 09:20N 31°25' E 121°31'7273.1
2016-Nov-30 09:18N 31°30' E 121°25'1141742.8
2016-Nov-30 09:14N 29°41' E 122°06'1051911.2
2016-Nov-30 09:11N 31°21' E 121°31'1118.1
2016-Nov-30 08:34N 31°30' E 121°23'123949.6
2016-Nov-30 08:33N 31°24' E 121°35'216846.4
2016-Nov-30 08:33N 31°38' E 121°17'485799.1
2016-Nov-30 08:33N 31°58' E 120°25'587437.7
2016-Nov-30 08:32N 31°30' E 121°25'54968189.4
2016-Nov-30 08:32N 23°20' E 116°45'55436238.9
2016-Nov-30 08:31N 31°38' E 121°18'10351.4
2016-Nov-30 08:29N 31°29' E 121°24'611124.0
2016-Nov-30 08:29N 31°25' E 121°30'4866.7
2016-Nov-30 08:29N 31°21' E 121°31'12219.7
2016-Nov-30 08:26N 31°31' E 121°23'1165474.7
2016-Nov-30 08:24N 29°41' E 122°06'16521166.0
2016-Nov-30 08:24N 31°57' E 120°17'6478473.9
2016-Nov-30 08:19N 22°59' E 113°31'65424788.1
2016-Nov-30 08:18N 31°15' E 121°31'15180.7
2016-Nov-30 08:13N 31°30' E 121°25'549840.7
2016-Nov-30 07:33N 23°17' E 116°50'545392057.3
2016-Nov-30 07:33N 31°21' E 121°31'1210498.5
2016-Nov-30 07:33N 31°30' E 121°23'153268.4
2016-Nov-30 07:33N 31°22' E 121°38'246704.4
2016-Nov-30 07:33N 31°38' E 121°17'111155.8
2016-Nov-30 07:32N 31°29' E 121°24'079.5
2016-Nov-30 07:32N 31°30' E 121°25'663388.4
2016-Nov-30 07:31N 31°56' E 120°13'931836.0
2016-Nov-30 07:31N 31°58' E 120°23'512379.9
2016-Nov-30 07:29N 31°38' E 121°18'252047.3
2016-Nov-30 07:29N 31°15' E 121°31'15865.5
2016-Nov-30 07:28N 31°30' E 121°25'66718472.3
2016-Nov-30 07:25N 22°49' E 113°36'66720877.5
2016-Nov-30 07:24N 31°31' E 121°23'6593162.0
2016-Nov-30 07:11N 23°04' E 113°29'6611053.1
2016-Nov-30 06:33N 31°39' E 121°17'92819.2
2016-Nov-30 06:33N 31°30' E 121°23'2342.5
2016-Nov-30 06:33N 31°30' E 121°24'10438.6
2016-Nov-30 06:32N 31°38' E 121°18'5133.2
2016-Nov-30 06:29N 31°40' E 121°13'14193.7
2016-Nov-30 06:25N 31°30' E 121°24'1585.6
2016-Nov-30 06:14N 31°15' E 121°31'15618.6
2016-Nov-30 06:13N 31°30' E 121°25'102122166.6
2016-Nov-30 06:13N 29°55' E 122°08'1043298.0
2016-Nov-30 06:11N 31°31' E 121°23'658020.5
2016-Nov-30 06:10N 31°56' E 120°13'65104.5
2016-Nov-30 05:33N 31°30' E 121°23'042.5
2016-Nov-30 05:33N 31°31' E 121°23'41751799.0
2016-Nov-30 05:32N 24°52' E 119°03'417107191.9
2016-Nov-30 05:32N 31°30' E 121°24'112566.7
2016-Nov-30 05:32N 31°39' E 121°17'161235.1
2016-Nov-30 05:31N 31°26' E 121°28'15749.0
2016-Nov-30 05:30N 31°38' E 121°18'10166.5
2016-Nov-30 05:26N 31°29' E 121°24'152216.6
2016-Nov-30 05:26N 31°15' E 121°31'83299153.4
2016-Nov-30 05:26N 29°56' E 122°00'6153838.2
2016-Nov-30 05:16N 23°02' E 113°32'346.6
2016-Nov-30 05:12N 23°04' E 113°29'1080.8
2016-Nov-30 05:05N 22°57' E 113°36'6601245.4
2016-Nov-30 04:33N 31°30' E 121°23'418136961.2
2016-Nov-30 04:33N 24°53' E 118°55'42572817.8
2016-Nov-30 04:32N 31°39' E 121°17'11432.0
2016-Nov-30 04:31N 31°29' E 121°24'1555307.7
2016-Nov-30 04:31N 31°15' E 121°30'15868.8
2016-Nov-30 04:30N 31°30' E 121°25'143406.5
2016-Nov-30 04:30N 31°40' E 121°13'590.9
2016-Nov-30 04:27N 31°38' E 121°18'25879.0
2016-Nov-30 04:25N 31°15' E 121°31'65261735.3
2016-Nov-30 04:24N 23°04' E 113°29'65926072.2
2016-Nov-30 04:23N 31°30' E 121°24'65936510.0
2016-Nov-30 04:22N 23°02' E 113°32'659395342.6
2016-Nov-30 04:22N 31°31' E 121°23'665108761.3
2016-Nov-30 04:21N 22°53' E 113°34'6647610.6
2016-Nov-30 04:16N 31°26' E 121°28'415587.5
2016-Nov-30 03:33N 24°53' E 118°55'41888621.9
2016-Nov-30 03:33N 31°30' E 121°23'2443216.9
2016-Nov-30 03:33N 31°09' E 121°11'242308.8
2016-Nov-30 03:33N 31°31' E 121°23'9437.0
2016-Nov-30 03:31N 31°39' E 121°17'11426.7
2016-Nov-30 03:30N 31°30' E 121°25'10937.9
2016-Nov-30 03:29N 31°38' E 121°18'101495.8
2016-Nov-30 03:29N 31°30' E 121°24'16435.7
2016-Nov-30 03:26N 31°14' E 121°29'1461.9
2016-Nov-30 03:26N 31°15' E 121°31'292900.0
2016-Nov-30 03:26N 31°40' E 121°13'6604850.7
2016-Nov-30 03:18N 23°04' E 113°29'6603616.7
2016-Nov-30 03:07N 31°38' E 121°15'2 3.3
2016-Nov-30 02:33N 31°39' E 121°17'6611190505.9
2016-Nov-30 02:33N 23°04' E 113°29'660132071.7
2016-Nov-30 02:33N 31°37' E 121°17'423304791.1
2016-Nov-30 02:33N 24°53' E 118°55'418753265.9
2016-Nov-30 02:33N 31°30' E 121°23'1730245.6
2016-Nov-30 02:33N 31°15' E 121°31'174407.0
2016-Nov-30 02:33N 31°31' E 121°23'262377.8
2016-Nov-30 02:32N 31°07' E 121°10'2694815.2
2016-Nov-30 02:32N 31°30' E 121°25'916587.5
2016-Nov-30 02:32N 31°22' E 121°30'398.5
2016-Nov-30 02:30N 31°24' E 121°32'18238.1
2016-Nov-30 02:26N 31°38' E 121°18'6618472.1
2016-Nov-30 02:21N 23°04' E 113°29'6596699.5
2016-Nov-30 02:15N 31°30' E 121°24'65967772.9
2016-Nov-30 02:14N 23°02' E 113°32'65910499.0
2016-Nov-30 02:11N 31°30' E 121°25'2 2.9
2016-Nov-30 01:33N 31°30' E 121°23'41879278.0
2016-Nov-30 01:33N 24°53' E 118°55'390100263.2
2016-Nov-30 01:33N 31°04' E 121°10'251050.9
2016-Nov-30 01:31N 31°22' E 121°30'205059.8
2016-Nov-30 01:31N 31°38' E 121°17'2506.9
2016-Nov-30 01:31N 31°37' E 121°18'165672.0
2016-Nov-30 01:31N 31°25' E 121°30'744.3
2016-Nov-30 01:22N 31°29' E 121°25'153061.5
2016-Nov-30 01:22N 31°15' E 121°31'29783.7
2016-Nov-30 01:20N 31°40' E 121°13'51207.4
2016-Nov-30 01:19N 31°38' E 121°18'8672.8
2016-Nov-30 01:19N 31°31' E 121°23'237.0
2016-Nov-30 01:16N 31°30' E 121°25'4649222.2
2016-Nov-30 01:13N 24°15' E 118°23'27810440.3
2016-Nov-30 01:11N 23°04' E 113°29'6596607.3
2016-Nov-30 01:05N 31°30' E 121°25'2 3.4
2016-Nov-30 00:33N 31°30' E 121°23'91896.0
2016-Nov-30 00:33N 31°38' E 121°17'425218402.6
2016-Nov-30 00:33N 24°53' E 118°55'41822153.7
2016-Nov-30 00:32N 31°30' E 121°25'61670.3
2016-Nov-30 00:31N 31°26' E 121°29'153205.2
2016-Nov-30 00:31N 31°38' E 121°18'66199191.8
2016-Nov-30 00:31N 23°04' E 113°29'661475734.8
2016-Nov-30 00:31N 31°37' E 121°18'9133.6
2016-Nov-30 00:27N 31°29' E 121°25'2113.3
2016-Nov-30 00:26N 31°31' E 121°23'65917059.5
2016-Nov-30 00:23N 23°04' E 113°29'6592131.1
2016-Nov-30 00:05N 31°30' E 121°25'2 3.4
2016-Nov-29 23:34N 31°30' E 121°23'23520.3
2016-Nov-29 23:33N 31°32' E 121°21'4191509802.5
2016-Nov-29 23:33N 24°53' E 118°55'42538227.8
2016-Nov-29 23:33N 31°38' E 121°17'115511.1
2016-Nov-29 23:33N 31°30' E 121°25'161943.7
2016-Nov-29 23:32N 31°15' E 121°31'195665.5
2016-Nov-29 23:32N 31°32' E 121°20'6223.4
2016-Nov-29 23:31N 31°37' E 121°18'158.4
2016-Nov-29 23:30N 31°38' E 121°18'66120174.3
2016-Nov-29 23:28N 23°04' E 113°29'65855102.0
2016-Nov-29 23:27N 31°30' E 121°22'65814364.4
2016-Nov-29 23:24N 23°02' E 113°31'6599159.3
2016-Nov-29 23:20N 31°29' E 121°25'2 2.2
2016-Nov-29 22:33N 31°30' E 121°23'108569.3
2016-Nov-29 22:33N 31°38' E 121°17'2228.2
2016-Nov-29 22:33N 31°37' E 121°18'424381188.0
2016-Nov-29 22:33N 24°53' E 118°55'41834215.2
2016-Nov-29 22:32N 31°29' E 121°25'10474.4
2016-Nov-29 22:31N 31°38' E 121°18'10576.3
2016-Nov-29 22:30N 31°30' E 121°25'9832.8
2016-Nov-29 22:29N 31°36' E 121°17'6594170.3
2016-Nov-29 22:20N 23°04' E 113°29'65914918.6
2016-Nov-29 22:17N 31°30' E 121°25'15150.1
2016-Nov-29 22:11N 31°15' E 121°31'406650.5
2016-Nov-29 21:33N 24°53' E 118°55'418215208.7
2016-Nov-29 21:33N 31°30' E 121°23'21432.1
2016-Nov-29 21:33N 31°30' E 121°25'162089.2
2016-Nov-29 21:33N 31°15' E 121°31'264945.7
2016-Nov-29 21:33N 31°38' E 121°17'1103.7
2016-Nov-29 21:32N 31°38' E 121°18'5271.3
2016-Nov-29 21:31N 31°40' E 121°12'27501.4
2016-Nov-29 21:27N 31°23' E 121°37'12325.6
2016-Nov-29 21:25N 31°29' E 121°24'66074219.6
2016-Nov-29 21:25N 23°01' E 113°32'4124.1
2016-Nov-29 21:23N 23°04' E 113°29'65835887.0
2016-Nov-29 21:22N 31°26' E 121°28'575.1
2016-Nov-29 21:18N 31°30' E 121°25'6595688.4
2016-Nov-29 21:11N 23°04' E 113°29'317510.5
2016-Nov-29 20:33N 24°53' E 118°55'425109225.1
2016-Nov-29 20:33N 31°38' E 121°17'11580.2
2016-Nov-29 20:32N 31°29' E 121°24'10433.4
2016-Nov-29 20:31N 31°38' E 121°18'104461.6
2016-Nov-29 20:31N 31°30' E 121°25'1412864.7
2016-Nov-29 20:31N 31°40' E 121°13'295493.7
2016-Nov-29 20:30N 31°15' E 121°31'653783066.8
2016-Nov-29 20:30N 23°01' E 113°32'66353003.0
2016-Nov-29 20:29N 31°23' E 121°37'13207.7
2016-Nov-29 20:26N 31°30' E 121°25'1112.3
2016-Nov-29 19:33N 31°39' E 121°17'425764581.6
2016-Nov-29 19:33N 24°53' E 118°55'424381776.6
2016-Nov-29 19:33N 31°38' E 121°18'87616.1
2016-Nov-29 19:33N 31°30' E 121°23'215.1
2016-Nov-29 19:26N 31°30' E 121°25'153688.5
2016-Nov-29 19:26N 31°15' E 121°31'15471.7
2016-Nov-29 19:24N 31°29' E 121°24'0280.8
2016-Nov-29 19:24N 31°30' E 121°24'51479.5
2016-Nov-29 19:24N 31°26' E 121°28'6591186151.0
2016-Nov-29 19:24N 23°01' E 113°32'456.6
2016-Nov-29 19:20N 23°04' E 113°29'661854.3
2016-Nov-29 18:33N 31°39' E 121°17'425218469.5
2016-Nov-29 18:33N 24°53' E 118°55'424763614.9
2016-Nov-29 18:33N 31°38' E 121°18'86057.2
2016-Nov-29 18:33N 31°30' E 121°23'2257.2
2016-Nov-29 18:33N 31°30' E 121°25'65948404.1
2016-Nov-29 18:32N 23°04' E 113°29'01174.0
2016-Nov-29 18:32N 23°04' E 113°29'658394790.1
2016-Nov-29 18:32N 31°26' E 121°28'5163.9
2016-Nov-29 18:30N 31°30' E 121°24'050.9
2016-Nov-29 18:29N 31°30' E 121°24'152216.6
2016-Nov-29 18:29N 31°15' E 121°31'4611407.0
2016-Nov-29 18:09N 24°12' E 118°04'61103.2
2016-Nov-29 17:33N 24°53' E 118°55'5496928.6
2016-Nov-29 17:33N 24°19' E 118°09'464104484.8
2016-Nov-29 17:33N 31°30' E 121°23'105716.0
2016-Nov-29 17:33N 31°39' E 121°17'111673.3
2016-Nov-29 17:33N 31°30' E 121°24'162582.6
2016-Nov-29 17:32N 31°15' E 121°31'254760.8
2016-Nov-29 17:32N 31°38' E 121°18'47374042.5
2016-Nov-29 17:32N 24°15' E 118°09'47494723.5
2016-Nov-29 17:31N 31°40' E 121°13'142123.1
2016-Nov-29 17:31N 31°30' E 121°24'0 2.4
2016-Nov-29 17:26N 31°30' E 121°25'65911919.4
2016-Nov-29 17:23N 23°04' E 113°29'047.0
2016-Nov-29 17:22N 23°04' E 113°29'27225.4
2016-Nov-29 17:22N 23°03' E 113°31'65821344.4
2016-Nov-29 17:21N 31°26' E 121°28'7 8.5
2016-Nov-29 16:33N 31°30' E 121°23'2276.6
2016-Nov-29 16:33N 31°30' E 121°24'418250925.9
2016-Nov-29 16:33N 24°53' E 118°55'406731486.3
2016-Nov-29 16:33N 31°15' E 121°31'251773.6
2016-Nov-29 16:32N 31°38' E 121°18'10111.3
2016-Nov-29 16:27N 31°30' E 121°24'060.8
2016-Nov-29 16:26N 31°30' E 121°25'14421.6
2016-Nov-29 16:24N 31°40' E 121°13'66031270.8
2016-Nov-29 16:23N 23°04' E 113°29'026.0
2016-Nov-29 16:22N 23°04' E 113°29'658806.7
2016-Nov-29 15:34N 31°30' E 121°23'4181506567.1
2016-Nov-29 15:33N 24°53' E 118°55'40676997.5
2016-Nov-29 15:33N 31°15' E 121°31'151088.2
2016-Nov-29 15:32N 31°30' E 121°24'048.6
2016-Nov-29 15:32N 31°30' E 121°24'10749.4
2016-Nov-29 15:31N 31°38' E 121°18'1511.6
2016-Nov-29 15:31N 31°39' E 121°17'11923.4
2016-Nov-29 15:30N 31°30' E 121°25'65921570.2
2016-Nov-29 15:28N 23°03' E 113°31'231.1
2016-Nov-29 15:24N 23°04' E 113°29'660125082.2
2016-Nov-29 15:24N 31°40' E 121°13'1315.1
2016-Nov-29 14:33N 31°30' E 121°23'0323.9
2016-Nov-29 14:33N 31°30' E 121°22'418215179.0
2016-Nov-29 14:33N 24°53' E 118°55'31671088.2
2016-Nov-29 14:33N 23°03' E 113°31'662476312.8
2016-Nov-29 14:33N 31°38' E 121°17'198.7
2016-Nov-29 14:32N 31°38' E 121°18'9468.4
2016-Nov-29 14:31N 31°30' E 121°24'018.0
2016-Nov-29 14:30N 31°30' E 121°25'14200.9
2016-Nov-29 14:26N 31°40' E 121°13'291830.9
2016-Nov-29 14:25N 31°15' E 121°31'8011979.8
2016-Nov-29 14:24N 29°58' E 121°57'615276712.8
2016-Nov-29 14:24N 23°04' E 113°29'1027136887.9
2016-Nov-29 14:24N 38°45' E 121°28'4281637.6
2016-Nov-29 14:08N 31°37' E 121°18'222977.9
2016-Nov-29 14:08N 31°19' E 121°33'1729.4
2016-Nov-29 13:33N 31°32' E 121°21'419137190.8
2016-Nov-29 13:33N 24°53' E 118°55'424305372.8
2016-Nov-29 13:33N 31°38' E 121°18'11011.4
2016-Nov-29 13:33N 31°38' E 121°17'11233673.8
2016-Nov-29 13:33N 29°55' E 122°08'62067594.6
2016-Nov-29 13:32N 23°03' E 113°31'2366.9
2016-Nov-29 13:32N 23°04' E 113°29'65924702.7
2016-Nov-29 13:30N 31°34' E 121°18'75235.6
2016-Nov-29 13:30N 31°30' E 121°25'037.3
2016-Nov-29 13:30N 31°30' E 121°25'43527478.9
2016-Nov-29 13:29N 38°45' E 121°32'425305989.3
2016-Nov-29 13:29N 31°40' E 121°13'29501.2
2016-Nov-29 13:25N 31°15' E 121°31'406471.0
2016-Nov-29 12:33N 24°53' E 118°55'42237058.1
2016-Nov-29 12:33N 31°36' E 121°17'31420.2
2016-Nov-29 12:33N 31°38' E 121°17'1115.6
2016-Nov-29 12:32N 31°38' E 121°18'661125322.1
2016-Nov-29 12:32N 23°03' E 113°31'66071970.1
2016-Nov-29 12:31N 31°39' E 121°12'291407.6
2016-Nov-29 12:30N 31°15' E 121°31'16841.9
2016-Nov-29 12:29N 31°30' E 121°25'016.8
2016-Nov-29 12:28N 31°30' E 121°25'1141070.6
2016-Nov-29 12:21N 29°42' E 122°07'1271160.3
2016-Nov-29 12:15N 31°40' E 121°13'66013130.8
2016-Nov-29 12:12N 23°04' E 113°29'6611034.2
2016-Nov-29 11:33N 31°38' E 121°17'1113193.4
2016-Nov-29 11:33N 31°30' E 121°25'416115297.6
2016-Nov-29 11:33N 24°52' E 119°04'423253881.0
2016-Nov-29 11:33N 31°40' E 121°12'20817.1
2016-Nov-29 11:32N 31°26' E 121°28'151574.2
2016-Nov-29 11:31N 31°38' E 121°18'12113667.3
2016-Nov-29 11:30N 29°42' E 122°02'972162.5
2016-Nov-29 11:28N 31°15' E 121°31'293594.8
2016-Nov-29 11:27N 31°40' E 121°13'14571.7
2016-Nov-29 11:26N 31°30' E 121°25'65959323.7
2016-Nov-29 11:25N 23°03' E 113°31'288.7
2016-Nov-29 11:24N 23°04' E 113°29'43217.8
2016-Nov-29 11:12N 22°27' E 113°53'62924361.5
2016-Nov-29 11:11N 30°11' E 121°47'91146.3
2016-Nov-29 10:33N 31°38' E 121°17'1188520.8
2016-Nov-29 10:32N 29°47' E 122°04'11712065.6
2016-Nov-29 10:32N 31°38' E 121°18'66135012.7
2016-Nov-29 10:31N 23°03' E 113°31'652117301.7
2016-Nov-29 10:30N 31°15' E 121°31'45325904.1
2016-Nov-29 10:29N 24°18' E 118°10'47119474.4
2016-Nov-29 10:28N 31°40' E 121°13'93857.3
2016-Nov-29 10:28N 31°45' E 121°05'4379136.6
2016-Nov-29 10:25N 24°44' E 118°53'4274370.1
2016-Nov-29 10:19N 31°30' E 121°25'0 2.1
2016-Nov-29 10:10N 31°30' E 121°25'8349983.4
2016-Nov-29 10:10N 30°09' E 121°50'94154.1
2016-Nov-29 09:33N 31°38' E 121°17'428771012.3
2016-Nov-29 09:33N 24°48' E 118°57'410491781.2
2016-Nov-29 09:33N 31°15' E 121°31'152209.9
2016-Nov-29 09:33N 31°30' E 121°25'0580.8
2016-Nov-29 09:33N 31°30' E 121°25'14264.7
2016-Nov-29 09:30N 31°40' E 121°13'5147.3
2016-Nov-29 09:28N 31°38' E 121°18'1221572.4
2016-Nov-29 09:23N 29°42' E 122°04'6187321.2
2016-Nov-29 09:18N 22°28' E 113°54'6702413397.0
2016-Nov-29 09:18N 31°19' E 121°33'2330.8
2016-Nov-29 08:33N 31°38' E 121°18'421168560.5
2016-Nov-29 08:33N 24°53' E 119°03'42284394.1
2016-Nov-29 08:33N 31°38' E 121°17'677348280.2
2016-Nov-29 08:33N 22°28' E 113°54'26044523.9
2016-Nov-29 08:32N 24°17' E 118°11'47112463.0
2016-Nov-29 08:30N 31°40' E 121°13'2443471.4
2016-Nov-29 08:30N 31°21' E 121°31'10141.6
2016-Nov-29 08:26N 31°30' E 121°25'65947448.5
2016-Nov-29 08:25N 23°04' E 113°29'2225.2
2016-Nov-29 08:24N 23°03' E 113°31'61715012.4
2016-Nov-29 08:22N 29°51' E 122°08'3415893.4
2016-Nov-29 08:18N 24°50' E 119°08'4094650.0
2016-Nov-29 08:13N 31°19' E 121°33'2740.6
2016-Nov-29 07:33N 31°40' E 121°13'11458497.6
2016-Nov-29 07:33N 29°55' E 122°03'1114940.1
2016-Nov-29 07:32N 31°38' E 121°17'425139157.6
2016-Nov-29 07:32N 24°50' E 119°04'419215419.6
2016-Nov-29 07:32N 31°30' E 121°25'10746.4
2016-Nov-29 07:31N 31°38' E 121°18'193829.0
2016-Nov-29 07:31N 31°22' E 121°30'65610451.5
2016-Nov-29 07:27N 23°04' E 113°29'6188794.1
2016-Nov-29 07:23N 30°03' E 121°57'821476.4
2016-Nov-29 07:19N 31°21' E 121°31'30206.0
2016-Nov-29 07:11N 31°20' E 120°56'63655838.9
2016-Nov-29 07:10N 23°03' E 113°31'6601075.4
2016-Nov-29 06:33N 31°38' E 121°15'428770607.9
2016-Nov-29 06:33N 24°47' E 118°59'42123654.2
2016-Nov-29 06:32N 31°27' E 121°28'5251.9
2016-Nov-29 06:31N 31°30' E 121°24'10276.7
2016-Nov-29 06:29N 31°22' E 121°30'881995.8
2016-Nov-29 06:26N 29°58' E 122°03'62886976.5
2016-Nov-29 06:26N 22°28' E 113°54'431215.6
2016-Nov-29 06:24N 23°04' E 113°29'66182075.5
2016-Nov-29 06:23N 31°38' E 121°18'251530.5
2016-Nov-29 06:22N 31°15' E 121°31'45249287.0
2016-Nov-29 06:22N 24°15' E 118°24'4582859.8
2016-Nov-29 06:12N 31°21' E 121°31'24261.2
2016-Nov-29 06:07N 31°40' E 121°13'23551.8
2016-Nov-29 06:04N 31°22' E 121°30'88173.5
2016-Nov-29 05:34N 29°58' E 122°03'356427197.7
2016-Nov-29 05:33N 24°45' E 118°53'31318155.6
2016-Nov-29 05:32N 23°04' E 113°29'65671573.0
2016-Nov-29 05:32N 31°22' E 121°30'10432.5
2016-Nov-29 05:31N 31°30' E 121°24'141137.0
2016-Nov-29 05:30N 31°40' E 121°13'245437.1
2016-Nov-29 05:30N 31°21' E 121°31'128.9
2016-Nov-29 05:28N 31°22' E 121°30'63337.7
2016-Nov-29 05:28N 31°15' E 121°31'25430.6
2016-Nov-29 05:24N 31°38' E 121°18'4251701.8
2016-Nov-29 05:09N 38°43' E 121°30'8501421.0
2016-Nov-29 04:33N 24°44' E 118°51'41611348.2
2016-Nov-29 04:31N 31°15' E 121°31'292486.1
2016-Nov-29 04:31N 31°40' E 121°13'5877.3
2016-Nov-29 04:30N 31°38' E 121°18'661264474.0
2016-Nov-29 04:30N 23°04' E 113°29'6564820.5
2016-Nov-29 04:22N 31°22' E 121°30'101256.7
2016-Nov-29 04:21N 31°30' E 121°24'98677.6
2016-Nov-29 04:13N 29°58' E 122°03'360548.8
2016-Nov-29 03:33N 24°42' E 118°48'30815174.1
2016-Nov-29 03:32N 23°04' E 113°29'4317298.8
2016-Nov-29 03:32N 22°28' E 113°54'671172559.7
2016-Nov-29 03:32N 31°22' E 121°30'196.2
2016-Nov-29 03:31N 31°21' E 121°31'10407.3
2016-Nov-29 03:30N 31°30' E 121°24'985581.6
2016-Nov-29 03:29N 29°58' E 122°03'10710404.8
2016-Nov-29 03:28N 31°38' E 121°18'25520.2
2016-Nov-29 03:25N 31°15' E 121°31'211.7
2016-Nov-29 03:17N 31°14' E 121°30'836.1
2016-Nov-29 03:04N 31°22' E 121°30'1 1.0
2016-Nov-29 02:33N 31°22' E 121°30'897086.1
2016-Nov-29 02:33N 29°58' E 122°03'827370.0
2016-Nov-29 02:32N 31°15' E 121°31'16668.9
2016-Nov-29 02:30N 31°30' E 121°24'65959307.6
2016-Nov-29 02:30N 23°04' E 113°29'66132164.9
2016-Nov-29 02:29N 31°38' E 121°18'8631.0
2016-Nov-29 02:28N 31°31' E 121°24'18543.2
2016-Nov-29 02:26N 31°15' E 121°32'6508129.0
2016-Nov-29 02:21N 23°04' E 113°33'654588624.1
2016-Nov-29 02:21N 31°22' E 121°30'0 4.8
2016-Nov-29 02:20N 31°22' E 121°30'67142376.6
2016-Nov-29 02:19N 22°28' E 113°54'67110882.4
2016-Nov-29 02:15N 31°21' E 121°31'671958.4
2016-Nov-29 01:33N 22°28' E 113°54'3910748.2
2016-Nov-29 01:33N 23°00' E 113°31'103245294.1
2016-Nov-29 01:32N 38°45' E 121°35'52223797.5
2016-Nov-29 01:31N 30°03' E 121°57'41565.6
2016-Nov-29 01:30N 29°58' E 121°56'9118177.6
2016-Nov-29 01:30N 31°26' E 121°29'151089.4
2016-Nov-29 01:29N 31°38' E 121°18'1933349.9
2016-Nov-29 01:29N 31°22' E 121°30'65620197.8
2016-Nov-29 01:27N 23°04' E 113°29'66072020.7
2016-Nov-29 01:27N 31°40' E 121°13'291074.7
2016-Nov-29 01:25N 31°15' E 121°31'113168.9
2016-Nov-29 01:25N 31°26' E 121°30'441.0
2016-Nov-29 01:19N 31°22' E 121°30'9175.9
2016-Nov-29 01:16N 31°30' E 121°25'13266.7
2016-Nov-29 01:13N 31°19' E 121°33'67315141.0
2016-Nov-29 01:10N 22°44' E 113°28'6351028.5
2016-Nov-29 00:33N 29°55' E 122°08'6261126106.3
2016-Nov-29 00:33N 22°54' E 113°30'663125593.3
2016-Nov-29 00:33N 31°21' E 121°30'41139.8
2016-Nov-29 00:33N 31°26' E 121°30'2035795.8
2016-Nov-29 00:33N 31°40' E 121°13'5489.2
2016-Nov-29 00:32N 31°38' E 121°18'21652.9
2016-Nov-29 00:30N 31°21' E 121°32'111103.1
2016-Nov-29 00:30N 31°30' E 121°25'8549.1
2016-Nov-29 00:29N 31°25' E 121°32'46755.4
2016-Nov-29 00:29N 31°22' E 121°30'7398.4
2016-Nov-29 00:28N 31°15' E 121°31'66642827.5
2016-Nov-29 00:27N 22°28' E 113°54'674747.9
2016-Nov-28 23:33N 31°24' E 121°32'249474.3
2016-Nov-28 23:33N 31°40' E 121°11'66986016.7
2016-Nov-28 23:32N 22°55' E 113°26'38135230.9
2016-Nov-28 23:32N 22°28' E 113°54'67235553.3
2016-Nov-28 23:31N 31°23' E 121°30'8248.7
2016-Nov-28 23:29N 31°29' E 121°24'1381.7
2016-Nov-28 23:29N 31°30' E 121°25'1115791.0
2016-Nov-28 23:28N 29°44' E 122°03'952172.3
2016-Nov-28 23:25N 31°15' E 121°31'295.0
2016-Nov-28 23:24N 31°15' E 121°32'65311575.8
2016-Nov-28 23:21N 23°04' E 113°29'65636906.9
2016-Nov-28 23:20N 31°22' E 121°30'4585119.9
2016-Nov-28 23:14N 24°15' E 118°23'278401.4
2016-Nov-28 22:33N 23°04' E 113°29'65218325.4
2016-Nov-28 22:31N 31°15' E 121°31'66626356.5
2016-Nov-28 22:29N 22°28' E 113°54'67471368.8
2016-Nov-28 22:29N 31°24' E 121°32'8160.8
2016-Nov-28 22:26N 31°29' E 121°24'145723.0
2016-Nov-28 22:25N 31°40' E 121°13'23524.7
2016-Nov-28 22:23N 31°22' E 121°30'10267.0
2016-Nov-28 22:21N 31°30' E 121°25'1619.6
2016-Nov-28 21:33N 31°15' E 121°31'66663116.8
2016-Nov-28 21:32N 22°28' E 113°54'671115035.9
2016-Nov-28 21:32N 31°22' E 121°30'92119.4
2016-Nov-28 21:32N 31°29' E 121°24'131093.0
2016-Nov-28 21:31N 31°38' E 121°14'14980.4
2016-Nov-28 21:30N 31°29' E 121°27'276.9
2016-Nov-28 21:29N 31°30' E 121°25'111.2
2016-Nov-28 21:21N 31°30' E 121°23'1151234.1
2016-Nov-28 21:15N 29°41' E 122°06'114161.8
2016-Nov-28 20:33N 31°30' E 121°25'161483.9
2016-Nov-28 20:32N 31°15' E 121°31'27956.7
2016-Nov-28 20:31N 31°38' E 121°14'676105731.2
2016-Nov-28 20:30N 22°28' E 113°54'67467413.2
2016-Nov-28 20:30N 31°31' E 121°23'1199.6
2016-Nov-28 20:23N 31°22' E 121°30'1021153.6
2016-Nov-28 20:18N 29°44' E 122°03'113151.7
2016-Nov-28 19:33N 31°31' E 121°23'1074379.0
2016-Nov-28 19:32N 29°51' E 122°07'9017996.6
2016-Nov-28 19:31N 31°15' E 121°31'154436.1
2016-Nov-28 19:31N 31°29' E 121°24'46415906.5
2016-Nov-28 19:29N 24°15' E 118°17'2647261.3
2016-Nov-28 19:27N 22°28' E 113°54'43893.4
2016-Nov-28 19:24N 23°04' E 113°29'65929653.6
2016-Nov-28 19:23N 31°30' E 121°25'121129.4
2016-Nov-28 19:22N 31°38' E 121°14'22539.2
2016-Nov-28 19:20N 31°22' E 121°30'90115.4
2016-Nov-28 18:33N 29°56' E 122°01'39522948.6
2016-Nov-28 18:32N 24°19' E 118°09'46324179.9
2016-Nov-28 18:31N 31°29' E 121°24'169.0
2016-Nov-28 18:30N 31°30' E 121°24'6922542.2
2016-Nov-28 18:30N 31°56' E 120°10'678938.4
2016-Nov-28 18:29N 31°31' E 121°23'67417843.2
2016-Nov-28 18:27N 22°28' E 113°54'67129461.8
2016-Nov-28 18:26N 31°22' E 121°30'22166.3
2016-Nov-28 18:18N 31°38' E 121°14'65967810.8
2016-Nov-28 18:17N 23°04' E 113°29'638862.7
2016-Nov-28 17:33N 31°57' E 120°04'8523548.0
2016-Nov-28 17:33N 31°15' E 121°31'797086.8
2016-Nov-28 17:32N 29°58' E 121°49'62039133.7
2016-Nov-28 17:31N 22°28' E 113°54'673186476.5
2016-Nov-28 17:31N 31°29' E 121°24'288259.6
2016-Nov-28 17:31N 31°47' E 120°60'271389.8
2016-Nov-28 17:30N 31°30' E 121°24'59934.2
2016-Nov-28 17:26N 31°58' E 120°23'6577857.0
2016-Nov-28 17:21N 22°54' E 113°28'10135.8
2016-Nov-28 17:16N 23°04' E 113°29'6593305.7
2016-Nov-28 17:04N 31°38' E 121°14'6751297.6
2016-Nov-28 16:33N 22°28' E 113°54'66764916.5
2016-Nov-28 16:33N 31°58' E 120°23'4314109.0
2016-Nov-28 16:32N 31°42' E 121°10'272516.5
2016-Nov-28 16:32N 31°22' E 121°30'9656.4
2016-Nov-28 16:31N 31°29' E 121°24'2011882.7
2016-Nov-28 16:31N 31°43' E 121°08'1917278.0
2016-Nov-28 16:31N 31°30' E 121°24'17684.6
2016-Nov-28 16:29N 31°42' E 121°10'2133.9
2016-Nov-28 16:28N 31°43' E 121°08'341260.9
2016-Nov-28 16:27N 31°15' E 121°31'286385.6
2016-Nov-28 16:26N 31°39' E 121°13'65939566.4
2016-Nov-28 16:25N 23°04' E 113°29'65917959.9
2016-Nov-28 16:23N 31°31' E 121°23'1618.8
2016-Nov-28 15:33N 31°42' E 121°09'51457.2
2016-Nov-28 15:33N 31°39' E 121°14'482520.3
2016-Nov-28 15:32N 31°58' E 120°23'667104430.8
2016-Nov-28 15:31N 22°28' E 113°54'676243400.2
2016-Nov-28 15:31N 31°38' E 121°15'52063.7
2016-Nov-28 15:31N 31°41' E 121°10'16703.7
2016-Nov-28 15:30N 31°30' E 121°24'65939539.9
2016-Nov-28 15:29N 23°04' E 113°29'65836438.6
2016-Nov-28 15:28N 31°29' E 121°24'3915.6
2016-Nov-28 15:27N 31°31' E 121°22'11464.3
2016-Nov-28 15:26N 31°22' E 121°30'61112.1
2016-Nov-28 15:26N 31°15' E 121°31'2 7.7
2016-Nov-28 15:09N 31°13' E 121°30'1828.9
2016-Nov-28 14:33N 31°30' E 121°24'169555.0
2016-Nov-28 14:33N 31°15' E 121°31'165774.0
2016-Nov-28 14:33N 31°30' E 121°24'518170.5
2016-Nov-28 14:33N 31°34' E 121°20'2124875.3
2016-Nov-28 14:33N 31°15' E 121°31'212912.5
2016-Nov-28 14:32N 31°34' E 121°19'6182.4
2016-Nov-28 14:30N 31°29' E 121°24'252941.8
2016-Nov-28 14:30N 31°46' E 121°03'659338973.3
2016-Nov-28 14:29N 23°04' E 113°29'40515046.5
2016-Nov-28 14:28N 26°47' E 119°42'29766728.8
2016-Nov-28 14:28N 31°31' E 121°23'6745393.3
2016-Nov-28 14:20N 22°28' E 113°54'67112647.7
2016-Nov-28 14:17N 31°22' E 121°30'1419.7
2016-Nov-28 13:33N 31°33' E 121°20'5539317.0
2016-Nov-28 13:33N 31°58' E 120°23'5616778.7
2016-Nov-28 13:33N 31°32' E 121°21'181883.6
2016-Nov-28 13:33N 31°18' E 121°34'144166.2
2016-Nov-28 13:32N 31°30' E 121°26'143.5
2016-Nov-28 13:31N 31°30' E 121°25'65981803.7
2016-Nov-28 13:31N 23°04' E 113°29'65215637.8
2016-Nov-28 13:28N 31°15' E 121°31'15782.8
2016-Nov-28 13:27N 31°29' E 121°24'1297996.2
2016-Nov-28 13:26N 29°32' E 122°26'62629255.6
2016-Nov-28 13:25N 22°28' E 113°54'67554009.8
2016-Nov-28 13:24N 31°30' E 121°26'311.8
2016-Nov-28 13:08N 31°31' E 121°22'2 4.0
2016-Nov-28 12:33N 31°29' E 121°25'665798101.7
2016-Nov-28 12:33N 23°03' E 113°19'658215410.2
2016-Nov-28 12:33N 31°15' E 121°31'1517984.4
2016-Nov-28 12:33N 31°30' E 121°26'2323.8
2016-Nov-28 12:33N 31°29' E 121°24'4736.5
2016-Nov-28 12:32N 31°27' E 121°29'71272.4
2016-Nov-28 12:32N 31°21' E 121°32'67140963.5
2016-Nov-28 12:31N 22°28' E 113°54'66631148.9
2016-Nov-28 12:30N 31°58' E 120°22'65627768.0
2016-Nov-28 12:28N 22°53' E 113°31'66710767.5
2016-Nov-28 12:25N 31°26' E 121°30'9129670.8
2016-Nov-28 12:25N 29°58' E 121°53'6126274.7
2016-Nov-28 12:19N 23°04' E 113°29'659872.7
2016-Nov-28 11:33N 31°43' E 121°08'3420283.9
2016-Nov-28 11:33N 31°15' E 121°31'71716.8
2016-Nov-28 11:33N 31°22' E 121°30'92068.5
2016-Nov-28 11:33N 31°29' E 121°24'59120.0
2016-Nov-28 11:33N 31°32' E 121°20'91782.6
2016-Nov-28 11:32N 31°27' E 121°29'662596142.4
2016-Nov-28 11:32N 23°03' E 113°25'661339781.6
2016-Nov-28 11:32N 31°23' E 121°31'6814391.5
2016-Nov-28 11:32N 31°58' E 120°22'4514822.6
2016-Nov-28 11:32N 31°40' E 121°11'2590057.0
2016-Nov-28 11:32N 31°22' E 121°30'3160.6
2016-Nov-28 11:31N 31°25' E 121°32'65923039.4
2016-Nov-28 11:29N 23°04' E 113°29'11462.1
2016-Nov-28 11:27N 22°54' E 113°24'66927994.0
2016-Nov-28 11:26N 31°24' E 121°31'674.7
2016-Nov-28 11:21N 31°29' E 121°27'6757103.2
2016-Nov-28 11:15N 22°28' E 113°54'6747802.1
2016-Nov-28 11:10N 31°31' E 121°22'109177.0
2016-Nov-28 10:33N 29°49' E 122°06'10039806.4
2016-Nov-28 10:33N 31°24' E 121°31'1922965.9
2016-Nov-28 10:33N 31°37' E 121°15'155001.2
2016-Nov-28 10:33N 31°46' E 121°01'2711969.2
2016-Nov-28 10:33N 31°29' E 121°24'151715.0
2016-Nov-28 10:32N 31°15' E 121°31'176173.8
2016-Nov-28 10:32N 31°31' E 121°22'58209796.8
2016-Nov-28 10:32N 31°58' E 120°22'66616773.1
2016-Nov-28 10:30N 22°28' E 113°54'67332748.1
2016-Nov-28 10:28N 31°24' E 121°31'249.5
2016-Nov-28 10:26N 31°22' E 121°30'6567179.1
2016-Nov-28 10:20N 23°04' E 113°29'6562581.6
2016-Nov-28 10:05N 31°22' E 121°30'510.1
2016-Nov-28 09:33N 31°27' E 121°28'11018048.6
2016-Nov-28 09:33N 29°41' E 122°05'11319403.1
2016-Nov-28 09:33N 31°29' E 121°24'184384.7
2016-Nov-28 09:32N 31°42' E 121°09'162041.4
2016-Nov-28 09:32N 31°31' E 121°22'589121.6
2016-Nov-28 09:32N 31°58' E 120°22'6669910.9
2016-Nov-28 09:28N 22°28' E 113°54'433794.6
2016-Nov-28 09:27N 23°04' E 113°29'6559286.8
2016-Nov-28 09:23N 31°18' E 121°34'5105.5
2016-Nov-28 09:20N 31°22' E 121°30'7155.3
2016-Nov-28 09:17N 31°15' E 121°31'633.9
2016-Nov-28 09:06N 31°21' E 121°31'104188.7
2016-Nov-28 08:33N 29°41' E 122°05'11513760.5
2016-Nov-28 08:33N 31°30' E 121°23'235468.0
2016-Nov-28 08:33N 31°45' E 121°03'3813776.3
2016-Nov-28 08:32N 31°15' E 121°31'65218916.4
2016-Nov-28 08:30N 23°04' E 113°29'63857395.8
2016-Nov-28 08:30N 31°59' E 120°02'847360.9
2016-Nov-28 08:29N 31°22' E 121°30'095.6
2016-Nov-28 08:29N 31°22' E 121°30'6918996.1
2016-Nov-28 08:29N 31°58' E 120°22'582656.2
2016-Nov-28 08:27N 31°31' E 121°22'192231.9
2016-Nov-28 08:27N 31°13' E 121°30'66533236.0
2016-Nov-28 08:26N 22°28' E 113°54'6715567.2
2016-Nov-28 08:18N 31°21' E 121°31'10159.2
2016-Nov-28 08:15N 31°29' E 121°24'87970.3
2016-Nov-28 08:09N 30°42' E 122°50'155258.2
2016-Nov-28 07:33N 31°57' E 120°11'686992.6
2016-Nov-28 07:33N 31°29' E 121°24'82782.9
2016-Nov-28 07:33N 31°23' E 121°30'7910886.0
2016-Nov-28 07:32N 30°42' E 122°49'683245800.9
2016-Nov-28 07:32N 23°02' E 113°24'649212402.5
2016-Nov-28 07:32N 31°57' E 120°17'663597146.0
2016-Nov-28 07:32N 22°28' E 113°54'61992786.4
2016-Nov-28 07:31N 29°41' E 122°05'985625.9
2016-Nov-28 07:30N 31°15' E 121°31'19505.1
2016-Nov-28 07:28N 31°32' E 121°20'542376.8
2016-Nov-28 07:27N 32°02' E 120°27'38617380.8
2016-Nov-28 07:25N 38°27' E 120°57'41710879.4
2016-Nov-28 07:23N 31°31' E 121°22'12404.3
2016-Nov-28 07:21N 31°21' E 121°31'2907100.1
2016-Nov-28 07:19N 26°47' E 119°42'66117505.7
2016-Nov-28 07:16N 37°44' E 121°10'31309.2
2016-Nov-28 07:16N 37°42' E 121°09'427595.3
2016-Nov-28 06:33N 30°42' E 122°49'7553646.0
2016-Nov-28 06:33N 31°15' E 121°31'433119968.9
2016-Nov-28 06:33N 38°27' E 120°55'419100612.1
2016-Nov-28 06:33N 31°29' E 121°24'6310314.4
2016-Nov-28 06:32N 31°57' E 120°18'16130526.7
2016-Nov-28 06:32N 29°44' E 122°03'609548479.6
2016-Nov-28 06:32N 23°04' E 113°28'649291873.9
2016-Nov-28 06:32N 31°60' E 120°21'66820899.1
2016-Nov-28 06:30N 22°28' E 113°54'669300966.4
2016-Nov-28 06:30N 32°00' E 120°23'101129.2
2016-Nov-28 06:29N 31°56' E 120°13'62910.2
2016-Nov-28 06:25N 31°32' E 121°20'131049.5
2016-Nov-28 06:24N 31°22' E 121°30'113526.2
2016-Nov-28 06:24N 31°31' E 121°22'65822360.5
2016-Nov-28 06:22N 23°04' E 113°29'6566267.0
2016-Nov-28 06:16N 31°21' E 121°31'71100.1
2016-Nov-28 05:33N 31°58' E 120°19'156112596.8
2016-Nov-28 05:33N 29°53' E 122°08'15821811.4
2016-Nov-28 05:33N 31°56' E 120°14'414196.7
2016-Nov-28 05:33N 31°55' E 120°09'15413902.5
2016-Nov-28 05:32N 30°42' E 122°49'77138756.8
2016-Nov-28 05:32N 31°21' E 121°31'42853087.1
2016-Nov-28 05:32N 38°28' E 120°52'42720215.8
2016-Nov-28 05:31N 31°22' E 121°30'65934913.9
2016-Nov-28 05:29N 22°59' E 113°31'661264526.9
2016-Nov-28 05:29N 31°29' E 121°24'29511810.6
2016-Nov-28 05:28N 26°47' E 119°42'4053976.9
2016-Nov-28 05:22N 23°04' E 113°29'433537.1
2016-Nov-28 05:21N 22°28' E 113°54'68081573.1
2016-Nov-28 05:20N 31°44' E 121°13'661013.2
2016-Nov-28 05:16N 32°03' E 119°57'388542.2
2016-Nov-28 04:33N 38°28' E 120°51'39454537.7
2016-Nov-28 04:33N 31°56' E 120°12'15090059.8
2016-Nov-28 04:33N 29°57' E 121°59'1134325.8
2016-Nov-28 04:31N 31°43' E 121°14'25338.6
2016-Nov-28 04:27N 31°22' E 121°30'1619.3
2016-Nov-28 04:27N 31°21' E 121°31'67147376.1
2016-Nov-28 04:26N 22°28' E 113°54'658215486.8
2016-Nov-28 04:26N 31°55' E 120°09'639104551.8
2016-Nov-28 04:25N 23°04' E 113°29'40537425.1
2016-Nov-28 04:25N 26°47' E 119°42'29013933.8
2016-Nov-28 04:24N 31°22' E 121°30'841131.6
2016-Nov-28 04:19N 31°59' E 120°01'89387.9
2016-Nov-28 04:05N 31°13' E 121°30'8517.3
2016-Nov-28 04:04N 31°21' E 121°30'85164.3
2016-Nov-28 03:33N 29°58' E 121°49'620446381.8
2016-Nov-28 03:33N 22°28' E 113°54'659197624.7
2016-Nov-28 03:33N 31°58' E 120°06'4144.9
2016-Nov-28 03:32N 31°55' E 120°09'7712679.4
2016-Nov-28 03:31N 31°21' E 121°31'29032618.0
2016-Nov-28 03:31N 26°47' E 119°42'29424042.2
2016-Nov-28 03:30N 31°26' E 121°29'792403.7
2016-Nov-28 03:28N 31°57' E 120°03'814165.7
2016-Nov-28 03:27N 31°22' E 121°29'6569714.7
2016-Nov-28 03:23N 23°04' E 113°29'656743.0
2016-Nov-28 02:30N 31°22' E 121°29'216.0
2016-Nov-28 02:23N 31°21' E 121°31'65642956.9
2016-Nov-28 02:22N 23°04' E 113°29'65290218.5
2016-Nov-28 02:21N 31°15' E 121°31'6 7.1
2016-Nov-28 01:33N 31°21' E 121°32'135.0
2016-Nov-28 01:31N 31°21' E 121°31'65622938.2
2016-Nov-28 01:30N 23°04' E 113°29'2995.3
2016-Nov-28 01:30N 23°03' E 113°31'6266890.5
2016-Nov-28 01:24N 29°56' E 122°17'896640.5
2016-Nov-28 01:23N 31°15' E 121°31'2847466.5
2016-Nov-28 01:21N 26°47' E 119°42'3106812.6
2016-Nov-28 01:18N 31°56' E 120°11'4108892.7
2016-Nov-28 01:16N 38°41' E 121°32'62363.3
2016-Nov-28 01:05N 37°42' E 121°09'9681797.9
2016-Nov-28 00:33N 22°57' E 113°32'65524306.4
2016-Nov-28 00:31N 31°15' E 121°31'994.8
2016-Nov-28 00:26N 31°24' E 121°31'6588615.9
2016-Nov-28 00:21N 23°04' E 113°29'6564134.2
2016-Nov-28 00:12N 31°22' E 121°29'5 6.9
2016-Nov-27 23:30N 31°27' E 121°28'12207.3
2016-Nov-27 23:26N 31°15' E 121°31'6597552.0
2016-Nov-27 23:21N 22°51' E 113°35'1450.2
2016-Nov-27 23:04N 23°04' E 113°29'6521270.0
2016-Nov-27 22:34N 31°15' E 121°31'65217504.8
2016-Nov-27 22:31N 23°04' E 113°29'6568743.0
2016-Nov-27 22:27N 31°22' E 121°29'7 7.9
2016-Nov-27 21:33N 31°15' E 121°31'6612839.3
2016-Nov-27 21:19N 22°44' E 113°40'14361874.1
2016-Nov-27 20:33N 00°04' E 121°29'187155204.7
2016-Nov-27 20:31N 31°15' E 121°31'7103.4
2016-Nov-27 20:27N 31°22' E 121°29'6562408.8
2016-Nov-27 20:10N 23°04' E 113°29'6521051.9
2016-Nov-27 19:33N 31°15' E 121°31'  
Track history (hours):
 
Tides and Currents Weather Stations Pressure Air Temp Water Temp Dewpoint Dewpoint Depression Visibility Wind Speed Wind Dir Waves Ship Positions

Callsign 000000 (name unknown)

Last reported at 2016-Dec-07 19:33 UTC. Time now 2016-Dec-07 20:22 UTC.
Position N 31°31' E 121°23'.

Type: Fishing. MMSI: 200007452.

Date/timePositionNaut miles runAvg speedWind from/ knotsBaromVisibWave heightAir tempDewpointWater temp
2016-Dec-07 19:33N 31°31' E 121°23'142245.9
2016-Dec-07 19:33N 31°40' E 121°12'11099348.3
2016-Dec-07 19:33N 29°57' E 121°58'8921448.7
2016-Dec-07 19:33N 31°24' E 121°31'480431724.8
2016-Dec-07 19:33N 23°59' E 118°08'481576782.5
2016-Dec-07 19:32N 31°26' E 121°29'194840.2
2016-Dec-07 19:32N 31°40' E 121°14'22621.5
2016-Dec-07 19:30N 31°21' E 121°27'147.5
2016-Dec-07 19:29N 31°22' E 121°28'018.4
2016-Dec-07 19:28N 31°22' E 121°29'358.4
2016-Dec-07 19:25N 31°21' E 121°32'65640057.2
2016-Dec-07 19:24N 23°04' E 113°29'6586653.5
2016-Dec-07 19:18N 31°26' E 121°28'1621.2
2016-Dec-07 18:33N 31°37' E 121°16'5944.2
2016-Dec-07 18:33N 31°33' E 121°19'145690.1
2016-Dec-07 18:33N 31°23' E 121°30'657139058.2
2016-Dec-07 18:33N 23°04' E 113°29'65475994.1
2016-Dec-07 18:32N 31°21' E 121°27'141.9
2016-Dec-07 18:31N 31°22' E 121°28'62200.2
2016-Dec-07 18:31N 31°28' E 121°27'481288866.4
2016-Dec-07 18:30N 23°59' E 118°10'48075126.2
2016-Dec-07 18:30N 31°26' E 121°29'490.7
2016-Dec-07 18:28N 31°22' E 121°29'22148.6
2016-Dec-07 18:19N 31°40' E 121°14'25379.3
2016-Dec-07 18:15N 31°20' E 121°33'2 3.1
2016-Dec-07 17:33N 31°21' E 121°30'133517.1
2016-Dec-07 17:33N 31°31' E 121°21'3775.6
2016-Dec-07 17:33N 31°34' E 121°19'114078.5
2016-Dec-07 17:33N 31°26' E 121°29'658338486.9
2016-Dec-07 17:33N 23°04' E 113°29'26220082.6
2016-Dec-07 17:32N 23°60' E 118°08'48733068.5
2016-Dec-07 17:31N 31°38' E 121°15'20774.4
2016-Dec-07 17:29N 31°22' E 121°28'013.5
2016-Dec-07 17:28N 31°22' E 121°29'223540.0
2016-Dec-07 17:27N 31°40' E 121°14'19255.2
2016-Dec-07 17:23N 31°26' E 121°29'5210.8
2016-Dec-07 17:22N 31°21' E 121°27'32175.4
2016-Dec-07 17:11N 31°46' E 121°04'41733.1
2016-Dec-07 17:07N 31°57' E 120°17'69121.1
2016-Dec-07 16:33N 31°26' E 121°29'41037.5
2016-Dec-07 16:33N 31°21' E 121°27'1011969.0
2016-Dec-07 16:33N 31°31' E 121°24'659113047.3
2016-Dec-07 16:33N 23°04' E 113°29'66057949.4
2016-Dec-07 16:32N 31°45' E 121°06'9394.3
2016-Dec-07 16:31N 31°40' E 121°14'2238923.5
2016-Dec-07 16:31N 31°24' E 121°31'3156.5
2016-Dec-07 16:29N 31°26' E 121°28'23651.0
2016-Dec-07 16:27N 31°42' E 121°09'26607.1
2016-Dec-07 16:25N 31°22' E 121°29'31201.3
2016-Dec-07 16:25N 31°25' E 121°30'4485.4
2016-Dec-07 16:24N 31°22' E 121°28'191169.2
2016-Dec-07 16:23N 31°37' E 121°15'1037.0
2016-Dec-07 16:07N 31°30' E 121°23'426748.9
2016-Dec-07 15:33N 24°45' E 118°54'433111341.0
2016-Dec-07 15:33N 31°41' E 121°10'659113043.8
2016-Dec-07 15:33N 23°04' E 113°29'6581184830.4
2016-Dec-07 15:33N 31°32' E 121°20'101017.7
2016-Dec-07 15:32N 31°26' E 121°29'0 7.8
2016-Dec-07 15:30N 31°26' E 121°28'48026173.2
2016-Dec-07 15:29N 23°60' E 118°09'489135540.6
2016-Dec-07 15:28N 31°42' E 121°09'203242.2
2016-Dec-07 15:28N 31°28' E 121°25'7311.4
2016-Dec-07 15:27N 31°21' E 121°27'221412.9
2016-Dec-07 15:26N 31°40' E 121°14'11125.3
2016-Dec-07 15:21N 31°45' E 121°03'32306.9
2016-Dec-07 15:14N 31°22' E 121°28'4122803.7
2016-Dec-07 15:06N 24°53' E 118°55'43014456.9
2016-Dec-07 15:04N 31°56' E 120°16'70138.1
2016-Dec-07 14:33N 31°22' E 121°28'413495749.6
2016-Dec-07 14:33N 24°50' E 118°59'417300354.5
2016-Dec-07 14:33N 31°26' E 121°29'65869688.0
2016-Dec-07 14:33N 23°04' E 113°29'3179931.6
2016-Dec-07 14:31N 24°53' E 118°55'41164372.7
2016-Dec-07 14:30N 31°21' E 121°27'4260.3
2016-Dec-07 14:29N 31°26' E 121°28'44385.5
2016-Dec-07 14:29N 31°28' E 121°25'16288.8
2016-Dec-07 14:26N 31°40' E 121°13'4888253.2
2016-Dec-07 14:22N 23°60' E 118°09'476428736.9
2016-Dec-07 14:22N 31°22' E 121°28'2274.0
2016-Dec-07 14:05N 31°40' E 121°14'2241.2
2016-Dec-07 13:33N 31°22' E 121°28'46798.0
2016-Dec-07 13:33N 31°26' E 121°29'191234.0
2016-Dec-07 13:32N 31°40' E 121°14'21940.8
2016-Dec-07 13:32N 31°40' E 121°11'17930.3
2016-Dec-07 13:31N 31°28' E 121°25'41753633.7
2016-Dec-07 13:31N 24°53' E 118°55'41524519.8
2016-Dec-07 13:30N 31°26' E 121°28'19654.3
2016-Dec-07 13:28N 31°39' E 121°13'221936.7
2016-Dec-07 13:27N 31°22' E 121°28'2217.8
2016-Dec-07 12:15N 31°39' E 121°13'1520.7
2016-Dec-07 11:31N 31°28' E 121°25'153178.3
2016-Dec-07 11:31N 31°40' E 121°14'1958.5
2016-Dec-07 11:11N 31°26' E 121°29'4679.8
2016-Dec-07 11:11N 31°22' E 121°28'177.9
2016-Dec-07 11:10N 31°21' E 121°27'031.0
2016-Dec-07 11:10N 31°22' E 121°28'6552356912.1
2016-Dec-07 11:10N 23°04' E 113°29'95726110.4
2016-Dec-07 11:07N 36°55' E 122°38'32310102.7
2016-Dec-07 11:05N 31°41' E 121°11'2115271.6
2016-Dec-07 11:05N 31°26' E 121°28'2851.9
2016-Dec-07 10:33N 31°45' E 121°05'32532453.7
2016-Dec-07 10:33N 36°59' E 122°41'34338558.0
2016-Dec-07 10:32N 31°22' E 121°28'47625225.6
2016-Dec-07 10:31N 23°60' E 118°08'47149863.3
2016-Dec-07 10:31N 31°15' E 121°31'7964.4
2016-Dec-07 10:30N 31°22' E 121°28'4309.5
2016-Dec-07 10:29N 31°26' E 121°28'092.2
2016-Dec-07 10:29N 31°26' E 121°29'19580.4
2016-Dec-07 10:27N 31°40' E 121°14'221128.2
2016-Dec-07 10:26N 31°21' E 121°27'74256.5
2016-Dec-07 10:26N 31°28' E 121°25'65816230.7
2016-Dec-07 10:24N 23°04' E 113°29'652778.5
2016-Dec-07 09:33N 31°15' E 121°31'65293827.2
2016-Dec-07 09:33N 23°04' E 113°29'66041712.5
2016-Dec-07 09:32N 31°40' E 121°14'151319.1
2016-Dec-07 09:31N 31°28' E 121°25'221509.9
2016-Dec-07 09:30N 31°43' E 121°07'667109148.8
2016-Dec-07 09:30N 22°53' E 113°32'66336711.1
2016-Dec-07 09:29N 31°22' E 121°28'471.4
2016-Dec-07 09:26N 31°26' E 121°29'48029790.4
2016-Dec-07 09:25N 23°60' E 118°08'4905527.5
2016-Dec-07 09:20N 31°43' E 121°06'45314.0
2016-Dec-07 09:11N 31°56' E 120°16'71113.1
2016-Dec-07 08:33N 31°22' E 121°29'656157453.7
2016-Dec-07 08:33N 23°04' E 113°29'0149.8
2016-Dec-07 08:33N 23°04' E 113°29'655130974.1
2016-Dec-07 08:33N 31°22' E 121°28'9496.1
2016-Dec-07 08:32N 31°13' E 121°30'135634.2
2016-Dec-07 08:31N 31°26' E 121°29'202720.2
2016-Dec-07 08:31N 31°40' E 121°13'48858605.6
2016-Dec-07 08:30N 23°60' E 118°08'47143468.5
2016-Dec-07 08:30N 31°15' E 121°31'7147.6
2016-Dec-07 08:27N 31°21' E 121°28'196674.3
2016-Dec-07 08:27N 31°38' E 121°18'4146.9
2016-Dec-07 08:25N 31°40' E 121°14'1073007.3
2016-Dec-07 08:23N 29°58' E 121°53'93587.5
2016-Dec-07 08:14N 31°28' E 121°25'6 9.5
2016-Dec-07 07:33N 31°25' E 121°32'88105968.6
2016-Dec-07 07:33N 29°59' E 121°53'798568.9
2016-Dec-07 07:33N 31°15' E 121°32'92705.0
2016-Dec-07 07:32N 31°24' E 121°31'152449.9
2016-Dec-07 07:32N 31°35' E 121°19'35932.2
2016-Dec-07 07:32N 31°38' E 121°18'4560.2
2016-Dec-07 07:32N 31°40' E 121°13'291368.3
2016-Dec-07 07:30N 31°15' E 121°31'144568.6
2016-Dec-07 07:30N 31°28' E 121°25'4633.6
2016-Dec-07 07:30N 31°26' E 121°29'121876.2
2016-Dec-07 07:29N 31°14' E 121°30'6508765.8
2016-Dec-07 07:25N 23°04' E 113°29'013.1
2016-Dec-07 07:24N 23°04' E 113°29'660396276.9
2016-Dec-07 07:24N 31°40' E 121°14'48813122.3
2016-Dec-07 07:22N 23°60' E 118°08'476244648.1
2016-Dec-07 07:22N 31°21' E 121°28'7087.5
2016-Dec-07 06:33N 31°56' E 120°16'699548.1
2016-Dec-07 06:33N 31°26' E 121°29'830480.2
2016-Dec-07 06:33N 31°18' E 121°33'656786672.6
2016-Dec-07 06:33N 23°04' E 113°29'056.6
2016-Dec-07 06:33N 23°04' E 113°29'660792566.4
2016-Dec-07 06:33N 31°40' E 121°14'46823.7
2016-Dec-07 06:33N 31°38' E 121°18'66135018.6
2016-Dec-07 06:32N 23°03' E 113°30'660237513.5
2016-Dec-07 06:31N 31°31' E 121°25'82703.2
2016-Dec-07 06:31N 31°25' E 121°32'384.8
2016-Dec-07 06:29N 31°26' E 121°28'48131491.1
2016-Dec-07 06:28N 23°59' E 118°08'41429810.6
2016-Dec-07 06:27N 29°58' E 121°57'963982.5
2016-Dec-07 06:26N 31°30' E 121°22'9792.3
2016-Dec-07 06:25N 31°21' E 121°28'773.2
2016-Dec-07 06:19N 31°15' E 121°31'142512.8
2016-Dec-07 06:19N 31°28' E 121°25'6229.7
2016-Dec-07 06:17N 31°24' E 121°31'8465.5
2016-Dec-07 06:16N 31°17' E 121°34'4 5.9
2016-Dec-07 05:33N 31°21' E 121°32'91328385.6
2016-Dec-07 05:33N 29°55' E 122°08'9528383.6
2016-Dec-07 05:32N 31°24' E 121°31'48169260.0
2016-Dec-07 05:32N 23°58' E 118°07'48291253.1
2016-Dec-07 05:32N 31°26' E 121°29'65865813.5
2016-Dec-07 05:31N 23°04' E 113°29'66059363.8
2016-Dec-07 05:30N 31°25' E 121°32'2187.3
2016-Dec-07 05:30N 31°25' E 121°29'161088.2
2016-Dec-07 05:29N 31°38' E 121°18'182211.1
2016-Dec-07 05:28N 31°21' E 121°28'7891.6
2016-Dec-07 05:28N 31°15' E 121°31'651586242.5
2016-Dec-07 05:28N 23°04' E 113°30'65860743.2
2016-Dec-07 05:27N 31°28' E 121°25'15579.4
2016-Dec-07 05:26N 31°40' E 121°14'191880.9
2016-Dec-07 05:25N 31°26' E 121°30'65941643.7
2016-Dec-07 05:24N 23°04' E 113°29'66029323.1
2016-Dec-07 05:23N 31°23' E 121°35'11345247.7
2016-Dec-07 05:22N 29°37' E 122°23'1377930.6
2016-Dec-07 05:21N 31°40' E 121°13'54217.5
2016-Dec-07 05:07N 31°57' E 120°13'171308.9
2016-Dec-07 04:33N 29°44' E 122°20'10724124.1
2016-Dec-07 04:33N 31°21' E 121°28'23901.1
2016-Dec-07 04:33N 31°22' E 121°30'0201.4
2016-Dec-07 04:33N 31°22' E 121°30'0179.1
2016-Dec-07 04:33N 31°22' E 121°30'191.2
2016-Dec-07 04:32N 31°21' E 121°30'47749048.4
2016-Dec-07 04:32N 23°58' E 118°11'49146549.5
2016-Dec-07 04:31N 31°57' E 120°16'644136306.8
2016-Dec-07 04:31N 23°04' E 113°30'65119541.4
2016-Dec-07 04:29N 31°15' E 121°31'141013.5
2016-Dec-07 04:28N 31°28' E 121°26'10816864.4
2016-Dec-07 04:28N 29°45' E 122°03'1054384.2
2016-Dec-07 04:26N 31°26' E 121°29'194673.2
2016-Dec-07 04:26N 31°40' E 121°13'66060935.1
2016-Dec-07 04:25N 23°04' E 113°29'66043230.9
2016-Dec-07 04:24N 31°40' E 121°14'151056.8
2016-Dec-07 04:23N 31°28' E 121°25'64456.4
2016-Dec-07 04:15N 31°57' E 120°18'6457583.2
2016-Dec-07 04:10N 23°04' E 113°29'6111006.4
2016-Dec-07 03:33N 29°42' E 122°07'9927281.1
2016-Dec-07 03:33N 31°15' E 121°31'7746482.4
2016-Dec-07 03:33N 31°56' E 120°13'641192347.5
2016-Dec-07 03:33N 23°04' E 113°29'660594125.3
2016-Dec-07 03:33N 31°40' E 121°13'1910016.2
2016-Dec-07 03:33N 31°26' E 121°29'7653.1
2016-Dec-07 03:32N 31°22' E 121°35'973519.7
2016-Dec-07 03:31N 29°51' E 122°13'11010677.4
2016-Dec-07 03:30N 31°31' E 121°21'48396685.0
2016-Dec-07 03:30N 23°58' E 118°10'48988034.6
2016-Dec-07 03:29N 31°40' E 121°14'221396.1
2016-Dec-07 03:28N 31°22' E 121°30'65684347.5
2016-Dec-07 03:28N 23°04' E 113°30'31814495.6
2016-Dec-07 03:27N 24°53' E 118°57'319382201.3
2016-Dec-07 03:26N 23°04' E 113°29'65436247.4
2016-Dec-07 03:25N 31°21' E 121°28'7793.3
2016-Dec-07 03:25N 31°28' E 121°25'7433.8
2016-Dec-07 03:24N 31°24' E 121°32'4224.0
2016-Dec-07 03:23N 31°20' E 121°33'5 6.1
2016-Dec-07 02:33N 31°25' E 121°32'10512646.8
2016-Dec-07 02:33N 29°43' E 122°03'402180812.3
2016-Dec-07 02:33N 23°59' E 118°11'481432853.3
2016-Dec-07 02:33N 31°26' E 121°29'52154.7
2016-Dec-07 02:32N 31°22' E 121°30'1113.2
2016-Dec-07 02:32N 31°22' E 121°29'656168640.9
2016-Dec-07 02:32N 23°04' E 113°29'65851509.3
2016-Dec-07 02:31N 31°26' E 121°29'5698.4
2016-Dec-07 02:31N 31°21' E 121°32'251332.4
2016-Dec-07 02:29N 31°40' E 121°13'161187.7
2016-Dec-07 02:29N 31°28' E 121°25'142512.8
2016-Dec-07 02:28N 31°15' E 121°31'3524.2
2016-Dec-07 02:28N 31°17' E 121°34'2442857.6
2016-Dec-07 02:28N 31°36' E 121°17'5450.3
2016-Dec-07 02:27N 31°40' E 121°14'6603761.2
2016-Dec-07 02:17N 23°04' E 113°30'1 5.5
2016-Dec-07 02:09N 23°04' E 113°29'6171036.3
2016-Dec-07 01:33N 29°51' E 122°07'10040114.0
2016-Dec-07 01:33N 31°26' E 121°29'51928.2
2016-Dec-07 01:33N 31°21' E 121°32'241646.3
2016-Dec-07 01:32N 31°39' E 121°13'214409.5
2016-Dec-07 01:32N 31°25' E 121°31'10388.6
2016-Dec-07 01:30N 31°15' E 121°31'1553822.0
2016-Dec-07 01:30N 31°29' E 121°25'1416794.6
2016-Dec-07 01:30N 31°40' E 121°14'48925890.4
2016-Dec-07 01:29N 23°59' E 118°09'480143986.9
2016-Dec-07 01:29N 31°24' E 121°31'22931.2
2016-Dec-07 01:27N 31°40' E 121°13'66033941.3
2016-Dec-07 01:26N 23°04' E 113°30'658592250.0
2016-Dec-07 01:26N 31°28' E 121°25'11319.9
2016-Dec-07 01:24N 31°19' E 121°33'6566967.3
2016-Dec-07 01:18N 23°04' E 113°29'0 1.8
2016-Dec-07 01:12N 23°04' E 113°29'0 0.3
2016-Dec-07 00:33N 23°04' E 113°29'6502341767.9
2016-Dec-07 00:33N 31°15' E 121°29'8311535.3
2016-Dec-07 00:33N 29°56' E 122°01'6162217496.0
2016-Dec-07 00:33N 23°04' E 113°29'41153.1
2016-Dec-07 00:33N 23°01' E 113°31'65787583.1
2016-Dec-07 00:32N 31°22' E 121°29'267247.3
2016-Dec-07 00:32N 31°42' E 121°09'264028.3
2016-Dec-07 00:32N 31°24' E 121°31'2117.9
2016-Dec-07 00:31N 31°26' E 121°29'480123402.2
2016-Dec-07 00:30N 23°59' E 118°11'47781692.1
2016-Dec-07 00:30N 31°21' E 121°32'6301.2
2016-Dec-07 00:29N 31°15' E 121°31'11197.3
2016-Dec-07 00:26N 31°26' E 121°28'441.5
2016-Dec-07 00:20N 31°28' E 121°25'16149.4
2016-Dec-07 00:14N 31°40' E 121°13'1928.7
2016-Dec-06 23:33N 31°26' E 121°29'113181.1
2016-Dec-06 23:33N 31°15' E 121°31'652234573.3
2016-Dec-06 23:33N 23°04' E 113°29'659148345.4
2016-Dec-06 23:33N 31°44' E 121°06'292589.8
2016-Dec-06 23:32N 31°24' E 121°31'3313.1
2016-Dec-06 23:31N 31°21' E 121°32'691.0
2016-Dec-06 23:28N 31°26' E 121°28'892025.0
2016-Dec-06 23:25N 29°58' E 121°49'4099151.7
2016-Dec-06 23:22N 23°59' E 118°08'4893005.9
2016-Dec-06 23:13N 31°40' E 121°14'15550.6
2016-Dec-06 23:11N 31°28' E 121°25'65825208.9
2016-Dec-06 23:09N 23°04' E 113°29'6581100.0
2016-Dec-06 22:33N 31°26' E 121°29'658103020.8
2016-Dec-06 22:33N 23°04' E 113°29'264475106.9
2016-Dec-06 22:33N 23°59' E 118°11'48912387.8
2016-Dec-06 22:31N 31°40' E 121°13'29921.1
2016-Dec-06 22:29N 31°15' E 121°31'282846.5
2016-Dec-06 22:28N 31°40' E 121°14'131893.7
2016-Dec-06 22:28N 31°30' E 121°24'211934.2
2016-Dec-06 22:27N 31°47' E 121°10'23351.5
2016-Dec-06 22:23N 31°28' E 121°25'9251.3
2016-Dec-06 22:21N 31°21' E 121°32'663.5
2016-Dec-06 22:16N 31°26' E 121°28'243621.9
2016-Dec-06 22:15N 31°43' E 121°08'2434.9
2016-Dec-06 21:33N 31°26' E 121°29'658296192.0
2016-Dec-06 21:33N 23°04' E 113°29'66051691.2
2016-Dec-06 21:32N 31°40' E 121°14'28716.6
2016-Dec-06 21:30N 31°15' E 121°31'16323.9
2016-Dec-06 21:27N 31°30' E 121°24'48315512.6
2016-Dec-06 21:25N 23°59' E 118°10'2647493.9
2016-Dec-06 21:23N 22°53' E 113°31'66511298.8
2016-Dec-06 21:19N 31°26' E 121°28'68509.5
2016-Dec-06 21:11N 31°57' E 120°18'68107.7
2016-Dec-06 20:33N 31°26' E 121°29'3257543.6
2016-Dec-06 20:33N 31°47' E 121°01'65979021.3
2016-Dec-06 20:33N 23°04' E 113°29'65257212.8
2016-Dec-06 20:32N 31°15' E 121°31'65260146.1
2016-Dec-06 20:32N 23°04' E 113°29'658124664.8
2016-Dec-06 20:31N 31°26' E 121°28'4506.0
2016-Dec-06 20:31N 31°28' E 121°25'6614923.0
2016-Dec-06 20:31N 31°56' E 120°14'658321.6
2016-Dec-06 20:30N 31°30' E 121°24'13330.8
2016-Dec-06 20:28N 31°40' E 121°14'30663.5
2016-Dec-06 20:25N 31°13' E 121°30'4666098.2
2016-Dec-06 20:20N 24°03' E 118°09'39716995.4
2016-Dec-06 20:19N 29°39' E 122°04'12913224.3
2016-Dec-06 20:18N 31°40' E 121°13'1 0.7
2016-Dec-06 18:33N 31°40' E 121°12'471282376.8
2016-Dec-06 18:33N 24°19' E 118°09'47199637.6
2016-Dec-06 18:33N 31°40' E 121°14'6601188839.0
2016-Dec-06 18:33N 23°04' E 113°29'66025281.4
2016-Dec-06 18:31N 31°40' E 121°13'192337.1
2016-Dec-06 18:31N 31°26' E 121°29'376499629.2
2016-Dec-06 18:29S 23°50' E 151°15'3613194107.6
2016-Dec-06 18:28N 23°04' E 113°29'65816335.4
2016-Dec-06 18:25N 31°26' E 121°28'419.1
2016-Dec-06 18:14N 31°28' E 121°25'14306.4
2016-Dec-06 18:11N 31°15' E 121°31'7810456.9
2016-Dec-06 18:10N 29°58' E 121°49'104167.3
2016-Dec-06 17:33N 31°38' E 121°15'46911726.1
2016-Dec-06 17:31N 24°19' E 118°07'39667889.8
2016-Dec-06 17:31N 29°58' E 121°57'10812191.3
2016-Dec-06 17:30N 31°40' E 121°13'151856.5
2016-Dec-06 17:29N 31°28' E 121°25'712555.1
2016-Dec-06 17:29N 31°24' E 121°32'376.5
2016-Dec-06 17:27N 31°26' E 121°29'59213.5
2016-Dec-06 17:27N 31°21' E 121°31'5160.6
2016-Dec-06 17:25N 31°26' E 121°28'191559.0
2016-Dec-06 17:24N 31°40' E 121°14'66049535.4
2016-Dec-06 17:24N 23°04' E 113°29'0 5.1
2016-Dec-06 17:21N 23°04' E 113°29'65614316.0
2016-Dec-06 17:18N 31°21' E 121°31'2901338.3
2016-Dec-06 17:05N 26°47' E 119°43'227428.1
2016-Dec-06 16:34N 29°54' E 122°08'11014641.1
2016-Dec-06 16:33N 31°35' E 121°18'162698.9
2016-Dec-06 16:33N 31°45' E 121°03'325247.1
2016-Dec-06 16:32N 31°23' E 121°31'014.1
2016-Dec-06 16:32N 31°23' E 121°30'31546.6
2016-Dec-06 16:32N 31°26' E 121°29'191798.2
2016-Dec-06 16:31N 31°40' E 121°13'19298.5
2016-Dec-06 16:27N 31°26' E 121°28'7173.7
2016-Dec-06 16:25N 31°30' E 121°23'2242.0
2016-Dec-06 16:24N 31°29' E 121°25'659124816.2
2016-Dec-06 16:24N 23°04' E 113°29'0381.2
2016-Dec-06 16:24N 23°04' E 113°29'6603195.9
2016-Dec-06 16:12N 31°40' E 121°14'30336396.5
2016-Dec-06 16:11N 26°47' E 119°43'294469.5
2016-Dec-06 15:33N 31°27' E 121°28'10738385.9
2016-Dec-06 15:33N 29°44' E 122°03'114411251.2
2016-Dec-06 15:33N 31°32' E 121°20'104494.4
2016-Dec-06 15:33N 31°26' E 121°29'916139.9
2016-Dec-06 15:33N 31°32' E 121°22'659395410.8
2016-Dec-06 15:33N 23°04' E 113°29'40630414.7
2016-Dec-06 15:32N 26°47' E 119°43'2961067103.8
2016-Dec-06 15:32N 31°30' E 121°22'12913.0
2016-Dec-06 15:31N 31°40' E 121°13'18348.0
2016-Dec-06 15:28N 31°27' E 121°28'17196.8
2016-Dec-06 15:23N 31°40' E 121°14'378381551.7
2016-Dec-06 15:20S 23°50' E 151°15'38283445149.8
2016-Dec-06 15:20N 31°57' E 120°11'63407.9
2016-Dec-06 15:11N 31°07' E 120°55'6256636.8
2016-Dec-06 15:05N 23°04' E 113°29'65816113.0
2016-Dec-06 15:03N 31°26' E 121°28'510.1
2016-Dec-06 14:33N 31°30' E 121°26'11437366.3
2016-Dec-06 14:33N 29°41' E 122°06'122109796.1
2016-Dec-06 14:33N 31°36' E 121°17'5628622.8
2016-Dec-06 14:33N 31°57' E 120°16'624885.6
2016-Dec-06 14:32N 31°30' E 121°23'72279.4
2016-Dec-06 14:32N 31°26' E 121°29'2946730.6
2016-Dec-06 14:29N 26°47' E 119°43'296106597.3
2016-Dec-06 14:29N 31°29' E 121°25'5134.6
2016-Dec-06 14:27N 31°26' E 121°28'194597.3
2016-Dec-06 14:26N 31°40' E 121°13'174.0
2016-Dec-06 14:26N 31°40' E 121°14'37638.1
2016-Dec-06 14:22N 31°05' E 120°60'62625910.8
2016-Dec-06 14:21N 23°04' E 113°29'016.2
2016-Dec-06 14:20N 23°04' E 113°29'6528173.0
2016-Dec-06 14:15N 31°15' E 121°31'1217.6
2016-Dec-06 13:33N 31°27' E 121°29'11149875.7
2016-Dec-06 13:33N 29°41' E 122°06'109392850.5
2016-Dec-06 13:33N 31°26' E 121°29'1916967.1
2016-Dec-06 13:33N 31°39' E 121°13'659237408.2
2016-Dec-06 13:33N 23°04' E 113°29'65960801.1
2016-Dec-06 13:32N 31°34' E 121°18'7545.9
2016-Dec-06 13:32N 31°29' E 121°25'5298.6
2016-Dec-06 13:31N 31°26' E 121°28'11943.0
2016-Dec-06 13:30N 31°15' E 121°31'28359.2
2016-Dec-06 13:25N 31°40' E 121°14'120.0
2016-Dec-06 13:23N 31°40' E 121°13'3031214.6
2016-Dec-06 13:08N 26°47' E 119°43'35773219727.8
2016-Dec-06 13:08S 23°50' E 151°15'37636465.9
2016-Dec-06 12:33N 31°25' E 121°30'2167.3
2016-Dec-06 12:32N 31°24' E 121°32'92467.1
2016-Dec-06 12:32N 31°15' E 121°31'324461.5
2016-Dec-06 12:32N 31°42' E 121°09'18627.2
2016-Dec-06 12:30N 31°29' E 121°25'11421577.1
2016-Dec-06 12:30N 29°41' E 122°06'13021275.1
2016-Dec-06 12:29N 31°42' E 121°09'59365.1
2016-Dec-06 12:29N 31°39' E 121°14'3025307.0
2016-Dec-06 12:26N 26°47' E 119°43'4061459827.2
2016-Dec-06 12:26N 23°04' E 113°29'66074268.9
2016-Dec-06 12:25N 31°40' E 121°13'1 8.4
2016-Dec-06 12:21N 31°40' E 121°14'19532.0
2016-Dec-06 12:19N 31°26' E 121°28'109144.6
2016-Dec-06 11:33N 29°41' E 122°06'13214019.5
2016-Dec-06 11:33N 31°43' E 121°07'3191.7
2016-Dec-06 11:32N 31°41' E 121°10'25826.8
2016-Dec-06 11:30N 31°22' E 121°28'61570.9
2016-Dec-06 11:30N 31°19' E 121°34'133569.9
2016-Dec-06 11:29N 31°29' E 121°25'65945606.9
2016-Dec-06 11:28N 23°04' E 113°29'66079258.9
2016-Dec-06 11:28N 31°40' E 121°14'19817.7
2016-Dec-06 11:27N 31°26' E 121°28'191642.7
2016-Dec-06 11:26N 31°40' E 121°13'51210845.1
2016-Dec-06 11:23N 23°46' E 117°35'2306668.3
2016-Dec-06 11:21N 23°04' E 113°29'659148351.1
2016-Dec-06 11:21N 31°44' E 121°05'375256.2
2016-Dec-06 11:20N 31°15' E 121°31'0 0.0
2016-Dec-06 10:33N 31°15' E 121°31'2825614.1
2016-Dec-06 10:33N 31°40' E 121°14'2917283.9
2016-Dec-06 10:33N 31°15' E 121°31'652586577.7
2016-Dec-06 10:33N 23°04' E 113°29'659113015.2
2016-Dec-06 10:33N 31°43' E 121°07'21340.1
2016-Dec-06 10:29N 31°29' E 121°25'143930.4
2016-Dec-06 10:29N 31°40' E 121°13'3031277.1
2016-Dec-06 10:15N 26°47' E 119°43'40622458.6
2016-Dec-06 10:13N 23°04' E 113°29'36135387.4
2016-Dec-06 09:33S 23°50' E 151°15'3506788893.7
2016-Dec-06 09:33N 24°53' E 118°57'344618443.9
2016-Dec-06 09:33N 29°51' E 122°08'12645444.7
2016-Dec-06 09:33N 31°45' E 121°04'65925244.4
2016-Dec-06 09:31N 23°04' E 113°29'10221.8
2016-Dec-06 09:28N 22°54' E 113°30'65922825.8
2016-Dec-06 09:27N 31°15' E 121°31'113514.7
2016-Dec-06 09:26N 31°26' E 121°28'65816113.4
2016-Dec-06 09:24N 23°04' E 113°29'6608491.5
2016-Dec-06 09:19N 31°40' E 121°14'425555.2
2016-Dec-06 08:33N 24°52' E 118°55'345414307.5
2016-Dec-06 08:33N 29°56' E 122°01'61641039.4
2016-Dec-06 08:32N 23°04' E 113°29'3198966.3
2016-Dec-06 08:30N 24°53' E 118°57'40658433.2
2016-Dec-06 08:30N 31°15' E 121°31'28433004.0
2016-Dec-06 08:29N 26°47' E 119°43'30316298.9
2016-Dec-06 08:28N 31°40' E 121°14'6609397.6
2016-Dec-06 08:24N 23°04' E 113°29'65914200.6
2016-Dec-06 08:21N 31°29' E 121°25'17191.2
2016-Dec-06 08:16N 31°17' E 121°11'641900.3
2016-Dec-06 07:33N 23°04' E 113°29'66079171.0
2016-Dec-06 07:32N 31°42' E 121°10'4224.4
2016-Dec-06 07:31N 31°40' E 121°14'425169834.4
2016-Dec-06 07:31N 24°53' E 118°57'4013250.6
2016-Dec-06 07:24N 31°16' E 121°09'28511.6
2016-Dec-06 07:20N 31°44' E 121°07'214280.1
2016-Dec-06 07:20N 31°29' E 121°25'65914032.4
2016-Dec-06 07:17N 23°04' E 113°29'66084873.9
2016-Dec-06 07:17N 31°40' E 121°13'6738079.8
2016-Dec-06 07:12N 22°54' E 113°21'651987.5
2016-Dec-06 06:32N 31°14' E 121°09'182140.2
2016-Dec-06 06:32N 31°15' E 121°31'40634781.2
2016-Dec-06 06:31N 24°53' E 118°57'42538223.4
2016-Dec-06 06:30N 31°40' E 121°12'66914602.9
2016-Dec-06 06:28N 22°55' E 113°26'66726691.2
2016-Dec-06 06:26N 31°26' E 121°28'6753286.9
2016-Dec-06 06:14N 22°44' E 113°28'20250.1
2016-Dec-06 06:09N 23°04' E 113°29'6597186.3
2016-Dec-06 06:03N 31°29' E 121°25'2345.7
2016-Dec-06 05:33N 31°10' E 121°09'271083.5
2016-Dec-06 05:32N 31°36' E 121°18'1911220.8
2016-Dec-06 05:32N 31°21' E 121°31'41146293.6
2016-Dec-06 05:31N 24°53' E 118°57'42542457.2
2016-Dec-06 05:30N 31°40' E 121°14'541785.3
2016-Dec-06 05:29N 31°57' E 120°14'6422726.6
2016-Dec-06 05:15N 23°04' E 113°29'0 3.4
2016-Dec-06 05:12N 23°04' E 113°29'6599922.5
2016-Dec-06 05:08N 31°29' E 121°25'5154.7
2016-Dec-06 05:06N 31°26' E 121°28'814.7
2016-Dec-06 04:33N 31°32' E 121°22'2712252.5
2016-Dec-06 04:33N 31°07' E 121°10'398119328.6
2016-Dec-06 04:33N 24°49' E 118°51'42194719.4
2016-Dec-06 04:32N 31°25' E 121°30'314618.4
2016-Dec-06 04:32N 31°46' E 121°02'391264.9
2016-Dec-06 04:30N 31°15' E 121°31'65253310.7
2016-Dec-06 04:30N 23°04' E 113°29'660108074.2
2016-Dec-06 04:29N 31°40' E 121°14'12353.1
2016-Dec-06 04:27N 31°30' E 121°22'131232.5
2016-Dec-06 04:26N 31°40' E 121°13'54951.3
2016-Dec-06 04:23N 31°56' E 120°12'7994755.1
2016-Dec-06 04:23N 31°15' E 121°32'65219240.3
2016-Dec-06 04:21N 23°04' E 113°29'6584380.9
2016-Dec-06 04:12N 31°26' E 121°29'69107.1
2016-Dec-06 03:33N 31°57' E 120°17'647950.6
2016-Dec-06 03:33N 31°29' E 121°25'6592371484.2
2016-Dec-06 03:33N 23°04' E 113°29'659197587.0
2016-Dec-06 03:33N 31°25' E 121°31'211074.9
2016-Dec-06 03:32N 31°40' E 121°13'43255575.1
2016-Dec-06 03:31N 24°47' E 118°46'42615474.1
2016-Dec-06 03:29N 31°30' E 121°23'1100.9
2016-Dec-06 03:29N 31°30' E 121°25'14239.2
2016-Dec-06 03:25N 31°40' E 121°14'6604953.4
2016-Dec-06 03:17N 23°04' E 113°29'6603483.2
2016-Dec-06 03:06N 31°40' E 121°12'429792.2
2016-Dec-06 02:33N 24°49' E 118°53'31438947.0
2016-Dec-06 02:33N 23°04' E 113°29'657169058.3
2016-Dec-06 02:33N 31°32' E 121°19'5369.9
2016-Dec-06 02:32N 31°29' E 121°25'142466.8
2016-Dec-06 02:32N 31°40' E 121°14'254.7
2016-Dec-06 02:30N 31°38' E 121°15'66044829.7
2016-Dec-06 02:29N 23°04' E 113°29'66041691.9
2016-Dec-06 02:28N 31°40' E 121°13'1 0.7
2016-Dec-06 01:33N 31°39' E 121°13'726997.4
2016-Dec-06 01:33N 31°34' E 121°19'151257.3
2016-Dec-06 01:32N 31°21' E 121°28'411740024.9
2016-Dec-06 01:32N 24°53' E 118°57'43016452.2
2016-Dec-06 01:30N 31°58' E 120°03'212576.3
2016-Dec-06 01:30N 32°04' E 120°26'474022.6
2016-Dec-06 01:29N 31°40' E 121°14'295439.5
2016-Dec-06 01:29N 31°15' E 121°31'166977.7
2016-Dec-06 01:29N 31°29' E 121°25'65915009.0
2016-Dec-06 01:26N 23°04' E 113°29'65220221.3
2016-Dec-06 01:24N 31°15' E 121°31'652111701.6
2016-Dec-06 01:24N 23°04' E 113°29'65914465.1
2016-Dec-06 01:21N 31°30' E 121°25'58226.3
2016-Dec-06 01:06N 32°02' E 120°27'6531216.5
2016-Dec-06 00:33N 23°04' E 113°29'641115297.8
2016-Dec-06 00:33N 31°57' E 120°10'429128724.6
2016-Dec-06 00:33N 24°53' E 118°57'41192473.6
2016-Dec-06 00:33N 31°21' E 121°28'282044.1
2016-Dec-06 00:32N 31°43' E 121°06'207226.4
2016-Dec-06 00:32N 31°31' E 121°25'948059.1
2016-Dec-06 00:31N 30°01' E 121°59'14520817.4
2016-Dec-06 00:31N 32°01' E 120°25'602767.6
2016-Dec-06 00:29N 31°29' E 121°25'14156.0
2016-Dec-06 00:24N 31°40' E 121°13'30338996.2
2016-Dec-06 00:23N 26°47' E 119°43'40610209.3
2016-Dec-06 00:21N 23°04' E 113°29'66011162.6
2016-Dec-06 00:17N 31°40' E 121°14'2229.3
2016-Dec-05 23:33N 31°21' E 121°28'9294.9
2016-Dec-05 23:31N 31°30' E 121°25'41838588.6
2016-Dec-05 23:31N 24°53' E 118°57'41826858.2
2016-Dec-05 23:30N 31°29' E 121°25'141655.9
2016-Dec-05 23:29N 31°40' E 121°13'6608083.1
2016-Dec-05 23:24N 23°04' E 113°29'66033487.3
2016-Dec-05 23:23N 31°40' E 121°14'14305.7
2016-Dec-05 23:21N 31°46' E 120°60'415283.4
2016-Dec-05 23:20N 31°15' E 121°31'78622.3
2016-Dec-05 23:13N 30°01' E 121°60'145222.3
2016-Dec-05 22:33N 31°57' E 120°18'754150.1
2016-Dec-05 22:32N 31°15' E 121°31'15386.9
2016-Dec-05 22:30N 31°30' E 121°25'14333.3
2016-Dec-05 22:27N 31°40' E 121°14'142599.2
2016-Dec-05 22:27N 31°29' E 121°25'659395226.2
2016-Dec-05 22:27N 23°04' E 113°29'3188486.6
2016-Dec-05 22:25N 24°53' E 118°57'34959800.9
2016-Dec-05 22:24N 30°01' E 121°60'6237311.4
2016-Dec-05 22:19N 22°52' E 113°34'6513468.8
2016-Dec-05 22:08N 31°57' E 120°17'145252.3
2016-Dec-05 21:33N 30°01' E 121°60'7911378.8
2016-Dec-05 21:33N 31°01' E 121°01'38510110.1
2016-Dec-05 21:31N 24°53' E 118°57'42514843.3
2016-Dec-05 21:29N 31°40' E 121°13'297427.8
2016-Dec-05 21:29N 31°15' E 121°31'15168.4
2016-Dec-05 21:23N 31°30' E 121°25'65930411.7
2016-Dec-05 21:22N 23°04' E 113°29'65919124.4
2016-Dec-05 21:20N 31°29' E 121°25'14364.7
2016-Dec-05 21:18N 31°40' E 121°14'12120.2
2016-Dec-05 21:12N 31°30' E 121°22'94148.7
2016-Dec-05 20:33N 30°01' E 121°60'7512346.4
2016-Dec-05 20:33N 31°12' E 121°30'312044.7
2016-Dec-05 20:32N 31°40' E 121°13'660297062.8
2016-Dec-05 20:32N 23°04' E 113°29'660103372.3
2016-Dec-05 20:32N 31°40' E 121°14'284454.6
2016-Dec-05 20:31N 31°15' E 121°31'152065.8
2016-Dec-05 20:31N 31°30' E 121°25'418167217.6
2016-Dec-05 20:31N 24°53' E 118°57'3182575.0
2016-Dec-05 20:23N 23°04' E 113°29'65910091.8
2016-Dec-05 20:19N 31°29' E 121°25'66518140.0
2016-Dec-05 20:17N 22°52' E 113°34'4083176.0
2016-Dec-05 20:09N 26°47' E 119°43'284470.9
2016-Dec-05 19:33N 31°15' E 121°31'013.9
2016-Dec-05 19:32N 31°15' E 121°30'788787.5
2016-Dec-05 19:32N 30°01' E 121°60'94168500.6
2016-Dec-05 19:32N 31°30' E 121°25'141131.3
2016-Dec-05 19:31N 31°40' E 121°14'42544971.9
2016-Dec-05 19:31N 24°53' E 118°57'1222521.2
2016-Dec-05 19:28N 26°47' E 119°43'29624223.6
2016-Dec-05 19:27N 31°29' E 121°25'24130.9
2016-Dec-05 19:16N 31°46' E 121°05'9219.6
2016-Dec-05 19:14N 31°40' E 121°13'66015136.7
2016-Dec-05 19:11N 23°04' E 113°29'659982.7
2016-Dec-05 18:31N 31°30' E 121°25'1490.4
2016-Dec-05 18:22N 31°40' E 121°14'118.6
2016-Dec-05 18:20N 31°40' E 121°13'1499.6
2016-Dec-05 18:11N 31°29' E 121°25'1421.7
2016-Dec-05 17:33N 31°40' E 121°14'117.3
2016-Dec-05 17:31N 31°40' E 121°13'14499.0
2016-Dec-05 17:29N 31°29' E 121°25'0 8.0
2016-Dec-05 17:27N 31°30' E 121°25'1 1.5
2016-Dec-05 16:28N 31°29' E 121°26'121.9
2016-Dec-05 16:25N 31°29' E 121°25'1491.9
2016-Dec-05 16:16N 31°40' E 121°13'1521.8
2016-Dec-05 15:33N 31°29' E 121°25'6513065.1
2016-Dec-05 15:33N 31°57' E 120°16'15569860.2
2016-Dec-05 15:33N 29°55' E 122°08'34646187.6
2016-Dec-05 15:32N 24°53' E 118°57'33470670.3
2016-Dec-05 15:32N 29°42' E 122°03'334150257.4
2016-Dec-05 15:32N 24°52' E 118°57'41278058.8
2016-Dec-05 15:31N 31°22' E 121°30'656590493.4
2016-Dec-05 15:31N 23°04' E 113°29'66026716.0
2016-Dec-05 15:30N 31°40' E 121°14'119.6
2016-Dec-05 15:28N 31°40' E 121°13'22605.7
2016-Dec-05 15:26N 31°23' E 121°30'660215947.8
2016-Dec-05 15:25N 22°60' E 113°31'66118592.6
2016-Dec-05 15:23N 31°29' E 121°25'659124815.9
2016-Dec-05 15:23N 23°04' E 113°29'6595250.1
2016-Dec-05 15:16N 31°46' E 121°02'40736.5
2016-Dec-05 15:12N 31°15' E 121°31'284340857.5
2016-Dec-05 15:12N 26°47' E 119°43'407630.0
2016-Dec-05 14:33N 23°05' E 113°27'612169392.6
2016-Dec-05 14:33N 29°42' E 122°07'335301106.5
2016-Dec-05 14:33N 24°52' E 118°58'340203783.4
2016-Dec-05 14:33N 29°48' E 122°05'10017998.3
2016-Dec-05 14:33N 31°24' E 121°32'41536397.6
2016-Dec-05 14:32N 24°53' E 118°57'41826844.9
2016-Dec-05 14:31N 31°29' E 121°25'659296445.2
2016-Dec-05 14:31N 23°04' E 113°29'659338689.0
2016-Dec-05 14:31N 31°29' E 121°25'633437.5
2016-Dec-05 14:30N 31°60' E 120°21'411041.8
2016-Dec-05 14:27N 31°45' E 121°06'9203.1
2016-Dec-05 14:25N 31°40' E 121°14'1126.2
2016-Dec-05 14:25N 31°40' E 121°13'6606123.2
2016-Dec-05 14:18N 23°04' E 113°30'65856441.0
2016-Dec-05 14:17N 31°26' E 121°29'416563.2
2016-Dec-05 13:33N 24°53' E 118°55'437314836.3
2016-Dec-05 13:33N 32°03' E 120°25'16373447.2
2016-Dec-05 13:33N 29°42' E 122°02'12411484.9
2016-Dec-05 13:32N 31°40' E 121°14'16895.7
2016-Dec-05 13:31N 31°28' E 121°27'13896.3
2016-Dec-05 13:30N 31°15' E 121°31'3155385.7
2016-Dec-05 13:30N 31°41' E 121°11'3262.5
2016-Dec-05 13:30N 31°42' E 121°09'1316629.6
2016-Dec-05 13:28N 29°42' E 122°07'1148190.2
2016-Dec-05 13:28N 31°29' E 121°25'14380.2
2016-Dec-05 13:25N 31°40' E 121°13'66010423.0
2016-Dec-05 13:22N 23°04' E 113°29'66113755.5
2016-Dec-05 13:19N 31°38' E 121°17'682424.2
2016-Dec-05 13:17N 31°59' E 120°01'6384863.3
2016-Dec-05 13:09N 23°04' E 113°30'318535.2
2016-Dec-05 12:33N 24°53' E 118°57'418250902.9
2016-Dec-05 12:33N 31°30' E 121°23'1312002.8
2016-Dec-05 12:33N 31°40' E 121°12'660197915.6
2016-Dec-05 12:33N 23°04' E 113°30'122.8
2016-Dec-05 12:32N 23°04' E 113°29'659112890.5
2016-Dec-05 12:31N 31°29' E 121°25'151322.4
2016-Dec-05 12:31N 31°40' E 121°13'1274604.3
2016-Dec-05 12:29N 29°41' E 122°05'1261545.4
2016-Dec-05 12:24N 31°39' E 121°13'1132.6
2016-Dec-05 12:24N 31°40' E 121°14'609372.7
2016-Dec-05 12:23N 31°57' E 120°07'72647.9
2016-Dec-05 12:17N 31°29' E 121°25'11140.7
2016-Dec-05 12:12N 31°38' E 121°17'10120.5
2016-Dec-05 12:07N 31°30' E 121°23'10376.4
2016-Dec-05 12:05N 31°22' E 121°29'1834.0
2016-Dec-05 11:33N 31°37' E 121°17'5751688.8
2016-Dec-05 11:33N 31°57' E 120°13'7668572.4
2016-Dec-05 11:33N 31°21' E 121°32'412370494.1
2016-Dec-05 11:33N 24°53' E 118°57'33470747.8
2016-Dec-05 11:33N 29°41' E 122°05'1263246.6
2016-Dec-05 11:30N 31°40' E 121°14'66191453.9
2016-Dec-05 11:30N 23°04' E 113°29'65917561.5
2016-Dec-05 11:28N 31°29' E 121°25'12485.8
2016-Dec-05 11:26N 31°38' E 121°17'112025.4
2016-Dec-05 11:26N 31°29' E 121°25'14377.9
2016-Dec-05 11:24N 31°40' E 121°13'132.9
2016-Dec-05 11:22N 31°39' E 121°13'28569.6
2016-Dec-05 11:19N 31°15' E 121°31'31400.9
2016-Dec-05 11:14N 31°41' E 121°11'6597655.4
2016-Dec-05 11:09N 23°04' E 113°30'3175254.4
2016-Dec-05 11:05N 24°53' E 118°55'317586.8
2016-Dec-05 10:33N 23°04' E 113°30'609365201.6
2016-Dec-05 10:33N 29°43' E 122°03'11626033.3
2016-Dec-05 10:33N 31°32' E 121°21'659131814.2
2016-Dec-05 10:32N 23°04' E 113°29'648166573.2
2016-Dec-05 10:32N 31°59' E 120°20'625907.4
2016-Dec-05 10:32N 31°29' E 121°25'41850134.4
2016-Dec-05 10:31N 24°52' E 118°57'41720021.5
2016-Dec-05 10:30N 31°29' E 121°25'212563.2
2016-Dec-05 10:29N 31°43' E 121°08'61231.7
2016-Dec-05 10:29N 31°39' E 121°13'66325680.5
2016-Dec-05 10:27N 22°57' E 113°33'66537382.8
2016-Dec-05 10:26N 31°40' E 121°14'4258741.7
2016-Dec-05 10:23N 24°53' E 118°55'4064238.4
2016-Dec-05 10:18N 31°15' E 121°31'17176.2
2016-Dec-05 10:12N 31°31' E 121°23'106164.1
2016-Dec-05 09:33N 29°51' E 122°08'34546014.1
2016-Dec-05 09:33N 24°50' E 118°58'31881896.4
2016-Dec-05 09:32N 23°04' E 113°29'31976459.7
2016-Dec-05 09:32N 24°52' E 118°57'42520664.6
2016-Dec-05 09:31N 31°40' E 121°14'661594766.7
2016-Dec-05 09:31N 23°03' E 113°30'660148427.2
2016-Dec-05 09:31N 31°39' E 121°13'121128.5
2016-Dec-05 09:30N 31°31' E 121°23'1715154.3
2016-Dec-05 09:30N 31°15' E 121°31'142545.9
2016-Dec-05 09:30N 31°29' E 121°25'245.0
2016-Dec-05 09:26N 31°28' E 121°28'14457.1
2016-Dec-05 09:25N 31°38' E 121°18'641421.7
2016-Dec-05 09:22N 31°58' E 120°07'721473.1
2016-Dec-05 09:19N 31°29' E 121°25'418539.9
2016-Dec-05 08:33N 24°53' E 118°57'41321864.7
2016-Dec-05 08:31N 31°23' E 121°30'7529815.2
2016-Dec-05 08:31N 31°57' E 120°12'641769569.7
2016-Dec-05 08:31N 23°04' E 113°29'65590669.0
2016-Dec-05 08:31N 31°22' E 121°28'222115.4
2016-Dec-05 08:30N 31°40' E 121°14'1201.8
2016-Dec-05 08:30N 31°39' E 121°13'41140.1
2016-Dec-05 08:30N 31°38' E 121°18'253670.6
2016-Dec-05 08:29N 31°15' E 121°31'8259271.2
2016-Dec-05 08:29N 29°57' E 121°59'828449.2
2016-Dec-05 08:29N 31°14' E 121°29'17535.7
2016-Dec-05 08:27N 31°31' E 121°23'229.9
2016-Dec-05 08:23N 31°29' E 121°25'65912284.0
2016-Dec-05 08:20N 23°04' E 113°30'6616834.9
2016-Dec-05 08:14N 31°39' E 121°16'16343.9
2016-Dec-05 08:11N 31°47' E 121°00'473749.9
2016-Dec-05 07:33N 24°18' E 118°09'46529375.2
2016-Dec-05 07:33N 31°31' E 121°23'41847064.4
2016-Dec-05 07:32N 24°53' E 118°57'40621484.1
2016-Dec-05 07:31N 31°15' E 121°31'362678.5
2016-Dec-05 07:30N 31°45' E 121°06'8572.2
2016-Dec-05 07:29N 31°40' E 121°14'271044.4
2016-Dec-05 07:28N 31°19' E 121°34'754846.1
2016-Dec-05 07:27N 31°58' E 120°18'6452989.6
2016-Dec-05 07:14N 23°04' E 113°29'66126140.0
2016-Dec-05 07:12N 31°37' E 121°18'4157.2
2016-Dec-05 07:11N 31°39' E 121°13'65915508.8
2016-Dec-05 07:08N 23°04' E 113°30'6591185404.7
2016-Dec-05 07:08N 31°29' E 121°25'2984135.7
2016-Dec-05 07:04N 26°45' E 119°43'286563.5
2016-Dec-05 06:33N 31°15' E 121°31'406104416.8
2016-Dec-05 06:33N 24°52' E 118°58'424381525.0
2016-Dec-05 06:33N 31°39' E 121°13'47544996.4
2016-Dec-05 06:32N 24°11' E 118°14'478245650.3
2016-Dec-05 06:32N 31°43' E 121°07'62704.3
2016-Dec-05 06:32N 31°40' E 121°13'41449.7
2016-Dec-05 06:32N 31°38' E 121°18'201743.0
2016-Dec-05 06:31N 31°21' E 121°31'91126.5
2016-Dec-05 06:31N 31°29' E 121°25'15804.3
2016-Dec-05 06:30N 31°40' E 121°14'123609.5
2016-Dec-05 06:29N 31°31' E 121°23'229.2
2016-Dec-05 06:26N 31°29' E 121°25'10487.4
2016-Dec-05 06:25N 31°37' E 121°18'66132136.0
2016-Dec-05 06:23N 23°04' E 113°30'1 9.3
2016-Dec-05 06:20N 23°04' E 113°29'6588676.5
2016-Dec-05 06:15N 31°47' E 120°59'411004.0
2016-Dec-05 06:13N 31°15' E 121°30'811226.0
2016-Dec-05 06:09N 31°57' E 120°09'5797.5
2016-Dec-05 05:33N 31°39' E 121°13'543434.2
2016-Dec-05 05:33N 31°57' E 120°13'7817636.4
2016-Dec-05 05:32N 31°15' E 121°31'65280885.0
2016-Dec-05 05:32N 23°04' E 113°29'65964101.4
2016-Dec-05 05:31N 31°29' E 121°25'253373.9
2016-Dec-05 05:31N 31°46' E 121°03'153417.1
2016-Dec-05 05:30N 31°38' E 121°18'4530.4
2016-Dec-05 05:30N 31°35' E 121°19'675173501.8
2016-Dec-05 05:30N 22°28' E 113°54'673115443.8
2016-Dec-05 05:29N 31°25' E 121°31'92500.7
2016-Dec-05 05:29N 31°31' E 121°23'46517989.4
2016-Dec-05 05:28N 24°19' E 118°07'4685075.8
2016-Dec-05 05:22N 31°36' E 121°17'141.3
2016-Dec-05 05:21N 31°37' E 121°18'5143.2
2016-Dec-05 05:19N 31°39' E 121°13'161.4
2016-Dec-05 05:18N 31°40' E 121°13'4338957.0
2016-Dec-05 05:15N 24°42' E 119°04'42626426.7
2016-Dec-05 05:14N 31°29' E 121°25'60406.8
2016-Dec-05 05:05N 32°04' E 120°27'6551240.7
2016-Dec-05 04:33N 23°03' E 113°30'660297091.0
2016-Dec-05 04:33N 31°45' E 121°06'2693587.6
2016-Dec-05 04:33N 31°27' E 121°28'4681685242.0
2016-Dec-05 04:33N 24°13' E 118°09'471212020.2
2016-Dec-05 04:33N 31°32' E 121°21'619895.4
2016-Dec-05 04:33N 31°37' E 121°18'1258.9
2016-Dec-05 04:33N 31°36' E 121°18'54830.5
2016-Dec-05 04:33N 31°40' E 121°13'5013971.6
2016-Dec-05 04:33N 31°58' E 120°18'627960.8
2016-Dec-05 04:32N 31°31' E 121°23'173566.9
2016-Dec-05 04:32N 31°15' E 121°31'1656469.1
2016-Dec-05 04:32N 31°30' E 121°25'035.3
2016-Dec-05 04:31N 31°30' E 121°24'10903.9
2016-Dec-05 04:31N 31°38' E 121°18'101032.4
2016-Dec-05 04:30N 31°29' E 121°25'659139494.6
2016-Dec-05 04:30N 23°04' E 113°29'308123291.5
2016-Dec-05 04:30N 24°48' E 118°46'43026257.6
2016-Dec-05 04:29N 31°39' E 121°13'12138.7
2016-Dec-05 04:23N 31°30' E 121°23'241874.6
2016-Dec-05 04:23N 31°47' E 121°03'34209.5
2016-Dec-05 04:13N 31°22' E 121°30'6621007.4
2016-Dec-05 03:33N 22°57' E 113°30'665299276.4
2016-Dec-05 03:33N 31°29' E 121°26'119594.4
2016-Dec-05 03:33N 31°37' E 121°18'101177.1
2016-Dec-05 03:33N 31°29' E 121°25'284317.3
2016-Dec-05 03:32N 31°47' E 120°60'231693.8
2016-Dec-05 03:32N 31°33' E 121°21'103986.9
2016-Dec-05 03:31N 31°40' E 121°13'12292.1
2016-Dec-05 03:29N 31°31' E 121°23'171718.0
2016-Dec-05 03:28N 31°42' E 121°09'660169813.7
2016-Dec-05 03:28N 23°06' E 113°25'66229795.3
2016-Dec-05 03:27N 31°38' E 121°18'10863.9
2016-Dec-05 03:26N 31°29' E 121°25'013.5
2016-Dec-05 03:24N 31°30' E 121°25'125.6
2016-Dec-05 03:21N 31°30' E 121°23'4917861.2
2016-Dec-05 03:18N 23°54' E 117°58'763514.3
2016-Dec-05 03:16N 24°46' E 118°59'436609.7
2016-Dec-05 02:34N 31°47' E 121°03'4961786820.5
2016-Dec-05 02:33N 23°57' E 118°03'48535596.3
2016-Dec-05 02:33N 31°26' E 121°30'8530.0
2016-Dec-05 02:32N 31°31' E 121°23'12840.9
2016-Dec-05 02:31N 31°39' E 121°13'41270.3
2016-Dec-05 02:31N 31°38' E 121°18'6179.1
2016-Dec-05 02:29N 31°40' E 121°12'6609540.5
2016-Dec-05 02:25N 23°04' E 113°29'65914553.8
2016-Dec-05 02:22N 31°30' E 121°25'14325.0
2016-Dec-05 02:19N 31°40' E 121°13'13295.4
2016-Dec-05 02:17N 31°30' E 121°23'1396.5
2016-Dec-05 02:17N 31°29' E 121°25'66032526.7
2016-Dec-05 02:15N 23°06' E 113°25'6597323.9
2016-Dec-05 02:10N 31°33' E 121°19'813.5
2016-Dec-05 01:33N 31°40' E 121°13'1412886.6
2016-Dec-05 01:33N 31°29' E 121°25'10893.1
2016-Dec-05 01:33N 31°24' E 121°35'47778025.2
2016-Dec-05 01:32N 24°02' E 118°11'48518774.6
2016-Dec-05 01:31N 31°40' E 121°13'14781.9
2016-Dec-05 01:30N 31°30' E 121°25'174.6
2016-Dec-05 01:29N 31°31' E 121°23'0420.9
2016-Dec-05 01:28N 31°30' E 121°23'65933877.0
2016-Dec-05 01:27N 23°04' E 113°29'41705.0
2016-Dec-05 01:27N 23°06' E 113°25'66133503.0
2016-Dec-05 01:26N 31°38' E 121°15'1266.3
2016-Dec-05 01:15N 31°29' E 121°25'913.2
2016-Dec-05 00:33N 31°36' E 121°17'5278.2
2016-Dec-05 00:32N 31°39' E 121°13'1315059.1
2016-Dec-05 00:32N 31°31' E 121°23'157.4
2016-Dec-05 00:30N 31°30' E 121°25'659215662.5
2016-Dec-05 00:30N 23°04' E 113°29'66069896.6
2016-Dec-05 00:29N 31°40' E 121°13'133092.3
2016-Dec-05 00:29N 31°30' E 121°23'153.1
2016-Dec-05 00:27N 31°29' E 121°25'9512613.5
2016-Dec-05 00:27N 29°58' E 121°52'1577556.9
2016-Dec-05 00:26N 32°01' E 119°58'55660.4
2016-Dec-05 00:21N 31°49' E 121°01'291802.8
2016-Dec-05 00:20N 31°28' E 121°25'10380.2
2016-Dec-05 00:18N 31°24' E 121°36'10248.4
2016-Dec-05 00:16N 31°15' E 121°31'3663.1
2016-Dec-05 00:16N 31°17' E 121°34'65632799.9
2016-Dec-05 00:14N 23°06' E 113°25'6644130.5
2016-Dec-05 00:05N 31°22' E 121°42'183453.0
2016-Dec-05 00:04N 31°30' E 121°23'1426.8
2016-Dec-04 23:33N 31°20' E 121°33'53357.0
2016-Dec-04 23:33N 31°24' E 121°36'473425374.5
2016-Dec-04 23:33N 24°07' E 118°11'40528584.4
2016-Dec-04 23:32N 29°57' E 122°00'14918482.1
2016-Dec-04 23:32N 31°58' E 120°19'646775780.4
2016-Dec-04 23:32N 23°06' E 113°25'660169600.4
2016-Dec-04 23:32N 31°30' E 121°23'068.0
2016-Dec-04 23:31N 31°31' E 121°23'174809.1
2016-Dec-04 23:31N 31°42' E 121°08'191061.0
2016-Dec-04 23:30N 31°29' E 121°25'151960.0
2016-Dec-04 23:30N 31°15' E 121°31'29286.0
2016-Dec-04 23:24N 31°40' E 121°13'5919.3
2016-Dec-04 23:23N 31°37' E 121°18'66191486.4
2016-Dec-04 23:23N 23°04' E 113°29'66020148.7
2016-Dec-04 23:21N 31°49' E 121°01'4556.5
2016-Dec-04 22:33N 31°22' E 121°43'8810955.5
2016-Dec-04 22:33N 29°56' E 122°06'10172594.1
2016-Dec-04 22:33N 31°30' E 121°25'167061.2
2016-Dec-04 22:33N 31°15' E 121°31'151893.8
2016-Dec-04 22:32N 31°29' E 121°25'667398.7
2016-Dec-04 22:32N 31°56' E 120°14'642210072.4
2016-Dec-04 22:31N 23°06' E 113°25'660395741.1
2016-Dec-04 22:31N 31°31' E 121°23'102952.6
2016-Dec-04 22:31N 31°22' E 121°28'9288.0
2016-Dec-04 22:29N 31°30' E 121°23'48382778.4
2016-Dec-04 22:29N 23°59' E 118°10'48314253.3
2016-Dec-04 22:27N 31°30' E 121°23'8326.3
2016-Dec-04 22:25N 31°37' E 121°18'51942.1
2016-Dec-04 22:25N 31°40' E 121°13'66015539.6
2016-Dec-04 22:22N 23°04' E 113°29'6354712.1
2016-Dec-04 22:14N 30°59' E 121°22'291277.9
2016-Dec-04 22:13N 31°28' E 121°25'105158.8
2016-Dec-04 21:33N 29°50' E 122°07'10725717.9
2016-Dec-04 21:33N 31°30' E 121°23'70125740.3
2016-Dec-04 21:33N 31°56' E 120°07'7223593.4
2016-Dec-04 21:33N 31°28' E 121°25'157964.9
2016-Dec-04 21:33N 31°40' E 121°13'5181.1
2016-Dec-04 21:31N 31°37' E 121°18'48892383.5
2016-Dec-04 21:31N 23°59' E 118°11'49246601.4
2016-Dec-04 21:30N 31°46' E 121°03'3914110.2
2016-Dec-04 21:30N 31°15' E 121°31'151672.3
2016-Dec-04 21:30N 31°29' E 121°25'039.1
2016-Dec-04 21:29N 31°30' E 121°24'195.4
2016-Dec-04 21:28N 31°31' E 121°23'65915398.4
2016-Dec-04 21:25N 23°04' E 113°29'659182430.4
2016-Dec-04 21:25N 31°47' E 121°01'13253.2
2016-Dec-04 21:22N 31°39' E 121°14'65986.5
2016-Dec-04 21:18N 31°59' E 120°01'8734743.4
2016-Dec-04 21:18N 31°23' E 121°34'26122.9
2016-Dec-04 21:05N 30°59' E 121°22'84155.5
2016-Dec-04 20:33N 29°43' E 122°03'10374367.4
2016-Dec-04 20:33N 31°22' E 121°30'272623.7
2016-Dec-04 20:32N 31°42' E 121°09'3313262.1
2016-Dec-04 20:32N 31°15' E 121°31'8460623.5
2016-Dec-04 20:32N 31°58' E 120°05'5411442.8
2016-Dec-04 20:32N 31°44' E 121°07'3054222.9
2016-Dec-04 20:32N 31°21' E 121°30'172229.0
2016-Dec-04 20:31N 31°35' E 121°19'1832341.2
2016-Dec-04 20:31N 31°23' E 121°34'121299.7
2016-Dec-04 20:31N 31°31' E 121°23'66076594.0
2016-Dec-04 20:30N 23°06' E 113°25'66079177.3
2016-Dec-04 20:30N 31°30' E 121°24'141720.1
2016-Dec-04 20:29N 31°40' E 121°13'142231.7
2016-Dec-04 20:29N 31°29' E 121°25'483579421.1
2016-Dec-04 20:29N 23°59' E 118°09'4884392.0
2016-Dec-04 20:22N 31°37' E 121°18'9828.5
2016-Dec-04 20:22N 31°30' E 121°23'17336.6
2016-Dec-04 20:18N 31°42' E 121°09'20211.2
2016-Dec-04 20:13N 31°28' E 121°25'65810626.5
2016-Dec-04 20:09N 23°04' E 113°29'6601110.8
2016-Dec-04 19:34N 31°31' E 121°25'1859.4
2016-Dec-04 19:33N 31°31' E 121°23'1113206.0
2016-Dec-04 19:33N 31°21' E 121°30'10594090.6
2016-Dec-04 19:33N 29°42' E 122°06'11410814.2
2016-Dec-04 19:33N 31°30' E 121°24'111319.8
2016-Dec-04 19:32N 31°23' E 121°34'251208.8
2016-Dec-04 19:31N 31°40' E 121°13'2589.6
2016-Dec-04 19:31N 31°38' E 121°15'66144052.8
2016-Dec-04 19:30N 23°06' E 113°25'659197653.9
2016-Dec-04 19:30N 31°30' E 121°23'9615.8
2016-Dec-04 19:29N 31°22' E 121°30'231632.7
2016-Dec-04 19:28N 31°40' E 121°13'421671.9
2016-Dec-04 19:26N 30°59' E 121°22'381047.6
2016-Dec-04 19:24N 31°37' E 121°18'251326.0
2016-Dec-04 19:23N 31°15' E 121°31'14157.8
2016-Dec-04 19:18N 31°28' E 121°25'128.1
2016-Dec-04 19:15N 31°29' E 121°25'4824256.8
2016-Dec-04 19:08N 23°59' E 118°09'403695.8
2016-Dec-04 18:33N 29°41' E 122°06'398179234.7
2016-Dec-04 18:33N 24°04' E 118°09'48096001.4
2016-Dec-04 18:33N 31°33' E 121°20'6030674.0
2016-Dec-04 18:33N 31°57' E 120°15'758449.3
2016-Dec-04 18:32N 31°23' E 121°34'4617.6
2016-Dec-04 18:32N 31°22' E 121°30'3204.3
2016-Dec-04 18:31N 31°25' E 121°31'61244.8
2016-Dec-04 18:31N 31°28' E 121°25'2444.6
2016-Dec-04 18:31N 31°30' E 121°24'1311.7
2016-Dec-04 18:30N 31°31' E 121°23'71509.0
2016-Dec-04 18:30N 31°36' E 121°18'66044857.0
2016-Dec-04 18:29N 23°06' E 113°25'66147606.5
2016-Dec-04 18:28N 31°40' E 121°13'51580.8
2016-Dec-04 18:28N 31°37' E 121°18'10239.6
2016-Dec-04 18:26N 31°29' E 121°25'65911681.2
2016-Dec-04 18:22N 23°04' E 113°29'65216518.7
2016-Dec-04 18:20N 31°15' E 121°31'623130.4
2016-Dec-04 18:20N 31°21' E 121°30'1013.2
2016-Dec-04 17:33N 31°30' E 121°23'111132819.5
2016-Dec-04 17:33N 29°44' E 122°03'102122235.0
2016-Dec-04 17:33N 31°22' E 121°30'107039.3
2016-Dec-04 17:33N 31°30' E 121°23'0171.8
2016-Dec-04 17:33N 31°31' E 121°23'14987.7
2016-Dec-04 17:33N 31°30' E 121°25'47070428.6
2016-Dec-04 17:33N 24°13' E 118°10'47073565.9
2016-Dec-04 17:32N 31°30' E 121°26'3719.0
2016-Dec-04 17:32N 31°32' E 121°23'122039.5
2016-Dec-04 17:32N 31°21' E 121°31'057.8
2016-Dec-04 17:31N 31°21' E 121°30'191049.5
2016-Dec-04 17:30N 31°37' E 121°18'543398.8
2016-Dec-04 17:29N 31°60' E 120°20'64863074.6
2016-Dec-04 17:29N 23°06' E 113°25'661170024.4
2016-Dec-04 17:28N 31°40' E 121°13'141390.6
2016-Dec-04 17:28N 31°29' E 121°25'253965.0
2016-Dec-04 17:27N 31°47' E 121°03'401023.5
2016-Dec-04 17:25N 31°15' E 121°30'65120209.4
2016-Dec-04 17:23N 23°04' E 113°29'6597439.6
2016-Dec-04 17:18N 31°23' E 121°34'950.5
2016-Dec-04 17:07N 31°28' E 121°25'3 5.1
2016-Dec-04 16:33N 31°31' E 121°23'10722714.6
2016-Dec-04 16:33N 29°50' E 122°07'10431230.7
2016-Dec-04 16:33N 31°29' E 121°27'3189.9
2016-Dec-04 16:32N 31°30' E 121°25'91843.3
2016-Dec-04 16:31N 31°37' E 121°18'66141011.1
2016-Dec-04 16:30N 23°04' E 113°29'658102996.5
2016-Dec-04 16:30N 31°30' E 121°23'10408.6
2016-Dec-04 16:29N 31°22' E 121°30'657107511.4
2016-Dec-04 16:28N 23°06' E 113°25'660475203.4
2016-Dec-04 16:28N 31°25' E 121°31'73769.9
2016-Dec-04 16:28N 31°29' E 121°25'14876.1
2016-Dec-04 16:27N 31°40' E 121°13'232914.4
2016-Dec-04 16:27N 31°22' E 121°30'170.8
2016-Dec-04 16:25N 31°21' E 121°31'6111.8
2016-Dec-04 16:22N 31°15' E 121°31'163696.8
2016-Dec-04 16:22N 31°30' E 121°23'82544.8
2016-Dec-04 16:13N 32°05' E 119°56'601254.9
2016-Dec-04 16:10N 31°47' E 121°03'37316.0
2016-Dec-04 16:03N 31°20' E 121°33'37577620.8
2016-Dec-04 15:33S 23°50' E 151°15'37541930491.5
2016-Dec-04 15:33N 31°15' E 121°31'171163.4
2016-Dec-04 15:32N 31°31' E 121°23'103123134.1
2016-Dec-04 15:32N 29°55' E 122°07'1103203.9
2016-Dec-04 15:30N 31°37' E 121°18'91070.9
2016-Dec-04 15:30N 31°30' E 121°25'1211158.5
2016-Dec-04 15:30N 31°20' E 121°33'11575.2
2016-Dec-04 15:29N 31°28' E 121°25'5945.3
2016-Dec-04 15:28N 31°26' E 121°30'66056579.6
2016-Dec-04 15:28N 23°06' E 113°25'65921981.6
2016-Dec-04 15:26N 31°30' E 121°23'111152.3
2016-Dec-04 15:25N 31°22' E 121°30'933271.2
2016-Dec-04 15:25N 31°29' E 121°25'117563.2
2016-Dec-04 15:25N 31°23' E 121°34'4149.1
2016-Dec-04 15:24N 31°22' E 121°30'0 3.8
2016-Dec-04 15:20N 31°22' E 121°30'23316.4
2016-Dec-04 15:15N 31°40' E 121°13'23652.8
2016-Dec-04 15:13N 31°22' E 121°30'853484.0
2016-Dec-04 15:12N 31°59' E 119°60'63715719.0
2016-Dec-04 15:09N 23°04' E 113°29'65654918.6
2016-Dec-04 15:09N 31°21' E 121°31'37596392.4
2016-Dec-04 14:33S 23°50' E 151°15'36733305299.5
2016-Dec-04 14:33N 29°57' E 121°59'15637365.0
2016-Dec-04 14:33N 31°58' E 120°04'6212370.1
2016-Dec-04 14:33N 31°40' E 121°13'132269.7
2016-Dec-04 14:33N 31°31' E 121°23'101350.5
2016-Dec-04 14:32N 31°23' E 121°30'1505.0
2016-Dec-04 14:32N 31°22' E 121°30'81353.4
2016-Dec-04 14:32N 31°28' E 121°25'14973.9
2016-Dec-04 14:31N 31°15' E 121°31'151168.1
2016-Dec-04 14:30N 31°29' E 121°25'1162.7
2016-Dec-04 14:30N 31°30' E 121°23'167167.7
2016-Dec-04 14:29N 31°15' E 121°30'251317.0
2016-Dec-04 14:28N 31°37' E 121°18'1922610.1
2016-Dec-04 14:28N 31°22' E 121°30'65718480.7
2016-Dec-04 14:26N 23°06' E 113°25'66016510.2
2016-Dec-04 14:24N 31°23' E 121°34'435.9
2016-Dec-04 14:18N 31°21' E 121°31'112.0
2016-Dec-04 14:11N 31°22' E 121°30'6561054.8
2016-Dec-04 13:33N 23°04' E 113°29'652781879.7
2016-Dec-04 13:33N 31°15' E 121°31'151444.8
2016-Dec-04 13:33N 31°29' E 121°25'01556.2
2016-Dec-04 13:33N 31°30' E 121°25'10355.8
2016-Dec-04 13:31N 31°20' E 121°23'7362.0
2016-Dec-04 13:30N 31°22' E 121°30'4531.0
2016-Dec-04 13:30N 31°25' E 121°30'7411089.6
2016-Dec-04 13:29N 31°56' E 120°11'663066.1
2016-Dec-04 13:28N 31°30' E 121°23'9359.1
2016-Dec-04 13:26N 31°22' E 121°30'65756338.9
2016-Dec-04 13:26N 23°06' E 113°25'659182533.5
2016-Dec-04 13:25N 31°28' E 121°25'5864.6
2016-Dec-04 13:25N 31°31' E 121°21'6103.3
2016-Dec-04 13:21N 31°37' E 121°18'19454.8
2016-Dec-04 13:19N 31°21' E 121°30'23306.7
2016-Dec-04 13:14N 31°40' E 121°14'13231.6
2016-Dec-04 13:11N 31°30' E 121°23'377033515.2
2016-Dec-04 13:04S 23°50' E 151°15'37817396.9
2016-Dec-04 12:33N 31°38' E 121°16'21194.4
2016-Dec-04 12:33N 31°37' E 121°18'5565445.3
2016-Dec-04 12:33N 31°58' E 120°19'546736.4
2016-Dec-04 12:33N 31°36' E 121°17'192298.8
2016-Dec-04 12:32N 31°21' E 121°30'1190.9
2016-Dec-04 12:32N 31°22' E 121°30'74977.6
2016-Dec-04 12:32N 31°15' E 121°31'155490.1
2016-Dec-04 12:32N 31°29' E 121°25'9594.1
2016-Dec-04 12:31N 31°22' E 121°30'104965.3
2016-Dec-04 12:31N 31°30' E 121°25'6596758.6
2016-Dec-04 12:25N 23°04' E 113°29'65810531.4
2016-Dec-04 12:21N 31°28' E 121°25'283.4
2016-Dec-04 12:20N 31°30' E 121°23'10167.6
2016-Dec-04 12:16N 31°21' E 121°30'2028.3
2016-Dec-04 11:33N 31°37' E 121°16'54713.8
2016-Dec-04 11:33N 31°41' E 121°11'161448.6
2016-Dec-04 11:33N 31°30' E 121°25'7738.3
2016-Dec-04 11:32N 31°34' E 121°19'529823.1
2016-Dec-04 11:32N 31°58' E 120°25'583357.9
2016-Dec-04 11:31N 31°30' E 121°25'9913.7
2016-Dec-04 11:30N 31°22' E 121°30'015.9
2016-Dec-04 11:29N 31°22' E 121°30'81263.4
2016-Dec-04 11:29N 31°28' E 121°25'11680.8
2016-Dec-04 11:28N 31°37' E 121°18'191220.3
2016-Dec-04 11:27N 31°21' E 121°30'9689.6
2016-Dec-04 11:26N 31°29' E 121°25'66027938.1
2016-Dec-04 11:25N 23°06' E 113°25'65916260.7
2016-Dec-04 11:22N 31°30' E 121°23'6594350.0
2016-Dec-04 11:13N 23°04' E 113°29'66012447.3
2016-Dec-04 11:10N 31°49' E 121°01'361063.3
2016-Dec-04 11:08N 31°22' E 121°30'916.4
2016-Dec-04 10:33N 31°30' E 121°25'1356.4
2016-Dec-04 10:33N 31°29' E 121°25'64625.3
2016-Dec-04 10:33N 31°25' E 121°30'17549.3
2016-Dec-04 10:31N 31°38' E 121°18'205031.2
2016-Dec-04 10:31N 31°22' E 121°30'11384.3
2016-Dec-04 10:29N 31°30' E 121°23'5725515.5
2016-Dec-04 10:29N 31°58' E 120°25'587767.4
2016-Dec-04 10:29N 31°30' E 121°25'0349.4
2016-Dec-04 10:29N 31°30' E 121°25'65914920.9
2016-Dec-04 10:26N 23°04' E 113°29'66115150.9
2016-Dec-04 10:23N 31°37' E 121°18'703488.3
2016-Dec-04 10:22N 31°59' E 120°00'8613399.0
2016-Dec-04 10:22N 31°21' E 121°30'1 7.2
2016-Dec-04 10:16N 31°22' E 121°30'1825.8
2016-Dec-04 09:33N 31°37' E 121°18'106942.6
2016-Dec-04 09:33N 31°29' E 121°25'0116.2
2016-Dec-04 09:33N 31°29' E 121°25'7243343.9
2016-Dec-04 09:33N 31°57' E 120°06'182174.0
2016-Dec-04 09:33N 32°01' E 120°27'6711470.3
2016-Dec-04 09:32N 31°21' E 121°30'0632.3
2016-Dec-04 09:32N 31°22' E 121°30'47146.4
2016-Dec-04 09:32N 31°25' E 121°31'321975.6
2016-Dec-04 09:31N 31°46' E 121°02'397080.5
2016-Dec-04 09:31N 31°15' E 121°31'65249950.9
2016-Dec-04 09:30N 23°06' E 113°26'660791599.2
2016-Dec-04 09:30N 31°30' E 121°25'65911408.4
2016-Dec-04 09:27N 23°04' E 113°29'65776260.2
2016-Dec-04 09:26N 31°20' E 121°33'22916.5
2016-Dec-04 09:25N 31°38' E 121°18'1922.6
2016-Dec-04 08:34N 31°23' E 121°33'7510803.6
2016-Dec-04 08:33N 31°57' E 120°13'7711989.6
2016-Dec-04 08:33N 31°23' E 121°34'1658047.6
2016-Dec-04 08:33N 31°33' E 121°19'5579.1
2016-Dec-04 08:32N 31°29' E 121°25'1527594.1
2016-Dec-04 08:32N 31°15' E 121°31'65260211.7
2016-Dec-04 08:31N 23°02' E 113°31'3576.9
2016-Dec-04 08:31N 23°04' E 113°29'656157535.1
2016-Dec-04 08:31N 31°19' E 121°34'13495.9
2016-Dec-04 08:29N 31°30' E 121°25'528088.5
2016-Dec-04 08:29N 32°00' E 120°36'431135.0
2016-Dec-04 08:27N 31°37' E 121°18'9180.7
2016-Dec-04 08:24N 31°30' E 121°24'51212700.2
2016-Dec-04 08:21N 23°40' E 117°37'5061826.9
2016-Dec-04 08:05N 31°21' E 121°30'1936.6
2016-Dec-04 07:34N 31°36' E 121°16'9806.6
2016-Dec-04 07:33N 31°42' E 121°09'18987.4
2016-Dec-04 07:32N 31°30' E 121°24'6322574.7
2016-Dec-04 07:32N 31°59' E 120°19'634825.4
2016-Dec-04 07:31N 31°29' E 121°25'6632386278.4
2016-Dec-04 07:31N 22°56' E 113°33'66041697.8
2016-Dec-04 07:30N 31°22' E 121°30'6913097.8
2016-Dec-04 07:30N 32°02' E 120°23'614241.5
2016-Dec-04 07:29N 31°30' E 121°25'16657.9
2016-Dec-04 07:27N 31°15' E 121°31'652156377.7
2016-Dec-04 07:27N 23°04' E 113°29'6614757.5
2016-Dec-04 07:19N 31°37' E 121°18'19518.5
2016-Dec-04 07:17N 31°21' E 121°30'418.1
2016-Dec-04 07:05N 31°23' E 121°34'2139.8
2016-Dec-04 06:33N 31°37' E 121°17'252390.8
2016-Dec-04 06:33N 31°15' E 121°31'7943.3
2016-Dec-04 06:32N 31°22' E 121°29'1364.6
2016-Dec-04 06:32N 31°21' E 121°30'292665.6
2016-Dec-04 06:31N 31°43' E 121°08'4311803.5
2016-Dec-04 06:31N 32°01' E 120°22'613032.0
2016-Dec-04 06:30N 31°29' E 121°25'057.8
2016-Dec-04 06:30N 31°30' E 121°25'11572.6
2016-Dec-04 06:28N 31°23' E 121°34'11271.8
2016-Dec-04 06:26N 31°30' E 121°24'93675.5
2016-Dec-04 06:26N 31°22' E 121°30'18673.8
2016-Dec-04 06:24N 31°37' E 121°18'11476.9
2016-Dec-04 06:23N 31°28' E 121°25'62732.9
2016-Dec-04 06:18N 32°02' E 120°23'4824708.1
2016-Dec-04 06:18N 31°39' E 121°13'1418.8
2016-Dec-04 05:33N 31°30' E 121°25'142368.6
2016-Dec-04 05:33N 31°39' E 121°13'1075355.3
2016-Dec-04 05:32N 29°59' E 121°57'9810067.2
2016-Dec-04 05:31N 31°32' E 121°23'4432.3
2016-Dec-04 05:31N 31°28' E 121°25'62224263.7
2016-Dec-04 05:31N 32°02' E 120°23'703925.8
2016-Dec-04 05:30N 31°21' E 121°30'196.5
2016-Dec-04 05:29N 31°23' E 121°30'416651.1
2016-Dec-04 05:28N 31°50' E 120°54'65828879.0
2016-Dec-04 05:27N 23°04' E 113°29'66150613.3
2016-Dec-04 05:26N 31°37' E 121°18'514609.9
2016-Dec-04 05:26N 32°03' E 120°26'60787.4
2016-Dec-04 05:21N 31°29' E 121°25'103129.0
2016-Dec-04 04:33N 29°54' E 122°09'112402831.8
2016-Dec-04 04:33N 31°37' E 121°18'191681.9
2016-Dec-04 04:33N 31°47' E 120°59'312592.7
2016-Dec-04 04:32N 32°04' E 120°29'5338365.5
2016-Dec-04 04:32N 31°33' E 121°20'14997.4
2016-Dec-04 04:31N 31°24' E 121°32'82474.2
2016-Dec-04 04:31N 31°30' E 121°24'0 2.3
2016-Dec-04 04:28N 31°29' E 121°25'125176.4
2016-Dec-04 04:28N 31°22' E 121°35'251325.8
2016-Dec-04 04:26N 31°39' E 121°13'232343.2
2016-Dec-04 04:26N 31°21' E 121°30'4131.2
2016-Dec-04 04:24N 31°25' E 121°34'1072.7
2016-Dec-04 04:15N 31°30' E 121°23'60585.9
2016-Dec-04 04:09N 32°02' E 120°23'498834.0
2016-Dec-04 03:33N 23°59' E 118°05'48061725.9
2016-Dec-04 03:33N 31°23' E 121°30'3111108.5
2016-Dec-04 03:33N 31°45' E 121°05'491136047.9
2016-Dec-04 03:32N 24°00' E 118°06'47982167.9
2016-Dec-04 03:32N 31°23' E 121°34'31425.5
2016-Dec-04 03:32N 31°20' E 121°34'5305.7
2016-Dec-04 03:31N 31°25' E 121°34'9477.1
2016-Dec-04 03:30N 31°29' E 121°25'10353.5
2016-Dec-04 03:28N 31°37' E 121°18'4691688829.4
2016-Dec-04 03:28N 24°19' E 118°07'46910174.7
2016-Dec-04 03:25N 31°39' E 121°13'132276.4
2016-Dec-04 03:25N 31°30' E 121°25'16542.8
2016-Dec-04 03:23N 31°15' E 121°31'983551.4
2016-Dec-04 03:22N 29°42' E 122°04'1142974.8
2016-Dec-04 03:19N 31°30' E 121°23'3296.4
2016-Dec-04 03:19N 31°28' E 121°25'65814810.1
2016-Dec-04 03:16N 23°04' E 113°29'6565806.3
2016-Dec-04 03:09N 31°20' E 121°32'721124.5
2016-Dec-04 03:06N 32°02' E 120°23'5397.8
2016-Dec-04 02:33N 31°37' E 121°18'84234.3
2016-Dec-04 02:33N 31°42' E 121°10'13033364.9
2016-Dec-04 02:33N 29°42' E 122°07'9917736.5
2016-Dec-04 02:33N 31°15' E 121°29'1199.2
2016-Dec-04 02:32N 31°15' E 121°31'664597654.8
2016-Dec-04 02:32N 22°54' E 113°21'276124059.6
2016-Dec-04 02:32N 24°05' E 118°12'13904.6
2016-Dec-04 02:32N 24°05' E 118°13'475285238.8
2016-Dec-04 02:32N 31°29' E 121°25'0 7.7
2016-Dec-04 02:31N 31°29' E 121°25'0103.7
2016-Dec-04 02:31N 31°30' E 121°25'143250.7
2016-Dec-04 02:31N 31°18' E 121°34'102238.0
2016-Dec-04 02:30N 31°27' E 121°28'19415.0
2016-Dec-04 02:28N 31°40' E 121°12'31629.5
2016-Dec-04 02:25N 31°22' E 121°41'66244145.6
2016-Dec-04 02:24N 23°04' E 113°29'65660595.1
2016-Dec-04 02:23N 31°20' E 121°32'2428.6
2016-Dec-04 01:33N 31°38' E 121°14'12514086.5
2016-Dec-04 01:33N 29°42' E 122°07'10330966.8
2016-Dec-04 01:33N 31°20' E 121°32'3406.0
2016-Dec-04 01:32N 31°23' E 121°34'674404625.3
2016-Dec-04 01:32N 22°19' E 114°07'67854202.1
2016-Dec-04 01:31N 31°37' E 121°18'251384.5
2016-Dec-04 01:30N 31°15' E 121°31'16346.3
2016-Dec-04 01:28N 31°30' E 121°25'41718552.8
2016-Dec-04 01:26N 38°27' E 120°56'4276648.3
2016-Dec-04 01:22N 31°22' E 121°41'46531604.9
2016-Dec-04 01:22N 24°11' E 118°20'4628998.7
2016-Dec-04 01:18N 31°22' E 121°30'24526.3
2016-Dec-04 01:16N 31°41' E 121°12'6604831.0
2016-Dec-04 01:08N 23°04' E 113°29'1120.1
2016-Dec-04 00:34N 22°53' E 113°31'6672401827.7
2016-Dec-04 00:33N 31°38' E 121°14'1258300.8
2016-Dec-04 00:33N 29°42' E 122°05'1135509.7
2016-Dec-04 00:31N 31°29' E 121°25'13917.5
2016-Dec-04 00:31N 31°38' E 121°14'67778587.7
2016-Dec-04 00:30N 22°18' E 114°07'1030123565.0
2016-Dec-04 00:29N 38°27' E 120°54'410105408.5
2016-Dec-04 00:29N 31°37' E 121°18'9650.9
2016-Dec-04 00:28N 31°30' E 121°25'12396.8
2016-Dec-04 00:27N 31°20' E 121°32'7290.2
2016-Dec-04 00:25N 31°22' E 121°41'45810491.4
2016-Dec-04 00:23N 24°17' E 118°27'4546260.0
2016-Dec-04 00:18N 31°21' E 121°31'6568618.6
2016-Dec-04 00:14N 23°04' E 113°29'6618068.2
2016-Dec-04 00:09N 31°22' E 121°38'101171.6
2016-Dec-03 23:33N 29°44' E 122°03'29797326.8
2016-Dec-03 23:33N 25°18' E 119°32'391200908.3
2016-Dec-03 23:33N 31°38' E 121°14'272958.1
2016-Dec-03 23:33N 31°15' E 121°31'4321555477.3
2016-Dec-03 23:32N 38°26' E 120°52'40522809.1
2016-Dec-03 23:31N 31°41' E 121°12'151537.3
2016-Dec-03 23:31N 31°30' E 121°25'161105.7
2016-Dec-03 23:30N 31°21' E 121°40'7251.2
2016-Dec-03 23:28N 31°20' E 121°32'264076.8
2016-Dec-03 23:28N 31°40' E 121°13'15429.9
2016-Dec-03 23:26N 31°29' E 121°25'16715.5
2016-Dec-03 23:25N 31°22' E 121°41'77138550.7
2016-Dec-03 23:25N 32°02' E 120°24'67363720.5
2016-Dec-03 23:24N 22°18' E 114°07'582261.8
2016-Dec-03 23:22N 23°04' E 113°29'2913086.4
2016-Dec-03 23:17N 24°24' E 118°35'45712461.9
2016-Dec-03 23:14N 31°37' E 121°18'181304.4
2016-Dec-03 23:14N 31°22' E 121°30'2151.9
2016-Dec-03 23:13N 31°20' E 121°32'11613.6
2016-Dec-03 23:12N 31°30' E 121°24'914.7
2016-Dec-03 22:33N 31°37' E 121°18'113406709.5
2016-Dec-03 22:33N 29°53' E 122°09'11529630.8
2016-Dec-03 22:33N 31°38' E 121°14'40877370.6
2016-Dec-03 22:33N 38°26' E 120°52'41724218.5
2016-Dec-03 22:32N 31°30' E 121°25'67520958.2
2016-Dec-03 22:30N 22°18' E 114°07'66719838.0
2016-Dec-03 22:28N 31°15' E 121°31'30238.7
2016-Dec-03 22:20N 31°41' E 121°12'16221.7
2016-Dec-03 22:16N 31°29' E 121°25'96135.6
2016-Dec-03 21:33N 29°58' E 121°57'1092135.6
2016-Dec-03 21:30N 31°39' E 121°13'141460.2
2016-Dec-03 21:30N 31°30' E 121°25'15320.3
2016-Dec-03 21:27N 31°41' E 121°12'16332.2
2016-Dec-03 21:24N 31°29' E 121°25'13154.6
2016-Dec-03 21:19N 31°38' E 121°14'6772985.2
2016-Dec-03 21:06N 22°18' E 114°07'67549597.1
2016-Dec-03 21:05N 31°30' E 121°25'0 0.2
2016-Dec-03 20:33N 31°30' E 121°24'030.0
2016-Dec-03 20:32N 31°30' E 121°24'8213390.3
2016-Dec-03 20:31N 32°03' E 119°56'66220369.1
2016-Dec-03 20:30N 22°18' E 114°07'67816378.4
2016-Dec-03 20:27N 31°37' E 121°18'25870.8
2016-Dec-03 20:25N 31°15' E 121°31'2714017.8
2016-Dec-03 20:25N 31°38' E 121°14'11284.3
2016-Dec-03 20:23N 31°46' E 121°04'8472.1
2016-Dec-03 20:22N 31°41' E 121°12'2 2.6
2016-Dec-03 19:33N 31°42' E 121°10'7416.2
2016-Dec-03 19:32N 31°46' E 121°03'254247.8
2016-Dec-03 19:32N 31°29' E 121°25'7912945.4
2016-Dec-03 19:32N 32°00' E 119°59'6711553.2
2016-Dec-03 19:31N 31°38' E 121°14'121917.7
2016-Dec-03 19:31N 31°30' E 121°24'91101.1
2016-Dec-03 19:30N 31°37' E 121°18'40913161.4
2016-Dec-03 19:28N 38°26' E 120°57'42719943.1
2016-Dec-03 19:27N 31°20' E 121°25'6929.8
2016-Dec-03 19:27N 31°20' E 121°32'6152.5
2016-Dec-03 19:25N 31°15' E 121°31'29438.1
2016-Dec-03 19:21N 31°40' E 121°13'66055272.5
2016-Dec-03 19:20N 23°04' E 113°29'6608520.1
2016-Dec-03 19:15N 31°41' E 121°12'31269.1
2016-Dec-03 19:08N 31°21' E 121°39'15217.4
2016-Dec-03 19:04N 31°09' E 121°27'769406.8
2016-Dec-03 19:04N 32°02' E 120°24'61119.8
2016-Dec-03 18:33N 31°30' E 121°24'75271713.4
2016-Dec-03 18:33N 31°58' E 120°02'6337711.2
2016-Dec-03 18:33N 31°40' E 121°13'2590.2
2016-Dec-03 18:33N 31°38' E 121°14'4402.0
2016-Dec-03 18:32N 31°37' E 121°18'155.2
2016-Dec-03 18:31N 31°37' E 121°17'7247.4
2016-Dec-03 18:29N 31°42' E 121°10'283309.5
2016-Dec-03 18:29N 31°20' E 121°32'67213743.9
2016-Dec-03 18:26N 22°18' E 114°07'67859522.0
2016-Dec-03 18:25N 31°41' E 121°12'32148.0
2016-Dec-03 18:12N 31°12' E 121°30'181259.6
2016-Dec-03 18:11N 31°30' E 121°24'132649.5
2016-Dec-03 18:11N 31°20' E 121°33'5 8.2
2016-Dec-03 17:33N 31°15' E 121°31'73978.0
2016-Dec-03 17:33N 31°22' E 121°30'8011059.5
2016-Dec-03 17:33N 31°57' E 120°06'7768928.0
2016-Dec-03 17:33N 31°20' E 121°25'195702.0
2016-Dec-03 17:32N 31°38' E 121°16'261002.7
2016-Dec-03 17:31N 31°15' E 121°30'81868.3
2016-Dec-03 17:31N 31°23' E 121°30'3480.8
2016-Dec-03 17:30N 31°20' E 121°32'121505.1
2016-Dec-03 17:30N 31°30' E 121°24'121296.4
2016-Dec-03 17:29N 31°38' E 121°14'65914561.0
2016-Dec-03 17:27N 23°04' E 113°29'660132044.5
2016-Dec-03 17:26N 31°41' E 121°12'155570.7
2016-Dec-03 17:26N 31°29' E 121°25'101505.5
2016-Dec-03 17:26N 31°37' E 121°18'3779137422.1
2016-Dec-03 17:24S 23°50' E 151°15'382643731.2
2016-Dec-03 17:19N 32°02' E 120°24'472103.6
2016-Dec-03 17:17N 31°40' E 121°13'678121980.5
2016-Dec-03 17:17N 22°18' E 114°07'676927.0
2016-Dec-03 16:33N 31°33' E 121°20'56100347.4
2016-Dec-03 16:33N 32°02' E 120°24'131565.9
2016-Dec-03 16:33N 31°56' E 120°10'5710885.2
2016-Dec-03 16:32N 31°38' E 121°14'278746.2
2016-Dec-03 16:32N 31°18' E 121°34'71059.3
2016-Dec-03 16:32N 31°21' E 121°27'73180.8
2016-Dec-03 16:32N 31°28' E 121°25'86780.6
2016-Dec-03 16:32N 31°22' E 121°30'9695.4
2016-Dec-03 16:31N 31°30' E 121°25'0174.8
2016-Dec-03 16:31N 31°30' E 121°24'67522501.3
2016-Dec-03 16:29N 22°18' E 114°07'67823691.1
2016-Dec-03 16:27N 31°37' E 121°18'66191487.7
2016-Dec-03 16:27N 23°04' E 113°29'65949406.2
2016-Dec-03 16:26N 31°29' E 121°25'16240.2
2016-Dec-03 16:22N 31°41' E 121°12'302321.5
2016-Dec-03 16:21N 31°15' E 121°31'6605064.1
2016-Dec-03 16:14N 22°51' E 113°33'66421160.6
2016-Dec-03 16:12N 31°21' E 121°30'113.5
2016-Dec-03 16:09N 31°22' E 121°30'71120.0
2016-Dec-03 15:33N 31°58' E 120°18'6320618.3
2016-Dec-03 15:33N 31°29' E 121°25'103100.5
2016-Dec-03 15:33N 31°21' E 121°31'233060.2
2016-Dec-03 15:33N 31°38' E 121°14'5417692.4
2016-Dec-03 15:32N 31°56' E 120°14'14528928.5
2016-Dec-03 15:32N 29°58' E 121°51'95343759.0
2016-Dec-03 15:32N 31°31' E 121°25'92217.8
2016-Dec-03 15:32N 31°37' E 121°18'9553.0
2016-Dec-03 15:31N 31°30' E 121°25'266.7
2016-Dec-03 15:29N 31°28' E 121°25'1655.3
2016-Dec-03 15:12N 31°40' E 121°13'5076.8
2016-Dec-03 14:33N 31°58' E 120°18'6518100.1
2016-Dec-03 14:33N 31°28' E 121°26'986774.1
2016-Dec-03 14:32N 29°56' E 122°03'11139985.8
2016-Dec-03 14:32N 31°38' E 121°14'13431.1
2016-Dec-03 14:30N 31°29' E 121°24'15455.2
2016-Dec-03 14:28N 31°40' E 121°13'1526201.0
2016-Dec-03 14:28N 31°29' E 121°25'0172.9
2016-Dec-03 14:28N 31°30' E 121°25'91006.0
2016-Dec-03 14:27N 31°37' E 121°18'11408.6
2016-Dec-03 14:26N 31°28' E 121°25'323371.4
2016-Dec-03 13:33N 36°47' E 122°31'32154949.6
2016-Dec-03 13:33N 31°32' E 121°20'110396337.8
2016-Dec-03 13:33N 29°49' E 122°06'114205279.5
2016-Dec-03 13:33N 31°35' E 121°18'543194.1
2016-Dec-03 13:32N 31°60' E 120°21'574979.8
2016-Dec-03 13:31N 31°33' E 121°20'7514169.0
2016-Dec-03 13:31N 32°00' E 119°58'803976.7
2016-Dec-03 13:30N 31°30' E 121°25'161295.2
2016-Dec-03 13:29N 31°40' E 121°11'17720.2
2016-Dec-03 13:28N 31°28' E 121°25'17131.6
2016-Dec-03 13:20N 31°41' E 121°12'211915.9
2016-Dec-03 13:19N 31°26' E 121°30'20265.3
2016-Dec-03 13:15N 31°40' E 121°13'291493.0
2016-Dec-03 13:14N 31°15' E 121°30'255516.7
2016-Dec-03 13:13N 31°37' E 121°18'10353.6
2016-Dec-03 13:12N 31°29' E 121°25'3 4.7
2016-Dec-03 12:33N 31°32' E 121°22'3261174284.8
2016-Dec-03 12:33N 36°54' E 122°27'329295947.7
2016-Dec-03 12:33N 31°29' E 121°26'1113788.6
2016-Dec-03 12:33N 31°37' E 121°16'12318467.7
2016-Dec-03 12:33N 29°41' E 122°06'11451394.3
2016-Dec-03 12:33N 31°30' E 121°25'6016677.2
2016-Dec-03 12:33N 32°03' E 120°25'603955.4
2016-Dec-03 12:32N 31°29' E 121°25'15766.5
2016-Dec-03 12:30N 31°15' E 121°31'29745.1
2016-Dec-03 12:28N 31°40' E 121°13'2511160.0
2016-Dec-03 12:28N 31°21' E 121°31'2497.4
2016-Dec-03 12:28N 31°22' E 121°30'672172740.1
2016-Dec-03 12:28N 22°19' E 114°07'6758046.2
2016-Dec-03 12:23N 31°29' E 121°25'13128.0
2016-Dec-03 12:16N 31°39' E 121°14'668100208.6
2016-Dec-03 12:16N 22°51' E 113°33'66960237.1
2016-Dec-03 12:15N 31°37' E 121°18'5 7.8
2016-Dec-03 11:33N 31°32' E 121°20'121654.0
2016-Dec-03 11:33N 31°41' E 121°10'1922906.9
2016-Dec-03 11:33N 31°29' E 121°27'11213049.3
2016-Dec-03 11:32N 29°41' E 122°06'1145254.2
2016-Dec-03 11:31N 31°29' E 121°25'067.8
2016-Dec-03 11:31N 31°29' E 121°25'0223.2
2016-Dec-03 11:31N 31°30' E 121°25'16335.2
2016-Dec-03 11:28N 31°15' E 121°32'278.1
2016-Dec-03 11:27N 31°15' E 121°31'14183.4
2016-Dec-03 11:22N 31°28' E 121°25'21562.9
2016-Dec-03 11:20N 31°43' E 121°08'291082.5
2016-Dec-03 11:18N 31°21' E 121°30'65616513.5
2016-Dec-03 11:16N 23°04' E 113°29'14327.3
2016-Dec-03 11:13N 22°51' E 113°33'67018281.4
2016-Dec-03 11:11N 31°22' E 121°41'813.5
2016-Dec-03 10:33N 31°25' E 121°31'182336.8
2016-Dec-03 10:33N 31°36' E 121°16'12388531.4
2016-Dec-03 10:33N 29°41' E 122°06'13417229.6
2016-Dec-03 10:32N 31°45' E 121°05'66892499.1
2016-Dec-03 10:32N 22°51' E 113°33'66919565.9
2016-Dec-03 10:30N 31°22' E 121°37'9452.0
2016-Dec-03 10:29N 31°15' E 121°31'6608334.3
2016-Dec-03 10:24N 22°54' E 113°28'66928317.3
2016-Dec-03 10:23N 31°40' E 121°13'14342.6
2016-Dec-03 10:20N 31°30' E 121°25'0 7.3
2016-Dec-03 10:17N 31°29' E 121°25'10846.1
2016-Dec-03 10:16N 31°21' E 121°30'356301.2
2016-Dec-03 10:16N 31°46' E 121°02'26860.7
2016-Dec-03 10:14N 31°29' E 121°25'2841.1
2016-Dec-03 09:34N 31°46' E 120°59'138248215.8
2016-Dec-03 09:33N 29°41' E 122°06'12738121.8
2016-Dec-03 09:33N 31°40' E 121°12'20636.0
2016-Dec-03 09:31N 31°26' E 121°30'667600410.1
2016-Dec-03 09:31N 22°51' E 113°33'65836421.7
2016-Dec-03 09:30N 31°59' E 120°22'619150.4
2016-Dec-03 09:30N 31°30' E 121°24'10270.8
2016-Dec-03 09:28N 31°21' E 121°30'10373.2
2016-Dec-03 09:26N 31°30' E 121°24'0 5.6
2016-Dec-03 09:25N 31°30' E 121°25'191813.8
2016-Dec-03 09:24N 31°42' E 121°08'397.3
2016-Dec-03 09:23N 31°40' E 121°11'281603.7
2016-Dec-03 09:22N 31°20' E 121°33'65711255.7
2016-Dec-03 09:18N 23°04' E 113°29'65611929.7
2016-Dec-03 09:15N 31°22' E 121°30'3760111864.1
2016-Dec-03 09:13S 23°50' E 151°15'3768301421.6
2016-Dec-03 09:12N 31°28' E 121°25'1929.0
2016-Dec-03 08:33N 31°41' E 121°10'254144.9
2016-Dec-03 08:33N 31°23' E 121°30'10619114.7
2016-Dec-03 08:33N 29°41' E 122°06'38025834.5
2016-Dec-03 08:32N 24°21' E 118°16'469129934.6
2016-Dec-03 08:32N 31°47' E 121°01'667160193.4
2016-Dec-03 08:31N 22°51' E 113°33'668150402.4
2016-Dec-03 08:31N 31°41' E 121°12'164411.4
2016-Dec-03 08:31N 31°29' E 121°25'637540.9
2016-Dec-03 08:30N 31°58' E 120°19'646755.4
2016-Dec-03 08:30N 31°28' E 121°25'1336.9
2016-Dec-03 08:29N 31°29' E 121°25'659118570.4
2016-Dec-03 08:29N 23°04' E 113°29'65228959.4
2016-Dec-03 08:28N 31°15' E 121°31'52107.1
2016-Dec-03 08:28N 31°20' E 121°33'35279.1
2016-Dec-03 08:20N 31°45' E 121°05'222989.9
2016-Dec-03 08:20N 31°30' E 121°24'4152460.5
2016-Dec-03 08:10N 38°24' E 121°02'99971944.0
2016-Dec-03 08:09N 23°04' E 113°30'6131004.2
2016-Dec-03 07:32N 29°48' E 122°05'11157065.7
2016-Dec-03 07:32N 31°32' E 121°20'46272348.3
2016-Dec-03 07:32N 24°22' E 118°09'26845993.3
2016-Dec-03 07:31N 22°51' E 113°33'66764860.1
2016-Dec-03 07:31N 31°28' E 121°25'665092.7
2016-Dec-03 07:30N 31°56' E 120°14'6558735.9
2016-Dec-03 07:30N 31°30' E 121°24'012.3
2016-Dec-03 07:28N 31°30' E 121°24'021.3
2016-Dec-03 07:27N 31°29' E 121°25'191766.4
2016-Dec-03 07:26N 31°42' E 121°09'2237.4
2016-Dec-03 07:25N 31°41' E 121°11'4439.8
2016-Dec-03 07:25N 31°43' E 121°07'32584.6
2016-Dec-03 07:22N 31°20' E 121°33'5904.0
2016-Dec-03 07:21N 31°15' E 121°31'921995.7
2016-Dec-03 07:18N 32°01' E 119°57'622007.0
2016-Dec-03 07:17N 31°43' E 121°07'345901.9
2016-Dec-03 07:16N 31°17' E 121°34'299611.2
2016-Dec-03 07:16N 31°40' E 121°13'31433.8
2016-Dec-03 07:12N 31°13' E 121°30'84131.6
2016-Dec-03 06:34N 29°55' E 122°06'39552669.8
2016-Dec-03 06:33N 24°25' E 118°02'449134820.0
2016-Dec-03 06:33N 31°15' E 121°30'3713493.8
2016-Dec-03 06:33N 31°45' E 121°04'4914713.3
2016-Dec-03 06:33N 31°56' E 120°08'60108879.0
2016-Dec-03 06:32N 31°38' E 121°16'3654.4
2016-Dec-03 06:32N 31°35' E 121°17'2012216.2
2016-Dec-03 06:32N 31°20' E 121°33'392489.7
2016-Dec-03 06:31N 31°47' E 121°00'174456.7
2016-Dec-03 06:31N 31°37' E 121°17'096.6
2016-Dec-03 06:31N 31°37' E 121°17'66019472.8
2016-Dec-03 06:29N 23°04' E 113°29'6591186332.3
2016-Dec-03 06:29N 31°43' E 121°07'668120209.6
2016-Dec-03 06:28N 22°51' E 113°33'66754604.0
2016-Dec-03 06:28N 31°30' E 121°24'144.3
2016-Dec-03 06:27N 31°29' E 121°25'6599796.8
2016-Dec-03 06:23N 23°04' E 113°30'6514050.0
2016-Dec-03 06:13N 31°15' E 121°31'771.6
2016-Dec-03 06:07N 31°22' E 121°30'4115.9
2016-Dec-03 06:05N 31°24' E 121°34'2 3.7
2016-Dec-03 05:33N 31°24' E 121°31'9080820.1
2016-Dec-03 05:32N 29°57' E 121°59'847540.3
2016-Dec-03 05:32N 31°18' E 121°34'468841683.8
2016-Dec-03 05:32N 24°07' E 118°09'480864596.0
2016-Dec-03 05:32N 31°37' E 121°18'2170.8
2016-Dec-03 05:31N 31°38' E 121°15'65929305.8
2016-Dec-03 05:30N 23°04' E 113°29'14644.4
2016-Dec-03 05:28N 22°51' E 113°33'66810837.1
2016-Dec-03 05:25N 31°42' E 121°09'19208.9
2016-Dec-03 05:19N 31°30' E 121°26'22783.7
2016-Dec-03 05:17N 31°44' E 121°06'2 2.7
2016-Dec-03 04:33N 31°45' E 121°04'1172.7
2016-Dec-03 04:33N 31°45' E 121°06'49150544.3
2016-Dec-03 04:32N 23°59' E 118°11'47084574.3
2016-Dec-03 04:32N 31°15' E 121°29'65952693.6
2016-Dec-03 04:31N 22°51' E 113°33'66920397.2
2016-Dec-03 04:29N 31°39' E 121°14'31598.9
2016-Dec-03 04:29N 31°37' E 121°18'251123.5
2016-Dec-03 04:28N 31°15' E 121°31'7413.6
2016-Dec-03 04:27N 31°22' E 121°30'8152.6
2016-Dec-03 04:24N 31°28' E 121°25'46279264.2
2016-Dec-03 04:23N 24°24' E 117°57'46317191.9
2016-Dec-03 04:22N 31°30' E 121°24'1075.3
2016-Dec-03 04:14N 31°23' E 121°34'242760.1
2016-Dec-03 04:13N 31°39' E 121°13'204219.5
2016-Dec-03 04:13N 31°26' E 121°30'662.3
2016-Dec-03 04:07N 31°20' E 121°33'657788173.9
2016-Dec-03 04:07N 23°04' E 113°29'659237135.7
2016-Dec-03 04:07N 31°29' E 121°25'8803.9
2016-Dec-03 04:06N 31°23' E 121°30'871832.2
2016-Dec-03 04:04N 29°59' E 121°53'103202.7
2016-Dec-03 03:33N 31°37' E 121°18'235816.2
2016-Dec-03 03:33N 31°19' E 121°33'828447.1
2016-Dec-03 03:32N 29°59' E 121°53'8728436.5
2016-Dec-03 03:32N 31°23' E 121°31'2711978.3
2016-Dec-03 03:32N 31°43' E 121°09'1933912.6
2016-Dec-03 03:32N 31°29' E 121°25'032.8
2016-Dec-03 03:31N 31°30' E 121°25'8858.9
2016-Dec-03 03:30N 31°23' E 121°30'8305.4
2016-Dec-03 03:29N 31°29' E 121°25'042.7
2016-Dec-03 03:29N 31°29' E 121°24'7490.1
2016-Dec-03 03:28N 31°25' E 121°31'33710.0
2016-Dec-03 03:28N 31°22' E 121°30'472242738.4
2016-Dec-03 03:28N 24°04' E 118°11'48328486.8
2016-Dec-03 03:27N 31°38' E 121°18'11661.1
2016-Dec-03 03:26N 31°28' E 121°25'141395.4
2016-Dec-03 03:25N 31°15' E 121°31'282037.2
2016-Dec-03 03:24N 31°39' E 121°13'231952.4
2016-Dec-03 03:24N 31°24' E 121°34'4628797.6
2016-Dec-03 03:20N 24°24' E 117°57'2592013.3
2016-Dec-03 03:13N 22°51' E 113°34'14149.2
2016-Dec-03 03:07N 23°04' E 113°29'6591177.5
2016-Dec-03 02:34N 31°41' E 121°09'65994873.8
2016-Dec-03 02:33N 23°04' E 113°30'27038920.4
2016-Dec-03 02:33N 24°09' E 118°16'47665919.6
2016-Dec-03 02:32N 31°38' E 121°18'46873310.7
2016-Dec-03 02:32N 24°24' E 117°57'461830281.4
2016-Dec-03 02:32N 31°21' E 121°39'15807.5
2016-Dec-03 02:31N 31°29' E 121°24'151206.1
2016-Dec-03 02:30N 31°15' E 121°31'135903.3
2016-Dec-03 02:30N 31°28' E 121°27'128843.2
2016-Dec-03 02:30N 31°37' E 121°18'66121819.2
2016-Dec-03 02:28N 23°04' E 113°29'6592372459.9
2016-Dec-03 02:28N 31°30' E 121°25'93725.2
2016-Dec-03 02:28N 31°22' E 121°30'4849.8
2016-Dec-03 02:27N 31°24' E 121°34'231163.9
2016-Dec-03 02:26N 31°40' E 121°14'1061905.1
2016-Dec-03 02:23N 29°59' E 121°53'94318.2
2016-Dec-03 02:05N 31°29' E 121°25'2 3.3
2016-Dec-03 01:33N 31°30' E 121°23'82168.8
2016-Dec-03 01:33N 31°37' E 121°18'1036629.7
2016-Dec-03 01:32N 29°59' E 121°53'873929.6
2016-Dec-03 01:31N 31°24' E 121°34'275093.4
2016-Dec-03 01:31N 31°41' E 121°09'181833.4
2016-Dec-03 01:30N 31°29' E 121°25'157851.7
2016-Dec-03 01:30N 31°15' E 121°31'251301.6
2016-Dec-03 01:29N 31°38' E 121°18'51094.8
2016-Dec-03 01:28N 31°32' E 121°20'459.2
2016-Dec-03 01:24N 31°30' E 121°25'6599843.5
2016-Dec-03 01:20N 23°04' E 113°29'66018009.8
2016-Dec-03 01:18N 31°40' E 121°14'46936701.7
2016-Dec-03 01:17N 24°24' E 117°57'43510645.3
2016-Dec-03 01:14N 30°59' E 121°22'63525106.3
2016-Dec-03 01:13N 23°04' E 113°30'6579094.1
2016-Dec-03 01:09N 31°23' E 121°30'121.0
2016-Dec-03 01:05N 31°22' E 121°30'1935.4
2016-Dec-03 00:33N 31°37' E 121°18'42238.2
2016-Dec-03 00:33N 31°33' E 121°19'52335.3
2016-Dec-03 00:33N 31°38' E 121°18'87589.4
2016-Dec-03 00:33N 31°41' E 121°09'6019597.2
2016-Dec-03 00:33N 31°59' E 120°02'918848.3
2016-Dec-03 00:32N 30°59' E 121°22'43548900.7
2016-Dec-03 00:32N 24°24' E 117°57'46762200.1
2016-Dec-03 00:31N 31°36' E 121°17'191332.6
2016-Dec-03 00:31N 31°24' E 121°34'9331.4
2016-Dec-03 00:29N 31°30' E 121°25'65940197.6
2016-Dec-03 00:28N 23°04' E 113°30'65617492.9
2016-Dec-03 00:26N 31°22' E 121°30'7229.1
2016-Dec-03 00:24N 31°15' E 121°31'962.4
2016-Dec-03 00:15N 31°20' E 121°39'771299.4
2016-Dec-03 00:12N 31°59' E 120°21'5383.2
2016-Dec-02 23:34N 31°37' E 121°18'6611188986.2
2016-Dec-02 23:33N 23°04' E 113°30'659169441.9
2016-Dec-02 23:33N 31°41' E 121°09'65994900.5
2016-Dec-02 23:33N 23°04' E 113°29'6592373713.6
2016-Dec-02 23:33N 31°37' E 121°16'198366.3
2016-Dec-02 23:33N 31°23' E 121°30'256540.5
2016-Dec-02 23:32N 30°59' E 121°22'43540124.2
2016-Dec-02 23:32N 24°24' E 117°57'46844380.3
2016-Dec-02 23:31N 31°40' E 121°12'5116547.9
2016-Dec-02 23:31N 31°57' E 120°16'564368.4
2016-Dec-02 23:30N 31°37' E 121°18'251055.7
2016-Dec-02 23:29N 31°15' E 121°31'10512.7
2016-Dec-02 23:28N 31°24' E 121°34'92821.1
2016-Dec-02 23:27N 31°30' E 121°25'7142457.1
2016-Dec-02 23:27N 31°57' E 120°08'781650.6
2016-Dec-02 23:25N 31°22' E 121°30'849.8
2016-Dec-02 23:15N 31°20' E 121°39'151805.1
2016-Dec-02 23:15N 31°29' E 121°25'61722.2
2016-Dec-02 23:10N 32°00' E 120°23'67111.3
2016-Dec-02 22:33N 31°22' E 121°28'611595.5
2016-Dec-02 22:33N 31°17' E 121°34'3424190.3
2016-Dec-02 22:33N 31°43' E 121°08'65981823.8
2016-Dec-02 22:33N 23°04' E 113°29'641177630.3
2016-Dec-02 22:33N 31°57' E 120°12'8318633.6
2016-Dec-02 22:32N 30°59' E 121°22'43546024.2
2016-Dec-02 22:32N 24°24' E 117°57'468140400.8
2016-Dec-02 22:32N 31°37' E 121°18'258117.3
2016-Dec-02 22:31N 31°15' E 121°31'251749.9
2016-Dec-02 22:31N 31°37' E 121°18'11587.6
2016-Dec-02 22:29N 31°28' E 121°25'194877.8
2016-Dec-02 22:29N 31°41' E 121°09'18863.4
2016-Dec-02 22:28N 31°29' E 121°25'65917697.4
2016-Dec-02 22:26N 23°04' E 113°29'66095092.5
2016-Dec-02 22:25N 31°40' E 121°14'581743.0
2016-Dec-02 22:23N 31°56' E 120°09'9349.5
2016-Dec-02 22:22N 31°58' E 120°19'623499.1
2016-Dec-02 22:21N 31°30' E 121°25'91133.9
2016-Dec-02 22:20N 31°24' E 121°34'46121542.6
2016-Dec-02 22:19N 24°15' E 118°25'469619.9
2016-Dec-02 21:34N 31°40' E 121°14'43563.3
2016-Dec-02 21:33N 31°37' E 121°18'2512673.7
2016-Dec-02 21:33N 31°20' E 121°39'155537.0
2016-Dec-02 21:33N 31°30' E 121°25'627731.9
2016-Dec-02 21:33N 31°59' E 120°20'748363.5
2016-Dec-02 21:32N 31°19' E 121°33'5407.4
2016-Dec-02 21:31N 31°15' E 121°31'151709.3
2016-Dec-02 21:31N 31°29' E 121°25'1011950.4
2016-Dec-02 21:31N 31°37' E 121°18'8827.4
2016-Dec-02 21:30N 31°41' E 121°09'484139.6
2016-Dec-02 21:30N 31°56' E 120°15'8120796.3
2016-Dec-02 21:29N 30°59' E 121°22'291114.1
2016-Dec-02 21:28N 31°28' E 121°25'46213757.0
2016-Dec-02 21:26N 24°24' E 117°57'258185929.4
2016-Dec-02 21:26N 23°04' E 113°29'6591186366.9
2016-Dec-02 21:26N 31°45' E 121°04'242200.8
2016-Dec-02 21:25N 31°29' E 121°25'4638549.6
2016-Dec-02 21:22N 24°15' E 118°24'78678649.4
2016-Dec-02 21:21N 36°53' E 122°26'33741859.6
2016-Dec-02 21:21N 31°20' E 121°23'1042.1
2016-Dec-02 21:06N 31°24' E 121°34'78143.8
2016-Dec-02 20:33N 31°56' E 120°09'6112179.2
2016-Dec-02 20:33N 31°37' E 121°18'393971.1
2016-Dec-02 20:32N 30°59' E 121°22'293024.0
2016-Dec-02 20:32N 31°28' E 121°25'462416155.2
2016-Dec-02 20:32N 24°24' E 117°57'780401301.6
2016-Dec-02 20:32N 36°49' E 122°28'33033938.1
2016-Dec-02 20:31N 31°22' E 121°30'830419.2
2016-Dec-02 20:31N 31°29' E 121°25'187117.8
2016-Dec-02 20:31N 31°41' E 121°09'32115327.7
2016-Dec-02 20:31N 31°15' E 121°31'16810.2
2016-Dec-02 20:30N 31°30' E 121°24'65938261.4
2016-Dec-02 20:29N 23°04' E 113°29'202577.5
2016-Dec-02 20:28N 22°45' E 113°24'672483652.1
2016-Dec-02 20:28N 32°03' E 120°25'765920.9
2016-Dec-02 20:27N 31°20' E 121°39'292858.9
2016-Dec-02 20:27N 31°40' E 121°14'1494.3
2016-Dec-02 20:18N 31°29' E 121°25'9386.4
2016-Dec-02 20:17N 31°24' E 121°34'10147.8
2016-Dec-02 20:12N 31°20' E 121°23'455699.7
2016-Dec-02 19:33N 24°15' E 118°19'47099448.1
2016-Dec-02 19:33N 31°37' E 121°18'253597.3
2016-Dec-02 19:33N 31°15' E 121°31'327686.2
2016-Dec-02 19:33N 31°41' E 121°09'4415764.3
2016-Dec-02 19:32N 30°59' E 121°22'31860.4
2016-Dec-02 19:30N 31°29' E 121°25'851.4
2016-Dec-02 19:20N 31°22' E 121°30'45947163.9
2016-Dec-02 19:20N 24°24' E 117°57'3512842859.8
2016-Dec-02 19:19S 23°47' E 151°11'376689780.6
2016-Dec-02 19:17N 31°30' E 121°24'65911981.2
2016-Dec-02 19:14N 23°04' E 113°29'66042451.1
2016-Dec-02 19:13N 31°40' E 121°14'15450.0
2016-Dec-02 19:11N 31°28' E 121°25'8224.0
2016-Dec-02 19:09N 31°24' E 121°34'10188.4
2016-Dec-02 19:05N 31°20' E 121°23'1833.5
2016-Dec-02 18:33N 31°37' E 121°18'47070492.7
2016-Dec-02 18:33N 24°17' E 118°11'26974363.0
2016-Dec-02 18:33N 23°04' E 113°29'635253936.2
2016-Dec-02 18:32N 30°59' E 121°22'417822.3
2016-Dec-02 18:32N 31°40' E 121°14'415747.9
2016-Dec-02 18:32N 31°41' E 121°09'81623.4
2016-Dec-02 18:32N 31°37' E 121°17'115105.1
2016-Dec-02 18:32N 31°28' E 121°25'1237.5
2016-Dec-02 18:31N 31°29' E 121°25'151839.6
2016-Dec-02 18:31N 31°15' E 121°31'16324.8
2016-Dec-02 18:28N 31°30' E 121°24'10748.2
2016-Dec-02 18:27N 31°24' E 121°34'4340.5
2016-Dec-02 18:26N 31°22' E 121°30'6502.5
2016-Dec-02 18:26N 31°20' E 121°23'302281.2
2016-Dec-02 18:25N 31°45' E 121°03'1152238.7
2016-Dec-02 18:22N 29°55' E 121°39'60015894.3
2016-Dec-02 18:19N 23°04' E 113°29'661863.2
2016-Dec-02 17:34N 31°38' E 121°18'1125.5
2016-Dec-02 17:33N 31°37' E 121°18'829300.1
2016-Dec-02 17:33N 31°41' E 121°09'659182493.1
2016-Dec-02 17:33N 23°04' E 113°29'63563482.8
2016-Dec-02 17:32N 30°59' E 121°22'413095.4
2016-Dec-02 17:32N 31°40' E 121°14'2381622.4
2016-Dec-02 17:32N 31°24' E 121°34'81375.9
2016-Dec-02 17:31N 31°28' E 121°25'14611.9
2016-Dec-02 17:30N 31°15' E 121°31'253103.3
2016-Dec-02 17:29N 31°37' E 121°17'101119.5
2016-Dec-02 17:29N 31°29' E 121°25'9399.7
2016-Dec-02 17:28N 31°22' E 121°30'34388.4
2016-Dec-02 17:22N 31°46' E 121°02'253008.9
2016-Dec-02 17:22N 31°30' E 121°24'6674286.4
2016-Dec-02 17:12N 22°51' E 113°34'263139.4
2016-Dec-02 17:12N 22°31' E 113°51'6744650.0
2016-Dec-02 17:03N 31°20' E 121°39'612.0
2016-Dec-02 16:33N 31°24' E 121°34'2340750.2
2016-Dec-02 16:33N 31°40' E 121°14'2814607.3
2016-Dec-02 16:33N 31°15' E 121°31'3257646.4
2016-Dec-02 16:33N 31°41' E 121°09'87425.3
2016-Dec-02 16:33N 31°37' E 121°18'184400.0
2016-Dec-02 16:33N 31°22' E 121°30'674606901.0
2016-Dec-02 16:33N 22°45' E 113°24'194032.1
2016-Dec-02 16:33N 23°03' E 113°30'662297768.6
2016-Dec-02 16:32N 31°38' E 121°18'3920183.1
2016-Dec-02 16:32N 30°59' E 121°22'313601.8
2016-Dec-02 16:32N 31°30' E 121°24'464139088.9
2016-Dec-02 16:32N 24°24' E 117°57'46826327.0
2016-Dec-02 16:31N 31°37' E 121°18'1097.1
2016-Dec-02 16:25N 31°29' E 121°25'6672651.3
2016-Dec-02 16:09N 22°51' E 113°34'66615670.9
2016-Dec-02 16:07N 31°28' E 121°25'67214408.3
2016-Dec-02 16:04N 22°31' E 113°52'253489.6
2016-Dec-02 15:33N 24°24' E 117°58'467336585.2
2016-Dec-02 15:33N 31°37' E 121°18'259925.5
2016-Dec-02 15:33N 31°15' E 121°31'3238477.9
2016-Dec-02 15:33N 31°41' E 121°09'659131889.2
2016-Dec-02 15:33N 23°03' E 113°30'635254066.4
2016-Dec-02 15:32N 30°59' E 121°22'381193.5
2016-Dec-02 15:30N 31°37' E 121°18'10378.3
2016-Dec-02 15:29N 31°29' E 121°25'10416.4
2016-Dec-02 15:27N 31°38' E 121°18'10374.4
2016-Dec-02 15:26N 31°30' E 121°25'9315.9
2016-Dec-02 15:24N 31°23' E 121°30'65713356.9
2016-Dec-02 15:21N 23°04' E 113°29'6606064.6
2016-Dec-02 15:15N 31°40' E 121°14'6687638.7
2016-Dec-02 15:09N 22°51' E 113°34'144141.7
2016-Dec-02 15:09N 23°04' E 113°29'660182817.6
2016-Dec-02 15:09N 31°24' E 121°34'7466.2
2016-Dec-02 15:08N 31°28' E 121°26'461799.5
2016-Dec-02 14:34N 24°22' E 118°08'26639967.4
2016-Dec-02 14:33N 23°03' E 113°30'66252937.6
2016-Dec-02 14:32N 31°38' E 121°18'11357.6
2016-Dec-02 14:32N 31°37' E 121°18'81020.9
2016-Dec-02 14:32N 31°41' E 121°09'17485.2
2016-Dec-02 14:30N 31°30' E 121°25'92603.2
2016-Dec-02 14:29N 31°24' E 121°34'1709.4
2016-Dec-02 14:29N 31°25' E 121°33'66720714.2
2016-Dec-02 14:27N 22°51' E 113°34'14512.6
2016-Dec-02 14:26N 23°04' E 113°29'0 1.9
2016-Dec-02 14:24N 23°04' E 113°29'66174331.7
2016-Dec-02 14:23N 31°37' E 121°18'54944.6
2016-Dec-02 14:20N 31°58' E 120°19'741472.8
2016-Dec-02 14:17N 31°15' E 121°31'3244.4
2016-Dec-02 13:33N 31°41' E 121°09'13077814.9
2016-Dec-02 13:33N 29°42' E 122°07'38893166.5
2016-Dec-02 13:33N 24°16' E 118°09'47041301.0
2016-Dec-02 13:32N 31°37' E 121°16'572820.9
2016-Dec-02 13:31N 31°56' E 120°13'584561.9
2016-Dec-02 13:30N 31°38' E 121°18'142.4
2016-Dec-02 13:29N 31°37' E 121°18'9343.3
2016-Dec-02 13:28N 31°30' E 121°25'1111.8
2016-Dec-02 12:33N 31°38' E 121°17'12437344.4
2016-Dec-02 12:33N 29°42' E 122°07'12935719.2
2016-Dec-02 12:33N 31°41' E 121°10'5818855.3
2016-Dec-02 12:33N 31°57' E 120°05'477343434.0
2016-Dec-02 12:33N 24°12' E 118°04'44366479.1
2016-Dec-02 12:32N 30°59' E 121°22'183027.9
2016-Dec-02 12:32N 31°15' E 121°31'161026.0
2016-Dec-02 12:31N 31°30' E 121°25'9585.7
2016-Dec-02 12:30N 31°37' E 121°18'66116868.7
2016-Dec-02 12:28N 23°04' E 113°29'66018567.8
2016-Dec-02 12:26N 31°24' E 121°34'294773.8
2016-Dec-02 12:25N 31°43' E 121°07'66094995.4
2016-Dec-02 12:25N 23°03' E 113°30'66016975.5
2016-Dec-02 12:23N 31°25' E 121°33'66021398.8
2016-Dec-02 12:21N 23°04' E 113°29'6602764.4
2016-Dec-02 12:06N 31°40' E 121°14'14366.4
2016-Dec-02 12:04N 31°29' E 121°25'113220.1
2016-Dec-02 11:33N 29°42' E 122°05'10152039.5
2016-Dec-02 11:33N 31°20' E 121°39'2618556.9
2016-Dec-02 11:33N 31°38' E 121°17'264692.6
2016-Dec-02 11:33N 31°15' E 121°31'652390944.0
2016-Dec-02 11:33N 23°04' E 113°29'660475183.4
2016-Dec-02 11:33N 31°41' E 121°11'4312933.3
2016-Dec-02 11:32N 30°59' E 121°22'3813852.6
2016-Dec-02 11:32N 31°37' E 121°18'192695.1
2016-Dec-02 11:32N 31°24' E 121°34'94857.8
2016-Dec-02 11:32N 31°30' E 121°25'659263756.4
2016-Dec-02 11:32N 23°03' E 113°30'66029340.3
2016-Dec-02 11:30N 31°25' E 121°33'66043186.5
2016-Dec-02 11:29N 23°04' E 113°29'6604362.0
2016-Dec-02 11:20N 31°40' E 121°14'142461.7
2016-Dec-02 11:20N 31°29' E 121°25'149.8
2016-Dec-02 11:18N 31°28' E 121°25'686.7
2016-Dec-02 11:14N 31°25' E 121°31'812.2
2016-Dec-02 10:33N 31°20' E 121°39'3122527.0
2016-Dec-02 10:33N 31°41' E 121°11'169803.7
2016-Dec-02 10:33N 31°29' E 121°25'11180069.3
2016-Dec-02 10:33N 29°43' E 122°03'404484999.0
2016-Dec-02 10:33N 24°03' E 117°57'47753685.0
2016-Dec-02 10:32N 31°22' E 121°30'74838.2
2016-Dec-02 10:32N 31°15' E 121°31'2610430.2
2016-Dec-02 10:32N 31°38' E 121°17'1411.4
2016-Dec-02 10:32N 31°37' E 121°18'18927.8
2016-Dec-02 10:31N 31°25' E 121°33'66033932.1
2016-Dec-02 10:30N 23°04' E 113°29'65831187.9
2016-Dec-02 10:28N 31°29' E 121°25'15608.9
2016-Dec-02 10:27N 31°40' E 121°14'66044023.4
2016-Dec-02 10:26N 23°04' E 113°29'6595416.5
2016-Dec-02 10:19N 31°30' E 121°25'015.1
2016-Dec-02 10:17N 31°29' E 121°25'955.6
2016-Dec-02 10:07N 31°24' E 121°34'2035.1
2016-Dec-02 09:33N 31°39' E 121°17'267835.5
2016-Dec-02 09:33N 31°15' E 121°31'652156377.6
2016-Dec-02 09:33N 23°04' E 113°29'65981774.4
2016-Dec-02 09:32N 31°29' E 121°25'91263.9
2016-Dec-02 09:32N 31°24' E 121°34'91479.0
2016-Dec-02 09:31N 31°30' E 121°25'1017228.6
2016-Dec-02 09:31N 31°38' E 121°18'66138388.8
2016-Dec-02 09:30N 23°04' E 113°29'660113144.5
2016-Dec-02 09:30N 31°41' E 121°11'3123.9
2016-Dec-02 09:29N 31°40' E 121°14'295196.8
2016-Dec-02 09:28N 31°16' E 121°33'8916825.8
2016-Dec-02 09:28N 29°52' E 122°08'97507.0
2016-Dec-02 09:16N 31°25' E 121°33'1926.5
2016-Dec-02 08:33N 31°39' E 121°17'66185042.6
2016-Dec-02 08:33N 23°04' E 113°29'616316544.6
2016-Dec-02 08:33N 29°58' E 121°59'8219643.7
2016-Dec-02 08:33N 31°17' E 121°34'3656.2
2016-Dec-02 08:32N 31°15' E 121°31'1513616.0
2016-Dec-02 08:32N 31°29' E 121°25'172501.0
2016-Dec-02 08:32N 31°41' E 121°11'3295.7
2016-Dec-02 08:31N 31°40' E 121°14'22477.6
2016-Dec-02 08:28N 31°25' E 121°33'182990.4
2016-Dec-02 08:28N 31°38' E 121°18'10270.5
2016-Dec-02 08:26N 31°30' E 121°24'10953.2
2016-Dec-02 08:25N 31°38' E 121°18'1893170334.8
2016-Dec-02 08:25N 00°06' E 122°13'188424755.9
2016-Dec-02 08:20N 31°29' E 121°25'3725931.0
2016-Dec-02 08:16N 37°42' E 121°09'3783316.5
2016-Dec-02 08:09N 31°24' E 121°34'27396.1
2016-Dec-02 08:05N 30°59' E 121°22'4381.3
2016-Dec-02 07:33N 31°41' E 121°11'432357.2
2016-Dec-02 07:32N 30°59' E 121°22'3935038.6
2016-Dec-02 07:32N 31°38' E 121°18'10487.1
2016-Dec-02 07:31N 31°29' E 121°25'111146.9
2016-Dec-02 07:30N 31°39' E 121°17'11954.8
2016-Dec-02 07:30N 31°29' E 121°25'1101.1
2016-Dec-02 07:29N 31°30' E 121°24'1089.9
2016-Dec-02 07:23N 31°38' E 121°18'19252.5
2016-Dec-02 07:18N 31°24' E 121°32'91945.7
2016-Dec-02 07:18N 31°15' E 121°31'71654.8
2016-Dec-02 07:18N 31°22' E 121°30'4535.6
2016-Dec-02 07:17N 31°25' E 121°33'22161.5
2016-Dec-02 07:09N 31°40' E 121°14'66011947.3
2016-Dec-02 07:06N 23°04' E 113°29'6521200.4
2016-Dec-02 06:33N 31°15' E 121°31'262197.7
2016-Dec-02 06:33N 31°39' E 121°17'267913.7
2016-Dec-02 06:33N 31°14' E 121°29'3748287113.8
2016-Dec-02 06:32S 23°46' E 151°11'3778161903.9
2016-Dec-02 06:30N 31°40' E 121°14'4188.5
2016-Dec-02 06:29N 31°38' E 121°18'0107.4
2016-Dec-02 06:29N 31°38' E 121°18'66127055.8
2016-Dec-02 06:27N 23°04' E 113°29'6596497.3
2016-Dec-02 06:21N 31°30' E 121°25'035.3
2016-Dec-02 06:21N 31°29' E 121°25'66053993.0
2016-Dec-02 06:20N 23°02' E 113°31'66111669.7
2016-Dec-02 06:17N 31°21' E 121°39'6225.2
2016-Dec-02 06:15N 31°24' E 121°34'2749114.4
2016-Dec-02 06:15N 30°59' E 121°22'3144.0
2016-Dec-02 05:33N 31°29' E 121°25'102664.6
2016-Dec-02 05:33N 31°38' E 121°18'53411.6
2016-Dec-02 05:33N 31°34' E 121°20'62460.8
2016-Dec-02 05:33N 31°29' E 121°25'115862.7
2016-Dec-02 05:33N 31°39' E 121°17'11583.7
2016-Dec-02 05:32N 31°30' E 121°24'101377.5
2016-Dec-02 05:31N 31°38' E 121°18'21556.6
2016-Dec-02 05:29N 31°23' E 121°34'3112.6
2016-Dec-02 05:28N 31°25' E 121°33'10493.0
2016-Dec-02 05:26N 31°15' E 121°31'652234592.4
2016-Dec-02 05:26N 23°04' E 113°29'63510884.0
2016-Dec-02 05:23N 30°59' E 121°22'277016.3
2016-Dec-02 05:23N 31°24' E 121°34'25191.6
2016-Dec-02 05:15N 31°41' E 121°11'022.6
2016-Dec-02 05:14N 31°41' E 121°11'6606140.6
2016-Dec-02 05:07N 23°03' E 113°30'2333680.5
2016-Dec-02 05:03N 23°48' E 117°39'5071016.2
2016-Dec-02 04:34N 31°37' E 121°16'267121.8
2016-Dec-02 04:33N 31°15' E 121°31'264284.3
2016-Dec-02 04:33N 31°38' E 121°16'1145.3
2016-Dec-02 04:32N 31°39' E 121°17'1454.8
2016-Dec-02 04:32N 31°38' E 121°18'10261.8
2016-Dec-02 04:30N 31°29' E 121°25'95317.9
2016-Dec-02 04:30N 31°24' E 121°34'2157.4
2016-Dec-02 04:29N 31°23' E 121°34'357.9
2016-Dec-02 04:26N 31°25' E 121°33'9242.2
2016-Dec-02 04:24N 31°30' E 121°24'65936497.0
2016-Dec-02 04:23N 23°04' E 113°29'65621480.0
2016-Dec-02 04:21N 31°22' E 121°30'156733.3
2016-Dec-02 04:21N 31°34' E 121°20'18219.4
2016-Dec-02 04:16N 31°21' E 121°32'560.4
2016-Dec-02 04:11N 31°26' E 121°31'2 3.0
2016-Dec-02 03:33N 31°25' E 121°33'43190.9
2016-Dec-02 03:33N 31°22' E 121°30'2618360.7
2016-Dec-02 03:33N 31°41' E 121°10'74846.7
2016-Dec-02 03:33N 31°38' E 121°17'6989.8
2016-Dec-02 03:33N 31°33' E 121°20'5502.5
2016-Dec-02 03:32N 31°29' E 121°25'98265.9
2016-Dec-02 03:32N 31°24' E 121°34'102451.3
2016-Dec-02 03:32N 31°30' E 121°24'93199.9
2016-Dec-02 03:32N 31°22' E 121°30'18253.2
2016-Dec-02 03:27N 31°38' E 121°18'71763.7
2016-Dec-02 03:27N 31°41' E 121°10'31799.1
2016-Dec-02 03:25N 31°15' E 121°31'31983.8
2016-Dec-02 03:23N 31°41' E 121°11'575568.2
2016-Dec-02 03:22N 31°57' E 120°06'647233039.1
2016-Dec-02 03:22N 22°51' E 113°34'132519.0
2016-Dec-02 03:22N 23°03' E 113°30'1201.4
2016-Dec-02 03:21N 23°04' E 113°29'6598350.0
2016-Dec-02 03:17N 31°29' E 121°25'659131759.0
2016-Dec-02 03:16N 23°04' E 113°29'65911523.4
2016-Dec-02 03:13N 31°23' E 121°34'1071.6
2016-Dec-02 03:04N 31°29' E 121°25'1122.0
2016-Dec-02 02:33N 31°38' E 121°17'2631290.5
2016-Dec-02 02:33N 31°15' E 121°31'1628176.9
2016-Dec-02 02:33N 31°29' E 121°23'9520211.8
2016-Dec-02 02:33N 29°58' E 121°56'11028242.6
2016-Dec-02 02:33N 31°41' E 121°11'623181.6
2016-Dec-02 02:32N 31°58' E 120°01'519531.3
2016-Dec-02 02:32N 32°02' E 119°57'702182.9
2016-Dec-02 02:30N 31°38' E 121°14'4712.5
2016-Dec-02 02:29N 31°38' E 121°18'1816034.8
2016-Dec-02 02:29N 31°25' E 121°33'66037707.7
2016-Dec-02 02:28N 23°04' E 113°29'144456.6
2016-Dec-02 02:28N 22°51' E 113°34'66447806.0
2016-Dec-02 02:27N 31°22' E 121°30'492.1
2016-Dec-02 02:25N 31°24' E 121°34'9821.0
2016-Dec-02 02:24N 31°29' E 121°25'6125.1
2016-Dec-02 02:21N 31°26' E 121°30'5131.9
2016-Dec-02 02:19N 31°23' E 121°34'111892.4
2016-Dec-02 02:19N 31°29' E 121°25'0 6.5
2016-Dec-02 02:16N 31°29' E 121°25'1 8.0
2016-Dec-02 02:11N 31°30' E 121°25'813.6
2016-Dec-02 01:33N 31°25' E 121°33'186417.0
2016-Dec-02 01:33N 31°38' E 121°18'662793884.5
2016-Dec-02 01:33N 23°03' E 113°30'660215876.2
2016-Dec-02 01:33N 31°41' E 121°10'11823570.5
2016-Dec-02 01:33N 29°54' E 122°08'11534491.7
2016-Dec-02 01:32N 31°39' E 121°14'31048.2
2016-Dec-02 01:32N 31°41' E 121°11'2517701.8
2016-Dec-02 01:32N 31°22' E 121°30'4812.6
2016-Dec-02 01:32N 31°24' E 121°34'114274.2
2016-Dec-02 01:32N 31°30' E 121°23'101460.6
2016-Dec-02 01:31N 31°38' E 121°17'2631290.5
2016-Dec-02 01:31N 31°15' E 121°31'15642.0
2016-Dec-02 01:30N 31°29' E 121°25'0 5.5
2016-Dec-02 01:29N 31°29' E 121°25'111277.1
2016-Dec-02 01:28N 31°23' E 121°34'11296.3
2016-Dec-02 01:26N 31°30' E 121°25'31205.1
2016-Dec-02 01:17N 30°59' E 121°22'311099.0
2016-Dec-02 01:15N 31°29' E 121°24'65810581.4
2016-Dec-02 01:11N 23°04' E 113°29'0 4.6
2016-Dec-02 01:09N 23°04' E 113°29'1 2.1
2016-Dec-02 00:34N 23°03' E 113°30'652156460.7
2016-Dec-02 00:33N 31°15' E 121°31'151747.6
2016-Dec-02 00:33N 31°29' E 121°25'103076.3
2016-Dec-02 00:33N 31°38' E 121°18'1138.4
2016-Dec-02 00:32N 31°38' E 121°17'19598.1
2016-Dec-02 00:30N 31°25' E 121°33'814706.1
2016-Dec-02 00:30N 31°29' E 121°25'103621.7
2016-Dec-02 00:30N 31°24' E 121°35'271447.9
2016-Dec-02 00:29N 30°59' E 121°22'334152.4
2016-Dec-02 00:28N 31°32' E 121°20'16386.6
2016-Dec-02 00:26N 31°23' E 121°35'111309.7
2016-Dec-02 00:25N 31°30' E 121°25'93509.8
2016-Dec-02 00:25N 31°22' E 121°30'8252.7
2016-Dec-02 00:23N 31°29' E 121°25'6597457.5
2016-Dec-02 00:18N 23°04' E 113°29'6588490.5
2016-Dec-02 00:13N 31°30' E 121°23'914.2
2016-Dec-01 23:33N 31°25' E 121°33'107128671.9
2016-Dec-01 23:33N 29°42' E 122°06'9810736.6
2016-Dec-01 23:33N 31°15' E 121°31'266705.1
2016-Dec-01 23:33N 31°38' E 121°17'101738.8
2016-Dec-01 23:32N 31°30' E 121°23'1144.0
2016-Dec-01 23:32N 31°30' E 121°25'101229.3
2016-Dec-01 23:31N 31°38' E 121°18'2133.5
2016-Dec-01 23:30N 31°37' E 121°16'11515.6
2016-Dec-01 23:29N 31°29' E 121°25'659790585.3
2016-Dec-01 23:29N 23°04' E 113°29'635326520.2
2016-Dec-01 23:29N 30°59' E 121°22'63567252.0
2016-Dec-01 23:28N 23°03' E 113°30'660593659.6
2016-Dec-01 23:28N 31°41' E 121°10'281296.3
2016-Dec-01 23:27N 31°23' E 121°35'115.4
2016-Dec-01 23:24N 31°22' E 121°35'2172.7
2016-Dec-01 23:24N 31°24' E 121°35'5122.5
2016-Dec-01 23:21N 31°22' E 121°30'8984.3
2016-Dec-01 23:21N 31°29' E 121°25'6594579.5
2016-Dec-01 23:12N 23°04' E 113°29'6521008.0
2016-Dec-01 22:33N 31°15' E 121°31'102472.2
2016-Dec-01 22:33N 31°24' E 121°35'2732729.0
2016-Dec-01 22:33N 30°59' E 121°22'405718.0
2016-Dec-01 22:33N 31°38' E 121°17'112652.6
2016-Dec-01 22:32N 31°29' E 121°25'6591186399.2
2016-Dec-01 22:32N 23°03' E 113°30'658112867.6
2016-Dec-01 22:32N 31°30' E 121°23'658215350.1
2016-Dec-01 22:32N 23°04' E 113°29'65914038.0
2016-Dec-01 22:29N 31°30' E 121°25'659263640.3
2016-Dec-01 22:29N 23°04' E 113°29'66133063.5
2016-Dec-01 22:28N 31°38' E 121°18'21411.8
2016-Dec-01 22:25N 31°23' E 121°35'11159.8
2016-Dec-01 22:21N 31°29' E 121°25'3 3.6
2016-Dec-01 21:33N 31°27' E 121°27'141018.0
2016-Dec-01 21:33N 31°38' E 121°17'662103567.8
2016-Dec-01 21:32N 23°03' E 113°30'6591186425.2
2016-Dec-01 21:32N 31°29' E 121°25'659131766.2
2016-Dec-01 21:32N 23°04' E 113°29'659215690.0
2016-Dec-01 21:32N 31°30' E 121°25'10731.6
2016-Dec-01 21:31N 31°38' E 121°18'5615.1
2016-Dec-01 21:30N 31°40' E 121°13'151583.2
2016-Dec-01 21:30N 31°29' E 121°25'020.0
2016-Dec-01 21:29N 31°29' E 121°25'8412.3
2016-Dec-01 21:27N 31°22' E 121°30'10463.5
2016-Dec-01 21:26N 31°30' E 121°23'1011.6
2016-Dec-01 20:33N 31°38' E 121°17'72808.5
2016-Dec-01 20:33N 31°32' E 121°20'6592371012.1
2016-Dec-01 20:33N 23°03' E 113°30'66276822.6
2016-Dec-01 20:33N 31°38' E 121°18'10999.3
2016-Dec-01 20:32N 31°29' E 121°25'65913034.1
2016-Dec-01 20:29N 23°04' E 113°29'659263491.2
2016-Dec-01 20:29N 31°29' E 121°25'659338817.5
2016-Dec-01 20:29N 23°04' E 113°29'61043926.3
2016-Dec-01 20:28N 29°45' E 122°03'1113461.7
2016-Dec-01 20:26N 31°30' E 121°23'1857.1
2016-Dec-01 20:26N 31°30' E 121°25'9866.6
2016-Dec-01 20:25N 31°22' E 121°30'23138.0
2016-Dec-01 20:15N 31°40' E 121°13'1585.5
2016-Dec-01 20:05N 31°29' E 121°25'1 2.6
2016-Dec-01 19:33N 31°30' E 121°23'101403.0
2016-Dec-01 19:33N 31°37' E 121°16'66079175.0
2016-Dec-01 19:32N 23°03' E 113°30'620743571.4
2016-Dec-01 19:32N 29°53' E 122°09'11310430.1
2016-Dec-01 19:32N 31°38' E 121°18'52506.0
2016-Dec-01 19:32N 31°40' E 121°13'46848.4
2016-Dec-01 19:32N 31°39' E 121°17'39951348.6
2016-Dec-01 19:31N 38°18' E 121°05'39737579.0
2016-Dec-01 19:30N 31°41' E 121°11'66025012.4
2016-Dec-01 19:29N 23°04' E 113°29'635457124.7
2016-Dec-01 19:29N 30°59' E 121°22'311072.4
2016-Dec-01 19:27N 31°30' E 121°24'115.9
2016-Dec-01 19:25N 31°29' E 121°25'65945603.6
2016-Dec-01 19:24N 23°04' E 113°29'65976520.2
2016-Dec-01 19:24N 31°29' E 121°25'1315.2
2016-Dec-01 18:33N 31°38' E 121°14'10718392.8
2016-Dec-01 18:33N 29°58' E 121°58'1076633.0
2016-Dec-01 18:32N 31°39' E 121°17'21107.3
2016-Dec-01 18:32N 31°38' E 121°15'4013059.8
2016-Dec-01 18:32N 30°59' E 121°22'445323.1
2016-Dec-01 18:31N 31°42' E 121°09'9844.2
2016-Dec-01 18:31N 31°38' E 121°18'10781.5
2016-Dec-01 18:30N 31°30' E 121°24'40773323.1
2016-Dec-01 18:30N 38°17' E 121°01'99385085.2
2016-Dec-01 18:29N 23°03' E 113°30'65862379.2
2016-Dec-01 18:28N 31°30' E 121°23'1268.7
2016-Dec-01 18:28N 31°29' E 121°25'65971886.3
2016-Dec-01 18:27N 23°04' E 113°29'6592603.2
2016-Dec-01 18:12N 31°29' E 121°25'992.3
2016-Dec-01 18:06N 31°22' E 121°30'712.6
2016-Dec-01 17:34N 31°15' E 121°31'276081.3
2016-Dec-01 17:33N 31°38' E 121°14'67522.9
2016-Dec-01 17:33N 31°34' E 121°19'403289852.7
2016-Dec-01 17:33N 38°16' E 120°58'3981431920.4
2016-Dec-01 17:33N 31°39' E 121°17'11597.3
2016-Dec-01 17:32N 31°29' E 121°25'1056.7
2016-Dec-01 17:21N 31°38' E 121°18'101118.7
2016-Dec-01 17:21N 31°29' E 121°25'145.9
2016-Dec-01 17:20N 31°30' E 121°24'3113956.9
2016-Dec-01 17:20N 30°59' E 121°22'241013.4
2016-Dec-01 17:18N 31°22' E 121°30'65617501.9
2016-Dec-01 17:16N 23°04' E 113°29'0 2.4
2016-Dec-01 17:12N 23°04' E 113°29'65832903.4
2016-Dec-01 17:11N 31°30' E 121°23'6585315.1
2016-Dec-01 17:04N 23°03' E 113°30'6601304.9
2016-Dec-01 16:33N 31°38' E 121°14'3519.1
2016-Dec-01 16:33N 31°39' E 121°17'114993.6
2016-Dec-01 16:33N 31°29' E 121°25'167.3
2016-Dec-01 16:32N 31°30' E 121°25'103217.2
2016-Dec-01 16:32N 31°38' E 121°18'934156.8
2016-Dec-01 16:32N 31°30' E 121°24'181663.1
2016-Dec-01 16:31N 31°13' E 121°30'171693.4
2016-Dec-01 16:31N 31°29' E 121°25'53159.2
2016-Dec-01 16:31N 31°32' E 121°20'331147.9
2016-Dec-01 16:29N 30°59' E 121°22'63557141.3
2016-Dec-01 16:28N 23°04' E 113°29'012.1
2016-Dec-01 16:27N 23°04' E 113°29'14322.2
2016-Dec-01 16:25N 22°51' E 113°34'66659930.3
2016-Dec-01 16:24N 31°30' E 121°23'161900.7
2016-Dec-01 16:24N 31°15' E 121°31'6525069.1
2016-Dec-01 16:16N 23°03' E 113°30'66019320.7
2016-Dec-01 16:14N 31°41' E 121°11'710.6
2016-Dec-01 15:33N 31°38' E 121°18'43156.9
2016-Dec-01 15:33N 31°38' E 121°14'1181.0
2016-Dec-01 15:33N 31°39' E 121°14'221215.7
2016-Dec-01 15:32N 31°22' E 121°30'2011886.9
2016-Dec-01 15:32N 31°38' E 121°17'4023825.2
2016-Dec-01 15:32N 30°59' E 121°22'312902.1
2016-Dec-01 15:31N 31°30' E 121°23'1254.4
2016-Dec-01 15:31N 31°29' E 121°25'6482.8
2016-Dec-01 15:30N 31°25' E 121°30'61702.9
2016-Dec-01 15:30N 31°29' E 121°25'1214.2
2016-Dec-01 15:30N 31°30' E 121°24'122193.2
2016-Dec-01 15:29N 31°38' E 121°15'272656.2
2016-Dec-01 15:29N 31°15' E 121°31'652156377.7
2016-Dec-01 15:29N 23°04' E 113°29'6544812.7
2016-Dec-01 15:20N 31°16' E 121°33'375333695.1
2016-Dec-01 15:14S 23°50' E 151°15'0 0.0
2016-Dec-01 14:34S 23°50' E 151°15'37612256402.5
2016-Dec-01 14:33N 31°22' E 121°28'194613.0
2016-Dec-01 14:33N 31°38' E 121°17'34908.1
2016-Dec-01 14:33N 31°38' E 121°14'4274.5
2016-Dec-01 14:32N 31°38' E 121°18'5476.0
2016-Dec-01 14:32N 31°39' E 121°13'239089.6
2016-Dec-01 14:32N 31°22' E 121°30'65787551.0
2016-Dec-01 14:31N 23°03' E 113°30'659182604.8
2016-Dec-01 14:31N 31°30' E 121°25'9277.1
2016-Dec-01 14:29N 31°36' E 121°17'66091362.4
2016-Dec-01 14:29N 23°04' E 113°29'63513767.3
2016-Dec-01 14:26N 30°59' E 121°22'312902.1
2016-Dec-01 14:25N 31°30' E 121°23'158.5
2016-Dec-01 14:24N 31°30' E 121°25'0 3.9
2016-Dec-01 14:19N 31°29' E 121°25'5474736.1
2016-Dec-01 14:12N 23°19' E 116°50'54798488.3
2016-Dec-01 14:11N 31°29' E 121°25'5732.8
2016-Dec-01 14:11N 31°26' E 121°28'658148045.2
2016-Dec-01 14:11N 23°04' E 113°29'65920093.7
2016-Dec-01 14:09N 31°29' E 121°25'1119.0
2016-Dec-01 13:34N 31°38' E 121°17'229919.7
2016-Dec-01 13:33N 31°21' E 121°32'2118845.0
2016-Dec-01 13:33N 31°38' E 121°18'103966.3
2016-Dec-01 13:33N 31°30' E 121°25'6707.9
2016-Dec-01 13:33N 31°34' E 121°20'6874.6
2016-Dec-01 13:32N 31°38' E 121°14'1323287.0
2016-Dec-01 13:32N 31°29' E 121°25'398753.4
2016-Dec-01 13:32N 31°01' E 120°54'4112376.2
2016-Dec-01 13:32N 31°39' E 121°13'554249462.2
2016-Dec-01 13:32N 23°17' E 116°48'55022755.8
2016-Dec-01 13:30N 31°30' E 121°23'8484.7
2016-Dec-01 13:29N 31°24' E 121°31'726109.5
2016-Dec-01 13:29N 31°29' E 121°25'65979049.7
2016-Dec-01 13:29N 23°04' E 113°29'65812604.4
2016-Dec-01 13:25N 31°31' E 121°21'181583.1
2016-Dec-01 13:25N 31°15' E 121°31'3862.9
2016-Dec-01 13:25N 31°17' E 121°34'15602.7
2016-Dec-01 13:23N 31°30' E 121°25'3769191128.9
2016-Dec-01 13:22S 23°50' E 151°15'376442345.9
2016-Dec-01 13:17N 31°26' E 121°28'658236988.8
2016-Dec-01 13:16N 23°03' E 113°30'65713355.4
2016-Dec-01 13:13N 31°22' E 121°30'780.4
2016-Dec-01 13:08N 31°23' E 121°38'2543.5
2016-Dec-01 12:33N 31°38' E 121°14'37821701781.3
2016-Dec-01 12:33S 23°50' E 151°15'377213577728.9
2016-Dec-01 12:33N 31°31' E 121°22'105046.1
2016-Dec-01 12:33N 31°24' E 121°30'547197060.7
2016-Dec-01 12:33N 23°21' E 116°41'549282550.8
2016-Dec-01 12:33N 31°30' E 121°24'1118973.2
2016-Dec-01 12:33N 31°38' E 121°17'114544.5
2016-Dec-01 12:33N 31°29' E 121°25'101153.6
2016-Dec-01 12:32N 31°38' E 121°18'195175.3
2016-Dec-01 12:32N 31°22' E 121°30'9679.3
2016-Dec-01 12:31N 31°13' E 121°30'302485.4
2016-Dec-01 12:30N 31°39' E 121°13'6883.7
2016-Dec-01 12:30N 31°35' E 121°18'233890.0
2016-Dec-01 12:30N 31°15' E 121°31'162089.2
2016-Dec-01 12:29N 31°30' E 121°25'65910406.1
2016-Dec-01 12:25N 23°04' E 113°29'0 4.0
2016-Dec-01 12:23N 23°04' E 113°29'1168.2
2016-Dec-01 12:22N 23°03' E 113°30'131084.6
2016-Dec-01 12:22N 22°51' E 113°34'66722637.2
2016-Dec-01 12:20N 31°29' E 121°25'941.9
2016-Dec-01 12:07N 31°22' E 121°30'546968.4
2016-Dec-01 11:34N 23°23' E 116°33'5531989097.9
2016-Dec-01 11:34N 31°35' E 121°18'6602374814.8
2016-Dec-01 11:33N 23°05' E 113°27'662183319.2
2016-Dec-01 11:33N 31°38' E 121°17'2693871.5
2016-Dec-01 11:33N 31°15' E 121°31'29105761.2
2016-Dec-01 11:33N 31°40' E 121°13'2278950.3
2016-Dec-01 11:33N 31°24' E 121°30'71849.2
2016-Dec-01 11:33N 31°29' E 121°25'10322.7
2016-Dec-01 11:31N 31°38' E 121°18'5119.9
2016-Dec-01 11:29N 31°39' E 121°13'131815.1
2016-Dec-01 11:28N 31°30' E 121°23'92074.9
2016-Dec-01 11:28N 31°24' E 121°31'8622.9
2016-Dec-01 11:27N 31°29' E 121°25'111.4
2016-Dec-01 11:24N 31°30' E 121°25'1417.3
2016-Dec-01 10:34N 31°40' E 121°13'2505.3
2016-Dec-01 10:33N 31°41' E 121°11'164792.2
2016-Dec-01 10:33N 31°30' E 121°25'111603.0
2016-Dec-01 10:33N 31°38' E 121°17'11242.6
2016-Dec-01 10:30N 31°29' E 121°25'130.9
2016-Dec-01 10:27N 31°30' E 121°23'9163.9
2016-Dec-01 10:24N 31°38' E 121°18'10223.7
2016-Dec-01 10:21N 31°29' E 121°25'2157.3
2016-Dec-01 10:21N 31°28' E 121°27'59301.7
2016-Dec-01 10:09N 31°58' E 120°26'4373.5
2016-Dec-01 09:33N 31°40' E 121°13'51095.0
2016-Dec-01 09:33N 31°38' E 121°18'81494.6
2016-Dec-01 09:33N 31°31' E 121°23'94836.3
2016-Dec-01 09:33N 31°38' E 121°17'11272.7
2016-Dec-01 09:30N 31°29' E 121°25'253682.8
2016-Dec-01 09:30N 31°46' E 121°03'231453.0
2016-Dec-01 09:29N 31°30' E 121°23'1416488.4
2016-Dec-01 09:29N 31°40' E 121°13'1410382.9
2016-Dec-01 09:29N 31°30' E 121°25'6861349.8
2016-Dec-01 09:29N 31°57' E 120°11'761040.5
2016-Dec-01 09:24N 31°22' E 121°30'78320.0
2016-Dec-01 09:24N 31°15' E 121°31'2934.6
2016-Dec-01 08:33N 31°40' E 121°13'267653.4
2016-Dec-01 08:33N 31°21' E 121°32'657590909.1
2016-Dec-01 08:33N 23°04' E 113°29'661595199.7
2016-Dec-01 08:33N 31°38' E 121°17'187.6
2016-Dec-01 08:32N 31°38' E 121°18'8653.9
2016-Dec-01 08:32N 31°31' E 121°23'116.4
2016-Dec-01 08:28N 31°30' E 121°23'163025.3
2016-Dec-01 08:28N 31°15' E 121°31'65211116.8
2016-Dec-01 08:24N 23°04' E 113°29'65911137.3
2016-Dec-01 08:21N 31°30' E 121°25'161023.3
2016-Dec-01 08:20N 31°41' E 121°10'271805.2
2016-Dec-01 08:19N 31°23' E 121°35'734047.8
2016-Dec-01 08:18N 31°59' E 120°20'534.2
2016-Dec-01 08:08N 31°58' E 120°26'4781.2
2016-Dec-01 07:33N 31°39' E 121°17'1539.1
2016-Dec-01 07:33N 31°38' E 121°18'5385.2
2016-Dec-01 07:32N 31°40' E 121°13'20877.3
2016-Dec-01 07:31N 31°26' E 121°30'11971.2
2016-Dec-01 07:30N 31°15' E 121°31'161775.5
2016-Dec-01 07:30N 31°30' E 121°24'519475.4
2016-Dec-01 07:30N 31°26' E 121°28'674.0
2016-Dec-01 07:25N 31°30' E 121°23'281.6
2016-Dec-01 07:24N 31°29' E 121°25'2131.6
2016-Dec-01 07:23N 31°31' E 121°23'6598501.3
2016-Dec-01 07:18N 23°04' E 113°29'659148236.4
2016-Dec-01 07:18N 31°29' E 121°25'1115.0
2016-Dec-01 06:33N 31°39' E 121°17'61290.3
2016-Dec-01 06:33N 31°41' E 121°10'2963.6
2016-Dec-01 06:33N 31°40' E 121°13'162193.5
2016-Dec-01 06:33N 31°28' E 121°26'12462.1
2016-Dec-01 06:31N 31°38' E 121°18'10477.6
2016-Dec-01 06:30N 31°30' E 121°24'16611.1
2016-Dec-01 06:28N 31°15' E 121°31'15448.8
2016-Dec-01 06:26N 31°29' E 121°25'704588.3
2016-Dec-01 06:25N 31°57' E 120°09'706185.8
2016-Dec-01 06:25N 31°29' E 121°25'2270.4
2016-Dec-01 06:24N 31°30' E 121°23'58848.8
2016-Dec-01 06:20N 31°58' E 120°23'64818974.0
2016-Dec-01 06:18N 23°04' E 113°29'1478.6
2016-Dec-01 06:08N 22°51' E 113°34'6661171.7
2016-Dec-01 05:33N 31°30' E 121°22'84244.1
2016-Dec-01 05:33N 31°38' E 121°18'1554044.7
2016-Dec-01 05:33N 31°46' E 121°04'10679.6
2016-Dec-01 05:32N 31°40' E 121°13'414324.2
2016-Dec-01 05:32N 31°39' E 121°17'5511057.1
2016-Dec-01 05:32N 31°56' E 120°15'643210327.2
2016-Dec-01 05:32N 23°04' E 113°29'659169443.8
2016-Dec-01 05:32N 31°29' E 121°25'414135341.8
2016-Dec-01 05:32N 38°22' E 120°48'42896355.1
2016-Dec-01 05:31N 31°15' E 121°31'16711.0
2016-Dec-01 05:30N 31°30' E 121°24'190.6
2016-Dec-01 05:29N 31°30' E 121°23'6588840.1
2016-Dec-01 05:25N 23°04' E 113°29'6587817.9
2016-Dec-01 05:20N 31°26' E 121°28'567.2
2016-Dec-01 05:15N 31°29' E 121°25'1521.1
2016-Dec-01 04:33N 31°40' E 121°13'42046.3
2016-Dec-01 04:33N 31°39' E 121°17'276474.1
2016-Dec-01 04:33N 31°14' E 121°30'8112160.3
2016-Dec-01 04:33N 29°57' E 122°00'10216725.0
2016-Dec-01 04:32N 31°33' E 121°19'556.8
2016-Dec-01 04:27N 31°30' E 121°23'1 9.6
2016-Dec-01 04:20N 31°30' E 121°24'7466929.2
2016-Dec-01 04:20N 31°58' E 120°03'676651.0
2016-Dec-01 04:19N 31°38' E 121°18'262471.4
2016-Dec-01 04:19N 31°14' E 121°30'131.0
2016-Dec-01 04:17N 31°14' E 121°29'163111.4
2016-Dec-01 04:17N 31°29' E 121°25'054.3
2016-Dec-01 04:16N 31°29' E 121°25'15334.6
2016-Dec-01 04:14N 31°15' E 121°31'75966.9
2016-Dec-01 04:09N 31°60' E 120°20'673057.3
2016-Dec-01 04:08N 31°26' E 121°28'1525.8
2016-Dec-01 03:33N 31°36' E 121°17'94784.1
2016-Dec-01 03:33N 31°30' E 121°24'1410285.7
2016-Dec-01 03:33N 31°40' E 121°13'4609.1
2016-Dec-01 03:33N 31°38' E 121°17'277375.8
2016-Dec-01 03:33N 31°14' E 121°30'256076.2
2016-Dec-01 03:32N 31°37' E 121°17'151172.6
2016-Dec-01 03:32N 31°26' E 121°28'5335.0
2016-Dec-01 03:31N 31°29' E 121°25'2495.7
2016-Dec-01 03:31N 31°30' E 121°23'1614370.2
2016-Dec-01 03:31N 31°15' E 121°31'65216875.3
2016-Dec-01 03:28N 23°04' E 113°29'014.5
2016-Dec-01 03:28N 23°04' E 113°29'65974180.0
2016-Dec-01 03:27N 31°32' E 121°22'332.2
2016-Dec-01 03:21N 31°29' E 121°25'10614696.6
2016-Dec-01 03:21N 29°50' E 122°07'1085239.5
2016-Dec-01 03:20N 31°31' E 121°23'85932.4
2016-Dec-01 03:20N 31°38' E 121°18'24255.8
2016-Dec-01 03:14N 31°18' E 121°34'70459.2
2016-Dec-01 03:05N 31°58' E 120°25'703702.6
2016-Dec-01 03:04N 31°19' E 121°33'457906.3
2016-Dec-01 02:34N 24°19' E 118°08'470241817.5
2016-Dec-01 02:33N 31°38' E 121°17'11332.8
2016-Dec-01 02:33N 31°38' E 121°18'51844.4
2016-Dec-01 02:33N 31°40' E 121°13'295289.0
2016-Dec-01 02:33N 31°15' E 121°31'16451.9
2016-Dec-01 02:31N 31°30' E 121°25'57206925.4
2016-Dec-01 02:31N 31°59' E 120°26'6812201.3
2016-Dec-01 02:30N 31°21' E 121°32'8557.7
2016-Dec-01 02:30N 31°28' E 121°28'8289.5
2016-Dec-01 02:28N 31°21' E 121°32'11305.6
2016-Dec-01 02:26N 31°29' E 121°25'275.7
2016-Dec-01 02:25N 31°31' E 121°23'4164.2
2016-Dec-01 02:23N 31°32' E 121°19'142054.8
2016-Dec-01 02:23N 31°21' E 121°30'6562550.8
2016-Dec-01 02:07N 23°04' E 113°29'61023124.8
2016-Dec-01 02:06N 29°41' E 122°07'1153174.0
2016-Dec-01 02:04N 31°30' E 121°25'6752430878.0
2016-Dec-01 02:04N 22°19' E 114°07'6721319.0
2016-Dec-01 01:33N 31°23' E 121°30'657131364.8
2016-Dec-01 01:33N 23°04' E 113°29'661297621.2
2016-Dec-01 01:33N 31°38' E 121°17'111426.2
2016-Dec-01 01:32N 31°30' E 121°25'71871.3
2016-Dec-01 01:32N 31°25' E 121°31'2219518.9
2016-Dec-01 01:32N 31°40' E 121°13'5302.4
2016-Dec-01 01:31N 31°38' E 121°18'253002.8
2016-Dec-01 01:30N 31°15' E 121°31'152005.8
2016-Dec-01 01:30N 31°29' E 121°25'659395366.3
2016-Dec-01 01:30N 23°04' E 113°29'65843064.1
2016-Dec-01 01:29N 31°24' E 121°31'91794.6
2016-Dec-01 01:29N 31°31' E 121°23'2302.8
2016-Dec-01 01:28N 31°30' E 121°25'069.4
2016-Dec-01 01:28N 31°29' E 121°25'10283.2
2016-Dec-01 01:26N 31°21' E 121°31'1042907.5
2016-Dec-01 01:24N 29°41' E 122°07'1741565.7
2016-Dec-01 01:17N 31°58' E 120°02'6325071.9
2016-Dec-01 01:17N 31°40' E 121°13'124171.2
2016-Dec-01 00:33N 29°44' E 122°03'12131067.1
2016-Dec-01 00:33N 31°38' E 121°17'42681.3
2016-Dec-01 00:33N 31°40' E 121°13'5534.7
2016-Dec-01 00:33N 31°38' E 121°18'101817.2
2016-Dec-01 00:32N 31°30' E 121°25'8417.3
2016-Dec-01 00:31N 31°23' E 121°30'81593.0
2016-Dec-01 00:31N 31°15' E 121°31'102864.3
2016-Dec-01 00:31N 31°25' E 121°31'41836.9
2016-Dec-01 00:30N 31°27' E 121°27'59004.2
2016-Dec-01 00:30N 31°31' E 121°23'2457.0
2016-Dec-01 00:30N 31°29' E 121°25'1115.7
2016-Dec-01 00:30N 31°29' E 121°25'027.8
2016-Dec-01 00:29N 31°29' E 121°25'3113731.4
2016-Dec-01 00:29N 30°59' E 121°22'27454.7
2016-Dec-01 00:25N 31°25' E 121°32'2215951.2
2016-Dec-01 00:25N 31°40' E 121°13'58532.3
2016-Dec-01 00:19N 31°57' E 120°07'55776.3
2016-Dec-01 00:14N 31°41' E 121°10'1762545.9
2016-Dec-01 00:14N 31°30' E 121°25'65913107.5
2016-Dec-01 00:11N 23°04' E 113°29'6431023.0
2016-Nov-30 23:34N 31°18' E 121°12'2174900.8
2016-Nov-30 23:34N 31°38' E 121°17'44940.3
2016-Nov-30 23:33N 31°40' E 121°13'1731022.4
2016-Nov-30 23:33N 31°28' E 121°27'197.4
2016-Nov-30 23:33N 31°28' E 121°26'63789.4
2016-Nov-30 23:33N 31°23' E 121°30'657147803.2
2016-Nov-30 23:33N 23°04' E 113°29'641329479.3
2016-Nov-30 23:33N 31°56' E 120°11'685177.2
2016-Nov-30 23:32N 31°30' E 121°25'10562962.8
2016-Nov-30 23:32N 29°52' E 122°08'1185373.9
2016-Nov-30 23:30N 31°40' E 121°13'9335.3
2016-Nov-30 23:29N 31°33' E 121°19'6417.5
2016-Nov-30 23:28N 31°29' E 121°25'15301.7
2016-Nov-30 23:25N 31°15' E 121°31'252046.9
2016-Nov-30 23:24N 31°38' E 121°18'8423.2
2016-Nov-30 23:23N 31°31' E 121°23'65916134.1
2016-Nov-30 23:21N 23°04' E 113°29'66037139.4
2016-Nov-30 23:20N 31°40' E 121°13'11817724.0
2016-Nov-30 23:19N 29°58' E 122°22'1081127.1
2016-Nov-30 23:13N 31°32' E 121°20'529.3
2016-Nov-30 23:04N 31°29' E 121°25'1529.7
2016-Nov-30 22:33N 31°40' E 121°13'1553236.1
2016-Nov-30 22:33N 31°29' E 121°25'23399.8
2016-Nov-30 22:33N 31°30' E 121°23'1619138.5
2016-Nov-30 22:33N 31°41' E 121°09'3219242.2
2016-Nov-30 22:33N 31°15' E 121°31'191098.5
2016-Nov-30 22:32N 31°32' E 121°20'7823.9
2016-Nov-30 22:31N 31°37' E 121°15'1119937.8
2016-Nov-30 22:31N 31°30' E 121°25'10627.8
2016-Nov-30 22:30N 31°38' E 121°18'10919544.4
2016-Nov-30 22:30N 29°56' E 122°01'10018079.6
2016-Nov-30 22:30N 31°31' E 121°23'241.0
2016-Nov-30 22:27N 31°29' E 121°25'0 7.8
2016-Nov-30 22:24N 31°30' E 121°25'14559.9
2016-Nov-30 22:22N 31°40' E 121°13'241928.7
2016-Nov-30 22:22N 31°21' E 121°30'65636911.4
2016-Nov-30 22:21N 23°04' E 113°29'66036018.7
2016-Nov-30 22:20N 31°40' E 121°13'47195.4
2016-Nov-30 22:05N 32°01' E 120°23'59110.8